<?xml version="1.0" encoding="UTF-8" standalone="no" ?>
<gpx xmlns="http://www.topografix.com/GPX/1/1" xmlns:xsi="http://www.w3.org/2001/XMLSchema-instance" xsi:schemaLocation="http://www.topografix.com/GPX/1/1 http://www.topografix.com/GPX/1/1/gpx.xsd" version="1.1" creator="VisuGPX - https://www.visugpx.com">
  <metadata>
    <name>Tram Juracienne</name>
    <desc><![CDATA[Tram Juracienne, rando organisée à CHAMPAGNOLE]]></desc>
  </metadata>
  <trk>
    <name><![CDATA[tram_jura_2014-06-29-01]]></name>
    <trkseg>
      <trkpt lat="46.57309" lon="5.95239">
        <ele>920</ele>
        <time>2014-06-29T06:57:57Z</time>
      </trkpt>
      <trkpt lat="46.57311" lon="5.95241">
        <ele>918.9</ele>
        <time>2014-06-29T06:57:58Z</time>
      </trkpt>
      <trkpt lat="46.57322" lon="5.95252">
        <ele>921</ele>
        <time>2014-06-29T06:58:06Z</time>
      </trkpt>
      <trkpt lat="46.57331" lon="5.95258">
        <ele>921.5</ele>
        <time>2014-06-29T06:58:11Z</time>
      </trkpt>
      <trkpt lat="46.57345" lon="5.95268">
        <ele>919</ele>
        <time>2014-06-29T06:58:33Z</time>
      </trkpt>
      <trkpt lat="46.57375" lon="5.95268">
        <ele>920</ele>
        <time>2014-06-29T06:58:56Z</time>
      </trkpt>
      <trkpt lat="46.57386" lon="5.95261">
        <ele>920.8</ele>
        <time>2014-06-29T06:59:01Z</time>
      </trkpt>
      <trkpt lat="46.57375" lon="5.95264">
        <ele>920.6</ele>
        <time>2014-06-29T06:59:18Z</time>
      </trkpt>
      <trkpt lat="46.57366" lon="5.95263">
        <ele>921</ele>
        <time>2014-06-29T06:59:28Z</time>
      </trkpt>
      <trkpt lat="46.57356" lon="5.95268">
        <ele>921.3</ele>
        <time>2014-06-29T06:59:34Z</time>
      </trkpt>
      <trkpt lat="46.57349" lon="5.95276">
        <ele>921.1</ele>
        <time>2014-06-29T06:59:40Z</time>
      </trkpt>
      <trkpt lat="46.57342" lon="5.95291">
        <ele>921.3</ele>
        <time>2014-06-29T06:59:44Z</time>
      </trkpt>
      <trkpt lat="46.57334" lon="5.95303">
        <ele>921.5</ele>
        <time>2014-06-29T06:59:47Z</time>
      </trkpt>
      <trkpt lat="46.57326" lon="5.95315">
        <ele>921.7</ele>
        <time>2014-06-29T06:59:50Z</time>
      </trkpt>
      <trkpt lat="46.57321" lon="5.95326">
        <ele>922</ele>
        <time>2014-06-29T06:59:53Z</time>
      </trkpt>
      <trkpt lat="46.57312" lon="5.95338">
        <ele>921.7</ele>
        <time>2014-06-29T06:59:56Z</time>
      </trkpt>
      <trkpt lat="46.57303" lon="5.95348">
        <ele>921.4</ele>
        <time>2014-06-29T06:59:59Z</time>
      </trkpt>
      <trkpt lat="46.57292" lon="5.95357">
        <ele>921.6</ele>
        <time>2014-06-29T07:00:02Z</time>
      </trkpt>
      <trkpt lat="46.57283" lon="5.95362">
        <ele>921.6</ele>
        <time>2014-06-29T07:00:04Z</time>
      </trkpt>
      <trkpt lat="46.57274" lon="5.95368">
        <ele>921.9</ele>
        <time>2014-06-29T07:00:06Z</time>
      </trkpt>
      <trkpt lat="46.57264" lon="5.95375">
        <ele>921.9</ele>
        <time>2014-06-29T07:00:09Z</time>
      </trkpt>
      <trkpt lat="46.57256" lon="5.95384">
        <ele>921.8</ele>
        <time>2014-06-29T07:00:12Z</time>
      </trkpt>
      <trkpt lat="46.57251" lon="5.95397">
        <ele>921.6</ele>
        <time>2014-06-29T07:00:15Z</time>
      </trkpt>
      <trkpt lat="46.57246" lon="5.95409">
        <ele>921.7</ele>
        <time>2014-06-29T07:00:18Z</time>
      </trkpt>
      <trkpt lat="46.57244" lon="5.95424">
        <ele>921.9</ele>
        <time>2014-06-29T07:00:21Z</time>
      </trkpt>
      <trkpt lat="46.57247" lon="5.9544">
        <ele>922.1</ele>
        <time>2014-06-29T07:00:25Z</time>
      </trkpt>
      <trkpt lat="46.57251" lon="5.95454">
        <ele>922.4</ele>
        <time>2014-06-29T07:00:28Z</time>
      </trkpt>
      <trkpt lat="46.57257" lon="5.95469">
        <ele>922.3</ele>
        <time>2014-06-29T07:00:31Z</time>
      </trkpt>
      <trkpt lat="46.5726" lon="5.95487">
        <ele>922.3</ele>
        <time>2014-06-29T07:00:34Z</time>
      </trkpt>
      <trkpt lat="46.57258" lon="5.95503">
        <ele>922.1</ele>
        <time>2014-06-29T07:00:37Z</time>
      </trkpt>
      <trkpt lat="46.57247" lon="5.95515">
        <ele>922.3</ele>
        <time>2014-06-29T07:00:40Z</time>
      </trkpt>
      <trkpt lat="46.57237" lon="5.95526">
        <ele>922.4</ele>
        <time>2014-06-29T07:00:43Z</time>
      </trkpt>
      <trkpt lat="46.57226" lon="5.95536">
        <ele>922.6</ele>
        <time>2014-06-29T07:00:46Z</time>
      </trkpt>
      <trkpt lat="46.57214" lon="5.95543">
        <ele>923.1</ele>
        <time>2014-06-29T07:00:49Z</time>
      </trkpt>
      <trkpt lat="46.57203" lon="5.9555">
        <ele>923.5</ele>
        <time>2014-06-29T07:00:52Z</time>
      </trkpt>
      <trkpt lat="46.5719" lon="5.95557">
        <ele>923.9</ele>
        <time>2014-06-29T07:00:55Z</time>
      </trkpt>
      <trkpt lat="46.57182" lon="5.95563">
        <ele>924</ele>
        <time>2014-06-29T07:00:57Z</time>
      </trkpt>
      <trkpt lat="46.5717" lon="5.9557">
        <ele>923.9</ele>
        <time>2014-06-29T07:01:00Z</time>
      </trkpt>
      <trkpt lat="46.57158" lon="5.95578">
        <ele>924.3</ele>
        <time>2014-06-29T07:01:03Z</time>
      </trkpt>
      <trkpt lat="46.5714" lon="5.9559">
        <ele>924.6</ele>
        <time>2014-06-29T07:01:07Z</time>
      </trkpt>
      <trkpt lat="46.57131" lon="5.95595">
        <ele>924.6</ele>
        <time>2014-06-29T07:01:09Z</time>
      </trkpt>
      <trkpt lat="46.57123" lon="5.95601">
        <ele>924.3</ele>
        <time>2014-06-29T07:01:11Z</time>
      </trkpt>
      <trkpt lat="46.57111" lon="5.95607">
        <ele>924.8</ele>
        <time>2014-06-29T07:01:14Z</time>
      </trkpt>
      <trkpt lat="46.57098" lon="5.95612">
        <ele>925.2</ele>
        <time>2014-06-29T07:01:17Z</time>
      </trkpt>
      <trkpt lat="46.57086" lon="5.95612">
        <ele>925.8</ele>
        <time>2014-06-29T07:01:20Z</time>
      </trkpt>
      <trkpt lat="46.57073" lon="5.95611">
        <ele>926.3</ele>
        <time>2014-06-29T07:01:23Z</time>
      </trkpt>
      <trkpt lat="46.5706" lon="5.9561">
        <ele>926.8</ele>
        <time>2014-06-29T07:01:26Z</time>
      </trkpt>
      <trkpt lat="46.57048" lon="5.95613">
        <ele>927.8</ele>
        <time>2014-06-29T07:01:29Z</time>
      </trkpt>
      <trkpt lat="46.57035" lon="5.95617">
        <ele>928.2</ele>
        <time>2014-06-29T07:01:32Z</time>
      </trkpt>
      <trkpt lat="46.57022" lon="5.9562">
        <ele>928.5</ele>
        <time>2014-06-29T07:01:35Z</time>
      </trkpt>
      <trkpt lat="46.5701" lon="5.95624">
        <ele>928.9</ele>
        <time>2014-06-29T07:01:38Z</time>
      </trkpt>
      <trkpt lat="46.56998" lon="5.95629">
        <ele>929.5</ele>
        <time>2014-06-29T07:01:41Z</time>
      </trkpt>
      <trkpt lat="46.56985" lon="5.95633">
        <ele>929.9</ele>
        <time>2014-06-29T07:01:44Z</time>
      </trkpt>
      <trkpt lat="46.56973" lon="5.95638">
        <ele>930.1</ele>
        <time>2014-06-29T07:01:47Z</time>
      </trkpt>
      <trkpt lat="46.56964" lon="5.9564">
        <ele>930.3</ele>
        <time>2014-06-29T07:01:49Z</time>
      </trkpt>
      <trkpt lat="46.56955" lon="5.95643">
        <ele>930.7</ele>
        <time>2014-06-29T07:01:51Z</time>
      </trkpt>
      <trkpt lat="46.56945" lon="5.95646">
        <ele>930.7</ele>
        <time>2014-06-29T07:01:53Z</time>
      </trkpt>
      <trkpt lat="46.56936" lon="5.95649">
        <ele>930.9</ele>
        <time>2014-06-29T07:01:55Z</time>
      </trkpt>
      <trkpt lat="46.56926" lon="5.95653">
        <ele>930.6</ele>
        <time>2014-06-29T07:01:57Z</time>
      </trkpt>
      <trkpt lat="46.56916" lon="5.95657">
        <ele>930.7</ele>
        <time>2014-06-29T07:01:59Z</time>
      </trkpt>
      <trkpt lat="46.56905" lon="5.95662">
        <ele>930.7</ele>
        <time>2014-06-29T07:02:01Z</time>
      </trkpt>
      <trkpt lat="46.56895" lon="5.95666">
        <ele>930.7</ele>
        <time>2014-06-29T07:02:03Z</time>
      </trkpt>
      <trkpt lat="46.56884" lon="5.9567">
        <ele>930.6</ele>
        <time>2014-06-29T07:02:05Z</time>
      </trkpt>
      <trkpt lat="46.5686" lon="5.95679">
        <ele>930.2</ele>
        <time>2014-06-29T07:02:09Z</time>
      </trkpt>
      <trkpt lat="46.56848" lon="5.95682">
        <ele>930.1</ele>
        <time>2014-06-29T07:02:11Z</time>
      </trkpt>
      <trkpt lat="46.56837" lon="5.95681">
        <ele>929.8</ele>
        <time>2014-06-29T07:02:13Z</time>
      </trkpt>
      <trkpt lat="46.56825" lon="5.95675">
        <ele>929.3</ele>
        <time>2014-06-29T07:02:15Z</time>
      </trkpt>
      <trkpt lat="46.56815" lon="5.95669">
        <ele>929.4</ele>
        <time>2014-06-29T07:02:17Z</time>
      </trkpt>
      <trkpt lat="46.56804" lon="5.95663">
        <ele>929.1</ele>
        <time>2014-06-29T07:02:19Z</time>
      </trkpt>
      <trkpt lat="46.56793" lon="5.95655">
        <ele>928.8</ele>
        <time>2014-06-29T07:02:21Z</time>
      </trkpt>
      <trkpt lat="46.56783" lon="5.95647">
        <ele>928.5</ele>
        <time>2014-06-29T07:02:23Z</time>
      </trkpt>
      <trkpt lat="46.56773" lon="5.95637">
        <ele>928.4</ele>
        <time>2014-06-29T07:02:25Z</time>
      </trkpt>
      <trkpt lat="46.56764" lon="5.95629">
        <ele>928</ele>
        <time>2014-06-29T07:02:27Z</time>
      </trkpt>
      <trkpt lat="46.56753" lon="5.95623">
        <ele>928.1</ele>
        <time>2014-06-29T07:02:29Z</time>
      </trkpt>
      <trkpt lat="46.56742" lon="5.95621">
        <ele>928.4</ele>
        <time>2014-06-29T07:02:31Z</time>
      </trkpt>
      <trkpt lat="46.56732" lon="5.95619">
        <ele>928.2</ele>
        <time>2014-06-29T07:02:33Z</time>
      </trkpt>
      <trkpt lat="46.56721" lon="5.9562">
        <ele>928.3</ele>
        <time>2014-06-29T07:02:35Z</time>
      </trkpt>
      <trkpt lat="46.56711" lon="5.95624">
        <ele>928.1</ele>
        <time>2014-06-29T07:02:37Z</time>
      </trkpt>
      <trkpt lat="46.56702" lon="5.95631">
        <ele>928.2</ele>
        <time>2014-06-29T07:02:39Z</time>
      </trkpt>
      <trkpt lat="46.56692" lon="5.95634">
        <ele>928</ele>
        <time>2014-06-29T07:02:41Z</time>
      </trkpt>
      <trkpt lat="46.56681" lon="5.95633">
        <ele>927.5</ele>
        <time>2014-06-29T07:02:43Z</time>
      </trkpt>
      <trkpt lat="46.56669" lon="5.95629">
        <ele>926.9</ele>
        <time>2014-06-29T07:02:45Z</time>
      </trkpt>
      <trkpt lat="46.56657" lon="5.95624">
        <ele>926.2</ele>
        <time>2014-06-29T07:02:47Z</time>
      </trkpt>
      <trkpt lat="46.56645" lon="5.95618">
        <ele>924.8</ele>
        <time>2014-06-29T07:02:49Z</time>
      </trkpt>
      <trkpt lat="46.56634" lon="5.95615">
        <ele>923.8</ele>
        <time>2014-06-29T07:02:51Z</time>
      </trkpt>
      <trkpt lat="46.56623" lon="5.95616">
        <ele>922.8</ele>
        <time>2014-06-29T07:02:53Z</time>
      </trkpt>
      <trkpt lat="46.56614" lon="5.95624">
        <ele>922</ele>
        <time>2014-06-29T07:02:55Z</time>
      </trkpt>
      <trkpt lat="46.56606" lon="5.95634">
        <ele>921.2</ele>
        <time>2014-06-29T07:02:57Z</time>
      </trkpt>
      <trkpt lat="46.56598" lon="5.95645">
        <ele>920.7</ele>
        <time>2014-06-29T07:02:59Z</time>
      </trkpt>
      <trkpt lat="46.56589" lon="5.95654">
        <ele>920.7</ele>
        <time>2014-06-29T07:03:01Z</time>
      </trkpt>
      <trkpt lat="46.56581" lon="5.95663">
        <ele>920.5</ele>
        <time>2014-06-29T07:03:03Z</time>
      </trkpt>
      <trkpt lat="46.56574" lon="5.95672">
        <ele>920.7</ele>
        <time>2014-06-29T07:03:05Z</time>
      </trkpt>
      <trkpt lat="46.56564" lon="5.95685">
        <ele>920.7</ele>
        <time>2014-06-29T07:03:08Z</time>
      </trkpt>
      <trkpt lat="46.56546" lon="5.95712">
        <ele>921.6</ele>
        <time>2014-06-29T07:03:14Z</time>
      </trkpt>
      <trkpt lat="46.56536" lon="5.95724">
        <ele>922.1</ele>
        <time>2014-06-29T07:03:17Z</time>
      </trkpt>
      <trkpt lat="46.56526" lon="5.95736">
        <ele>922.7</ele>
        <time>2014-06-29T07:03:20Z</time>
      </trkpt>
      <trkpt lat="46.56517" lon="5.95749">
        <ele>923.1</ele>
        <time>2014-06-29T07:03:23Z</time>
      </trkpt>
      <trkpt lat="46.56508" lon="5.95762">
        <ele>923</ele>
        <time>2014-06-29T07:03:26Z</time>
      </trkpt>
      <trkpt lat="46.56499" lon="5.95775">
        <ele>923.5</ele>
        <time>2014-06-29T07:03:29Z</time>
      </trkpt>
      <trkpt lat="46.5649" lon="5.95789">
        <ele>924.1</ele>
        <time>2014-06-29T07:03:32Z</time>
      </trkpt>
      <trkpt lat="46.56481" lon="5.95801">
        <ele>924.4</ele>
        <time>2014-06-29T07:03:35Z</time>
      </trkpt>
      <trkpt lat="46.5647" lon="5.95805">
        <ele>924.9</ele>
        <time>2014-06-29T07:03:38Z</time>
      </trkpt>
      <trkpt lat="46.56462" lon="5.958">
        <ele>925.3</ele>
        <time>2014-06-29T07:03:40Z</time>
      </trkpt>
      <trkpt lat="46.56452" lon="5.95787">
        <ele>925.8</ele>
        <time>2014-06-29T07:03:43Z</time>
      </trkpt>
      <trkpt lat="46.56445" lon="5.95774">
        <ele>926.1</ele>
        <time>2014-06-29T07:03:46Z</time>
      </trkpt>
      <trkpt lat="46.56438" lon="5.95761">
        <ele>926.3</ele>
        <time>2014-06-29T07:03:49Z</time>
      </trkpt>
      <trkpt lat="46.56432" lon="5.95752">
        <ele>926.4</ele>
        <time>2014-06-29T07:03:51Z</time>
      </trkpt>
      <trkpt lat="46.56421" lon="5.9574">
        <ele>926.8</ele>
        <time>2014-06-29T07:03:54Z</time>
      </trkpt>
      <trkpt lat="46.56411" lon="5.95731">
        <ele>926.9</ele>
        <time>2014-06-29T07:03:57Z</time>
      </trkpt>
      <trkpt lat="46.564" lon="5.95721">
        <ele>926.9</ele>
        <time>2014-06-29T07:04:00Z</time>
      </trkpt>
      <trkpt lat="46.56389" lon="5.95714">
        <ele>927.3</ele>
        <time>2014-06-29T07:04:03Z</time>
      </trkpt>
      <trkpt lat="46.56377" lon="5.95708">
        <ele>927.6</ele>
        <time>2014-06-29T07:04:06Z</time>
      </trkpt>
      <trkpt lat="46.56365" lon="5.95704">
        <ele>927.7</ele>
        <time>2014-06-29T07:04:09Z</time>
      </trkpt>
      <trkpt lat="46.56346" lon="5.95688">
        <ele>928.1</ele>
        <time>2014-06-29T07:04:14Z</time>
      </trkpt>
      <trkpt lat="46.56337" lon="5.95676">
        <ele>928.2</ele>
        <time>2014-06-29T07:04:17Z</time>
      </trkpt>
      <trkpt lat="46.56329" lon="5.95667">
        <ele>928.4</ele>
        <time>2014-06-29T07:04:20Z</time>
      </trkpt>
      <trkpt lat="46.56322" lon="5.95658">
        <ele>928.8</ele>
        <time>2014-06-29T07:04:23Z</time>
      </trkpt>
      <trkpt lat="46.56314" lon="5.95648">
        <ele>929.4</ele>
        <time>2014-06-29T07:04:26Z</time>
      </trkpt>
      <trkpt lat="46.56307" lon="5.95638">
        <ele>929.7</ele>
        <time>2014-06-29T07:04:29Z</time>
      </trkpt>
      <trkpt lat="46.56299" lon="5.95629">
        <ele>929.9</ele>
        <time>2014-06-29T07:04:32Z</time>
      </trkpt>
      <trkpt lat="46.56291" lon="5.95619">
        <ele>930.2</ele>
        <time>2014-06-29T07:04:35Z</time>
      </trkpt>
      <trkpt lat="46.56283" lon="5.95608">
        <ele>930.4</ele>
        <time>2014-06-29T07:04:38Z</time>
      </trkpt>
      <trkpt lat="46.56275" lon="5.95594">
        <ele>930.5</ele>
        <time>2014-06-29T07:04:41Z</time>
      </trkpt>
      <trkpt lat="46.56269" lon="5.95584">
        <ele>930.7</ele>
        <time>2014-06-29T07:04:43Z</time>
      </trkpt>
      <trkpt lat="46.56262" lon="5.95575">
        <ele>930.5</ele>
        <time>2014-06-29T07:04:45Z</time>
      </trkpt>
      <trkpt lat="46.56251" lon="5.95564">
        <ele>930.6</ele>
        <time>2014-06-29T07:04:48Z</time>
      </trkpt>
      <trkpt lat="46.5624" lon="5.95555">
        <ele>930.6</ele>
        <time>2014-06-29T07:04:51Z</time>
      </trkpt>
      <trkpt lat="46.5623" lon="5.95545">
        <ele>930.2</ele>
        <time>2014-06-29T07:04:54Z</time>
      </trkpt>
      <trkpt lat="46.5622" lon="5.95533">
        <ele>930.3</ele>
        <time>2014-06-29T07:04:57Z</time>
      </trkpt>
      <trkpt lat="46.56209" lon="5.95523">
        <ele>930.5</ele>
        <time>2014-06-29T07:05:00Z</time>
      </trkpt>
      <trkpt lat="46.56201" lon="5.95515">
        <ele>930.6</ele>
        <time>2014-06-29T07:05:02Z</time>
      </trkpt>
      <trkpt lat="46.56191" lon="5.95506">
        <ele>930.3</ele>
        <time>2014-06-29T07:05:04Z</time>
      </trkpt>
      <trkpt lat="46.56181" lon="5.95498">
        <ele>929.9</ele>
        <time>2014-06-29T07:05:06Z</time>
      </trkpt>
      <trkpt lat="46.56172" lon="5.95492">
        <ele>929.5</ele>
        <time>2014-06-29T07:05:08Z</time>
      </trkpt>
      <trkpt lat="46.56163" lon="5.95479">
        <ele>929.6</ele>
        <time>2014-06-29T07:05:11Z</time>
      </trkpt>
      <trkpt lat="46.56147" lon="5.95459">
        <ele>930.4</ele>
        <time>2014-06-29T07:05:16Z</time>
      </trkpt>
      <trkpt lat="46.56139" lon="5.95451">
        <ele>930.4</ele>
        <time>2014-06-29T07:05:18Z</time>
      </trkpt>
      <trkpt lat="46.5613" lon="5.95443">
        <ele>930.4</ele>
        <time>2014-06-29T07:05:20Z</time>
      </trkpt>
      <trkpt lat="46.56121" lon="5.95436">
        <ele>930.1</ele>
        <time>2014-06-29T07:05:22Z</time>
      </trkpt>
      <trkpt lat="46.56107" lon="5.95431">
        <ele>929.7</ele>
        <time>2014-06-29T07:05:24Z</time>
      </trkpt>
      <trkpt lat="46.56095" lon="5.95425">
        <ele>929.1</ele>
        <time>2014-06-29T07:05:26Z</time>
      </trkpt>
      <trkpt lat="46.56085" lon="5.95418">
        <ele>928.6</ele>
        <time>2014-06-29T07:05:28Z</time>
      </trkpt>
      <trkpt lat="46.56076" lon="5.95412">
        <ele>928.7</ele>
        <time>2014-06-29T07:05:30Z</time>
      </trkpt>
      <trkpt lat="46.56067" lon="5.95406">
        <ele>928.7</ele>
        <time>2014-06-29T07:05:32Z</time>
      </trkpt>
      <trkpt lat="46.56058" lon="5.95401">
        <ele>928.9</ele>
        <time>2014-06-29T07:05:34Z</time>
      </trkpt>
      <trkpt lat="46.56049" lon="5.95397">
        <ele>929</ele>
        <time>2014-06-29T07:05:36Z</time>
      </trkpt>
      <trkpt lat="46.56039" lon="5.95393">
        <ele>928.8</ele>
        <time>2014-06-29T07:05:38Z</time>
      </trkpt>
      <trkpt lat="46.56029" lon="5.95388">
        <ele>928.8</ele>
        <time>2014-06-29T07:05:40Z</time>
      </trkpt>
      <trkpt lat="46.56018" lon="5.95384">
        <ele>928.3</ele>
        <time>2014-06-29T07:05:42Z</time>
      </trkpt>
      <trkpt lat="46.56006" lon="5.9538">
        <ele>928</ele>
        <time>2014-06-29T07:05:44Z</time>
      </trkpt>
      <trkpt lat="46.55995" lon="5.95379">
        <ele>927.3</ele>
        <time>2014-06-29T07:05:46Z</time>
      </trkpt>
      <trkpt lat="46.55985" lon="5.95381">
        <ele>926.5</ele>
        <time>2014-06-29T07:05:48Z</time>
      </trkpt>
      <trkpt lat="46.55972" lon="5.95384">
        <ele>926</ele>
        <time>2014-06-29T07:05:50Z</time>
      </trkpt>
      <trkpt lat="46.55959" lon="5.95389">
        <ele>925.6</ele>
        <time>2014-06-29T07:05:52Z</time>
      </trkpt>
      <trkpt lat="46.55948" lon="5.95392">
        <ele>925.5</ele>
        <time>2014-06-29T07:05:54Z</time>
      </trkpt>
      <trkpt lat="46.55939" lon="5.95393">
        <ele>925.8</ele>
        <time>2014-06-29T07:05:56Z</time>
      </trkpt>
      <trkpt lat="46.55928" lon="5.9539">
        <ele>926.4</ele>
        <time>2014-06-29T07:05:59Z</time>
      </trkpt>
      <trkpt lat="46.55919" lon="5.95384">
        <ele>926.9</ele>
        <time>2014-06-29T07:06:02Z</time>
      </trkpt>
      <trkpt lat="46.55911" lon="5.95375">
        <ele>927.3</ele>
        <time>2014-06-29T07:06:05Z</time>
      </trkpt>
      <trkpt lat="46.55903" lon="5.95365">
        <ele>928</ele>
        <time>2014-06-29T07:06:08Z</time>
      </trkpt>
      <trkpt lat="46.55897" lon="5.95355">
        <ele>928.6</ele>
        <time>2014-06-29T07:06:11Z</time>
      </trkpt>
      <trkpt lat="46.55889" lon="5.95346">
        <ele>929.5</ele>
        <time>2014-06-29T07:06:14Z</time>
      </trkpt>
      <trkpt lat="46.55868" lon="5.95332">
        <ele>930.2</ele>
        <time>2014-06-29T07:06:20Z</time>
      </trkpt>
      <trkpt lat="46.55859" lon="5.95328">
        <ele>930.3</ele>
        <time>2014-06-29T07:06:22Z</time>
      </trkpt>
      <trkpt lat="46.5585" lon="5.95323">
        <ele>930.5</ele>
        <time>2014-06-29T07:06:24Z</time>
      </trkpt>
      <trkpt lat="46.5584" lon="5.95319">
        <ele>930.1</ele>
        <time>2014-06-29T07:06:26Z</time>
      </trkpt>
      <trkpt lat="46.5583" lon="5.95313">
        <ele>929.5</ele>
        <time>2014-06-29T07:06:28Z</time>
      </trkpt>
      <trkpt lat="46.5582" lon="5.95307">
        <ele>929.1</ele>
        <time>2014-06-29T07:06:30Z</time>
      </trkpt>
      <trkpt lat="46.55811" lon="5.953">
        <ele>928.7</ele>
        <time>2014-06-29T07:06:32Z</time>
      </trkpt>
      <trkpt lat="46.55803" lon="5.95294">
        <ele>928.9</ele>
        <time>2014-06-29T07:06:34Z</time>
      </trkpt>
      <trkpt lat="46.55795" lon="5.95288">
        <ele>929.2</ele>
        <time>2014-06-29T07:06:37Z</time>
      </trkpt>
      <trkpt lat="46.55787" lon="5.95281">
        <ele>930.5</ele>
        <time>2014-06-29T07:06:42Z</time>
      </trkpt>
      <trkpt lat="46.55777" lon="5.95272">
        <ele>932.6</ele>
        <time>2014-06-29T07:06:48Z</time>
      </trkpt>
      <trkpt lat="46.55767" lon="5.95261">
        <ele>932.9</ele>
        <time>2014-06-29T07:06:52Z</time>
      </trkpt>
      <trkpt lat="46.55758" lon="5.95253">
        <ele>933.2</ele>
        <time>2014-06-29T07:06:55Z</time>
      </trkpt>
      <trkpt lat="46.55748" lon="5.95243">
        <ele>933.5</ele>
        <time>2014-06-29T07:06:58Z</time>
      </trkpt>
      <trkpt lat="46.55738" lon="5.95236">
        <ele>933.5</ele>
        <time>2014-06-29T07:07:01Z</time>
      </trkpt>
      <trkpt lat="46.55729" lon="5.9523">
        <ele>933.4</ele>
        <time>2014-06-29T07:07:03Z</time>
      </trkpt>
      <trkpt lat="46.55723" lon="5.95221">
        <ele>933.2</ele>
        <time>2014-06-29T07:07:05Z</time>
      </trkpt>
      <trkpt lat="46.55717" lon="5.95208">
        <ele>933.1</ele>
        <time>2014-06-29T07:07:07Z</time>
      </trkpt>
      <trkpt lat="46.55711" lon="5.95196">
        <ele>932.9</ele>
        <time>2014-06-29T07:07:09Z</time>
      </trkpt>
      <trkpt lat="46.55706" lon="5.95184">
        <ele>932.8</ele>
        <time>2014-06-29T07:07:11Z</time>
      </trkpt>
      <trkpt lat="46.557" lon="5.95173">
        <ele>932.6</ele>
        <time>2014-06-29T07:07:13Z</time>
      </trkpt>
      <trkpt lat="46.55692" lon="5.95159">
        <ele>932.6</ele>
        <time>2014-06-29T07:07:16Z</time>
      </trkpt>
      <trkpt lat="46.55676" lon="5.95137">
        <ele>932.9</ele>
        <time>2014-06-29T07:07:21Z</time>
      </trkpt>
      <trkpt lat="46.55663" lon="5.95129">
        <ele>933</ele>
        <time>2014-06-29T07:07:24Z</time>
      </trkpt>
      <trkpt lat="46.55654" lon="5.95128">
        <ele>933.3</ele>
        <time>2014-06-29T07:07:26Z</time>
      </trkpt>
      <trkpt lat="46.55644" lon="5.95127">
        <ele>933.2</ele>
        <time>2014-06-29T07:07:28Z</time>
      </trkpt>
      <trkpt lat="46.55635" lon="5.95126">
        <ele>933.2</ele>
        <time>2014-06-29T07:07:30Z</time>
      </trkpt>
      <trkpt lat="46.55624" lon="5.95126">
        <ele>932.8</ele>
        <time>2014-06-29T07:07:32Z</time>
      </trkpt>
      <trkpt lat="46.55613" lon="5.95127">
        <ele>932.7</ele>
        <time>2014-06-29T07:07:34Z</time>
      </trkpt>
      <trkpt lat="46.556" lon="5.95126">
        <ele>932.5</ele>
        <time>2014-06-29T07:07:36Z</time>
      </trkpt>
      <trkpt lat="46.55587" lon="5.95121">
        <ele>931.9</ele>
        <time>2014-06-29T07:07:38Z</time>
      </trkpt>
      <trkpt lat="46.55578" lon="5.95112">
        <ele>931.1</ele>
        <time>2014-06-29T07:07:40Z</time>
      </trkpt>
      <trkpt lat="46.55571" lon="5.95102">
        <ele>931</ele>
        <time>2014-06-29T07:07:42Z</time>
      </trkpt>
      <trkpt lat="46.55563" lon="5.9509">
        <ele>931.4</ele>
        <time>2014-06-29T07:07:45Z</time>
      </trkpt>
      <trkpt lat="46.55555" lon="5.9508">
        <ele>932</ele>
        <time>2014-06-29T07:07:48Z</time>
      </trkpt>
      <trkpt lat="46.55547" lon="5.95073">
        <ele>932.9</ele>
        <time>2014-06-29T07:07:51Z</time>
      </trkpt>
      <trkpt lat="46.55538" lon="5.95067">
        <ele>933.2</ele>
        <time>2014-06-29T07:07:54Z</time>
      </trkpt>
      <trkpt lat="46.55527" lon="5.95058">
        <ele>933.7</ele>
        <time>2014-06-29T07:07:57Z</time>
      </trkpt>
      <trkpt lat="46.5552" lon="5.95049">
        <ele>933.7</ele>
        <time>2014-06-29T07:07:59Z</time>
      </trkpt>
      <trkpt lat="46.55512" lon="5.95033">
        <ele>933.3</ele>
        <time>2014-06-29T07:08:02Z</time>
      </trkpt>
      <trkpt lat="46.55507" lon="5.9502">
        <ele>933.1</ele>
        <time>2014-06-29T07:08:04Z</time>
      </trkpt>
      <trkpt lat="46.55501" lon="5.95009">
        <ele>933.1</ele>
        <time>2014-06-29T07:08:06Z</time>
      </trkpt>
      <trkpt lat="46.55493" lon="5.94997">
        <ele>933.1</ele>
        <time>2014-06-29T07:08:09Z</time>
      </trkpt>
      <trkpt lat="46.55483" lon="5.94984">
        <ele>933.1</ele>
        <time>2014-06-29T07:08:12Z</time>
      </trkpt>
      <trkpt lat="46.55479" lon="5.94971">
        <ele>933.2</ele>
        <time>2014-06-29T07:08:14Z</time>
      </trkpt>
      <trkpt lat="46.5548" lon="5.94953">
        <ele>933</ele>
        <time>2014-06-29T07:08:16Z</time>
      </trkpt>
      <trkpt lat="46.55487" lon="5.94937">
        <ele>932.8</ele>
        <time>2014-06-29T07:08:18Z</time>
      </trkpt>
      <trkpt lat="46.55503" lon="5.94911">
        <ele>931.9</ele>
        <time>2014-06-29T07:08:22Z</time>
      </trkpt>
      <trkpt lat="46.55512" lon="5.94901">
        <ele>931.5</ele>
        <time>2014-06-29T07:08:24Z</time>
      </trkpt>
      <trkpt lat="46.55522" lon="5.94892">
        <ele>931.4</ele>
        <time>2014-06-29T07:08:26Z</time>
      </trkpt>
      <trkpt lat="46.5553" lon="5.94883">
        <ele>931.6</ele>
        <time>2014-06-29T07:08:28Z</time>
      </trkpt>
      <trkpt lat="46.55539" lon="5.94876">
        <ele>931.6</ele>
        <time>2014-06-29T07:08:30Z</time>
      </trkpt>
      <trkpt lat="46.55546" lon="5.94868">
        <ele>931.8</ele>
        <time>2014-06-29T07:08:32Z</time>
      </trkpt>
      <trkpt lat="46.55552" lon="5.94857">
        <ele>932</ele>
        <time>2014-06-29T07:08:34Z</time>
      </trkpt>
      <trkpt lat="46.55555" lon="5.94845">
        <ele>932.2</ele>
        <time>2014-06-29T07:08:36Z</time>
      </trkpt>
      <trkpt lat="46.55558" lon="5.94831">
        <ele>932.6</ele>
        <time>2014-06-29T07:08:38Z</time>
      </trkpt>
      <trkpt lat="46.55558" lon="5.94814">
        <ele>932.9</ele>
        <time>2014-06-29T07:08:41Z</time>
      </trkpt>
      <trkpt lat="46.55556" lon="5.94795">
        <ele>933.1</ele>
        <time>2014-06-29T07:08:44Z</time>
      </trkpt>
      <trkpt lat="46.55556" lon="5.94776">
        <ele>933.4</ele>
        <time>2014-06-29T07:08:47Z</time>
      </trkpt>
      <trkpt lat="46.55558" lon="5.94757">
        <ele>933.6</ele>
        <time>2014-06-29T07:08:50Z</time>
      </trkpt>
      <trkpt lat="46.55568" lon="5.94744">
        <ele>934.1</ele>
        <time>2014-06-29T07:08:53Z</time>
      </trkpt>
      <trkpt lat="46.55576" lon="5.94739">
        <ele>934.2</ele>
        <time>2014-06-29T07:08:55Z</time>
      </trkpt>
      <trkpt lat="46.55585" lon="5.94735">
        <ele>934.1</ele>
        <time>2014-06-29T07:08:57Z</time>
      </trkpt>
      <trkpt lat="46.55598" lon="5.94731">
        <ele>933.9</ele>
        <time>2014-06-29T07:09:00Z</time>
      </trkpt>
      <trkpt lat="46.55606" lon="5.94725">
        <ele>933.9</ele>
        <time>2014-06-29T07:09:02Z</time>
      </trkpt>
      <trkpt lat="46.55615" lon="5.94719">
        <ele>933.7</ele>
        <time>2014-06-29T07:09:04Z</time>
      </trkpt>
      <trkpt lat="46.55624" lon="5.94713">
        <ele>933.6</ele>
        <time>2014-06-29T07:09:06Z</time>
      </trkpt>
      <trkpt lat="46.55633" lon="5.94708">
        <ele>933.4</ele>
        <time>2014-06-29T07:09:08Z</time>
      </trkpt>
      <trkpt lat="46.55641" lon="5.94702">
        <ele>933.3</ele>
        <time>2014-06-29T07:09:10Z</time>
      </trkpt>
      <trkpt lat="46.55649" lon="5.94695">
        <ele>933.3</ele>
        <time>2014-06-29T07:09:12Z</time>
      </trkpt>
      <trkpt lat="46.55657" lon="5.94688">
        <ele>933</ele>
        <time>2014-06-29T07:09:14Z</time>
      </trkpt>
      <trkpt lat="46.55669" lon="5.94679">
        <ele>932.7</ele>
        <time>2014-06-29T07:09:17Z</time>
      </trkpt>
      <trkpt lat="46.5568" lon="5.94668">
        <ele>932.2</ele>
        <time>2014-06-29T07:09:20Z</time>
      </trkpt>
      <trkpt lat="46.55695" lon="5.94647">
        <ele>931.9</ele>
        <time>2014-06-29T07:09:24Z</time>
      </trkpt>
      <trkpt lat="46.55702" lon="5.94636">
        <ele>931.6</ele>
        <time>2014-06-29T07:09:26Z</time>
      </trkpt>
      <trkpt lat="46.55709" lon="5.94626">
        <ele>931.3</ele>
        <time>2014-06-29T07:09:28Z</time>
      </trkpt>
      <trkpt lat="46.55717" lon="5.94617">
        <ele>931</ele>
        <time>2014-06-29T07:09:30Z</time>
      </trkpt>
      <trkpt lat="46.55725" lon="5.94608">
        <ele>930.6</ele>
        <time>2014-06-29T07:09:32Z</time>
      </trkpt>
      <trkpt lat="46.55735" lon="5.94601">
        <ele>930.2</ele>
        <time>2014-06-29T07:09:34Z</time>
      </trkpt>
      <trkpt lat="46.55744" lon="5.94594">
        <ele>929.7</ele>
        <time>2014-06-29T07:09:36Z</time>
      </trkpt>
      <trkpt lat="46.55755" lon="5.94588">
        <ele>929.6</ele>
        <time>2014-06-29T07:09:38Z</time>
      </trkpt>
      <trkpt lat="46.55766" lon="5.94581">
        <ele>929.1</ele>
        <time>2014-06-29T07:09:40Z</time>
      </trkpt>
      <trkpt lat="46.55776" lon="5.94574">
        <ele>928.6</ele>
        <time>2014-06-29T07:09:42Z</time>
      </trkpt>
      <trkpt lat="46.55788" lon="5.94566">
        <ele>927.8</ele>
        <time>2014-06-29T07:09:44Z</time>
      </trkpt>
      <trkpt lat="46.558" lon="5.94558">
        <ele>927.3</ele>
        <time>2014-06-29T07:09:46Z</time>
      </trkpt>
      <trkpt lat="46.55812" lon="5.94549">
        <ele>926.8</ele>
        <time>2014-06-29T07:09:48Z</time>
      </trkpt>
      <trkpt lat="46.55823" lon="5.94539">
        <ele>926.5</ele>
        <time>2014-06-29T07:09:50Z</time>
      </trkpt>
      <trkpt lat="46.55831" lon="5.94528">
        <ele>926.5</ele>
        <time>2014-06-29T07:09:52Z</time>
      </trkpt>
      <trkpt lat="46.55836" lon="5.94516">
        <ele>926.2</ele>
        <time>2014-06-29T07:09:54Z</time>
      </trkpt>
      <trkpt lat="46.55839" lon="5.94504">
        <ele>926.3</ele>
        <time>2014-06-29T07:09:56Z</time>
      </trkpt>
      <trkpt lat="46.5584" lon="5.94486">
        <ele>926.4</ele>
        <time>2014-06-29T07:09:59Z</time>
      </trkpt>
      <trkpt lat="46.55834" lon="5.94472">
        <ele>926.9</ele>
        <time>2014-06-29T07:10:02Z</time>
      </trkpt>
      <trkpt lat="46.55828" lon="5.9446">
        <ele>927.7</ele>
        <time>2014-06-29T07:10:05Z</time>
      </trkpt>
      <trkpt lat="46.55824" lon="5.94447">
        <ele>928.1</ele>
        <time>2014-06-29T07:10:08Z</time>
      </trkpt>
      <trkpt lat="46.55821" lon="5.94434">
        <ele>928.8</ele>
        <time>2014-06-29T07:10:11Z</time>
      </trkpt>
      <trkpt lat="46.55822" lon="5.94419">
        <ele>929.4</ele>
        <time>2014-06-29T07:10:14Z</time>
      </trkpt>
      <trkpt lat="46.55825" lon="5.94407">
        <ele>930</ele>
        <time>2014-06-29T07:10:17Z</time>
      </trkpt>
      <trkpt lat="46.5583" lon="5.94392">
        <ele>930.8</ele>
        <time>2014-06-29T07:10:21Z</time>
      </trkpt>
      <trkpt lat="46.55833" lon="5.94362">
        <ele>932.2</ele>
        <time>2014-06-29T07:10:28Z</time>
      </trkpt>
      <trkpt lat="46.55832" lon="5.94346">
        <ele>933.1</ele>
        <time>2014-06-29T07:10:32Z</time>
      </trkpt>
      <trkpt lat="46.55833" lon="5.9433">
        <ele>934</ele>
        <time>2014-06-29T07:10:36Z</time>
      </trkpt>
      <trkpt lat="46.55838" lon="5.94317">
        <ele>934.5</ele>
        <time>2014-06-29T07:10:40Z</time>
      </trkpt>
      <trkpt lat="46.55847" lon="5.94307">
        <ele>935.3</ele>
        <time>2014-06-29T07:10:44Z</time>
      </trkpt>
      <trkpt lat="46.55857" lon="5.943">
        <ele>936</ele>
        <time>2014-06-29T07:10:48Z</time>
      </trkpt>
      <trkpt lat="46.55866" lon="5.94295">
        <ele>936.9</ele>
        <time>2014-06-29T07:10:52Z</time>
      </trkpt>
      <trkpt lat="46.55875" lon="5.94288">
        <ele>937.7</ele>
        <time>2014-06-29T07:10:56Z</time>
      </trkpt>
      <trkpt lat="46.55883" lon="5.94277">
        <ele>938.5</ele>
        <time>2014-06-29T07:11:00Z</time>
      </trkpt>
      <trkpt lat="46.55887" lon="5.94263">
        <ele>939.4</ele>
        <time>2014-06-29T07:11:05Z</time>
      </trkpt>
      <trkpt lat="46.55882" lon="5.94251">
        <ele>940.1</ele>
        <time>2014-06-29T07:11:32Z</time>
      </trkpt>
      <trkpt lat="46.55869" lon="5.94275">
        <ele>941</ele>
        <time>2014-06-29T07:11:48Z</time>
      </trkpt>
      <trkpt lat="46.55858" lon="5.94279">
        <ele>941.2</ele>
        <time>2014-06-29T07:11:52Z</time>
      </trkpt>
      <trkpt lat="46.55849" lon="5.94275">
        <ele>941.4</ele>
        <time>2014-06-29T07:11:55Z</time>
      </trkpt>
      <trkpt lat="46.5584" lon="5.94269">
        <ele>941.7</ele>
        <time>2014-06-29T07:11:58Z</time>
      </trkpt>
      <trkpt lat="46.55831" lon="5.94263">
        <ele>941.5</ele>
        <time>2014-06-29T07:12:01Z</time>
      </trkpt>
      <trkpt lat="46.55822" lon="5.94258">
        <ele>941.8</ele>
        <time>2014-06-29T07:12:04Z</time>
      </trkpt>
      <trkpt lat="46.55812" lon="5.94252">
        <ele>942.1</ele>
        <time>2014-06-29T07:12:07Z</time>
      </trkpt>
      <trkpt lat="46.55801" lon="5.94246">
        <ele>942</ele>
        <time>2014-06-29T07:12:10Z</time>
      </trkpt>
      <trkpt lat="46.5579" lon="5.94242">
        <ele>941.9</ele>
        <time>2014-06-29T07:12:13Z</time>
      </trkpt>
      <trkpt lat="46.55779" lon="5.94238">
        <ele>941.9</ele>
        <time>2014-06-29T07:12:16Z</time>
      </trkpt>
      <trkpt lat="46.55769" lon="5.94235">
        <ele>942.4</ele>
        <time>2014-06-29T07:12:19Z</time>
      </trkpt>
      <trkpt lat="46.55758" lon="5.94232">
        <ele>942.9</ele>
        <time>2014-06-29T07:12:22Z</time>
      </trkpt>
      <trkpt lat="46.55747" lon="5.9423">
        <ele>942.8</ele>
        <time>2014-06-29T07:12:25Z</time>
      </trkpt>
      <trkpt lat="46.55735" lon="5.94229">
        <ele>942.8</ele>
        <time>2014-06-29T07:12:28Z</time>
      </trkpt>
      <trkpt lat="46.55723" lon="5.9423">
        <ele>942.7</ele>
        <time>2014-06-29T07:12:31Z</time>
      </trkpt>
      <trkpt lat="46.55712" lon="5.94231">
        <ele>942.8</ele>
        <time>2014-06-29T07:12:34Z</time>
      </trkpt>
      <trkpt lat="46.5569" lon="5.94239">
        <ele>942.5</ele>
        <time>2014-06-29T07:12:40Z</time>
      </trkpt>
      <trkpt lat="46.55678" lon="5.94247">
        <ele>942.3</ele>
        <time>2014-06-29T07:12:43Z</time>
      </trkpt>
      <trkpt lat="46.55667" lon="5.94255">
        <ele>942.1</ele>
        <time>2014-06-29T07:12:46Z</time>
      </trkpt>
      <trkpt lat="46.55657" lon="5.94262">
        <ele>942.3</ele>
        <time>2014-06-29T07:12:49Z</time>
      </trkpt>
      <trkpt lat="46.55648" lon="5.94268">
        <ele>942.4</ele>
        <time>2014-06-29T07:12:52Z</time>
      </trkpt>
      <trkpt lat="46.55639" lon="5.94274">
        <ele>942.9</ele>
        <time>2014-06-29T07:12:55Z</time>
      </trkpt>
      <trkpt lat="46.5563" lon="5.9428">
        <ele>943.3</ele>
        <time>2014-06-29T07:12:58Z</time>
      </trkpt>
      <trkpt lat="46.5562" lon="5.94281">
        <ele>943.9</ele>
        <time>2014-06-29T07:13:01Z</time>
      </trkpt>
      <trkpt lat="46.55612" lon="5.94279">
        <ele>944.5</ele>
        <time>2014-06-29T07:13:04Z</time>
      </trkpt>
      <trkpt lat="46.55603" lon="5.94273">
        <ele>945.1</ele>
        <time>2014-06-29T07:13:07Z</time>
      </trkpt>
      <trkpt lat="46.55594" lon="5.94269">
        <ele>945.4</ele>
        <time>2014-06-29T07:13:10Z</time>
      </trkpt>
      <trkpt lat="46.55584" lon="5.9427">
        <ele>945.8</ele>
        <time>2014-06-29T07:13:13Z</time>
      </trkpt>
      <trkpt lat="46.55575" lon="5.94274">
        <ele>946.1</ele>
        <time>2014-06-29T07:13:16Z</time>
      </trkpt>
      <trkpt lat="46.55567" lon="5.9428">
        <ele>946.3</ele>
        <time>2014-06-29T07:13:19Z</time>
      </trkpt>
      <trkpt lat="46.55558" lon="5.9429">
        <ele>946.9</ele>
        <time>2014-06-29T07:13:23Z</time>
      </trkpt>
      <trkpt lat="46.55551" lon="5.94299">
        <ele>947.3</ele>
        <time>2014-06-29T07:13:26Z</time>
      </trkpt>
      <trkpt lat="46.55543" lon="5.94308">
        <ele>947.5</ele>
        <time>2014-06-29T07:13:29Z</time>
      </trkpt>
      <trkpt lat="46.55535" lon="5.94318">
        <ele>947.6</ele>
        <time>2014-06-29T07:13:32Z</time>
      </trkpt>
      <trkpt lat="46.55527" lon="5.94327">
        <ele>947.6</ele>
        <time>2014-06-29T07:13:35Z</time>
      </trkpt>
      <trkpt lat="46.55511" lon="5.94342">
        <ele>947.9</ele>
        <time>2014-06-29T07:13:41Z</time>
      </trkpt>
      <trkpt lat="46.55502" lon="5.94346">
        <ele>948</ele>
        <time>2014-06-29T07:13:44Z</time>
      </trkpt>
      <trkpt lat="46.55493" lon="5.94346">
        <ele>948.2</ele>
        <time>2014-06-29T07:13:47Z</time>
      </trkpt>
      <trkpt lat="46.55483" lon="5.94343">
        <ele>948.7</ele>
        <time>2014-06-29T07:13:50Z</time>
      </trkpt>
      <trkpt lat="46.55473" lon="5.94339">
        <ele>949</ele>
        <time>2014-06-29T07:13:53Z</time>
      </trkpt>
      <trkpt lat="46.55464" lon="5.94334">
        <ele>949</ele>
        <time>2014-06-29T07:13:56Z</time>
      </trkpt>
      <trkpt lat="46.55454" lon="5.9433">
        <ele>949</ele>
        <time>2014-06-29T07:13:59Z</time>
      </trkpt>
      <trkpt lat="46.55443" lon="5.94327">
        <ele>949</ele>
        <time>2014-06-29T07:14:02Z</time>
      </trkpt>
      <trkpt lat="46.55432" lon="5.94328">
        <ele>948.8</ele>
        <time>2014-06-29T07:14:05Z</time>
      </trkpt>
      <trkpt lat="46.55421" lon="5.94336">
        <ele>948.4</ele>
        <time>2014-06-29T07:14:08Z</time>
      </trkpt>
      <trkpt lat="46.55412" lon="5.94344">
        <ele>948.3</ele>
        <time>2014-06-29T07:14:11Z</time>
      </trkpt>
      <trkpt lat="46.55402" lon="5.94351">
        <ele>948.5</ele>
        <time>2014-06-29T07:14:14Z</time>
      </trkpt>
      <trkpt lat="46.55392" lon="5.94357">
        <ele>948.5</ele>
        <time>2014-06-29T07:14:17Z</time>
      </trkpt>
      <trkpt lat="46.55383" lon="5.94363">
        <ele>948.4</ele>
        <time>2014-06-29T07:14:20Z</time>
      </trkpt>
      <trkpt lat="46.55374" lon="5.94368">
        <ele>948.6</ele>
        <time>2014-06-29T07:14:23Z</time>
      </trkpt>
      <trkpt lat="46.55364" lon="5.94372">
        <ele>949</ele>
        <time>2014-06-29T07:14:27Z</time>
      </trkpt>
      <trkpt lat="46.55354" lon="5.94377">
        <ele>950.2</ele>
        <time>2014-06-29T07:14:33Z</time>
      </trkpt>
      <trkpt lat="46.55347" lon="5.94386">
        <ele>950.6</ele>
        <time>2014-06-29T07:14:38Z</time>
      </trkpt>
      <trkpt lat="46.55352" lon="5.94413">
        <ele>952.4</ele>
        <time>2014-06-29T07:14:51Z</time>
      </trkpt>
      <trkpt lat="46.55357" lon="5.94424">
        <ele>953.6</ele>
        <time>2014-06-29T07:14:57Z</time>
      </trkpt>
      <trkpt lat="46.55364" lon="5.94433">
        <ele>955.5</ele>
        <time>2014-06-29T07:15:04Z</time>
      </trkpt>
      <trkpt lat="46.5537" lon="5.94444">
        <ele>956.4</ele>
        <time>2014-06-29T07:15:10Z</time>
      </trkpt>
      <trkpt lat="46.55376" lon="5.94455">
        <ele>957.4</ele>
        <time>2014-06-29T07:15:16Z</time>
      </trkpt>
      <trkpt lat="46.55381" lon="5.94466">
        <ele>958.4</ele>
        <time>2014-06-29T07:15:22Z</time>
      </trkpt>
      <trkpt lat="46.55382" lon="5.9448">
        <ele>959.7</ele>
        <time>2014-06-29T07:15:28Z</time>
      </trkpt>
      <trkpt lat="46.55378" lon="5.94492">
        <ele>960.8</ele>
        <time>2014-06-29T07:15:33Z</time>
      </trkpt>
      <trkpt lat="46.55371" lon="5.94504">
        <ele>962.3</ele>
        <time>2014-06-29T07:15:40Z</time>
      </trkpt>
      <trkpt lat="46.55357" lon="5.94525">
        <ele>964.6</ele>
        <time>2014-06-29T07:15:52Z</time>
      </trkpt>
      <trkpt lat="46.5535" lon="5.94533">
        <ele>965.2</ele>
        <time>2014-06-29T07:15:58Z</time>
      </trkpt>
      <trkpt lat="46.55341" lon="5.94538">
        <ele>966.1</ele>
        <time>2014-06-29T07:16:04Z</time>
      </trkpt>
      <trkpt lat="46.55331" lon="5.94542">
        <ele>966.5</ele>
        <time>2014-06-29T07:16:09Z</time>
      </trkpt>
      <trkpt lat="46.55322" lon="5.94546">
        <ele>966.7</ele>
        <time>2014-06-29T07:16:14Z</time>
      </trkpt>
      <trkpt lat="46.55313" lon="5.94551">
        <ele>967.1</ele>
        <time>2014-06-29T07:16:20Z</time>
      </trkpt>
      <trkpt lat="46.55305" lon="5.94557">
        <ele>967.2</ele>
        <time>2014-06-29T07:16:24Z</time>
      </trkpt>
      <trkpt lat="46.55296" lon="5.94563">
        <ele>967.2</ele>
        <time>2014-06-29T07:16:27Z</time>
      </trkpt>
      <trkpt lat="46.55288" lon="5.94573">
        <ele>967.9</ele>
        <time>2014-06-29T07:16:32Z</time>
      </trkpt>
      <trkpt lat="46.5528" lon="5.94584">
        <ele>969.2</ele>
        <time>2014-06-29T07:16:38Z</time>
      </trkpt>
      <trkpt lat="46.55274" lon="5.94595">
        <ele>970</ele>
        <time>2014-06-29T07:16:44Z</time>
      </trkpt>
      <trkpt lat="46.55256" lon="5.9461">
        <ele>972.8</ele>
        <time>2014-06-29T07:16:58Z</time>
      </trkpt>
      <trkpt lat="46.55246" lon="5.94612">
        <ele>973.4</ele>
        <time>2014-06-29T07:17:03Z</time>
      </trkpt>
      <trkpt lat="46.55233" lon="5.94613">
        <ele>973.7</ele>
        <time>2014-06-29T07:17:07Z</time>
      </trkpt>
      <trkpt lat="46.55224" lon="5.94614">
        <ele>974</ele>
        <time>2014-06-29T07:17:09Z</time>
      </trkpt>
      <trkpt lat="46.55215" lon="5.94614">
        <ele>974.2</ele>
        <time>2014-06-29T07:17:11Z</time>
      </trkpt>
      <trkpt lat="46.55202" lon="5.94612">
        <ele>974.3</ele>
        <time>2014-06-29T07:17:14Z</time>
      </trkpt>
      <trkpt lat="46.5519" lon="5.9461">
        <ele>975</ele>
        <time>2014-06-29T07:17:17Z</time>
      </trkpt>
      <trkpt lat="46.5518" lon="5.94606">
        <ele>975.4</ele>
        <time>2014-06-29T07:17:20Z</time>
      </trkpt>
      <trkpt lat="46.5517" lon="5.94599">
        <ele>975.5</ele>
        <time>2014-06-29T07:17:24Z</time>
      </trkpt>
      <trkpt lat="46.5516" lon="5.94595">
        <ele>975.2</ele>
        <time>2014-06-29T07:17:28Z</time>
      </trkpt>
      <trkpt lat="46.55148" lon="5.94594">
        <ele>975.1</ele>
        <time>2014-06-29T07:17:32Z</time>
      </trkpt>
      <trkpt lat="46.55138" lon="5.94595">
        <ele>975.2</ele>
        <time>2014-06-29T07:17:35Z</time>
      </trkpt>
      <trkpt lat="46.55127" lon="5.94596">
        <ele>975.4</ele>
        <time>2014-06-29T07:17:38Z</time>
      </trkpt>
      <trkpt lat="46.55119" lon="5.94602">
        <ele>975.3</ele>
        <time>2014-06-29T07:17:42Z</time>
      </trkpt>
      <trkpt lat="46.55118" lon="5.94586">
        <ele>975.7</ele>
        <time>2014-06-29T07:17:47Z</time>
      </trkpt>
      <trkpt lat="46.55103" lon="5.94562">
        <ele>975.6</ele>
        <time>2014-06-29T07:17:53Z</time>
      </trkpt>
      <trkpt lat="46.55094" lon="5.94552">
        <ele>975.3</ele>
        <time>2014-06-29T07:17:56Z</time>
      </trkpt>
      <trkpt lat="46.55085" lon="5.94544">
        <ele>975</ele>
        <time>2014-06-29T07:17:59Z</time>
      </trkpt>
      <trkpt lat="46.55074" lon="5.94536">
        <ele>974.8</ele>
        <time>2014-06-29T07:18:02Z</time>
      </trkpt>
      <trkpt lat="46.55065" lon="5.94528">
        <ele>974.4</ele>
        <time>2014-06-29T07:18:05Z</time>
      </trkpt>
      <trkpt lat="46.55056" lon="5.94517">
        <ele>973.8</ele>
        <time>2014-06-29T07:18:08Z</time>
      </trkpt>
      <trkpt lat="46.55045" lon="5.94507">
        <ele>973.1</ele>
        <time>2014-06-29T07:18:11Z</time>
      </trkpt>
      <trkpt lat="46.55036" lon="5.94493">
        <ele>972.4</ele>
        <time>2014-06-29T07:18:14Z</time>
      </trkpt>
      <trkpt lat="46.5503" lon="5.94484">
        <ele>971.5</ele>
        <time>2014-06-29T07:18:16Z</time>
      </trkpt>
      <trkpt lat="46.55023" lon="5.94473">
        <ele>970.9</ele>
        <time>2014-06-29T07:18:18Z</time>
      </trkpt>
      <trkpt lat="46.55016" lon="5.94463">
        <ele>970.2</ele>
        <time>2014-06-29T07:18:20Z</time>
      </trkpt>
      <trkpt lat="46.55009" lon="5.94454">
        <ele>969.3</ele>
        <time>2014-06-29T07:18:22Z</time>
      </trkpt>
      <trkpt lat="46.55001" lon="5.94446">
        <ele>968.3</ele>
        <time>2014-06-29T07:18:24Z</time>
      </trkpt>
      <trkpt lat="46.54991" lon="5.9445">
        <ele>966.8</ele>
        <time>2014-06-29T07:18:30Z</time>
      </trkpt>
      <trkpt lat="46.54983" lon="5.94455">
        <ele>966.8</ele>
        <time>2014-06-29T07:18:36Z</time>
      </trkpt>
      <trkpt lat="46.54973" lon="5.94456">
        <ele>966.1</ele>
        <time>2014-06-29T07:18:41Z</time>
      </trkpt>
      <trkpt lat="46.54964" lon="5.94451">
        <ele>965.3</ele>
        <time>2014-06-29T07:18:45Z</time>
      </trkpt>
      <trkpt lat="46.54956" lon="5.94443">
        <ele>964.4</ele>
        <time>2014-06-29T07:18:48Z</time>
      </trkpt>
      <trkpt lat="46.54938" lon="5.94431">
        <ele>962.5</ele>
        <time>2014-06-29T07:19:35Z</time>
      </trkpt>
      <trkpt lat="46.54929" lon="5.94428">
        <ele>962.6</ele>
        <time>2014-06-29T07:19:40Z</time>
      </trkpt>
      <trkpt lat="46.54919" lon="5.94427">
        <ele>962.6</ele>
        <time>2014-06-29T07:19:45Z</time>
      </trkpt>
      <trkpt lat="46.54909" lon="5.94422">
        <ele>962.6</ele>
        <time>2014-06-29T07:19:51Z</time>
      </trkpt>
      <trkpt lat="46.549" lon="5.944">
        <ele>963.1</ele>
        <time>2014-06-29T07:20:11Z</time>
      </trkpt>
      <trkpt lat="46.54891" lon="5.94389">
        <ele>963.3</ele>
        <time>2014-06-29T07:20:16Z</time>
      </trkpt>
      <trkpt lat="46.54883" lon="5.94384">
        <ele>963.5</ele>
        <time>2014-06-29T07:20:20Z</time>
      </trkpt>
      <trkpt lat="46.54873" lon="5.94379">
        <ele>964.1</ele>
        <time>2014-06-29T07:20:26Z</time>
      </trkpt>
      <trkpt lat="46.54863" lon="5.94379">
        <ele>965.1</ele>
        <time>2014-06-29T07:20:36Z</time>
      </trkpt>
      <trkpt lat="46.54855" lon="5.94373">
        <ele>966.2</ele>
        <time>2014-06-29T07:20:49Z</time>
      </trkpt>
      <trkpt lat="46.54847" lon="5.94365">
        <ele>967</ele>
        <time>2014-06-29T07:21:04Z</time>
      </trkpt>
      <trkpt lat="46.54838" lon="5.94342">
        <ele>966.4</ele>
        <time>2014-06-29T07:21:28Z</time>
      </trkpt>
      <trkpt lat="46.54827" lon="5.94338">
        <ele>965.1</ele>
        <time>2014-06-29T07:21:42Z</time>
      </trkpt>
      <trkpt lat="46.54819" lon="5.94332">
        <ele>965</ele>
        <time>2014-06-29T07:21:48Z</time>
      </trkpt>
      <trkpt lat="46.54809" lon="5.94328">
        <ele>965.1</ele>
        <time>2014-06-29T07:21:53Z</time>
      </trkpt>
      <trkpt lat="46.54796" lon="5.94324">
        <ele>965.2</ele>
        <time>2014-06-29T07:21:56Z</time>
      </trkpt>
      <trkpt lat="46.54787" lon="5.94317">
        <ele>965.5</ele>
        <time>2014-06-29T07:22:04Z</time>
      </trkpt>
      <trkpt lat="46.54782" lon="5.94303">
        <ele>965.6</ele>
        <time>2014-06-29T07:22:15Z</time>
      </trkpt>
      <trkpt lat="46.54775" lon="5.94283">
        <ele>967.2</ele>
        <time>2014-06-29T07:22:28Z</time>
      </trkpt>
      <trkpt lat="46.54773" lon="5.9427">
        <ele>967.7</ele>
        <time>2014-06-29T07:22:36Z</time>
      </trkpt>
      <trkpt lat="46.54768" lon="5.94259">
        <ele>968</ele>
        <time>2014-06-29T07:22:44Z</time>
      </trkpt>
      <trkpt lat="46.5476" lon="5.94251">
        <ele>968</ele>
        <time>2014-06-29T07:22:51Z</time>
      </trkpt>
      <trkpt lat="46.54752" lon="5.9424">
        <ele>968.1</ele>
        <time>2014-06-29T07:23:00Z</time>
      </trkpt>
      <trkpt lat="46.54749" lon="5.94226">
        <ele>968</ele>
        <time>2014-06-29T07:23:05Z</time>
      </trkpt>
      <trkpt lat="46.54746" lon="5.94213">
        <ele>967.9</ele>
        <time>2014-06-29T07:23:10Z</time>
      </trkpt>
      <trkpt lat="46.5474" lon="5.94201">
        <ele>967.6</ele>
        <time>2014-06-29T07:23:14Z</time>
      </trkpt>
      <trkpt lat="46.54742" lon="5.94187">
        <ele>967.5</ele>
        <time>2014-06-29T07:23:17Z</time>
      </trkpt>
      <trkpt lat="46.54748" lon="5.94161">
        <ele>966.6</ele>
        <time>2014-06-29T07:23:23Z</time>
      </trkpt>
      <trkpt lat="46.54749" lon="5.94146">
        <ele>965.5</ele>
        <time>2014-06-29T07:23:28Z</time>
      </trkpt>
      <trkpt lat="46.54743" lon="5.94136">
        <ele>964.9</ele>
        <time>2014-06-29T07:23:32Z</time>
      </trkpt>
      <trkpt lat="46.54737" lon="5.94124">
        <ele>964.7</ele>
        <time>2014-06-29T07:23:38Z</time>
      </trkpt>
      <trkpt lat="46.54733" lon="5.9411">
        <ele>964.3</ele>
        <time>2014-06-29T07:23:44Z</time>
      </trkpt>
      <trkpt lat="46.54733" lon="5.94094">
        <ele>964.2</ele>
        <time>2014-06-29T07:23:50Z</time>
      </trkpt>
      <trkpt lat="46.54733" lon="5.9408">
        <ele>964.2</ele>
        <time>2014-06-29T07:23:55Z</time>
      </trkpt>
      <trkpt lat="46.54728" lon="5.94069">
        <ele>964.7</ele>
        <time>2014-06-29T07:24:01Z</time>
      </trkpt>
      <trkpt lat="46.54722" lon="5.94056">
        <ele>965.9</ele>
        <time>2014-06-29T07:24:08Z</time>
      </trkpt>
      <trkpt lat="46.54716" lon="5.94047">
        <ele>966.9</ele>
        <time>2014-06-29T07:24:13Z</time>
      </trkpt>
      <trkpt lat="46.54709" lon="5.94039">
        <ele>967.4</ele>
        <time>2014-06-29T07:24:18Z</time>
      </trkpt>
      <trkpt lat="46.54695" lon="5.9402">
        <ele>966.9</ele>
        <time>2014-06-29T07:24:29Z</time>
      </trkpt>
      <trkpt lat="46.54684" lon="5.94015">
        <ele>966.7</ele>
        <time>2014-06-29T07:24:34Z</time>
      </trkpt>
      <trkpt lat="46.54675" lon="5.9401">
        <ele>966.4</ele>
        <time>2014-06-29T07:24:37Z</time>
      </trkpt>
      <trkpt lat="46.54665" lon="5.94008">
        <ele>966.1</ele>
        <time>2014-06-29T07:24:40Z</time>
      </trkpt>
      <trkpt lat="46.54656" lon="5.94">
        <ele>965.8</ele>
        <time>2014-06-29T07:24:45Z</time>
      </trkpt>
      <trkpt lat="46.54651" lon="5.93985">
        <ele>965</ele>
        <time>2014-06-29T07:24:50Z</time>
      </trkpt>
      <trkpt lat="46.54641" lon="5.93976">
        <ele>963.9</ele>
        <time>2014-06-29T07:24:54Z</time>
      </trkpt>
      <trkpt lat="46.54633" lon="5.93969">
        <ele>963.3</ele>
        <time>2014-06-29T07:24:57Z</time>
      </trkpt>
      <trkpt lat="46.54627" lon="5.93959">
        <ele>962.8</ele>
        <time>2014-06-29T07:25:01Z</time>
      </trkpt>
      <trkpt lat="46.5462" lon="5.93946">
        <ele>962.5</ele>
        <time>2014-06-29T07:25:05Z</time>
      </trkpt>
      <trkpt lat="46.54613" lon="5.93934">
        <ele>962.4</ele>
        <time>2014-06-29T07:25:08Z</time>
      </trkpt>
      <trkpt lat="46.54605" lon="5.93926">
        <ele>962</ele>
        <time>2014-06-29T07:25:11Z</time>
      </trkpt>
      <trkpt lat="46.54595" lon="5.93915">
        <ele>961.5</ele>
        <time>2014-06-29T07:25:14Z</time>
      </trkpt>
      <trkpt lat="46.54589" lon="5.93903">
        <ele>961.4</ele>
        <time>2014-06-29T07:25:17Z</time>
      </trkpt>
      <trkpt lat="46.54581" lon="5.93892">
        <ele>960.8</ele>
        <time>2014-06-29T07:25:20Z</time>
      </trkpt>
      <trkpt lat="46.54576" lon="5.93865">
        <ele>958.9</ele>
        <time>2014-06-29T07:25:26Z</time>
      </trkpt>
      <trkpt lat="46.54573" lon="5.93851">
        <ele>957.9</ele>
        <time>2014-06-29T07:25:29Z</time>
      </trkpt>
      <trkpt lat="46.54569" lon="5.93834">
        <ele>956.7</ele>
        <time>2014-06-29T07:25:32Z</time>
      </trkpt>
      <trkpt lat="46.54566" lon="5.93816">
        <ele>955.3</ele>
        <time>2014-06-29T07:25:35Z</time>
      </trkpt>
      <trkpt lat="46.54561" lon="5.93803">
        <ele>954.2</ele>
        <time>2014-06-29T07:25:37Z</time>
      </trkpt>
      <trkpt lat="46.54556" lon="5.93791">
        <ele>953.4</ele>
        <time>2014-06-29T07:25:39Z</time>
      </trkpt>
      <trkpt lat="46.54548" lon="5.93778">
        <ele>952.4</ele>
        <time>2014-06-29T07:25:42Z</time>
      </trkpt>
      <trkpt lat="46.54541" lon="5.93771">
        <ele>951.7</ele>
        <time>2014-06-29T07:25:45Z</time>
      </trkpt>
      <trkpt lat="46.54536" lon="5.93759">
        <ele>949.7</ele>
        <time>2014-06-29T07:26:03Z</time>
      </trkpt>
      <trkpt lat="46.54525" lon="5.93759">
        <ele>950.4</ele>
        <time>2014-06-29T07:26:12Z</time>
      </trkpt>
      <trkpt lat="46.54516" lon="5.93753">
        <ele>950.8</ele>
        <time>2014-06-29T07:26:15Z</time>
      </trkpt>
      <trkpt lat="46.54507" lon="5.93743">
        <ele>951</ele>
        <time>2014-06-29T07:26:18Z</time>
      </trkpt>
      <trkpt lat="46.545" lon="5.93732">
        <ele>951.2</ele>
        <time>2014-06-29T07:26:21Z</time>
      </trkpt>
      <trkpt lat="46.54492" lon="5.9372">
        <ele>951.3</ele>
        <time>2014-06-29T07:26:25Z</time>
      </trkpt>
      <trkpt lat="46.54479" lon="5.937">
        <ele>951.9</ele>
        <time>2014-06-29T07:26:31Z</time>
      </trkpt>
      <trkpt lat="46.54472" lon="5.93692">
        <ele>952.4</ele>
        <time>2014-06-29T07:26:34Z</time>
      </trkpt>
      <trkpt lat="46.54463" lon="5.93681">
        <ele>953.1</ele>
        <time>2014-06-29T07:26:38Z</time>
      </trkpt>
      <trkpt lat="46.54456" lon="5.93671">
        <ele>954.1</ele>
        <time>2014-06-29T07:26:42Z</time>
      </trkpt>
      <trkpt lat="46.54448" lon="5.9366">
        <ele>955.1</ele>
        <time>2014-06-29T07:26:46Z</time>
      </trkpt>
      <trkpt lat="46.54442" lon="5.93651">
        <ele>955.7</ele>
        <time>2014-06-29T07:26:49Z</time>
      </trkpt>
      <trkpt lat="46.54435" lon="5.93638">
        <ele>956.7</ele>
        <time>2014-06-29T07:26:53Z</time>
      </trkpt>
      <trkpt lat="46.54436" lon="5.93622">
        <ele>957.7</ele>
        <time>2014-06-29T07:26:57Z</time>
      </trkpt>
      <trkpt lat="46.54439" lon="5.93608">
        <ele>958.7</ele>
        <time>2014-06-29T07:27:01Z</time>
      </trkpt>
      <trkpt lat="46.54442" lon="5.93595">
        <ele>959.1</ele>
        <time>2014-06-29T07:27:04Z</time>
      </trkpt>
      <trkpt lat="46.5444" lon="5.93579">
        <ele>959.9</ele>
        <time>2014-06-29T07:27:08Z</time>
      </trkpt>
      <trkpt lat="46.54435" lon="5.93567">
        <ele>960.7</ele>
        <time>2014-06-29T07:27:12Z</time>
      </trkpt>
      <trkpt lat="46.54425" lon="5.93559">
        <ele>961.4</ele>
        <time>2014-06-29T07:27:16Z</time>
      </trkpt>
      <trkpt lat="46.54414" lon="5.93555">
        <ele>962.2</ele>
        <time>2014-06-29T07:27:19Z</time>
      </trkpt>
      <trkpt lat="46.54403" lon="5.93552">
        <ele>963</ele>
        <time>2014-06-29T07:27:22Z</time>
      </trkpt>
      <trkpt lat="46.54393" lon="5.93549">
        <ele>963.2</ele>
        <time>2014-06-29T07:27:25Z</time>
      </trkpt>
      <trkpt lat="46.54373" lon="5.93542">
        <ele>964.4</ele>
        <time>2014-06-29T07:27:32Z</time>
      </trkpt>
      <trkpt lat="46.54364" lon="5.93539">
        <ele>964.9</ele>
        <time>2014-06-29T07:27:36Z</time>
      </trkpt>
      <trkpt lat="46.54355" lon="5.93538">
        <ele>965.5</ele>
        <time>2014-06-29T07:27:42Z</time>
      </trkpt>
      <trkpt lat="46.54346" lon="5.93535">
        <ele>965.4</ele>
        <time>2014-06-29T07:27:45Z</time>
      </trkpt>
      <trkpt lat="46.54334" lon="5.93532">
        <ele>965.9</ele>
        <time>2014-06-29T07:27:48Z</time>
      </trkpt>
      <trkpt lat="46.54324" lon="5.9353">
        <ele>965.8</ele>
        <time>2014-06-29T07:27:50Z</time>
      </trkpt>
      <trkpt lat="46.54312" lon="5.93528">
        <ele>966.3</ele>
        <time>2014-06-29T07:27:52Z</time>
      </trkpt>
      <trkpt lat="46.54303" lon="5.93524">
        <ele>966.6</ele>
        <time>2014-06-29T07:27:54Z</time>
      </trkpt>
      <trkpt lat="46.54293" lon="5.93515">
        <ele>966.5</ele>
        <time>2014-06-29T07:27:57Z</time>
      </trkpt>
      <trkpt lat="46.54282" lon="5.93507">
        <ele>966.6</ele>
        <time>2014-06-29T07:28:00Z</time>
      </trkpt>
      <trkpt lat="46.54274" lon="5.93494">
        <ele>966.7</ele>
        <time>2014-06-29T07:28:03Z</time>
      </trkpt>
      <trkpt lat="46.54266" lon="5.93485">
        <ele>967.2</ele>
        <time>2014-06-29T07:28:06Z</time>
      </trkpt>
      <trkpt lat="46.54258" lon="5.93475">
        <ele>967.6</ele>
        <time>2014-06-29T07:28:09Z</time>
      </trkpt>
      <trkpt lat="46.54249" lon="5.93465">
        <ele>967.9</ele>
        <time>2014-06-29T07:28:12Z</time>
      </trkpt>
      <trkpt lat="46.54243" lon="5.93454">
        <ele>967.9</ele>
        <time>2014-06-29T07:28:15Z</time>
      </trkpt>
      <trkpt lat="46.54232" lon="5.93443">
        <ele>967.8</ele>
        <time>2014-06-29T07:28:18Z</time>
      </trkpt>
      <trkpt lat="46.54223" lon="5.93437">
        <ele>967.7</ele>
        <time>2014-06-29T07:28:20Z</time>
      </trkpt>
      <trkpt lat="46.54213" lon="5.93427">
        <ele>967.5</ele>
        <time>2014-06-29T07:28:23Z</time>
      </trkpt>
      <trkpt lat="46.54202" lon="5.93416">
        <ele>967.2</ele>
        <time>2014-06-29T07:28:26Z</time>
      </trkpt>
      <trkpt lat="46.54192" lon="5.93406">
        <ele>967.1</ele>
        <time>2014-06-29T07:28:29Z</time>
      </trkpt>
      <trkpt lat="46.54174" lon="5.9338">
        <ele>965.8</ele>
        <time>2014-06-29T07:28:35Z</time>
      </trkpt>
      <trkpt lat="46.54168" lon="5.93367">
        <ele>965.4</ele>
        <time>2014-06-29T07:28:37Z</time>
      </trkpt>
      <trkpt lat="46.54161" lon="5.93356">
        <ele>964.8</ele>
        <time>2014-06-29T07:28:39Z</time>
      </trkpt>
      <trkpt lat="46.54151" lon="5.93346">
        <ele>964.1</ele>
        <time>2014-06-29T07:28:41Z</time>
      </trkpt>
      <trkpt lat="46.54136" lon="5.93332">
        <ele>963.3</ele>
        <time>2014-06-29T07:28:43Z</time>
      </trkpt>
      <trkpt lat="46.54129" lon="5.93325">
        <ele>962.9</ele>
        <time>2014-06-29T07:28:44Z</time>
      </trkpt>
      <trkpt lat="46.54119" lon="5.93315">
        <ele>962.6</ele>
        <time>2014-06-29T07:28:45Z</time>
      </trkpt>
      <trkpt lat="46.54106" lon="5.93302">
        <ele>962</ele>
        <time>2014-06-29T07:28:47Z</time>
      </trkpt>
      <trkpt lat="46.54095" lon="5.93289">
        <ele>961.4</ele>
        <time>2014-06-29T07:28:49Z</time>
      </trkpt>
      <trkpt lat="46.54086" lon="5.93278">
        <ele>961.4</ele>
        <time>2014-06-29T07:28:51Z</time>
      </trkpt>
      <trkpt lat="46.54077" lon="5.93267">
        <ele>961.2</ele>
        <time>2014-06-29T07:28:53Z</time>
      </trkpt>
      <trkpt lat="46.54069" lon="5.93257">
        <ele>961.3</ele>
        <time>2014-06-29T07:28:55Z</time>
      </trkpt>
      <trkpt lat="46.54061" lon="5.93248">
        <ele>961.3</ele>
        <time>2014-06-29T07:28:57Z</time>
      </trkpt>
      <trkpt lat="46.54054" lon="5.93233">
        <ele>961.5</ele>
        <time>2014-06-29T07:29:00Z</time>
      </trkpt>
      <trkpt lat="46.54049" lon="5.93217">
        <ele>961.5</ele>
        <time>2014-06-29T07:29:03Z</time>
      </trkpt>
      <trkpt lat="46.54049" lon="5.93201">
        <ele>961.2</ele>
        <time>2014-06-29T07:29:05Z</time>
      </trkpt>
      <trkpt lat="46.54047" lon="5.93186">
        <ele>960.8</ele>
        <time>2014-06-29T07:29:07Z</time>
      </trkpt>
      <trkpt lat="46.54039" lon="5.9317">
        <ele>959.9</ele>
        <time>2014-06-29T07:29:09Z</time>
      </trkpt>
      <trkpt lat="46.54031" lon="5.93154">
        <ele>959</ele>
        <time>2014-06-29T07:29:11Z</time>
      </trkpt>
      <trkpt lat="46.54021" lon="5.93139">
        <ele>958.2</ele>
        <time>2014-06-29T07:29:13Z</time>
      </trkpt>
      <trkpt lat="46.5401" lon="5.93124">
        <ele>957</ele>
        <time>2014-06-29T07:29:15Z</time>
      </trkpt>
      <trkpt lat="46.54004" lon="5.93115">
        <ele>956.4</ele>
        <time>2014-06-29T07:29:16Z</time>
      </trkpt>
      <trkpt lat="46.53997" lon="5.93106">
        <ele>955.7</ele>
        <time>2014-06-29T07:29:17Z</time>
      </trkpt>
      <trkpt lat="46.5399" lon="5.93094">
        <ele>955</ele>
        <time>2014-06-29T07:29:18Z</time>
      </trkpt>
      <trkpt lat="46.53984" lon="5.93084">
        <ele>954.1</ele>
        <time>2014-06-29T07:29:19Z</time>
      </trkpt>
      <trkpt lat="46.53979" lon="5.93073">
        <ele>953.5</ele>
        <time>2014-06-29T07:29:20Z</time>
      </trkpt>
      <trkpt lat="46.53968" lon="5.93051">
        <ele>951.8</ele>
        <time>2014-06-29T07:29:22Z</time>
      </trkpt>
      <trkpt lat="46.53961" lon="5.93038">
        <ele>951</ele>
        <time>2014-06-29T07:29:23Z</time>
      </trkpt>
      <trkpt lat="46.53953" lon="5.93024">
        <ele>950.1</ele>
        <time>2014-06-29T07:29:24Z</time>
      </trkpt>
      <trkpt lat="46.53944" lon="5.93011">
        <ele>949.4</ele>
        <time>2014-06-29T07:29:25Z</time>
      </trkpt>
      <trkpt lat="46.53936" lon="5.92998">
        <ele>948.5</ele>
        <time>2014-06-29T07:29:26Z</time>
      </trkpt>
      <trkpt lat="46.53928" lon="5.92986">
        <ele>947.6</ele>
        <time>2014-06-29T07:29:27Z</time>
      </trkpt>
      <trkpt lat="46.53919" lon="5.92973">
        <ele>946.8</ele>
        <time>2014-06-29T07:29:28Z</time>
      </trkpt>
      <trkpt lat="46.53912" lon="5.92961">
        <ele>946</ele>
        <time>2014-06-29T07:29:29Z</time>
      </trkpt>
      <trkpt lat="46.53905" lon="5.92948">
        <ele>945.1</ele>
        <time>2014-06-29T07:29:30Z</time>
      </trkpt>
      <trkpt lat="46.53898" lon="5.92934">
        <ele>944.3</ele>
        <time>2014-06-29T07:29:31Z</time>
      </trkpt>
      <trkpt lat="46.53885" lon="5.92907">
        <ele>942.5</ele>
        <time>2014-06-29T07:29:33Z</time>
      </trkpt>
      <trkpt lat="46.53878" lon="5.92894">
        <ele>941.6</ele>
        <time>2014-06-29T07:29:34Z</time>
      </trkpt>
      <trkpt lat="46.53871" lon="5.92881">
        <ele>940.8</ele>
        <time>2014-06-29T07:29:35Z</time>
      </trkpt>
      <trkpt lat="46.53863" lon="5.92868">
        <ele>939.9</ele>
        <time>2014-06-29T07:29:36Z</time>
      </trkpt>
      <trkpt lat="46.53856" lon="5.92855">
        <ele>939</ele>
        <time>2014-06-29T07:29:37Z</time>
      </trkpt>
      <trkpt lat="46.53849" lon="5.92841">
        <ele>937.9</ele>
        <time>2014-06-29T07:29:38Z</time>
      </trkpt>
      <trkpt lat="46.53842" lon="5.92827">
        <ele>936.9</ele>
        <time>2014-06-29T07:29:39Z</time>
      </trkpt>
      <trkpt lat="46.53836" lon="5.92813">
        <ele>935.8</ele>
        <time>2014-06-29T07:29:40Z</time>
      </trkpt>
      <trkpt lat="46.5383" lon="5.92798">
        <ele>934.8</ele>
        <time>2014-06-29T07:29:41Z</time>
      </trkpt>
      <trkpt lat="46.53825" lon="5.92783">
        <ele>933.8</ele>
        <time>2014-06-29T07:29:42Z</time>
      </trkpt>
      <trkpt lat="46.53821" lon="5.92768">
        <ele>932.4</ele>
        <time>2014-06-29T07:29:43Z</time>
      </trkpt>
      <trkpt lat="46.53818" lon="5.92753">
        <ele>931.1</ele>
        <time>2014-06-29T07:29:44Z</time>
      </trkpt>
      <trkpt lat="46.53817" lon="5.92738">
        <ele>930</ele>
        <time>2014-06-29T07:29:45Z</time>
      </trkpt>
      <trkpt lat="46.53817" lon="5.92724">
        <ele>928.7</ele>
        <time>2014-06-29T07:29:46Z</time>
      </trkpt>
      <trkpt lat="46.53817" lon="5.9271">
        <ele>927.7</ele>
        <time>2014-06-29T07:29:47Z</time>
      </trkpt>
      <trkpt lat="46.53815" lon="5.92697">
        <ele>926.5</ele>
        <time>2014-06-29T07:29:48Z</time>
      </trkpt>
      <trkpt lat="46.53812" lon="5.92684">
        <ele>925.6</ele>
        <time>2014-06-29T07:29:49Z</time>
      </trkpt>
      <trkpt lat="46.53808" lon="5.92671">
        <ele>924.5</ele>
        <time>2014-06-29T07:29:50Z</time>
      </trkpt>
      <trkpt lat="46.53803" lon="5.92658">
        <ele>923.8</ele>
        <time>2014-06-29T07:29:51Z</time>
      </trkpt>
      <trkpt lat="46.53797" lon="5.92645">
        <ele>923.2</ele>
        <time>2014-06-29T07:29:52Z</time>
      </trkpt>
      <trkpt lat="46.53792" lon="5.92632">
        <ele>922.7</ele>
        <time>2014-06-29T07:29:53Z</time>
      </trkpt>
      <trkpt lat="46.53787" lon="5.92619">
        <ele>921.9</ele>
        <time>2014-06-29T07:29:54Z</time>
      </trkpt>
      <trkpt lat="46.53782" lon="5.92605">
        <ele>920.9</ele>
        <time>2014-06-29T07:29:55Z</time>
      </trkpt>
      <trkpt lat="46.5378" lon="5.9259">
        <ele>920.2</ele>
        <time>2014-06-29T07:29:56Z</time>
      </trkpt>
      <trkpt lat="46.53778" lon="5.92575">
        <ele>919.4</ele>
        <time>2014-06-29T07:29:57Z</time>
      </trkpt>
      <trkpt lat="46.53777" lon="5.9256">
        <ele>918.5</ele>
        <time>2014-06-29T07:29:58Z</time>
      </trkpt>
      <trkpt lat="46.53777" lon="5.92544">
        <ele>917.7</ele>
        <time>2014-06-29T07:29:59Z</time>
      </trkpt>
      <trkpt lat="46.53778" lon="5.92529">
        <ele>916.8</ele>
        <time>2014-06-29T07:30:00Z</time>
      </trkpt>
      <trkpt lat="46.5378" lon="5.92514">
        <ele>916.1</ele>
        <time>2014-06-29T07:30:01Z</time>
      </trkpt>
      <trkpt lat="46.53783" lon="5.92499">
        <ele>915.2</ele>
        <time>2014-06-29T07:30:02Z</time>
      </trkpt>
      <trkpt lat="46.53786" lon="5.92485">
        <ele>914.3</ele>
        <time>2014-06-29T07:30:03Z</time>
      </trkpt>
      <trkpt lat="46.5379" lon="5.92471">
        <ele>913.6</ele>
        <time>2014-06-29T07:30:04Z</time>
      </trkpt>
      <trkpt lat="46.53793" lon="5.92458">
        <ele>912.9</ele>
        <time>2014-06-29T07:30:05Z</time>
      </trkpt>
      <trkpt lat="46.53796" lon="5.92444">
        <ele>912.5</ele>
        <time>2014-06-29T07:30:06Z</time>
      </trkpt>
      <trkpt lat="46.53799" lon="5.92432">
        <ele>912</ele>
        <time>2014-06-29T07:30:07Z</time>
      </trkpt>
      <trkpt lat="46.53803" lon="5.92419">
        <ele>911.4</ele>
        <time>2014-06-29T07:30:08Z</time>
      </trkpt>
      <trkpt lat="46.53808" lon="5.92394">
        <ele>910.1</ele>
        <time>2014-06-29T07:30:10Z</time>
      </trkpt>
      <trkpt lat="46.53814" lon="5.9237">
        <ele>908.8</ele>
        <time>2014-06-29T07:30:12Z</time>
      </trkpt>
      <trkpt lat="46.5382" lon="5.92347">
        <ele>907.9</ele>
        <time>2014-06-29T07:30:14Z</time>
      </trkpt>
      <trkpt lat="46.53824" lon="5.92326">
        <ele>906.8</ele>
        <time>2014-06-29T07:30:16Z</time>
      </trkpt>
      <trkpt lat="46.53824" lon="5.92309">
        <ele>905.7</ele>
        <time>2014-06-29T07:30:18Z</time>
      </trkpt>
      <trkpt lat="46.53819" lon="5.92295">
        <ele>905</ele>
        <time>2014-06-29T07:30:20Z</time>
      </trkpt>
      <trkpt lat="46.5381" lon="5.92287">
        <ele>904.6</ele>
        <time>2014-06-29T07:30:22Z</time>
      </trkpt>
      <trkpt lat="46.538" lon="5.9228">
        <ele>904.6</ele>
        <time>2014-06-29T07:30:24Z</time>
      </trkpt>
      <trkpt lat="46.5379" lon="5.92274">
        <ele>904.4</ele>
        <time>2014-06-29T07:30:26Z</time>
      </trkpt>
      <trkpt lat="46.53779" lon="5.92267">
        <ele>903.8</ele>
        <time>2014-06-29T07:30:28Z</time>
      </trkpt>
      <trkpt lat="46.53768" lon="5.9226">
        <ele>903.3</ele>
        <time>2014-06-29T07:30:30Z</time>
      </trkpt>
      <trkpt lat="46.53755" lon="5.92253">
        <ele>902.8</ele>
        <time>2014-06-29T07:30:32Z</time>
      </trkpt>
      <trkpt lat="46.53729" lon="5.92238">
        <ele>901.9</ele>
        <time>2014-06-29T07:30:36Z</time>
      </trkpt>
      <trkpt lat="46.53716" lon="5.92231">
        <ele>901.2</ele>
        <time>2014-06-29T07:30:38Z</time>
      </trkpt>
      <trkpt lat="46.53702" lon="5.92224">
        <ele>900.3</ele>
        <time>2014-06-29T07:30:40Z</time>
      </trkpt>
      <trkpt lat="46.53688" lon="5.92215">
        <ele>899.5</ele>
        <time>2014-06-29T07:30:42Z</time>
      </trkpt>
      <trkpt lat="46.53675" lon="5.92205">
        <ele>898.8</ele>
        <time>2014-06-29T07:30:44Z</time>
      </trkpt>
      <trkpt lat="46.53662" lon="5.92193">
        <ele>897.9</ele>
        <time>2014-06-29T07:30:46Z</time>
      </trkpt>
      <trkpt lat="46.5365" lon="5.92182">
        <ele>897.1</ele>
        <time>2014-06-29T07:30:48Z</time>
      </trkpt>
      <trkpt lat="46.53637" lon="5.92175">
        <ele>896.3</ele>
        <time>2014-06-29T07:30:50Z</time>
      </trkpt>
      <trkpt lat="46.53623" lon="5.92175">
        <ele>895.5</ele>
        <time>2014-06-29T07:30:52Z</time>
      </trkpt>
      <trkpt lat="46.53609" lon="5.9218">
        <ele>894.9</ele>
        <time>2014-06-29T07:30:54Z</time>
      </trkpt>
      <trkpt lat="46.53595" lon="5.92185">
        <ele>894.4</ele>
        <time>2014-06-29T07:30:56Z</time>
      </trkpt>
      <trkpt lat="46.53581" lon="5.92191">
        <ele>893.9</ele>
        <time>2014-06-29T07:30:58Z</time>
      </trkpt>
      <trkpt lat="46.53568" lon="5.92195">
        <ele>893.5</ele>
        <time>2014-06-29T07:31:00Z</time>
      </trkpt>
      <trkpt lat="46.53554" lon="5.92198">
        <ele>893.4</ele>
        <time>2014-06-29T07:31:02Z</time>
      </trkpt>
      <trkpt lat="46.5354" lon="5.922">
        <ele>893</ele>
        <time>2014-06-29T07:31:04Z</time>
      </trkpt>
      <trkpt lat="46.53526" lon="5.922">
        <ele>893.1</ele>
        <time>2014-06-29T07:31:06Z</time>
      </trkpt>
      <trkpt lat="46.53512" lon="5.92197">
        <ele>892.8</ele>
        <time>2014-06-29T07:31:08Z</time>
      </trkpt>
      <trkpt lat="46.53498" lon="5.92191">
        <ele>892.7</ele>
        <time>2014-06-29T07:31:10Z</time>
      </trkpt>
      <trkpt lat="46.53486" lon="5.92185">
        <ele>892.7</ele>
        <time>2014-06-29T07:31:12Z</time>
      </trkpt>
      <trkpt lat="46.53473" lon="5.92177">
        <ele>893.1</ele>
        <time>2014-06-29T07:31:14Z</time>
      </trkpt>
      <trkpt lat="46.5346" lon="5.92169">
        <ele>892.9</ele>
        <time>2014-06-29T07:31:16Z</time>
      </trkpt>
      <trkpt lat="46.53448" lon="5.92161">
        <ele>892.9</ele>
        <time>2014-06-29T07:31:18Z</time>
      </trkpt>
      <trkpt lat="46.53436" lon="5.92152">
        <ele>892.7</ele>
        <time>2014-06-29T07:31:20Z</time>
      </trkpt>
      <trkpt lat="46.53424" lon="5.92143">
        <ele>892.5</ele>
        <time>2014-06-29T07:31:22Z</time>
      </trkpt>
      <trkpt lat="46.53412" lon="5.92134">
        <ele>892.5</ele>
        <time>2014-06-29T07:31:24Z</time>
      </trkpt>
      <trkpt lat="46.534" lon="5.92125">
        <ele>892.4</ele>
        <time>2014-06-29T07:31:26Z</time>
      </trkpt>
      <trkpt lat="46.53388" lon="5.92117">
        <ele>892.3</ele>
        <time>2014-06-29T07:31:28Z</time>
      </trkpt>
      <trkpt lat="46.53376" lon="5.9211">
        <ele>892.3</ele>
        <time>2014-06-29T07:31:30Z</time>
      </trkpt>
      <trkpt lat="46.53365" lon="5.92103">
        <ele>892.3</ele>
        <time>2014-06-29T07:31:32Z</time>
      </trkpt>
      <trkpt lat="46.53355" lon="5.92096">
        <ele>892.3</ele>
        <time>2014-06-29T07:31:34Z</time>
      </trkpt>
      <trkpt lat="46.53335" lon="5.92078">
        <ele>892.4</ele>
        <time>2014-06-29T07:31:38Z</time>
      </trkpt>
      <trkpt lat="46.53326" lon="5.92067">
        <ele>892.3</ele>
        <time>2014-06-29T07:31:40Z</time>
      </trkpt>
      <trkpt lat="46.53316" lon="5.92054">
        <ele>892</ele>
        <time>2014-06-29T07:31:42Z</time>
      </trkpt>
      <trkpt lat="46.53307" lon="5.92042">
        <ele>891.7</ele>
        <time>2014-06-29T07:31:44Z</time>
      </trkpt>
      <trkpt lat="46.53298" lon="5.92029">
        <ele>891.3</ele>
        <time>2014-06-29T07:31:46Z</time>
      </trkpt>
      <trkpt lat="46.5329" lon="5.92017">
        <ele>891.4</ele>
        <time>2014-06-29T07:31:48Z</time>
      </trkpt>
      <trkpt lat="46.53281" lon="5.92006">
        <ele>891.3</ele>
        <time>2014-06-29T07:31:50Z</time>
      </trkpt>
      <trkpt lat="46.53273" lon="5.91994">
        <ele>891.3</ele>
        <time>2014-06-29T07:31:52Z</time>
      </trkpt>
      <trkpt lat="46.53265" lon="5.91982">
        <ele>891.4</ele>
        <time>2014-06-29T07:31:54Z</time>
      </trkpt>
      <trkpt lat="46.53257" lon="5.9197">
        <ele>891.5</ele>
        <time>2014-06-29T07:31:56Z</time>
      </trkpt>
      <trkpt lat="46.53249" lon="5.91958">
        <ele>891.6</ele>
        <time>2014-06-29T07:31:58Z</time>
      </trkpt>
      <trkpt lat="46.53242" lon="5.91945">
        <ele>891.5</ele>
        <time>2014-06-29T07:32:00Z</time>
      </trkpt>
      <trkpt lat="46.53235" lon="5.91933">
        <ele>891.6</ele>
        <time>2014-06-29T07:32:02Z</time>
      </trkpt>
      <trkpt lat="46.53227" lon="5.9192">
        <ele>891.7</ele>
        <time>2014-06-29T07:32:04Z</time>
      </trkpt>
      <trkpt lat="46.5322" lon="5.91907">
        <ele>891.5</ele>
        <time>2014-06-29T07:32:06Z</time>
      </trkpt>
      <trkpt lat="46.53213" lon="5.91893">
        <ele>891.3</ele>
        <time>2014-06-29T07:32:08Z</time>
      </trkpt>
      <trkpt lat="46.53206" lon="5.9188">
        <ele>891.4</ele>
        <time>2014-06-29T07:32:10Z</time>
      </trkpt>
      <trkpt lat="46.53197" lon="5.91866">
        <ele>891.2</ele>
        <time>2014-06-29T07:32:12Z</time>
      </trkpt>
      <trkpt lat="46.53189" lon="5.91851">
        <ele>891.5</ele>
        <time>2014-06-29T07:32:14Z</time>
      </trkpt>
      <trkpt lat="46.53182" lon="5.91836">
        <ele>891.6</ele>
        <time>2014-06-29T07:32:16Z</time>
      </trkpt>
      <trkpt lat="46.53174" lon="5.9182">
        <ele>891</ele>
        <time>2014-06-29T07:32:18Z</time>
      </trkpt>
      <trkpt lat="46.53166" lon="5.91806">
        <ele>890.7</ele>
        <time>2014-06-29T07:32:20Z</time>
      </trkpt>
      <trkpt lat="46.53158" lon="5.91794">
        <ele>890.5</ele>
        <time>2014-06-29T07:32:22Z</time>
      </trkpt>
      <trkpt lat="46.53153" lon="5.91779">
        <ele>890.1</ele>
        <time>2014-06-29T07:32:24Z</time>
      </trkpt>
      <trkpt lat="46.53145" lon="5.91769">
        <ele>889.7</ele>
        <time>2014-06-29T07:32:26Z</time>
      </trkpt>
      <trkpt lat="46.53137" lon="5.91762">
        <ele>889.8</ele>
        <time>2014-06-29T07:32:28Z</time>
      </trkpt>
      <trkpt lat="46.53127" lon="5.91754">
        <ele>890.2</ele>
        <time>2014-06-29T07:32:31Z</time>
      </trkpt>
      <trkpt lat="46.53116" lon="5.91752">
        <ele>890.8</ele>
        <time>2014-06-29T07:32:34Z</time>
      </trkpt>
      <trkpt lat="46.53105" lon="5.91748">
        <ele>891</ele>
        <time>2014-06-29T07:32:37Z</time>
      </trkpt>
      <trkpt lat="46.53087" lon="5.91724">
        <ele>891.3</ele>
        <time>2014-06-29T07:32:43Z</time>
      </trkpt>
      <trkpt lat="46.5308" lon="5.91716">
        <ele>891.5</ele>
        <time>2014-06-29T07:32:46Z</time>
      </trkpt>
      <trkpt lat="46.53071" lon="5.91706">
        <ele>891.4</ele>
        <time>2014-06-29T07:32:50Z</time>
      </trkpt>
      <trkpt lat="46.53062" lon="5.91694">
        <ele>891</ele>
        <time>2014-06-29T07:32:54Z</time>
      </trkpt>
      <trkpt lat="46.53052" lon="5.91691">
        <ele>891</ele>
        <time>2014-06-29T07:32:57Z</time>
      </trkpt>
      <trkpt lat="46.53043" lon="5.91684">
        <ele>890.9</ele>
        <time>2014-06-29T07:33:00Z</time>
      </trkpt>
      <trkpt lat="46.53033" lon="5.91671">
        <ele>890.7</ele>
        <time>2014-06-29T07:33:03Z</time>
      </trkpt>
      <trkpt lat="46.53024" lon="5.91658">
        <ele>890.6</ele>
        <time>2014-06-29T07:33:06Z</time>
      </trkpt>
      <trkpt lat="46.53014" lon="5.91645">
        <ele>890.7</ele>
        <time>2014-06-29T07:33:09Z</time>
      </trkpt>
      <trkpt lat="46.53004" lon="5.91632">
        <ele>890.5</ele>
        <time>2014-06-29T07:33:12Z</time>
      </trkpt>
      <trkpt lat="46.52994" lon="5.91621">
        <ele>890.3</ele>
        <time>2014-06-29T07:33:15Z</time>
      </trkpt>
      <trkpt lat="46.52984" lon="5.91609">
        <ele>890.4</ele>
        <time>2014-06-29T07:33:18Z</time>
      </trkpt>
      <trkpt lat="46.52975" lon="5.91597">
        <ele>890.3</ele>
        <time>2014-06-29T07:33:21Z</time>
      </trkpt>
      <trkpt lat="46.52966" lon="5.91584">
        <ele>890.4</ele>
        <time>2014-06-29T07:33:24Z</time>
      </trkpt>
      <trkpt lat="46.52957" lon="5.91571">
        <ele>890.5</ele>
        <time>2014-06-29T07:33:27Z</time>
      </trkpt>
      <trkpt lat="46.52948" lon="5.91559">
        <ele>890.3</ele>
        <time>2014-06-29T07:33:30Z</time>
      </trkpt>
      <trkpt lat="46.52939" lon="5.91547">
        <ele>890</ele>
        <time>2014-06-29T07:33:33Z</time>
      </trkpt>
      <trkpt lat="46.52931" lon="5.91534">
        <ele>889.6</ele>
        <time>2014-06-29T07:33:36Z</time>
      </trkpt>
      <trkpt lat="46.52922" lon="5.91521">
        <ele>889.8</ele>
        <time>2014-06-29T07:33:39Z</time>
      </trkpt>
      <trkpt lat="46.52905" lon="5.91498">
        <ele>889.7</ele>
        <time>2014-06-29T07:33:45Z</time>
      </trkpt>
      <trkpt lat="46.52898" lon="5.91487">
        <ele>889.5</ele>
        <time>2014-06-29T07:33:48Z</time>
      </trkpt>
      <trkpt lat="46.5289" lon="5.91476">
        <ele>889.8</ele>
        <time>2014-06-29T07:33:51Z</time>
      </trkpt>
      <trkpt lat="46.52882" lon="5.91466">
        <ele>890</ele>
        <time>2014-06-29T07:33:54Z</time>
      </trkpt>
      <trkpt lat="46.52872" lon="5.91452">
        <ele>890.5</ele>
        <time>2014-06-29T07:33:57Z</time>
      </trkpt>
      <trkpt lat="46.52867" lon="5.91441">
        <ele>890.7</ele>
        <time>2014-06-29T07:33:59Z</time>
      </trkpt>
      <trkpt lat="46.52861" lon="5.91429">
        <ele>891.1</ele>
        <time>2014-06-29T07:34:01Z</time>
      </trkpt>
      <trkpt lat="46.52854" lon="5.91417">
        <ele>891</ele>
        <time>2014-06-29T07:34:03Z</time>
      </trkpt>
      <trkpt lat="46.52847" lon="5.91406">
        <ele>891.1</ele>
        <time>2014-06-29T07:34:05Z</time>
      </trkpt>
      <trkpt lat="46.52839" lon="5.91395">
        <ele>891.3</ele>
        <time>2014-06-29T07:34:07Z</time>
      </trkpt>
      <trkpt lat="46.52832" lon="5.91384">
        <ele>891.3</ele>
        <time>2014-06-29T07:34:09Z</time>
      </trkpt>
      <trkpt lat="46.52824" lon="5.91373">
        <ele>891.2</ele>
        <time>2014-06-29T07:34:11Z</time>
      </trkpt>
      <trkpt lat="46.52817" lon="5.91361">
        <ele>891.2</ele>
        <time>2014-06-29T07:34:13Z</time>
      </trkpt>
      <trkpt lat="46.52809" lon="5.91349">
        <ele>891</ele>
        <time>2014-06-29T07:34:15Z</time>
      </trkpt>
      <trkpt lat="46.52802" lon="5.91336">
        <ele>890.8</ele>
        <time>2014-06-29T07:34:17Z</time>
      </trkpt>
      <trkpt lat="46.52795" lon="5.91324">
        <ele>890.6</ele>
        <time>2014-06-29T07:34:19Z</time>
      </trkpt>
      <trkpt lat="46.52787" lon="5.91311">
        <ele>890.5</ele>
        <time>2014-06-29T07:34:21Z</time>
      </trkpt>
      <trkpt lat="46.52779" lon="5.91298">
        <ele>890.6</ele>
        <time>2014-06-29T07:34:23Z</time>
      </trkpt>
      <trkpt lat="46.52771" lon="5.91285">
        <ele>890.5</ele>
        <time>2014-06-29T07:34:25Z</time>
      </trkpt>
      <trkpt lat="46.52763" lon="5.91272">
        <ele>890.1</ele>
        <time>2014-06-29T07:34:27Z</time>
      </trkpt>
      <trkpt lat="46.52755" lon="5.91259">
        <ele>889.9</ele>
        <time>2014-06-29T07:34:29Z</time>
      </trkpt>
      <trkpt lat="46.52748" lon="5.91245">
        <ele>889.8</ele>
        <time>2014-06-29T07:34:31Z</time>
      </trkpt>
      <trkpt lat="46.52741" lon="5.91231">
        <ele>889.8</ele>
        <time>2014-06-29T07:34:33Z</time>
      </trkpt>
      <trkpt lat="46.52734" lon="5.91218">
        <ele>889.8</ele>
        <time>2014-06-29T07:34:35Z</time>
      </trkpt>
      <trkpt lat="46.52727" lon="5.91204">
        <ele>889.9</ele>
        <time>2014-06-29T07:34:37Z</time>
      </trkpt>
      <trkpt lat="46.5272" lon="5.91189">
        <ele>889.9</ele>
        <time>2014-06-29T07:34:39Z</time>
      </trkpt>
      <trkpt lat="46.52714" lon="5.91175">
        <ele>889.9</ele>
        <time>2014-06-29T07:34:41Z</time>
      </trkpt>
      <trkpt lat="46.52698" lon="5.91149">
        <ele>889.9</ele>
        <time>2014-06-29T07:34:45Z</time>
      </trkpt>
      <trkpt lat="46.52689" lon="5.91137">
        <ele>890</ele>
        <time>2014-06-29T07:34:47Z</time>
      </trkpt>
      <trkpt lat="46.5268" lon="5.91124">
        <ele>890.2</ele>
        <time>2014-06-29T07:34:49Z</time>
      </trkpt>
      <trkpt lat="46.52672" lon="5.91112">
        <ele>890</ele>
        <time>2014-06-29T07:34:51Z</time>
      </trkpt>
      <trkpt lat="46.52664" lon="5.91099">
        <ele>890.3</ele>
        <time>2014-06-29T07:34:53Z</time>
      </trkpt>
      <trkpt lat="46.52656" lon="5.91086">
        <ele>890.3</ele>
        <time>2014-06-29T07:34:55Z</time>
      </trkpt>
      <trkpt lat="46.52647" lon="5.91074">
        <ele>890.3</ele>
        <time>2014-06-29T07:34:57Z</time>
      </trkpt>
      <trkpt lat="46.52638" lon="5.91063">
        <ele>890.5</ele>
        <time>2014-06-29T07:34:59Z</time>
      </trkpt>
      <trkpt lat="46.52631" lon="5.91051">
        <ele>890.5</ele>
        <time>2014-06-29T07:35:01Z</time>
      </trkpt>
      <trkpt lat="46.52624" lon="5.91039">
        <ele>890.6</ele>
        <time>2014-06-29T07:35:03Z</time>
      </trkpt>
      <trkpt lat="46.52616" lon="5.91027">
        <ele>890.6</ele>
        <time>2014-06-29T07:35:05Z</time>
      </trkpt>
      <trkpt lat="46.52609" lon="5.91015">
        <ele>890.4</ele>
        <time>2014-06-29T07:35:07Z</time>
      </trkpt>
      <trkpt lat="46.52601" lon="5.91003">
        <ele>890.6</ele>
        <time>2014-06-29T07:35:09Z</time>
      </trkpt>
      <trkpt lat="46.52593" lon="5.90992">
        <ele>890.5</ele>
        <time>2014-06-29T07:35:11Z</time>
      </trkpt>
      <trkpt lat="46.52586" lon="5.9098">
        <ele>890.3</ele>
        <time>2014-06-29T07:35:13Z</time>
      </trkpt>
      <trkpt lat="46.52578" lon="5.90968">
        <ele>890.4</ele>
        <time>2014-06-29T07:35:15Z</time>
      </trkpt>
      <trkpt lat="46.52571" lon="5.90956">
        <ele>890.3</ele>
        <time>2014-06-29T07:35:17Z</time>
      </trkpt>
      <trkpt lat="46.52564" lon="5.90944">
        <ele>890.5</ele>
        <time>2014-06-29T07:35:19Z</time>
      </trkpt>
      <trkpt lat="46.52556" lon="5.90932">
        <ele>890.4</ele>
        <time>2014-06-29T07:35:21Z</time>
      </trkpt>
      <trkpt lat="46.52548" lon="5.9092">
        <ele>890.4</ele>
        <time>2014-06-29T07:35:23Z</time>
      </trkpt>
      <trkpt lat="46.52539" lon="5.90908">
        <ele>890.3</ele>
        <time>2014-06-29T07:35:25Z</time>
      </trkpt>
      <trkpt lat="46.52531" lon="5.90892">
        <ele>890</ele>
        <time>2014-06-29T07:35:27Z</time>
      </trkpt>
      <trkpt lat="46.52524" lon="5.90878">
        <ele>889.8</ele>
        <time>2014-06-29T07:35:29Z</time>
      </trkpt>
      <trkpt lat="46.52515" lon="5.90866">
        <ele>889.7</ele>
        <time>2014-06-29T07:35:31Z</time>
      </trkpt>
      <trkpt lat="46.52507" lon="5.90852">
        <ele>889.4</ele>
        <time>2014-06-29T07:35:33Z</time>
      </trkpt>
      <trkpt lat="46.525" lon="5.90839">
        <ele>889.2</ele>
        <time>2014-06-29T07:35:35Z</time>
      </trkpt>
      <trkpt lat="46.52493" lon="5.90825">
        <ele>889</ele>
        <time>2014-06-29T07:35:37Z</time>
      </trkpt>
      <trkpt lat="46.52487" lon="5.9081">
        <ele>888.8</ele>
        <time>2014-06-29T07:35:39Z</time>
      </trkpt>
      <trkpt lat="46.52481" lon="5.90795">
        <ele>888.9</ele>
        <time>2014-06-29T07:35:41Z</time>
      </trkpt>
      <trkpt lat="46.52475" lon="5.9078">
        <ele>889</ele>
        <time>2014-06-29T07:35:43Z</time>
      </trkpt>
      <trkpt lat="46.52464" lon="5.90748">
        <ele>888.6</ele>
        <time>2014-06-29T07:35:47Z</time>
      </trkpt>
      <trkpt lat="46.52458" lon="5.90732">
        <ele>888.5</ele>
        <time>2014-06-29T07:35:49Z</time>
      </trkpt>
      <trkpt lat="46.52452" lon="5.90717">
        <ele>888</ele>
        <time>2014-06-29T07:35:51Z</time>
      </trkpt>
      <trkpt lat="46.52445" lon="5.90702">
        <ele>888</ele>
        <time>2014-06-29T07:35:53Z</time>
      </trkpt>
      <trkpt lat="46.52438" lon="5.90687">
        <ele>888</ele>
        <time>2014-06-29T07:35:55Z</time>
      </trkpt>
      <trkpt lat="46.52431" lon="5.90673">
        <ele>888</ele>
        <time>2014-06-29T07:35:57Z</time>
      </trkpt>
      <trkpt lat="46.52423" lon="5.90662">
        <ele>888</ele>
        <time>2014-06-29T07:35:59Z</time>
      </trkpt>
      <trkpt lat="46.52416" lon="5.90651">
        <ele>888.4</ele>
        <time>2014-06-29T07:36:01Z</time>
      </trkpt>
      <trkpt lat="46.5241" lon="5.90639">
        <ele>888.9</ele>
        <time>2014-06-29T07:36:03Z</time>
      </trkpt>
      <trkpt lat="46.52405" lon="5.90627">
        <ele>888.9</ele>
        <time>2014-06-29T07:36:05Z</time>
      </trkpt>
      <trkpt lat="46.524" lon="5.90615">
        <ele>889.1</ele>
        <time>2014-06-29T07:36:07Z</time>
      </trkpt>
      <trkpt lat="46.52394" lon="5.90601">
        <ele>889.2</ele>
        <time>2014-06-29T07:36:09Z</time>
      </trkpt>
      <trkpt lat="46.5239" lon="5.90587">
        <ele>889.3</ele>
        <time>2014-06-29T07:36:11Z</time>
      </trkpt>
      <trkpt lat="46.52385" lon="5.90573">
        <ele>889.4</ele>
        <time>2014-06-29T07:36:13Z</time>
      </trkpt>
      <trkpt lat="46.52379" lon="5.90558">
        <ele>889.2</ele>
        <time>2014-06-29T07:36:15Z</time>
      </trkpt>
      <trkpt lat="46.52373" lon="5.90543">
        <ele>889.2</ele>
        <time>2014-06-29T07:36:17Z</time>
      </trkpt>
      <trkpt lat="46.52368" lon="5.90528">
        <ele>889.3</ele>
        <time>2014-06-29T07:36:19Z</time>
      </trkpt>
      <trkpt lat="46.5236" lon="5.90514">
        <ele>889.3</ele>
        <time>2014-06-29T07:36:21Z</time>
      </trkpt>
      <trkpt lat="46.52353" lon="5.90499">
        <ele>889.2</ele>
        <time>2014-06-29T07:36:23Z</time>
      </trkpt>
      <trkpt lat="46.52346" lon="5.90484">
        <ele>889</ele>
        <time>2014-06-29T07:36:25Z</time>
      </trkpt>
      <trkpt lat="46.52339" lon="5.90469">
        <ele>888.9</ele>
        <time>2014-06-29T07:36:27Z</time>
      </trkpt>
      <trkpt lat="46.52332" lon="5.90455">
        <ele>889</ele>
        <time>2014-06-29T07:36:29Z</time>
      </trkpt>
      <trkpt lat="46.52325" lon="5.90441">
        <ele>889</ele>
        <time>2014-06-29T07:36:31Z</time>
      </trkpt>
      <trkpt lat="46.52318" lon="5.90426">
        <ele>888.9</ele>
        <time>2014-06-29T07:36:33Z</time>
      </trkpt>
      <trkpt lat="46.52311" lon="5.90411">
        <ele>888.8</ele>
        <time>2014-06-29T07:36:35Z</time>
      </trkpt>
      <trkpt lat="46.52305" lon="5.90397">
        <ele>888.8</ele>
        <time>2014-06-29T07:36:37Z</time>
      </trkpt>
      <trkpt lat="46.52298" lon="5.90383">
        <ele>888.7</ele>
        <time>2014-06-29T07:36:39Z</time>
      </trkpt>
      <trkpt lat="46.52292" lon="5.9037">
        <ele>889.1</ele>
        <time>2014-06-29T07:36:41Z</time>
      </trkpt>
      <trkpt lat="46.52285" lon="5.90356">
        <ele>889.2</ele>
        <time>2014-06-29T07:36:43Z</time>
      </trkpt>
      <trkpt lat="46.52278" lon="5.90341">
        <ele>889.2</ele>
        <time>2014-06-29T07:36:45Z</time>
      </trkpt>
      <trkpt lat="46.52266" lon="5.90312">
        <ele>889.2</ele>
        <time>2014-06-29T07:36:49Z</time>
      </trkpt>
      <trkpt lat="46.52259" lon="5.90299">
        <ele>889.2</ele>
        <time>2014-06-29T07:36:51Z</time>
      </trkpt>
      <trkpt lat="46.52253" lon="5.90285">
        <ele>889.5</ele>
        <time>2014-06-29T07:36:53Z</time>
      </trkpt>
      <trkpt lat="46.52246" lon="5.90272">
        <ele>889.7</ele>
        <time>2014-06-29T07:36:55Z</time>
      </trkpt>
      <trkpt lat="46.52239" lon="5.90258">
        <ele>889.8</ele>
        <time>2014-06-29T07:36:57Z</time>
      </trkpt>
      <trkpt lat="46.52232" lon="5.90245">
        <ele>890</ele>
        <time>2014-06-29T07:36:59Z</time>
      </trkpt>
      <trkpt lat="46.52223" lon="5.9023">
        <ele>889.9</ele>
        <time>2014-06-29T07:37:01Z</time>
      </trkpt>
      <trkpt lat="46.52215" lon="5.90215">
        <ele>889.9</ele>
        <time>2014-06-29T07:37:03Z</time>
      </trkpt>
      <trkpt lat="46.5221" lon="5.90198">
        <ele>890.1</ele>
        <time>2014-06-29T07:37:05Z</time>
      </trkpt>
      <trkpt lat="46.52205" lon="5.90183">
        <ele>890.2</ele>
        <time>2014-06-29T07:37:07Z</time>
      </trkpt>
      <trkpt lat="46.52202" lon="5.90167">
        <ele>890.5</ele>
        <time>2014-06-29T07:37:09Z</time>
      </trkpt>
      <trkpt lat="46.52198" lon="5.90151">
        <ele>890.6</ele>
        <time>2014-06-29T07:37:11Z</time>
      </trkpt>
      <trkpt lat="46.52196" lon="5.90136">
        <ele>890.7</ele>
        <time>2014-06-29T07:37:13Z</time>
      </trkpt>
      <trkpt lat="46.52193" lon="5.9012">
        <ele>890.6</ele>
        <time>2014-06-29T07:37:15Z</time>
      </trkpt>
      <trkpt lat="46.5219" lon="5.90104">
        <ele>890.8</ele>
        <time>2014-06-29T07:37:17Z</time>
      </trkpt>
      <trkpt lat="46.52188" lon="5.90088">
        <ele>890.9</ele>
        <time>2014-06-29T07:37:19Z</time>
      </trkpt>
      <trkpt lat="46.52185" lon="5.90072">
        <ele>890.7</ele>
        <time>2014-06-29T07:37:21Z</time>
      </trkpt>
      <trkpt lat="46.52184" lon="5.90057">
        <ele>890.5</ele>
        <time>2014-06-29T07:37:23Z</time>
      </trkpt>
      <trkpt lat="46.52183" lon="5.90041">
        <ele>890.4</ele>
        <time>2014-06-29T07:37:25Z</time>
      </trkpt>
      <trkpt lat="46.52185" lon="5.90024">
        <ele>890.6</ele>
        <time>2014-06-29T07:37:27Z</time>
      </trkpt>
      <trkpt lat="46.52187" lon="5.90009">
        <ele>890.6</ele>
        <time>2014-06-29T07:37:29Z</time>
      </trkpt>
      <trkpt lat="46.52191" lon="5.89994">
        <ele>890.6</ele>
        <time>2014-06-29T07:37:31Z</time>
      </trkpt>
      <trkpt lat="46.52196" lon="5.8998">
        <ele>890.6</ele>
        <time>2014-06-29T07:37:33Z</time>
      </trkpt>
      <trkpt lat="46.522" lon="5.89965">
        <ele>890.6</ele>
        <time>2014-06-29T07:37:35Z</time>
      </trkpt>
      <trkpt lat="46.52204" lon="5.8995">
        <ele>890.7</ele>
        <time>2014-06-29T07:37:37Z</time>
      </trkpt>
      <trkpt lat="46.52206" lon="5.89936">
        <ele>891.1</ele>
        <time>2014-06-29T07:37:39Z</time>
      </trkpt>
      <trkpt lat="46.52209" lon="5.89921">
        <ele>891.3</ele>
        <time>2014-06-29T07:37:41Z</time>
      </trkpt>
      <trkpt lat="46.52211" lon="5.89906">
        <ele>891.7</ele>
        <time>2014-06-29T07:37:43Z</time>
      </trkpt>
      <trkpt lat="46.52212" lon="5.89893">
        <ele>892</ele>
        <time>2014-06-29T07:37:45Z</time>
      </trkpt>
      <trkpt lat="46.52213" lon="5.89879">
        <ele>892.4</ele>
        <time>2014-06-29T07:37:47Z</time>
      </trkpt>
      <trkpt lat="46.52216" lon="5.89847">
        <ele>893.6</ele>
        <time>2014-06-29T07:37:52Z</time>
      </trkpt>
      <trkpt lat="46.5222" lon="5.89829">
        <ele>894.1</ele>
        <time>2014-06-29T07:37:55Z</time>
      </trkpt>
      <trkpt lat="46.52226" lon="5.89811">
        <ele>894.4</ele>
        <time>2014-06-29T07:37:58Z</time>
      </trkpt>
      <trkpt lat="46.52232" lon="5.89799">
        <ele>894.3</ele>
        <time>2014-06-29T07:38:00Z</time>
      </trkpt>
      <trkpt lat="46.5224" lon="5.89785">
        <ele>894.3</ele>
        <time>2014-06-29T07:38:02Z</time>
      </trkpt>
      <trkpt lat="46.52248" lon="5.89772">
        <ele>894.1</ele>
        <time>2014-06-29T07:38:04Z</time>
      </trkpt>
      <trkpt lat="46.52256" lon="5.89759">
        <ele>894</ele>
        <time>2014-06-29T07:38:06Z</time>
      </trkpt>
      <trkpt lat="46.52264" lon="5.89747">
        <ele>893.6</ele>
        <time>2014-06-29T07:38:08Z</time>
      </trkpt>
      <trkpt lat="46.52273" lon="5.89736">
        <ele>893.3</ele>
        <time>2014-06-29T07:38:10Z</time>
      </trkpt>
      <trkpt lat="46.52282" lon="5.89727">
        <ele>893.2</ele>
        <time>2014-06-29T07:38:12Z</time>
      </trkpt>
      <trkpt lat="46.52294" lon="5.89722">
        <ele>893</ele>
        <time>2014-06-29T07:38:14Z</time>
      </trkpt>
      <trkpt lat="46.52304" lon="5.89717">
        <ele>893</ele>
        <time>2014-06-29T07:38:16Z</time>
      </trkpt>
      <trkpt lat="46.52314" lon="5.8971">
        <ele>893.1</ele>
        <time>2014-06-29T07:38:18Z</time>
      </trkpt>
      <trkpt lat="46.52321" lon="5.89701">
        <ele>893.3</ele>
        <time>2014-06-29T07:38:20Z</time>
      </trkpt>
      <trkpt lat="46.52328" lon="5.8969">
        <ele>893.4</ele>
        <time>2014-06-29T07:38:22Z</time>
      </trkpt>
      <trkpt lat="46.52333" lon="5.89678">
        <ele>893.8</ele>
        <time>2014-06-29T07:38:24Z</time>
      </trkpt>
      <trkpt lat="46.52337" lon="5.89664">
        <ele>893.8</ele>
        <time>2014-06-29T07:38:26Z</time>
      </trkpt>
      <trkpt lat="46.52341" lon="5.8965">
        <ele>893.8</ele>
        <time>2014-06-29T07:38:28Z</time>
      </trkpt>
      <trkpt lat="46.52346" lon="5.89636">
        <ele>894.2</ele>
        <time>2014-06-29T07:38:30Z</time>
      </trkpt>
      <trkpt lat="46.5235" lon="5.89622">
        <ele>894.5</ele>
        <time>2014-06-29T07:38:32Z</time>
      </trkpt>
      <trkpt lat="46.52355" lon="5.89608">
        <ele>894.7</ele>
        <time>2014-06-29T07:38:34Z</time>
      </trkpt>
      <trkpt lat="46.5236" lon="5.89595">
        <ele>894.8</ele>
        <time>2014-06-29T07:38:36Z</time>
      </trkpt>
      <trkpt lat="46.52365" lon="5.89584">
        <ele>894.8</ele>
        <time>2014-06-29T07:38:38Z</time>
      </trkpt>
      <trkpt lat="46.52371" lon="5.89572">
        <ele>895</ele>
        <time>2014-06-29T07:38:40Z</time>
      </trkpt>
      <trkpt lat="46.52377" lon="5.89561">
        <ele>895.1</ele>
        <time>2014-06-29T07:38:42Z</time>
      </trkpt>
      <trkpt lat="46.52383" lon="5.89551">
        <ele>895.4</ele>
        <time>2014-06-29T07:38:44Z</time>
      </trkpt>
      <trkpt lat="46.52389" lon="5.89541">
        <ele>895.7</ele>
        <time>2014-06-29T07:38:46Z</time>
      </trkpt>
      <trkpt lat="46.52397" lon="5.89528">
        <ele>895.9</ele>
        <time>2014-06-29T07:38:49Z</time>
      </trkpt>
      <trkpt lat="46.52418" lon="5.89526">
        <ele>896.4</ele>
        <time>2014-06-29T07:38:55Z</time>
      </trkpt>
      <trkpt lat="46.52425" lon="5.89536">
        <ele>897</ele>
        <time>2014-06-29T07:38:58Z</time>
      </trkpt>
      <trkpt lat="46.52433" lon="5.89549">
        <ele>898</ele>
        <time>2014-06-29T07:39:02Z</time>
      </trkpt>
      <trkpt lat="46.5244" lon="5.89559">
        <ele>898.9</ele>
        <time>2014-06-29T07:39:05Z</time>
      </trkpt>
      <trkpt lat="46.52445" lon="5.8957">
        <ele>899.3</ele>
        <time>2014-06-29T07:39:08Z</time>
      </trkpt>
      <trkpt lat="46.52453" lon="5.89582">
        <ele>900</ele>
        <time>2014-06-29T07:39:12Z</time>
      </trkpt>
      <trkpt lat="46.52459" lon="5.89592">
        <ele>900.8</ele>
        <time>2014-06-29T07:39:15Z</time>
      </trkpt>
      <trkpt lat="46.52466" lon="5.89604">
        <ele>901.2</ele>
        <time>2014-06-29T07:39:18Z</time>
      </trkpt>
      <trkpt lat="46.52474" lon="5.89618">
        <ele>901.5</ele>
        <time>2014-06-29T07:39:21Z</time>
      </trkpt>
      <trkpt lat="46.5248" lon="5.8963">
        <ele>901.2</ele>
        <time>2014-06-29T07:39:23Z</time>
      </trkpt>
      <trkpt lat="46.52487" lon="5.89643">
        <ele>900.9</ele>
        <time>2014-06-29T07:39:25Z</time>
      </trkpt>
      <trkpt lat="46.52494" lon="5.89657">
        <ele>900.8</ele>
        <time>2014-06-29T07:39:27Z</time>
      </trkpt>
      <trkpt lat="46.52502" lon="5.89668">
        <ele>900.9</ele>
        <time>2014-06-29T07:39:29Z</time>
      </trkpt>
      <trkpt lat="46.52512" lon="5.89676">
        <ele>900.7</ele>
        <time>2014-06-29T07:39:31Z</time>
      </trkpt>
      <trkpt lat="46.52523" lon="5.89683">
        <ele>900.5</ele>
        <time>2014-06-29T07:39:33Z</time>
      </trkpt>
      <trkpt lat="46.52534" lon="5.89688">
        <ele>900.1</ele>
        <time>2014-06-29T07:39:35Z</time>
      </trkpt>
      <trkpt lat="46.52546" lon="5.89693">
        <ele>900.1</ele>
        <time>2014-06-29T07:39:37Z</time>
      </trkpt>
      <trkpt lat="46.52557" lon="5.897">
        <ele>900</ele>
        <time>2014-06-29T07:39:39Z</time>
      </trkpt>
      <trkpt lat="46.52568" lon="5.89709">
        <ele>899.7</ele>
        <time>2014-06-29T07:39:41Z</time>
      </trkpt>
      <trkpt lat="46.52578" lon="5.89719">
        <ele>899.5</ele>
        <time>2014-06-29T07:39:43Z</time>
      </trkpt>
      <trkpt lat="46.52587" lon="5.8973">
        <ele>899.1</ele>
        <time>2014-06-29T07:39:45Z</time>
      </trkpt>
      <trkpt lat="46.52596" lon="5.89743">
        <ele>899.1</ele>
        <time>2014-06-29T07:39:47Z</time>
      </trkpt>
      <trkpt lat="46.52605" lon="5.89755">
        <ele>899.1</ele>
        <time>2014-06-29T07:39:49Z</time>
      </trkpt>
      <trkpt lat="46.52614" lon="5.89766">
        <ele>899.1</ele>
        <time>2014-06-29T07:39:51Z</time>
      </trkpt>
      <trkpt lat="46.52632" lon="5.89787">
        <ele>898.8</ele>
        <time>2014-06-29T07:39:55Z</time>
      </trkpt>
      <trkpt lat="46.52641" lon="5.89796">
        <ele>898.8</ele>
        <time>2014-06-29T07:39:57Z</time>
      </trkpt>
      <trkpt lat="46.5265" lon="5.89804">
        <ele>898.6</ele>
        <time>2014-06-29T07:39:59Z</time>
      </trkpt>
      <trkpt lat="46.5266" lon="5.89809">
        <ele>898.8</ele>
        <time>2014-06-29T07:40:01Z</time>
      </trkpt>
      <trkpt lat="46.52669" lon="5.89813">
        <ele>898.9</ele>
        <time>2014-06-29T07:40:03Z</time>
      </trkpt>
      <trkpt lat="46.52681" lon="5.89817">
        <ele>899.3</ele>
        <time>2014-06-29T07:40:06Z</time>
      </trkpt>
      <trkpt lat="46.52691" lon="5.89815">
        <ele>899.5</ele>
        <time>2014-06-29T07:40:08Z</time>
      </trkpt>
      <trkpt lat="46.527" lon="5.89809">
        <ele>899.5</ele>
        <time>2014-06-29T07:40:10Z</time>
      </trkpt>
      <trkpt lat="46.52709" lon="5.89801">
        <ele>899.6</ele>
        <time>2014-06-29T07:40:12Z</time>
      </trkpt>
      <trkpt lat="46.52718" lon="5.89794">
        <ele>899.9</ele>
        <time>2014-06-29T07:40:14Z</time>
      </trkpt>
      <trkpt lat="46.5273" lon="5.89793">
        <ele>900.3</ele>
        <time>2014-06-29T07:40:17Z</time>
      </trkpt>
      <trkpt lat="46.52742" lon="5.89794">
        <ele>901.1</ele>
        <time>2014-06-29T07:40:20Z</time>
      </trkpt>
      <trkpt lat="46.52753" lon="5.89792">
        <ele>901.6</ele>
        <time>2014-06-29T07:40:23Z</time>
      </trkpt>
      <trkpt lat="46.5276" lon="5.89783">
        <ele>903</ele>
        <time>2014-06-29T07:40:26Z</time>
      </trkpt>
      <trkpt lat="46.52765" lon="5.89768">
        <ele>904.3</ele>
        <time>2014-06-29T07:40:30Z</time>
      </trkpt>
      <trkpt lat="46.52773" lon="5.89757">
        <ele>906</ele>
        <time>2014-06-29T07:40:35Z</time>
      </trkpt>
      <trkpt lat="46.52785" lon="5.89762">
        <ele>906.7</ele>
        <time>2014-06-29T07:40:39Z</time>
      </trkpt>
      <trkpt lat="46.52795" lon="5.89767">
        <ele>907.3</ele>
        <time>2014-06-29T07:40:42Z</time>
      </trkpt>
      <trkpt lat="46.52805" lon="5.89772">
        <ele>908</ele>
        <time>2014-06-29T07:40:45Z</time>
      </trkpt>
      <trkpt lat="46.52815" lon="5.89776">
        <ele>908.4</ele>
        <time>2014-06-29T07:40:48Z</time>
      </trkpt>
      <trkpt lat="46.52825" lon="5.8978">
        <ele>908.8</ele>
        <time>2014-06-29T07:40:51Z</time>
      </trkpt>
      <trkpt lat="46.52847" lon="5.89783">
        <ele>909.5</ele>
        <time>2014-06-29T07:40:57Z</time>
      </trkpt>
      <trkpt lat="46.52859" lon="5.89784">
        <ele>909.7</ele>
        <time>2014-06-29T07:41:00Z</time>
      </trkpt>
      <trkpt lat="46.52872" lon="5.89787">
        <ele>909.9</ele>
        <time>2014-06-29T07:41:03Z</time>
      </trkpt>
      <trkpt lat="46.52882" lon="5.89789">
        <ele>909.9</ele>
        <time>2014-06-29T07:41:05Z</time>
      </trkpt>
      <trkpt lat="46.52891" lon="5.89792">
        <ele>910</ele>
        <time>2014-06-29T07:41:07Z</time>
      </trkpt>
      <trkpt lat="46.52901" lon="5.89794">
        <ele>910</ele>
        <time>2014-06-29T07:41:09Z</time>
      </trkpt>
      <trkpt lat="46.52911" lon="5.89798">
        <ele>910</ele>
        <time>2014-06-29T07:41:11Z</time>
      </trkpt>
      <trkpt lat="46.5292" lon="5.89801">
        <ele>910.1</ele>
        <time>2014-06-29T07:41:13Z</time>
      </trkpt>
      <trkpt lat="46.52929" lon="5.89805">
        <ele>910.3</ele>
        <time>2014-06-29T07:41:15Z</time>
      </trkpt>
      <trkpt lat="46.52938" lon="5.89808">
        <ele>910.5</ele>
        <time>2014-06-29T07:41:17Z</time>
      </trkpt>
      <trkpt lat="46.52947" lon="5.89812">
        <ele>910.6</ele>
        <time>2014-06-29T07:41:19Z</time>
      </trkpt>
      <trkpt lat="46.52956" lon="5.89816">
        <ele>910.8</ele>
        <time>2014-06-29T07:41:21Z</time>
      </trkpt>
      <trkpt lat="46.52965" lon="5.8982">
        <ele>910.7</ele>
        <time>2014-06-29T07:41:23Z</time>
      </trkpt>
      <trkpt lat="46.52977" lon="5.89818">
        <ele>910.9</ele>
        <time>2014-06-29T07:41:26Z</time>
      </trkpt>
      <trkpt lat="46.52985" lon="5.8981">
        <ele>911</ele>
        <time>2014-06-29T07:41:28Z</time>
      </trkpt>
      <trkpt lat="46.52994" lon="5.898">
        <ele>910.9</ele>
        <time>2014-06-29T07:41:30Z</time>
      </trkpt>
      <trkpt lat="46.53003" lon="5.89789">
        <ele>910.4</ele>
        <time>2014-06-29T07:41:32Z</time>
      </trkpt>
      <trkpt lat="46.53012" lon="5.8978">
        <ele>909.7</ele>
        <time>2014-06-29T07:41:34Z</time>
      </trkpt>
      <trkpt lat="46.53023" lon="5.89775">
        <ele>909</ele>
        <time>2014-06-29T07:41:36Z</time>
      </trkpt>
      <trkpt lat="46.53036" lon="5.89776">
        <ele>908.6</ele>
        <time>2014-06-29T07:41:38Z</time>
      </trkpt>
      <trkpt lat="46.53048" lon="5.89784">
        <ele>908.2</ele>
        <time>2014-06-29T07:41:40Z</time>
      </trkpt>
      <trkpt lat="46.53057" lon="5.89795">
        <ele>907.8</ele>
        <time>2014-06-29T07:41:42Z</time>
      </trkpt>
      <trkpt lat="46.53068" lon="5.89802">
        <ele>907.4</ele>
        <time>2014-06-29T07:41:44Z</time>
      </trkpt>
      <trkpt lat="46.53082" lon="5.89799">
        <ele>906.6</ele>
        <time>2014-06-29T07:41:46Z</time>
      </trkpt>
      <trkpt lat="46.53095" lon="5.89788">
        <ele>905.9</ele>
        <time>2014-06-29T07:41:48Z</time>
      </trkpt>
      <trkpt lat="46.53108" lon="5.89778">
        <ele>905.3</ele>
        <time>2014-06-29T07:41:50Z</time>
      </trkpt>
      <trkpt lat="46.5312" lon="5.89774">
        <ele>904.4</ele>
        <time>2014-06-29T07:41:52Z</time>
      </trkpt>
      <trkpt lat="46.53135" lon="5.89772">
        <ele>903.6</ele>
        <time>2014-06-29T07:41:54Z</time>
      </trkpt>
      <trkpt lat="46.5316" lon="5.89743">
        <ele>901.9</ele>
        <time>2014-06-29T07:41:58Z</time>
      </trkpt>
      <trkpt lat="46.53169" lon="5.89724">
        <ele>901.2</ele>
        <time>2014-06-29T07:42:00Z</time>
      </trkpt>
      <trkpt lat="46.53178" lon="5.89703">
        <ele>900.5</ele>
        <time>2014-06-29T07:42:02Z</time>
      </trkpt>
      <trkpt lat="46.53188" lon="5.89683">
        <ele>899.6</ele>
        <time>2014-06-29T07:42:04Z</time>
      </trkpt>
      <trkpt lat="46.53201" lon="5.89666">
        <ele>898.6</ele>
        <time>2014-06-29T07:42:06Z</time>
      </trkpt>
      <trkpt lat="46.53217" lon="5.8966">
        <ele>897.6</ele>
        <time>2014-06-29T07:42:08Z</time>
      </trkpt>
      <trkpt lat="46.53234" lon="5.89662">
        <ele>896.8</ele>
        <time>2014-06-29T07:42:10Z</time>
      </trkpt>
      <trkpt lat="46.53249" lon="5.89667">
        <ele>896</ele>
        <time>2014-06-29T07:42:12Z</time>
      </trkpt>
      <trkpt lat="46.53265" lon="5.89672">
        <ele>895.2</ele>
        <time>2014-06-29T07:42:14Z</time>
      </trkpt>
      <trkpt lat="46.53281" lon="5.89675">
        <ele>894.6</ele>
        <time>2014-06-29T07:42:16Z</time>
      </trkpt>
      <trkpt lat="46.53297" lon="5.89677">
        <ele>894.1</ele>
        <time>2014-06-29T07:42:18Z</time>
      </trkpt>
      <trkpt lat="46.53312" lon="5.89669">
        <ele>894</ele>
        <time>2014-06-29T07:42:20Z</time>
      </trkpt>
      <trkpt lat="46.53321" lon="5.89652">
        <ele>894.1</ele>
        <time>2014-06-29T07:42:22Z</time>
      </trkpt>
      <trkpt lat="46.53328" lon="5.89633">
        <ele>894.1</ele>
        <time>2014-06-29T07:42:24Z</time>
      </trkpt>
      <trkpt lat="46.53334" lon="5.89617">
        <ele>894.1</ele>
        <time>2014-06-29T07:42:26Z</time>
      </trkpt>
      <trkpt lat="46.5334" lon="5.89605">
        <ele>894.4</ele>
        <time>2014-06-29T07:42:28Z</time>
      </trkpt>
      <trkpt lat="46.53347" lon="5.89593">
        <ele>894.8</ele>
        <time>2014-06-29T07:42:31Z</time>
      </trkpt>
      <trkpt lat="46.53353" lon="5.89582">
        <ele>895.6</ele>
        <time>2014-06-29T07:42:34Z</time>
      </trkpt>
      <trkpt lat="46.5336" lon="5.8957">
        <ele>896.4</ele>
        <time>2014-06-29T07:42:37Z</time>
      </trkpt>
      <trkpt lat="46.53367" lon="5.89559">
        <ele>897.1</ele>
        <time>2014-06-29T07:42:40Z</time>
      </trkpt>
      <trkpt lat="46.53373" lon="5.89547">
        <ele>898</ele>
        <time>2014-06-29T07:42:43Z</time>
      </trkpt>
      <trkpt lat="46.53379" lon="5.89535">
        <ele>898.7</ele>
        <time>2014-06-29T07:42:46Z</time>
      </trkpt>
      <trkpt lat="46.53384" lon="5.89523">
        <ele>899.4</ele>
        <time>2014-06-29T07:42:49Z</time>
      </trkpt>
      <trkpt lat="46.53391" lon="5.89512">
        <ele>900.1</ele>
        <time>2014-06-29T07:42:52Z</time>
      </trkpt>
      <trkpt lat="46.53399" lon="5.89502">
        <ele>900.8</ele>
        <time>2014-06-29T07:42:55Z</time>
      </trkpt>
      <trkpt lat="46.53409" lon="5.89492">
        <ele>901.2</ele>
        <time>2014-06-29T07:42:58Z</time>
      </trkpt>
      <trkpt lat="46.53426" lon="5.89471">
        <ele>902.1</ele>
        <time>2014-06-29T07:43:04Z</time>
      </trkpt>
      <trkpt lat="46.53434" lon="5.89463">
        <ele>902.7</ele>
        <time>2014-06-29T07:43:07Z</time>
      </trkpt>
      <trkpt lat="46.53444" lon="5.89453">
        <ele>903.9</ele>
        <time>2014-06-29T07:43:11Z</time>
      </trkpt>
      <trkpt lat="46.53453" lon="5.89445">
        <ele>904.5</ele>
        <time>2014-06-29T07:43:15Z</time>
      </trkpt>
      <trkpt lat="46.5346" lon="5.89433">
        <ele>905.5</ele>
        <time>2014-06-29T07:43:19Z</time>
      </trkpt>
      <trkpt lat="46.53462" lon="5.89416">
        <ele>906.5</ele>
        <time>2014-06-29T07:43:23Z</time>
      </trkpt>
      <trkpt lat="46.5346" lon="5.89402">
        <ele>906.9</ele>
        <time>2014-06-29T07:43:26Z</time>
      </trkpt>
      <trkpt lat="46.53457" lon="5.89383">
        <ele>907.1</ele>
        <time>2014-06-29T07:43:29Z</time>
      </trkpt>
      <trkpt lat="46.53456" lon="5.8937">
        <ele>907.1</ele>
        <time>2014-06-29T07:43:31Z</time>
      </trkpt>
      <trkpt lat="46.53454" lon="5.89357">
        <ele>907.3</ele>
        <time>2014-06-29T07:43:33Z</time>
      </trkpt>
      <trkpt lat="46.53453" lon="5.89344">
        <ele>907.4</ele>
        <time>2014-06-29T07:43:35Z</time>
      </trkpt>
      <trkpt lat="46.53452" lon="5.8933">
        <ele>907.7</ele>
        <time>2014-06-29T07:43:37Z</time>
      </trkpt>
      <trkpt lat="46.53454" lon="5.89311">
        <ele>907.8</ele>
        <time>2014-06-29T07:43:40Z</time>
      </trkpt>
      <trkpt lat="46.53455" lon="5.89294">
        <ele>908</ele>
        <time>2014-06-29T07:43:43Z</time>
      </trkpt>
      <trkpt lat="46.53456" lon="5.89278">
        <ele>908.8</ele>
        <time>2014-06-29T07:43:46Z</time>
      </trkpt>
      <trkpt lat="46.53457" lon="5.89264">
        <ele>909.3</ele>
        <time>2014-06-29T07:43:49Z</time>
      </trkpt>
      <trkpt lat="46.53457" lon="5.89248">
        <ele>910</ele>
        <time>2014-06-29T07:43:52Z</time>
      </trkpt>
      <trkpt lat="46.53457" lon="5.89229">
        <ele>910.1</ele>
        <time>2014-06-29T07:43:55Z</time>
      </trkpt>
      <trkpt lat="46.53457" lon="5.89215">
        <ele>910</ele>
        <time>2014-06-29T07:43:57Z</time>
      </trkpt>
      <trkpt lat="46.53456" lon="5.89198">
        <ele>909.7</ele>
        <time>2014-06-29T07:43:59Z</time>
      </trkpt>
      <trkpt lat="46.53456" lon="5.89179">
        <ele>909.5</ele>
        <time>2014-06-29T07:44:01Z</time>
      </trkpt>
      <trkpt lat="46.53463" lon="5.89144">
        <ele>908.6</ele>
        <time>2014-06-29T07:44:05Z</time>
      </trkpt>
      <trkpt lat="46.5347" lon="5.89131">
        <ele>908.4</ele>
        <time>2014-06-29T07:44:07Z</time>
      </trkpt>
      <trkpt lat="46.53478" lon="5.89121">
        <ele>908.2</ele>
        <time>2014-06-29T07:44:09Z</time>
      </trkpt>
      <trkpt lat="46.53488" lon="5.89113">
        <ele>908.1</ele>
        <time>2014-06-29T07:44:11Z</time>
      </trkpt>
      <trkpt lat="46.53498" lon="5.89108">
        <ele>908.2</ele>
        <time>2014-06-29T07:44:13Z</time>
      </trkpt>
      <trkpt lat="46.53509" lon="5.89106">
        <ele>908.7</ele>
        <time>2014-06-29T07:44:15Z</time>
      </trkpt>
      <trkpt lat="46.53517" lon="5.891">
        <ele>909.1</ele>
        <time>2014-06-29T07:44:17Z</time>
      </trkpt>
      <trkpt lat="46.53523" lon="5.89084">
        <ele>909.6</ele>
        <time>2014-06-29T07:44:20Z</time>
      </trkpt>
      <trkpt lat="46.53518" lon="5.89071">
        <ele>909.6</ele>
        <time>2014-06-29T07:44:22Z</time>
      </trkpt>
      <trkpt lat="46.5351" lon="5.89057">
        <ele>909.2</ele>
        <time>2014-06-29T07:44:24Z</time>
      </trkpt>
      <trkpt lat="46.53502" lon="5.89043">
        <ele>909</ele>
        <time>2014-06-29T07:44:26Z</time>
      </trkpt>
      <trkpt lat="46.53495" lon="5.89028">
        <ele>909.1</ele>
        <time>2014-06-29T07:44:28Z</time>
      </trkpt>
      <trkpt lat="46.53491" lon="5.89013">
        <ele>909.2</ele>
        <time>2014-06-29T07:44:30Z</time>
      </trkpt>
      <trkpt lat="46.53488" lon="5.88998">
        <ele>909.3</ele>
        <time>2014-06-29T07:44:32Z</time>
      </trkpt>
      <trkpt lat="46.53485" lon="5.88985">
        <ele>909.6</ele>
        <time>2014-06-29T07:44:34Z</time>
      </trkpt>
      <trkpt lat="46.53481" lon="5.88969">
        <ele>910.1</ele>
        <time>2014-06-29T07:44:37Z</time>
      </trkpt>
      <trkpt lat="46.53479" lon="5.88955">
        <ele>910.7</ele>
        <time>2014-06-29T07:44:40Z</time>
      </trkpt>
      <trkpt lat="46.5348" lon="5.88941">
        <ele>911.3</ele>
        <time>2014-06-29T07:44:43Z</time>
      </trkpt>
      <trkpt lat="46.53484" lon="5.88929">
        <ele>912.3</ele>
        <time>2014-06-29T07:44:46Z</time>
      </trkpt>
      <trkpt lat="46.53495" lon="5.8892">
        <ele>913.4</ele>
        <time>2014-06-29T07:44:50Z</time>
      </trkpt>
      <trkpt lat="46.53505" lon="5.88917">
        <ele>913.9</ele>
        <time>2014-06-29T07:44:53Z</time>
      </trkpt>
      <trkpt lat="46.53516" lon="5.88914">
        <ele>914.5</ele>
        <time>2014-06-29T07:44:57Z</time>
      </trkpt>
      <trkpt lat="46.53526" lon="5.88908">
        <ele>915.1</ele>
        <time>2014-06-29T07:45:00Z</time>
      </trkpt>
      <trkpt lat="46.53534" lon="5.889">
        <ele>915.6</ele>
        <time>2014-06-29T07:45:03Z</time>
      </trkpt>
      <trkpt lat="46.53536" lon="5.88872">
        <ele>916.6</ele>
        <time>2014-06-29T07:45:09Z</time>
      </trkpt>
      <trkpt lat="46.53531" lon="5.88858">
        <ele>917.1</ele>
        <time>2014-06-29T07:45:12Z</time>
      </trkpt>
      <trkpt lat="46.53525" lon="5.88846">
        <ele>917.4</ele>
        <time>2014-06-29T07:45:15Z</time>
      </trkpt>
      <trkpt lat="46.53516" lon="5.88834">
        <ele>917.4</ele>
        <time>2014-06-29T07:45:18Z</time>
      </trkpt>
      <trkpt lat="46.53507" lon="5.88821">
        <ele>917.5</ele>
        <time>2014-06-29T07:45:21Z</time>
      </trkpt>
      <trkpt lat="46.53499" lon="5.88808">
        <ele>917.3</ele>
        <time>2014-06-29T07:45:24Z</time>
      </trkpt>
      <trkpt lat="46.53491" lon="5.88794">
        <ele>917.2</ele>
        <time>2014-06-29T07:45:27Z</time>
      </trkpt>
      <trkpt lat="46.53486" lon="5.88781">
        <ele>916.9</ele>
        <time>2014-06-29T07:45:29Z</time>
      </trkpt>
      <trkpt lat="46.53482" lon="5.88766">
        <ele>916.9</ele>
        <time>2014-06-29T07:45:31Z</time>
      </trkpt>
      <trkpt lat="46.5348" lon="5.8875">
        <ele>916.7</ele>
        <time>2014-06-29T07:45:33Z</time>
      </trkpt>
      <trkpt lat="46.53479" lon="5.88732">
        <ele>916.3</ele>
        <time>2014-06-29T07:45:35Z</time>
      </trkpt>
      <trkpt lat="46.53482" lon="5.88714">
        <ele>916.1</ele>
        <time>2014-06-29T07:45:37Z</time>
      </trkpt>
      <trkpt lat="46.53484" lon="5.88698">
        <ele>916</ele>
        <time>2014-06-29T07:45:39Z</time>
      </trkpt>
      <trkpt lat="46.53486" lon="5.8868">
        <ele>916.3</ele>
        <time>2014-06-29T07:45:42Z</time>
      </trkpt>
      <trkpt lat="46.53487" lon="5.88665">
        <ele>916.7</ele>
        <time>2014-06-29T07:45:45Z</time>
      </trkpt>
      <trkpt lat="46.53481" lon="5.88649">
        <ele>917.1</ele>
        <time>2014-06-29T07:45:48Z</time>
      </trkpt>
      <trkpt lat="46.53477" lon="5.88633">
        <ele>917.7</ele>
        <time>2014-06-29T07:45:51Z</time>
      </trkpt>
      <trkpt lat="46.53473" lon="5.88619">
        <ele>918.1</ele>
        <time>2014-06-29T07:45:54Z</time>
      </trkpt>
      <trkpt lat="46.53469" lon="5.88602">
        <ele>918.6</ele>
        <time>2014-06-29T07:45:57Z</time>
      </trkpt>
      <trkpt lat="46.53465" lon="5.88585">
        <ele>919</ele>
        <time>2014-06-29T07:46:00Z</time>
      </trkpt>
      <trkpt lat="46.53462" lon="5.88572">
        <ele>919</ele>
        <time>2014-06-29T07:46:02Z</time>
      </trkpt>
      <trkpt lat="46.53459" lon="5.88559">
        <ele>918.9</ele>
        <time>2014-06-29T07:46:04Z</time>
      </trkpt>
      <trkpt lat="46.53455" lon="5.88545">
        <ele>918.8</ele>
        <time>2014-06-29T07:46:06Z</time>
      </trkpt>
      <trkpt lat="46.53448" lon="5.88517">
        <ele>918.2</ele>
        <time>2014-06-29T07:46:10Z</time>
      </trkpt>
      <trkpt lat="46.53446" lon="5.88504">
        <ele>918</ele>
        <time>2014-06-29T07:46:12Z</time>
      </trkpt>
      <trkpt lat="46.53446" lon="5.8849">
        <ele>917.9</ele>
        <time>2014-06-29T07:46:14Z</time>
      </trkpt>
      <trkpt lat="46.53448" lon="5.88476">
        <ele>917.9</ele>
        <time>2014-06-29T07:46:16Z</time>
      </trkpt>
      <trkpt lat="46.53456" lon="5.88464">
        <ele>918</ele>
        <time>2014-06-29T07:46:18Z</time>
      </trkpt>
      <trkpt lat="46.53467" lon="5.88454">
        <ele>918.2</ele>
        <time>2014-06-29T07:46:20Z</time>
      </trkpt>
      <trkpt lat="46.53477" lon="5.88442">
        <ele>917.7</ele>
        <time>2014-06-29T07:46:22Z</time>
      </trkpt>
      <trkpt lat="46.53486" lon="5.88427">
        <ele>917</ele>
        <time>2014-06-29T07:46:24Z</time>
      </trkpt>
      <trkpt lat="46.53492" lon="5.8841">
        <ele>916.1</ele>
        <time>2014-06-29T07:46:26Z</time>
      </trkpt>
      <trkpt lat="46.53497" lon="5.88392">
        <ele>915.4</ele>
        <time>2014-06-29T07:46:28Z</time>
      </trkpt>
      <trkpt lat="46.535" lon="5.88375">
        <ele>914.9</ele>
        <time>2014-06-29T07:46:30Z</time>
      </trkpt>
      <trkpt lat="46.53503" lon="5.88359">
        <ele>914.4</ele>
        <time>2014-06-29T07:46:32Z</time>
      </trkpt>
      <trkpt lat="46.53506" lon="5.88343">
        <ele>914.3</ele>
        <time>2014-06-29T07:46:34Z</time>
      </trkpt>
      <trkpt lat="46.53509" lon="5.88329">
        <ele>914.3</ele>
        <time>2014-06-29T07:46:36Z</time>
      </trkpt>
      <trkpt lat="46.53511" lon="5.88315">
        <ele>914.5</ele>
        <time>2014-06-29T07:46:38Z</time>
      </trkpt>
      <trkpt lat="46.53514" lon="5.88301">
        <ele>914.5</ele>
        <time>2014-06-29T07:46:40Z</time>
      </trkpt>
      <trkpt lat="46.53516" lon="5.88289">
        <ele>914.6</ele>
        <time>2014-06-29T07:46:42Z</time>
      </trkpt>
      <trkpt lat="46.5352" lon="5.8827">
        <ele>914.6</ele>
        <time>2014-06-29T07:46:45Z</time>
      </trkpt>
      <trkpt lat="46.53524" lon="5.88253">
        <ele>915.1</ele>
        <time>2014-06-29T07:46:48Z</time>
      </trkpt>
      <trkpt lat="46.53529" lon="5.88236">
        <ele>915.4</ele>
        <time>2014-06-29T07:46:51Z</time>
      </trkpt>
      <trkpt lat="46.53535" lon="5.88219">
        <ele>915.8</ele>
        <time>2014-06-29T07:46:54Z</time>
      </trkpt>
      <trkpt lat="46.53542" lon="5.88203">
        <ele>916.1</ele>
        <time>2014-06-29T07:46:57Z</time>
      </trkpt>
      <trkpt lat="46.53549" lon="5.88188">
        <ele>916.5</ele>
        <time>2014-06-29T07:47:00Z</time>
      </trkpt>
      <trkpt lat="46.53552" lon="5.8817">
        <ele>916.7</ele>
        <time>2014-06-29T07:47:03Z</time>
      </trkpt>
      <trkpt lat="46.5355" lon="5.88153">
        <ele>917</ele>
        <time>2014-06-29T07:47:06Z</time>
      </trkpt>
      <trkpt lat="46.53547" lon="5.88136">
        <ele>917.4</ele>
        <time>2014-06-29T07:47:09Z</time>
      </trkpt>
      <trkpt lat="46.53539" lon="5.88103">
        <ele>917.8</ele>
        <time>2014-06-29T07:47:15Z</time>
      </trkpt>
      <trkpt lat="46.53536" lon="5.8809">
        <ele>917.9</ele>
        <time>2014-06-29T07:47:17Z</time>
      </trkpt>
      <trkpt lat="46.53533" lon="5.88078">
        <ele>917.8</ele>
        <time>2014-06-29T07:47:19Z</time>
      </trkpt>
      <trkpt lat="46.53529" lon="5.88065">
        <ele>917.8</ele>
        <time>2014-06-29T07:47:21Z</time>
      </trkpt>
      <trkpt lat="46.53525" lon="5.88053">
        <ele>917.8</ele>
        <time>2014-06-29T07:47:23Z</time>
      </trkpt>
      <trkpt lat="46.53522" lon="5.8804">
        <ele>917.8</ele>
        <time>2014-06-29T07:47:25Z</time>
      </trkpt>
      <trkpt lat="46.5352" lon="5.88028">
        <ele>917.8</ele>
        <time>2014-06-29T07:47:27Z</time>
      </trkpt>
      <trkpt lat="46.53517" lon="5.8801">
        <ele>917.9</ele>
        <time>2014-06-29T07:47:30Z</time>
      </trkpt>
      <trkpt lat="46.53517" lon="5.87993">
        <ele>918</ele>
        <time>2014-06-29T07:47:33Z</time>
      </trkpt>
      <trkpt lat="46.53521" lon="5.87981">
        <ele>918.2</ele>
        <time>2014-06-29T07:47:37Z</time>
      </trkpt>
      <trkpt lat="46.53528" lon="5.87972">
        <ele>919.1</ele>
        <time>2014-06-29T07:49:26Z</time>
      </trkpt>
      <trkpt lat="46.53545" lon="5.87957">
        <ele>920</ele>
        <time>2014-06-29T07:49:32Z</time>
      </trkpt>
      <trkpt lat="46.53555" lon="5.8795">
        <ele>920.8</ele>
        <time>2014-06-29T07:49:37Z</time>
      </trkpt>
      <trkpt lat="46.53565" lon="5.87942">
        <ele>921.6</ele>
        <time>2014-06-29T07:49:41Z</time>
      </trkpt>
      <trkpt lat="46.53574" lon="5.87938">
        <ele>922.3</ele>
        <time>2014-06-29T07:49:45Z</time>
      </trkpt>
      <trkpt lat="46.53584" lon="5.87935">
        <ele>923.3</ele>
        <time>2014-06-29T07:49:49Z</time>
      </trkpt>
      <trkpt lat="46.53594" lon="5.87934">
        <ele>924.9</ele>
        <time>2014-06-29T07:49:55Z</time>
      </trkpt>
      <trkpt lat="46.53604" lon="5.87932">
        <ele>925.5</ele>
        <time>2014-06-29T07:49:58Z</time>
      </trkpt>
      <trkpt lat="46.53614" lon="5.87929">
        <ele>926.3</ele>
        <time>2014-06-29T07:50:03Z</time>
      </trkpt>
      <trkpt lat="46.53624" lon="5.87923">
        <ele>927.4</ele>
        <time>2014-06-29T07:50:09Z</time>
      </trkpt>
      <trkpt lat="46.53634" lon="5.87916">
        <ele>928</ele>
        <time>2014-06-29T07:50:14Z</time>
      </trkpt>
      <trkpt lat="46.53644" lon="5.8791">
        <ele>928.6</ele>
        <time>2014-06-29T07:50:19Z</time>
      </trkpt>
      <trkpt lat="46.53653" lon="5.87906">
        <ele>929.4</ele>
        <time>2014-06-29T07:50:23Z</time>
      </trkpt>
      <trkpt lat="46.53665" lon="5.87904">
        <ele>929.7</ele>
        <time>2014-06-29T07:50:28Z</time>
      </trkpt>
      <trkpt lat="46.53685" lon="5.87895">
        <ele>931.8</ele>
        <time>2014-06-29T07:50:38Z</time>
      </trkpt>
      <trkpt lat="46.53694" lon="5.87892">
        <ele>932.4</ele>
        <time>2014-06-29T07:50:43Z</time>
      </trkpt>
      <trkpt lat="46.53703" lon="5.87887">
        <ele>933.4</ele>
        <time>2014-06-29T07:50:47Z</time>
      </trkpt>
      <trkpt lat="46.53713" lon="5.87887">
        <ele>934.1</ele>
        <time>2014-06-29T07:50:52Z</time>
      </trkpt>
      <trkpt lat="46.53722" lon="5.87891">
        <ele>934.9</ele>
        <time>2014-06-29T07:50:57Z</time>
      </trkpt>
      <trkpt lat="46.53732" lon="5.87894">
        <ele>935.6</ele>
        <time>2014-06-29T07:51:01Z</time>
      </trkpt>
      <trkpt lat="46.53741" lon="5.87898">
        <ele>936.2</ele>
        <time>2014-06-29T07:51:06Z</time>
      </trkpt>
      <trkpt lat="46.5375" lon="5.879">
        <ele>936.6</ele>
        <time>2014-06-29T07:51:10Z</time>
      </trkpt>
      <trkpt lat="46.53759" lon="5.87907">
        <ele>937.2</ele>
        <time>2014-06-29T07:51:14Z</time>
      </trkpt>
      <trkpt lat="46.53769" lon="5.87912">
        <ele>938</ele>
        <time>2014-06-29T07:51:18Z</time>
      </trkpt>
      <trkpt lat="46.53779" lon="5.87916">
        <ele>938.5</ele>
        <time>2014-06-29T07:51:22Z</time>
      </trkpt>
      <trkpt lat="46.53789" lon="5.87922">
        <ele>939.1</ele>
        <time>2014-06-29T07:51:26Z</time>
      </trkpt>
      <trkpt lat="46.538" lon="5.87927">
        <ele>939.1</ele>
        <time>2014-06-29T07:51:29Z</time>
      </trkpt>
      <trkpt lat="46.53818" lon="5.87936">
        <ele>939.7</ele>
        <time>2014-06-29T07:51:35Z</time>
      </trkpt>
      <trkpt lat="46.53827" lon="5.87939">
        <ele>940.1</ele>
        <time>2014-06-29T07:51:38Z</time>
      </trkpt>
      <trkpt lat="46.53836" lon="5.87942">
        <ele>940.3</ele>
        <time>2014-06-29T07:51:41Z</time>
      </trkpt>
      <trkpt lat="46.53847" lon="5.87945">
        <ele>940.7</ele>
        <time>2014-06-29T07:51:45Z</time>
      </trkpt>
      <trkpt lat="46.53859" lon="5.87949">
        <ele>941.7</ele>
        <time>2014-06-29T07:51:49Z</time>
      </trkpt>
      <trkpt lat="46.5387" lon="5.87951">
        <ele>942.4</ele>
        <time>2014-06-29T07:51:54Z</time>
      </trkpt>
      <trkpt lat="46.5388" lon="5.87953">
        <ele>943.1</ele>
        <time>2014-06-29T07:51:59Z</time>
      </trkpt>
      <trkpt lat="46.53891" lon="5.8795">
        <ele>944.1</ele>
        <time>2014-06-29T07:52:03Z</time>
      </trkpt>
      <trkpt lat="46.539" lon="5.87948">
        <ele>945.3</ele>
        <time>2014-06-29T07:52:07Z</time>
      </trkpt>
      <trkpt lat="46.5391" lon="5.87946">
        <ele>945.9</ele>
        <time>2014-06-29T07:52:11Z</time>
      </trkpt>
      <trkpt lat="46.53919" lon="5.87945">
        <ele>946.3</ele>
        <time>2014-06-29T07:52:14Z</time>
      </trkpt>
      <trkpt lat="46.5393" lon="5.87946">
        <ele>946.4</ele>
        <time>2014-06-29T07:52:17Z</time>
      </trkpt>
      <trkpt lat="46.5394" lon="5.87947">
        <ele>946.3</ele>
        <time>2014-06-29T07:52:20Z</time>
      </trkpt>
      <trkpt lat="46.53951" lon="5.87949">
        <ele>946.6</ele>
        <time>2014-06-29T07:52:23Z</time>
      </trkpt>
      <trkpt lat="46.53963" lon="5.87948">
        <ele>946.6</ele>
        <time>2014-06-29T07:52:26Z</time>
      </trkpt>
      <trkpt lat="46.53976" lon="5.87945">
        <ele>946.2</ele>
        <time>2014-06-29T07:52:29Z</time>
      </trkpt>
      <trkpt lat="46.53985" lon="5.87942">
        <ele>946.1</ele>
        <time>2014-06-29T07:52:31Z</time>
      </trkpt>
      <trkpt lat="46.54004" lon="5.87937">
        <ele>945.8</ele>
        <time>2014-06-29T07:52:35Z</time>
      </trkpt>
      <trkpt lat="46.54013" lon="5.87932">
        <ele>946</ele>
        <time>2014-06-29T07:52:37Z</time>
      </trkpt>
      <trkpt lat="46.54023" lon="5.87926">
        <ele>945.9</ele>
        <time>2014-06-29T07:52:39Z</time>
      </trkpt>
      <trkpt lat="46.54035" lon="5.8792">
        <ele>946.2</ele>
        <time>2014-06-29T07:52:42Z</time>
      </trkpt>
      <trkpt lat="46.54046" lon="5.87923">
        <ele>946.1</ele>
        <time>2014-06-29T07:52:45Z</time>
      </trkpt>
      <trkpt lat="46.54058" lon="5.87929">
        <ele>946.3</ele>
        <time>2014-06-29T07:52:48Z</time>
      </trkpt>
      <trkpt lat="46.5407" lon="5.87934">
        <ele>946.4</ele>
        <time>2014-06-29T07:52:51Z</time>
      </trkpt>
      <trkpt lat="46.54081" lon="5.87939">
        <ele>946.4</ele>
        <time>2014-06-29T07:52:53Z</time>
      </trkpt>
      <trkpt lat="46.54089" lon="5.87943">
        <ele>946.5</ele>
        <time>2014-06-29T07:52:55Z</time>
      </trkpt>
      <trkpt lat="46.54101" lon="5.87948">
        <ele>946.6</ele>
        <time>2014-06-29T07:52:58Z</time>
      </trkpt>
      <trkpt lat="46.54113" lon="5.87951">
        <ele>946.4</ele>
        <time>2014-06-29T07:53:01Z</time>
      </trkpt>
      <trkpt lat="46.54126" lon="5.87956">
        <ele>946.5</ele>
        <time>2014-06-29T07:53:04Z</time>
      </trkpt>
      <trkpt lat="46.54138" lon="5.87966">
        <ele>946.7</ele>
        <time>2014-06-29T07:53:07Z</time>
      </trkpt>
      <trkpt lat="46.54146" lon="5.87973">
        <ele>947</ele>
        <time>2014-06-29T07:53:09Z</time>
      </trkpt>
      <trkpt lat="46.54157" lon="5.87983">
        <ele>947</ele>
        <time>2014-06-29T07:53:12Z</time>
      </trkpt>
      <trkpt lat="46.54165" lon="5.8799">
        <ele>947.1</ele>
        <time>2014-06-29T07:53:14Z</time>
      </trkpt>
      <trkpt lat="46.54174" lon="5.87996">
        <ele>946.9</ele>
        <time>2014-06-29T07:53:16Z</time>
      </trkpt>
      <trkpt lat="46.54183" lon="5.88004">
        <ele>946.9</ele>
        <time>2014-06-29T07:53:18Z</time>
      </trkpt>
      <trkpt lat="46.5419" lon="5.88013">
        <ele>946.9</ele>
        <time>2014-06-29T07:53:20Z</time>
      </trkpt>
      <trkpt lat="46.54196" lon="5.88023">
        <ele>946.7</ele>
        <time>2014-06-29T07:53:22Z</time>
      </trkpt>
      <trkpt lat="46.54206" lon="5.88035">
        <ele>946.7</ele>
        <time>2014-06-29T07:53:25Z</time>
      </trkpt>
      <trkpt lat="46.54213" lon="5.88044">
        <ele>946.8</ele>
        <time>2014-06-29T07:53:27Z</time>
      </trkpt>
      <trkpt lat="46.5422" lon="5.88052">
        <ele>946.8</ele>
        <time>2014-06-29T07:53:29Z</time>
      </trkpt>
      <trkpt lat="46.54228" lon="5.8806">
        <ele>946.8</ele>
        <time>2014-06-29T07:53:31Z</time>
      </trkpt>
      <trkpt lat="46.54234" lon="5.88069">
        <ele>946.9</ele>
        <time>2014-06-29T07:53:33Z</time>
      </trkpt>
      <trkpt lat="46.54237" lon="5.88096">
        <ele>946.5</ele>
        <time>2014-06-29T07:53:37Z</time>
      </trkpt>
      <trkpt lat="46.54239" lon="5.8811">
        <ele>946.7</ele>
        <time>2014-06-29T07:53:39Z</time>
      </trkpt>
      <trkpt lat="46.54242" lon="5.88122">
        <ele>946.8</ele>
        <time>2014-06-29T07:53:41Z</time>
      </trkpt>
      <trkpt lat="46.54246" lon="5.88136">
        <ele>947.2</ele>
        <time>2014-06-29T07:53:43Z</time>
      </trkpt>
      <trkpt lat="46.54251" lon="5.88147">
        <ele>947.1</ele>
        <time>2014-06-29T07:53:45Z</time>
      </trkpt>
      <trkpt lat="46.54258" lon="5.88159">
        <ele>947</ele>
        <time>2014-06-29T07:53:47Z</time>
      </trkpt>
      <trkpt lat="46.54265" lon="5.88172">
        <ele>947.1</ele>
        <time>2014-06-29T07:53:49Z</time>
      </trkpt>
      <trkpt lat="46.54271" lon="5.88186">
        <ele>947.2</ele>
        <time>2014-06-29T07:53:51Z</time>
      </trkpt>
      <trkpt lat="46.54276" lon="5.882">
        <ele>946.9</ele>
        <time>2014-06-29T07:53:53Z</time>
      </trkpt>
      <trkpt lat="46.54282" lon="5.88215">
        <ele>946.7</ele>
        <time>2014-06-29T07:53:55Z</time>
      </trkpt>
      <trkpt lat="46.54287" lon="5.88228">
        <ele>946.8</ele>
        <time>2014-06-29T07:53:57Z</time>
      </trkpt>
      <trkpt lat="46.54292" lon="5.88239">
        <ele>946.9</ele>
        <time>2014-06-29T07:53:59Z</time>
      </trkpt>
      <trkpt lat="46.54299" lon="5.88249">
        <ele>946.9</ele>
        <time>2014-06-29T07:54:01Z</time>
      </trkpt>
      <trkpt lat="46.54306" lon="5.88257">
        <ele>946.6</ele>
        <time>2014-06-29T07:54:03Z</time>
      </trkpt>
      <trkpt lat="46.54316" lon="5.88269">
        <ele>946.8</ele>
        <time>2014-06-29T07:54:05Z</time>
      </trkpt>
      <trkpt lat="46.54325" lon="5.88283">
        <ele>946.4</ele>
        <time>2014-06-29T07:54:07Z</time>
      </trkpt>
      <trkpt lat="46.54332" lon="5.88295">
        <ele>946.2</ele>
        <time>2014-06-29T07:54:09Z</time>
      </trkpt>
      <trkpt lat="46.54339" lon="5.88308">
        <ele>946.1</ele>
        <time>2014-06-29T07:54:11Z</time>
      </trkpt>
      <trkpt lat="46.54347" lon="5.88321">
        <ele>946.2</ele>
        <time>2014-06-29T07:54:13Z</time>
      </trkpt>
      <trkpt lat="46.54354" lon="5.88335">
        <ele>945.9</ele>
        <time>2014-06-29T07:54:15Z</time>
      </trkpt>
      <trkpt lat="46.5436" lon="5.8835">
        <ele>945.8</ele>
        <time>2014-06-29T07:54:17Z</time>
      </trkpt>
      <trkpt lat="46.54364" lon="5.88365">
        <ele>945.8</ele>
        <time>2014-06-29T07:54:19Z</time>
      </trkpt>
      <trkpt lat="46.54368" lon="5.88378">
        <ele>945.9</ele>
        <time>2014-06-29T07:54:21Z</time>
      </trkpt>
      <trkpt lat="46.54376" lon="5.88389">
        <ele>946.2</ele>
        <time>2014-06-29T07:54:24Z</time>
      </trkpt>
      <trkpt lat="46.54387" lon="5.88387">
        <ele>946.6</ele>
        <time>2014-06-29T07:54:28Z</time>
      </trkpt>
      <trkpt lat="46.54397" lon="5.8839">
        <ele>947.7</ele>
        <time>2014-06-29T07:54:32Z</time>
      </trkpt>
      <trkpt lat="46.54406" lon="5.88394">
        <ele>948.3</ele>
        <time>2014-06-29T07:54:35Z</time>
      </trkpt>
      <trkpt lat="46.54426" lon="5.88402">
        <ele>949.9</ele>
        <time>2014-06-29T07:54:44Z</time>
      </trkpt>
      <trkpt lat="46.54436" lon="5.88405">
        <ele>950.7</ele>
        <time>2014-06-29T07:54:48Z</time>
      </trkpt>
      <trkpt lat="46.54446" lon="5.88407">
        <ele>951.1</ele>
        <time>2014-06-29T07:54:52Z</time>
      </trkpt>
      <trkpt lat="46.54457" lon="5.8841">
        <ele>951.6</ele>
        <time>2014-06-29T07:54:56Z</time>
      </trkpt>
      <trkpt lat="46.54466" lon="5.88413">
        <ele>952.8</ele>
        <time>2014-06-29T07:55:00Z</time>
      </trkpt>
      <trkpt lat="46.54476" lon="5.88414">
        <ele>953</ele>
        <time>2014-06-29T07:55:04Z</time>
      </trkpt>
      <trkpt lat="46.54487" lon="5.88416">
        <ele>953.6</ele>
        <time>2014-06-29T07:55:07Z</time>
      </trkpt>
      <trkpt lat="46.54497" lon="5.88415">
        <ele>954.1</ele>
        <time>2014-06-29T07:55:10Z</time>
      </trkpt>
      <trkpt lat="46.54506" lon="5.88417">
        <ele>954.5</ele>
        <time>2014-06-29T07:55:14Z</time>
      </trkpt>
      <trkpt lat="46.54517" lon="5.88414">
        <ele>954.7</ele>
        <time>2014-06-29T07:55:18Z</time>
      </trkpt>
      <trkpt lat="46.54526" lon="5.88408">
        <ele>955.7</ele>
        <time>2014-06-29T07:55:22Z</time>
      </trkpt>
      <trkpt lat="46.54533" lon="5.88397">
        <ele>956.5</ele>
        <time>2014-06-29T07:55:26Z</time>
      </trkpt>
      <trkpt lat="46.5453" lon="5.88383">
        <ele>957.5</ele>
        <time>2014-06-29T07:55:31Z</time>
      </trkpt>
      <trkpt lat="46.54522" lon="5.88374">
        <ele>958.4</ele>
        <time>2014-06-29T07:55:36Z</time>
      </trkpt>
      <trkpt lat="46.54503" lon="5.8837">
        <ele>959.2</ele>
        <time>2014-06-29T07:55:45Z</time>
      </trkpt>
      <trkpt lat="46.54493" lon="5.88367">
        <ele>959.9</ele>
        <time>2014-06-29T07:55:50Z</time>
      </trkpt>
      <trkpt lat="46.54482" lon="5.88361">
        <ele>960.9</ele>
        <time>2014-06-29T07:55:54Z</time>
      </trkpt>
      <trkpt lat="46.54473" lon="5.88356">
        <ele>961.4</ele>
        <time>2014-06-29T07:55:58Z</time>
      </trkpt>
      <trkpt lat="46.54465" lon="5.88347">
        <ele>962.1</ele>
        <time>2014-06-29T07:56:03Z</time>
      </trkpt>
      <trkpt lat="46.54458" lon="5.88335">
        <ele>963</ele>
        <time>2014-06-29T07:56:08Z</time>
      </trkpt>
      <trkpt lat="46.54456" lon="5.88322">
        <ele>963.8</ele>
        <time>2014-06-29T07:56:13Z</time>
      </trkpt>
      <trkpt lat="46.54454" lon="5.88307">
        <ele>965</ele>
        <time>2014-06-29T07:56:18Z</time>
      </trkpt>
      <trkpt lat="46.5445" lon="5.88295">
        <ele>965.2</ele>
        <time>2014-06-29T07:56:22Z</time>
      </trkpt>
      <trkpt lat="46.54443" lon="5.88286">
        <ele>965.7</ele>
        <time>2014-06-29T07:56:26Z</time>
      </trkpt>
      <trkpt lat="46.54436" lon="5.88275">
        <ele>966.8</ele>
        <time>2014-06-29T07:56:31Z</time>
      </trkpt>
      <trkpt lat="46.5443" lon="5.88264">
        <ele>967.5</ele>
        <time>2014-06-29T07:56:35Z</time>
      </trkpt>
      <trkpt lat="46.54424" lon="5.88253">
        <ele>968.4</ele>
        <time>2014-06-29T07:56:39Z</time>
      </trkpt>
      <trkpt lat="46.54422" lon="5.88226">
        <ele>969.9</ele>
        <time>2014-06-29T07:56:47Z</time>
      </trkpt>
      <trkpt lat="46.5442" lon="5.88211">
        <ele>970.4</ele>
        <time>2014-06-29T07:56:51Z</time>
      </trkpt>
      <trkpt lat="46.54416" lon="5.88197">
        <ele>971.1</ele>
        <time>2014-06-29T07:56:56Z</time>
      </trkpt>
      <trkpt lat="46.5441" lon="5.88187">
        <ele>971.9</ele>
        <time>2014-06-29T07:57:00Z</time>
      </trkpt>
      <trkpt lat="46.54405" lon="5.88174">
        <ele>972.8</ele>
        <time>2014-06-29T07:57:05Z</time>
      </trkpt>
      <trkpt lat="46.54399" lon="5.88158">
        <ele>973.2</ele>
        <time>2014-06-29T07:57:10Z</time>
      </trkpt>
      <trkpt lat="46.54396" lon="5.88143">
        <ele>974.3</ele>
        <time>2014-06-29T07:57:15Z</time>
      </trkpt>
      <trkpt lat="46.54397" lon="5.88129">
        <ele>974.8</ele>
        <time>2014-06-29T07:57:19Z</time>
      </trkpt>
      <trkpt lat="46.54393" lon="5.88116">
        <ele>975.3</ele>
        <time>2014-06-29T07:57:23Z</time>
      </trkpt>
      <trkpt lat="46.54386" lon="5.88104">
        <ele>975.4</ele>
        <time>2014-06-29T07:57:27Z</time>
      </trkpt>
      <trkpt lat="46.54376" lon="5.88097">
        <ele>976.4</ele>
        <time>2014-06-29T07:57:32Z</time>
      </trkpt>
      <trkpt lat="46.54366" lon="5.88092">
        <ele>977.2</ele>
        <time>2014-06-29T07:57:36Z</time>
      </trkpt>
      <trkpt lat="46.54359" lon="5.88081">
        <ele>977.8</ele>
        <time>2014-06-29T07:57:40Z</time>
      </trkpt>
      <trkpt lat="46.5435" lon="5.88054">
        <ele>978.7</ele>
        <time>2014-06-29T07:57:45Z</time>
      </trkpt>
      <trkpt lat="46.54344" lon="5.88043">
        <ele>979.4</ele>
        <time>2014-06-29T07:57:49Z</time>
      </trkpt>
      <trkpt lat="46.54337" lon="5.88031">
        <ele>980</ele>
        <time>2014-06-29T07:57:53Z</time>
      </trkpt>
      <trkpt lat="46.5433" lon="5.88022">
        <ele>980.8</ele>
        <time>2014-06-29T07:57:57Z</time>
      </trkpt>
      <trkpt lat="46.54324" lon="5.88012">
        <ele>981.3</ele>
        <time>2014-06-29T07:58:01Z</time>
      </trkpt>
      <trkpt lat="46.54318" lon="5.88">
        <ele>982</ele>
        <time>2014-06-29T07:58:05Z</time>
      </trkpt>
      <trkpt lat="46.54315" lon="5.87987">
        <ele>982.7</ele>
        <time>2014-06-29T07:58:09Z</time>
      </trkpt>
      <trkpt lat="46.54311" lon="5.87973">
        <ele>983.5</ele>
        <time>2014-06-29T07:58:13Z</time>
      </trkpt>
      <trkpt lat="46.54305" lon="5.87957">
        <ele>984.3</ele>
        <time>2014-06-29T07:58:17Z</time>
      </trkpt>
      <trkpt lat="46.54298" lon="5.87945">
        <ele>985.1</ele>
        <time>2014-06-29T07:58:21Z</time>
      </trkpt>
      <trkpt lat="46.54293" lon="5.87931">
        <ele>986.1</ele>
        <time>2014-06-29T07:58:26Z</time>
      </trkpt>
      <trkpt lat="46.54287" lon="5.87919">
        <ele>986.2</ele>
        <time>2014-06-29T07:58:30Z</time>
      </trkpt>
      <trkpt lat="46.54283" lon="5.87906">
        <ele>986.8</ele>
        <time>2014-06-29T07:58:34Z</time>
      </trkpt>
      <trkpt lat="46.54282" lon="5.87892">
        <ele>987.8</ele>
        <time>2014-06-29T07:58:38Z</time>
      </trkpt>
      <trkpt lat="46.54278" lon="5.87879">
        <ele>988.4</ele>
        <time>2014-06-29T07:58:42Z</time>
      </trkpt>
      <trkpt lat="46.54271" lon="5.87852">
        <ele>989.5</ele>
        <time>2014-06-29T07:58:48Z</time>
      </trkpt>
      <trkpt lat="46.54273" lon="5.87837">
        <ele>990.2</ele>
        <time>2014-06-29T07:58:52Z</time>
      </trkpt>
      <trkpt lat="46.54274" lon="5.87821">
        <ele>990.9</ele>
        <time>2014-06-29T07:58:56Z</time>
      </trkpt>
      <trkpt lat="46.54274" lon="5.87805">
        <ele>991.7</ele>
        <time>2014-06-29T07:59:00Z</time>
      </trkpt>
      <trkpt lat="46.54272" lon="5.87792">
        <ele>992.5</ele>
        <time>2014-06-29T07:59:04Z</time>
      </trkpt>
      <trkpt lat="46.54268" lon="5.87777">
        <ele>993.2</ele>
        <time>2014-06-29T07:59:08Z</time>
      </trkpt>
      <trkpt lat="46.54261" lon="5.87765">
        <ele>994.2</ele>
        <time>2014-06-29T07:59:13Z</time>
      </trkpt>
      <trkpt lat="46.54252" lon="5.87758">
        <ele>994.9</ele>
        <time>2014-06-29T07:59:17Z</time>
      </trkpt>
      <trkpt lat="46.54245" lon="5.87746">
        <ele>995.5</ele>
        <time>2014-06-29T07:59:20Z</time>
      </trkpt>
      <trkpt lat="46.54238" lon="5.87734">
        <ele>996.2</ele>
        <time>2014-06-29T07:59:24Z</time>
      </trkpt>
      <trkpt lat="46.54231" lon="5.87723">
        <ele>997.1</ele>
        <time>2014-06-29T07:59:28Z</time>
      </trkpt>
      <trkpt lat="46.54223" lon="5.87711">
        <ele>998</ele>
        <time>2014-06-29T07:59:32Z</time>
      </trkpt>
      <trkpt lat="46.54216" lon="5.87701">
        <ele>998.7</ele>
        <time>2014-06-29T07:59:36Z</time>
      </trkpt>
      <trkpt lat="46.54209" lon="5.8769">
        <ele>999.8</ele>
        <time>2014-06-29T07:59:40Z</time>
      </trkpt>
      <trkpt lat="46.54202" lon="5.87677">
        <ele>1000.3</ele>
        <time>2014-06-29T07:59:44Z</time>
      </trkpt>
      <trkpt lat="46.54189" lon="5.87657">
        <ele>1001.4</ele>
        <time>2014-06-29T07:59:52Z</time>
      </trkpt>
      <trkpt lat="46.54182" lon="5.87645">
        <ele>1002</ele>
        <time>2014-06-29T07:59:56Z</time>
      </trkpt>
      <trkpt lat="46.54174" lon="5.87637">
        <ele>1002.7</ele>
        <time>2014-06-29T08:00:00Z</time>
      </trkpt>
      <trkpt lat="46.54165" lon="5.87634">
        <ele>1003.3</ele>
        <time>2014-06-29T08:00:05Z</time>
      </trkpt>
      <trkpt lat="46.54154" lon="5.87637">
        <ele>1004.2</ele>
        <time>2014-06-29T08:00:10Z</time>
      </trkpt>
      <trkpt lat="46.54145" lon="5.87639">
        <ele>1005.1</ele>
        <time>2014-06-29T08:00:15Z</time>
      </trkpt>
      <trkpt lat="46.54135" lon="5.87642">
        <ele>1005.4</ele>
        <time>2014-06-29T08:00:21Z</time>
      </trkpt>
      <trkpt lat="46.54124" lon="5.87642">
        <ele>1005.6</ele>
        <time>2014-06-29T08:00:26Z</time>
      </trkpt>
      <trkpt lat="46.54114" lon="5.87636">
        <ele>1006.5</ele>
        <time>2014-06-29T08:00:31Z</time>
      </trkpt>
      <trkpt lat="46.54114" lon="5.87622">
        <ele>1007.7</ele>
        <time>2014-06-29T08:00:36Z</time>
      </trkpt>
      <trkpt lat="46.54122" lon="5.87613">
        <ele>1008.8</ele>
        <time>2014-06-29T08:00:40Z</time>
      </trkpt>
      <trkpt lat="46.54132" lon="5.8761">
        <ele>1009.4</ele>
        <time>2014-06-29T08:00:45Z</time>
      </trkpt>
      <trkpt lat="46.54153" lon="5.87599">
        <ele>1011.5</ele>
        <time>2014-06-29T08:00:55Z</time>
      </trkpt>
      <trkpt lat="46.54161" lon="5.87593">
        <ele>1012.1</ele>
        <time>2014-06-29T08:00:59Z</time>
      </trkpt>
      <trkpt lat="46.54172" lon="5.87585">
        <ele>1012.6</ele>
        <time>2014-06-29T08:01:03Z</time>
      </trkpt>
      <trkpt lat="46.5418" lon="5.87578">
        <ele>1013.8</ele>
        <time>2014-06-29T08:01:07Z</time>
      </trkpt>
      <trkpt lat="46.5419" lon="5.87573">
        <ele>1014.2</ele>
        <time>2014-06-29T08:01:11Z</time>
      </trkpt>
      <trkpt lat="46.54199" lon="5.87567">
        <ele>1014.7</ele>
        <time>2014-06-29T08:01:15Z</time>
      </trkpt>
      <trkpt lat="46.54209" lon="5.87562">
        <ele>1015.2</ele>
        <time>2014-06-29T08:01:19Z</time>
      </trkpt>
      <trkpt lat="46.5422" lon="5.87561">
        <ele>1015.9</ele>
        <time>2014-06-29T08:01:22Z</time>
      </trkpt>
      <trkpt lat="46.54229" lon="5.87559">
        <ele>1016.9</ele>
        <time>2014-06-29T08:01:27Z</time>
      </trkpt>
      <trkpt lat="46.5424" lon="5.8756">
        <ele>1017.9</ele>
        <time>2014-06-29T08:01:32Z</time>
      </trkpt>
      <trkpt lat="46.54249" lon="5.87561">
        <ele>1018.3</ele>
        <time>2014-06-29T08:01:36Z</time>
      </trkpt>
      <trkpt lat="46.54259" lon="5.87563">
        <ele>1019.4</ele>
        <time>2014-06-29T08:01:40Z</time>
      </trkpt>
      <trkpt lat="46.54268" lon="5.87564">
        <ele>1020.2</ele>
        <time>2014-06-29T08:01:44Z</time>
      </trkpt>
      <trkpt lat="46.5428" lon="5.87567">
        <ele>1021.2</ele>
        <time>2014-06-29T08:01:49Z</time>
      </trkpt>
      <trkpt lat="46.54299" lon="5.87569">
        <ele>1022.7</ele>
        <time>2014-06-29T08:01:57Z</time>
      </trkpt>
      <trkpt lat="46.54308" lon="5.87562">
        <ele>1023.1</ele>
        <time>2014-06-29T08:02:01Z</time>
      </trkpt>
      <trkpt lat="46.54316" lon="5.87553">
        <ele>1023.7</ele>
        <time>2014-06-29T08:02:05Z</time>
      </trkpt>
      <trkpt lat="46.54324" lon="5.87545">
        <ele>1024.3</ele>
        <time>2014-06-29T08:02:09Z</time>
      </trkpt>
      <trkpt lat="46.54333" lon="5.87535">
        <ele>1025.2</ele>
        <time>2014-06-29T08:02:14Z</time>
      </trkpt>
      <trkpt lat="46.5434" lon="5.87524">
        <ele>1025.7</ele>
        <time>2014-06-29T08:02:19Z</time>
      </trkpt>
      <trkpt lat="46.54344" lon="5.87512">
        <ele>1026</ele>
        <time>2014-06-29T08:02:23Z</time>
      </trkpt>
      <trkpt lat="46.54348" lon="5.87498">
        <ele>1026.5</ele>
        <time>2014-06-29T08:02:27Z</time>
      </trkpt>
      <trkpt lat="46.5435" lon="5.87485">
        <ele>1027</ele>
        <time>2014-06-29T08:02:31Z</time>
      </trkpt>
      <trkpt lat="46.54354" lon="5.8747">
        <ele>1027.4</ele>
        <time>2014-06-29T08:02:35Z</time>
      </trkpt>
      <trkpt lat="46.54358" lon="5.87458">
        <ele>1027.9</ele>
        <time>2014-06-29T08:02:38Z</time>
      </trkpt>
      <trkpt lat="46.54363" lon="5.87446">
        <ele>1027.7</ele>
        <time>2014-06-29T08:02:41Z</time>
      </trkpt>
      <trkpt lat="46.54372" lon="5.87434">
        <ele>1027.7</ele>
        <time>2014-06-29T08:02:44Z</time>
      </trkpt>
      <trkpt lat="46.5438" lon="5.87425">
        <ele>1026.9</ele>
        <time>2014-06-29T08:02:47Z</time>
      </trkpt>
      <trkpt lat="46.5439" lon="5.87421">
        <ele>1026.5</ele>
        <time>2014-06-29T08:02:49Z</time>
      </trkpt>
      <trkpt lat="46.54405" lon="5.87415">
        <ele>1026</ele>
        <time>2014-06-29T08:02:51Z</time>
      </trkpt>
      <trkpt lat="46.54428" lon="5.874">
        <ele>1024.6</ele>
        <time>2014-06-29T08:02:55Z</time>
      </trkpt>
      <trkpt lat="46.54437" lon="5.87392">
        <ele>1023.7</ele>
        <time>2014-06-29T08:02:57Z</time>
      </trkpt>
      <trkpt lat="46.54448" lon="5.87385">
        <ele>1023.2</ele>
        <time>2014-06-29T08:02:59Z</time>
      </trkpt>
      <trkpt lat="46.54458" lon="5.87379">
        <ele>1022.3</ele>
        <time>2014-06-29T08:03:01Z</time>
      </trkpt>
      <trkpt lat="46.54467" lon="5.87373">
        <ele>1021.9</ele>
        <time>2014-06-29T08:03:03Z</time>
      </trkpt>
      <trkpt lat="46.54481" lon="5.87367">
        <ele>1021.6</ele>
        <time>2014-06-29T08:03:05Z</time>
      </trkpt>
      <trkpt lat="46.54492" lon="5.87364">
        <ele>1021.4</ele>
        <time>2014-06-29T08:03:07Z</time>
      </trkpt>
      <trkpt lat="46.54502" lon="5.87366">
        <ele>1021.3</ele>
        <time>2014-06-29T08:03:09Z</time>
      </trkpt>
      <trkpt lat="46.54513" lon="5.87369">
        <ele>1021</ele>
        <time>2014-06-29T08:03:11Z</time>
      </trkpt>
      <trkpt lat="46.54524" lon="5.87369">
        <ele>1020.7</ele>
        <time>2014-06-29T08:03:13Z</time>
      </trkpt>
      <trkpt lat="46.54532" lon="5.87359">
        <ele>1020.2</ele>
        <time>2014-06-29T08:03:15Z</time>
      </trkpt>
      <trkpt lat="46.54535" lon="5.87342">
        <ele>1019.5</ele>
        <time>2014-06-29T08:03:17Z</time>
      </trkpt>
      <trkpt lat="46.54532" lon="5.87327">
        <ele>1018.5</ele>
        <time>2014-06-29T08:03:20Z</time>
      </trkpt>
      <trkpt lat="46.54522" lon="5.87327">
        <ele>1017.5</ele>
        <time>2014-06-29T08:03:22Z</time>
      </trkpt>
      <trkpt lat="46.54511" lon="5.8733">
        <ele>1016.9</ele>
        <time>2014-06-29T08:03:24Z</time>
      </trkpt>
      <trkpt lat="46.54498" lon="5.87335">
        <ele>1015.9</ele>
        <time>2014-06-29T08:03:26Z</time>
      </trkpt>
      <trkpt lat="46.54485" lon="5.8734">
        <ele>1014.6</ele>
        <time>2014-06-29T08:03:28Z</time>
      </trkpt>
      <trkpt lat="46.54473" lon="5.87345">
        <ele>1013.8</ele>
        <time>2014-06-29T08:03:30Z</time>
      </trkpt>
      <trkpt lat="46.54459" lon="5.87351">
        <ele>1012.8</ele>
        <time>2014-06-29T08:03:32Z</time>
      </trkpt>
      <trkpt lat="46.54446" lon="5.87357">
        <ele>1012</ele>
        <time>2014-06-29T08:03:34Z</time>
      </trkpt>
      <trkpt lat="46.54433" lon="5.87367">
        <ele>1010.6</ele>
        <time>2014-06-29T08:03:36Z</time>
      </trkpt>
      <trkpt lat="46.5442" lon="5.87371">
        <ele>1009.9</ele>
        <time>2014-06-29T08:03:38Z</time>
      </trkpt>
      <trkpt lat="46.54404" lon="5.87365">
        <ele>1008.5</ele>
        <time>2014-06-29T08:03:40Z</time>
      </trkpt>
      <trkpt lat="46.54394" lon="5.87352">
        <ele>1007.6</ele>
        <time>2014-06-29T08:03:42Z</time>
      </trkpt>
      <trkpt lat="46.54387" lon="5.87332">
        <ele>1006.6</ele>
        <time>2014-06-29T08:03:44Z</time>
      </trkpt>
      <trkpt lat="46.54382" lon="5.87309">
        <ele>1006</ele>
        <time>2014-06-29T08:03:46Z</time>
      </trkpt>
      <trkpt lat="46.54382" lon="5.87286">
        <ele>1004.6</ele>
        <time>2014-06-29T08:03:48Z</time>
      </trkpt>
      <trkpt lat="46.54377" lon="5.87267">
        <ele>1003.7</ele>
        <time>2014-06-29T08:03:50Z</time>
      </trkpt>
      <trkpt lat="46.54368" lon="5.87248">
        <ele>1002.7</ele>
        <time>2014-06-29T08:03:52Z</time>
      </trkpt>
      <trkpt lat="46.54351" lon="5.87213">
        <ele>1000.7</ele>
        <time>2014-06-29T08:03:56Z</time>
      </trkpt>
      <trkpt lat="46.54339" lon="5.87196">
        <ele>999.5</ele>
        <time>2014-06-29T08:03:58Z</time>
      </trkpt>
      <trkpt lat="46.54328" lon="5.87181">
        <ele>997.7</ele>
        <time>2014-06-29T08:04:00Z</time>
      </trkpt>
      <trkpt lat="46.54317" lon="5.87166">
        <ele>996.3</ele>
        <time>2014-06-29T08:04:02Z</time>
      </trkpt>
      <trkpt lat="46.54306" lon="5.8715">
        <ele>995.2</ele>
        <time>2014-06-29T08:04:04Z</time>
      </trkpt>
      <trkpt lat="46.54294" lon="5.87133">
        <ele>993.5</ele>
        <time>2014-06-29T08:04:06Z</time>
      </trkpt>
      <trkpt lat="46.54281" lon="5.87116">
        <ele>992.1</ele>
        <time>2014-06-29T08:04:08Z</time>
      </trkpt>
      <trkpt lat="46.54271" lon="5.87101">
        <ele>991</ele>
        <time>2014-06-29T08:04:10Z</time>
      </trkpt>
      <trkpt lat="46.5426" lon="5.87086">
        <ele>989.7</ele>
        <time>2014-06-29T08:04:12Z</time>
      </trkpt>
      <trkpt lat="46.54246" lon="5.87071">
        <ele>988.7</ele>
        <time>2014-06-29T08:04:14Z</time>
      </trkpt>
      <trkpt lat="46.54238" lon="5.87063">
        <ele>988.2</ele>
        <time>2014-06-29T08:04:15Z</time>
      </trkpt>
      <trkpt lat="46.54231" lon="5.87056">
        <ele>987.7</ele>
        <time>2014-06-29T08:04:16Z</time>
      </trkpt>
      <trkpt lat="46.5422" lon="5.87044">
        <ele>986.4</ele>
        <time>2014-06-29T08:04:18Z</time>
      </trkpt>
      <trkpt lat="46.54213" lon="5.8703">
        <ele>985.2</ele>
        <time>2014-06-29T08:04:20Z</time>
      </trkpt>
      <trkpt lat="46.5421" lon="5.8701">
        <ele>984</ele>
        <time>2014-06-29T08:04:22Z</time>
      </trkpt>
      <trkpt lat="46.54217" lon="5.86992">
        <ele>982.8</ele>
        <time>2014-06-29T08:04:24Z</time>
      </trkpt>
      <trkpt lat="46.54233" lon="5.86984">
        <ele>981.5</ele>
        <time>2014-06-29T08:04:26Z</time>
      </trkpt>
      <trkpt lat="46.54247" lon="5.86992">
        <ele>980.3</ele>
        <time>2014-06-29T08:04:28Z</time>
      </trkpt>
      <trkpt lat="46.54255" lon="5.87009">
        <ele>979.7</ele>
        <time>2014-06-29T08:04:30Z</time>
      </trkpt>
      <trkpt lat="46.54263" lon="5.87025">
        <ele>979.1</ele>
        <time>2014-06-29T08:04:32Z</time>
      </trkpt>
      <trkpt lat="46.54273" lon="5.87037">
        <ele>978.3</ele>
        <time>2014-06-29T08:04:34Z</time>
      </trkpt>
      <trkpt lat="46.54285" lon="5.87043">
        <ele>977.5</ele>
        <time>2014-06-29T08:04:36Z</time>
      </trkpt>
      <trkpt lat="46.54299" lon="5.87043">
        <ele>976.8</ele>
        <time>2014-06-29T08:04:38Z</time>
      </trkpt>
      <trkpt lat="46.54313" lon="5.87037">
        <ele>976.2</ele>
        <time>2014-06-29T08:04:40Z</time>
      </trkpt>
      <trkpt lat="46.54326" lon="5.87027">
        <ele>975.3</ele>
        <time>2014-06-29T08:04:42Z</time>
      </trkpt>
      <trkpt lat="46.5434" lon="5.87017">
        <ele>974.9</ele>
        <time>2014-06-29T08:04:44Z</time>
      </trkpt>
      <trkpt lat="46.54352" lon="5.87004">
        <ele>974.1</ele>
        <time>2014-06-29T08:04:46Z</time>
      </trkpt>
      <trkpt lat="46.5436" lon="5.86985">
        <ele>973.4</ele>
        <time>2014-06-29T08:04:48Z</time>
      </trkpt>
      <trkpt lat="46.54365" lon="5.86962">
        <ele>972.9</ele>
        <time>2014-06-29T08:04:50Z</time>
      </trkpt>
      <trkpt lat="46.54368" lon="5.86938">
        <ele>972.1</ele>
        <time>2014-06-29T08:04:52Z</time>
      </trkpt>
      <trkpt lat="46.54371" lon="5.86914">
        <ele>971.5</ele>
        <time>2014-06-29T08:04:54Z</time>
      </trkpt>
      <trkpt lat="46.54379" lon="5.86868">
        <ele>970.2</ele>
        <time>2014-06-29T08:04:58Z</time>
      </trkpt>
      <trkpt lat="46.54384" lon="5.86847">
        <ele>969.6</ele>
        <time>2014-06-29T08:05:00Z</time>
      </trkpt>
      <trkpt lat="46.54391" lon="5.86828">
        <ele>969.7</ele>
        <time>2014-06-29T08:05:02Z</time>
      </trkpt>
      <trkpt lat="46.54399" lon="5.86813">
        <ele>969.5</ele>
        <time>2014-06-29T08:05:04Z</time>
      </trkpt>
      <trkpt lat="46.54406" lon="5.86801">
        <ele>969.6</ele>
        <time>2014-06-29T08:05:06Z</time>
      </trkpt>
      <trkpt lat="46.54414" lon="5.86787">
        <ele>970.3</ele>
        <time>2014-06-29T08:05:09Z</time>
      </trkpt>
      <trkpt lat="46.54422" lon="5.86779">
        <ele>971.1</ele>
        <time>2014-06-29T08:05:12Z</time>
      </trkpt>
      <trkpt lat="46.54434" lon="5.86779">
        <ele>972</ele>
        <time>2014-06-29T08:05:16Z</time>
      </trkpt>
      <trkpt lat="46.54444" lon="5.86779">
        <ele>973.2</ele>
        <time>2014-06-29T08:05:20Z</time>
      </trkpt>
      <trkpt lat="46.54454" lon="5.8678">
        <ele>973.9</ele>
        <time>2014-06-29T08:05:24Z</time>
      </trkpt>
      <trkpt lat="46.54463" lon="5.8678">
        <ele>974.9</ele>
        <time>2014-06-29T08:05:28Z</time>
      </trkpt>
      <trkpt lat="46.54473" lon="5.86778">
        <ele>976.3</ele>
        <time>2014-06-29T08:05:33Z</time>
      </trkpt>
      <trkpt lat="46.54482" lon="5.86778">
        <ele>977.2</ele>
        <time>2014-06-29T08:05:37Z</time>
      </trkpt>
      <trkpt lat="46.54492" lon="5.86778">
        <ele>977.8</ele>
        <time>2014-06-29T08:05:42Z</time>
      </trkpt>
      <trkpt lat="46.54503" lon="5.86776">
        <ele>978.3</ele>
        <time>2014-06-29T08:05:47Z</time>
      </trkpt>
      <trkpt lat="46.54513" lon="5.86772">
        <ele>979.4</ele>
        <time>2014-06-29T08:05:52Z</time>
      </trkpt>
      <trkpt lat="46.54524" lon="5.86771">
        <ele>980.1</ele>
        <time>2014-06-29T08:05:57Z</time>
      </trkpt>
      <trkpt lat="46.54544" lon="5.86775">
        <ele>981.3</ele>
        <time>2014-06-29T08:06:04Z</time>
      </trkpt>
      <trkpt lat="46.54553" lon="5.86775">
        <ele>981.9</ele>
        <time>2014-06-29T08:06:08Z</time>
      </trkpt>
      <trkpt lat="46.54564" lon="5.86775">
        <ele>982.9</ele>
        <time>2014-06-29T08:06:13Z</time>
      </trkpt>
      <trkpt lat="46.54573" lon="5.86772">
        <ele>983.5</ele>
        <time>2014-06-29T08:06:18Z</time>
      </trkpt>
      <trkpt lat="46.54583" lon="5.86768">
        <ele>984.4</ele>
        <time>2014-06-29T08:06:23Z</time>
      </trkpt>
      <trkpt lat="46.54592" lon="5.86762">
        <ele>985.4</ele>
        <time>2014-06-29T08:06:27Z</time>
      </trkpt>
      <trkpt lat="46.546" lon="5.86756">
        <ele>986.4</ele>
        <time>2014-06-29T08:06:32Z</time>
      </trkpt>
      <trkpt lat="46.5461" lon="5.86748">
        <ele>987.2</ele>
        <time>2014-06-29T08:06:37Z</time>
      </trkpt>
      <trkpt lat="46.54619" lon="5.86744">
        <ele>987.5</ele>
        <time>2014-06-29T08:06:41Z</time>
      </trkpt>
      <trkpt lat="46.54629" lon="5.8674">
        <ele>987.9</ele>
        <time>2014-06-29T08:06:45Z</time>
      </trkpt>
      <trkpt lat="46.54639" lon="5.86737">
        <ele>988.2</ele>
        <time>2014-06-29T08:06:49Z</time>
      </trkpt>
      <trkpt lat="46.54649" lon="5.86731">
        <ele>988.7</ele>
        <time>2014-06-29T08:06:53Z</time>
      </trkpt>
      <trkpt lat="46.54658" lon="5.86727">
        <ele>989.1</ele>
        <time>2014-06-29T08:06:57Z</time>
      </trkpt>
      <trkpt lat="46.54668" lon="5.86723">
        <ele>989.3</ele>
        <time>2014-06-29T08:07:01Z</time>
      </trkpt>
      <trkpt lat="46.54689" lon="5.86714">
        <ele>990.1</ele>
        <time>2014-06-29T08:07:08Z</time>
      </trkpt>
      <trkpt lat="46.54701" lon="5.86711">
        <ele>990.3</ele>
        <time>2014-06-29T08:07:12Z</time>
      </trkpt>
      <trkpt lat="46.54711" lon="5.86714">
        <ele>990.6</ele>
        <time>2014-06-29T08:07:15Z</time>
      </trkpt>
      <trkpt lat="46.54722" lon="5.86713">
        <ele>991.1</ele>
        <time>2014-06-29T08:07:19Z</time>
      </trkpt>
      <trkpt lat="46.54731" lon="5.86712">
        <ele>991.6</ele>
        <time>2014-06-29T08:07:23Z</time>
      </trkpt>
      <trkpt lat="46.54741" lon="5.86713">
        <ele>992.1</ele>
        <time>2014-06-29T08:07:26Z</time>
      </trkpt>
      <trkpt lat="46.5475" lon="5.86716">
        <ele>992.5</ele>
        <time>2014-06-29T08:07:29Z</time>
      </trkpt>
      <trkpt lat="46.54759" lon="5.86722">
        <ele>993</ele>
        <time>2014-06-29T08:07:33Z</time>
      </trkpt>
      <trkpt lat="46.5477" lon="5.86728">
        <ele>993.3</ele>
        <time>2014-06-29T08:07:36Z</time>
      </trkpt>
      <trkpt lat="46.5478" lon="5.86733">
        <ele>993.9</ele>
        <time>2014-06-29T08:07:40Z</time>
      </trkpt>
      <trkpt lat="46.54791" lon="5.86737">
        <ele>994.4</ele>
        <time>2014-06-29T08:07:45Z</time>
      </trkpt>
      <trkpt lat="46.54801" lon="5.86742">
        <ele>995.1</ele>
        <time>2014-06-29T08:07:49Z</time>
      </trkpt>
      <trkpt lat="46.54811" lon="5.86744">
        <ele>995.4</ele>
        <time>2014-06-29T08:07:53Z</time>
      </trkpt>
      <trkpt lat="46.5482" lon="5.86749">
        <ele>995.9</ele>
        <time>2014-06-29T08:07:58Z</time>
      </trkpt>
      <trkpt lat="46.5483" lon="5.86754">
        <ele>997.2</ele>
        <time>2014-06-29T08:08:04Z</time>
      </trkpt>
      <trkpt lat="46.5485" lon="5.86762">
        <ele>997.8</ele>
        <time>2014-06-29T08:08:10Z</time>
      </trkpt>
      <trkpt lat="46.54861" lon="5.86764">
        <ele>998.6</ele>
        <time>2014-06-29T08:08:14Z</time>
      </trkpt>
      <trkpt lat="46.54871" lon="5.86763">
        <ele>999</ele>
        <time>2014-06-29T08:08:17Z</time>
      </trkpt>
      <trkpt lat="46.5488" lon="5.86758">
        <ele>999.6</ele>
        <time>2014-06-29T08:08:21Z</time>
      </trkpt>
      <trkpt lat="46.5489" lon="5.86754">
        <ele>1000.2</ele>
        <time>2014-06-29T08:08:25Z</time>
      </trkpt>
      <trkpt lat="46.54899" lon="5.86749">
        <ele>1000.9</ele>
        <time>2014-06-29T08:08:29Z</time>
      </trkpt>
      <trkpt lat="46.54908" lon="5.86744">
        <ele>1001.4</ele>
        <time>2014-06-29T08:08:33Z</time>
      </trkpt>
      <trkpt lat="46.54921" lon="5.86741">
        <ele>1001.8</ele>
        <time>2014-06-29T08:08:37Z</time>
      </trkpt>
      <trkpt lat="46.5493" lon="5.86738">
        <ele>1002.2</ele>
        <time>2014-06-29T08:08:41Z</time>
      </trkpt>
      <trkpt lat="46.54941" lon="5.86735">
        <ele>1003.2</ele>
        <time>2014-06-29T08:08:46Z</time>
      </trkpt>
      <trkpt lat="46.5495" lon="5.86733">
        <ele>1004</ele>
        <time>2014-06-29T08:08:50Z</time>
      </trkpt>
      <trkpt lat="46.5496" lon="5.86731">
        <ele>1004.8</ele>
        <time>2014-06-29T08:08:54Z</time>
      </trkpt>
      <trkpt lat="46.5497" lon="5.86731">
        <ele>1005.4</ele>
        <time>2014-06-29T08:08:57Z</time>
      </trkpt>
      <trkpt lat="46.5498" lon="5.86731">
        <ele>1005.8</ele>
        <time>2014-06-29T08:09:02Z</time>
      </trkpt>
      <trkpt lat="46.54989" lon="5.86732">
        <ele>1006.7</ele>
        <time>2014-06-29T08:09:06Z</time>
      </trkpt>
      <trkpt lat="46.55009" lon="5.86743">
        <ele>1007.7</ele>
        <time>2014-06-29T08:09:13Z</time>
      </trkpt>
      <trkpt lat="46.55019" lon="5.86751">
        <ele>1008</ele>
        <time>2014-06-29T08:09:16Z</time>
      </trkpt>
      <trkpt lat="46.55027" lon="5.86764">
        <ele>1009.1</ele>
        <time>2014-06-29T08:09:20Z</time>
      </trkpt>
      <trkpt lat="46.55032" lon="5.86776">
        <ele>1009.8</ele>
        <time>2014-06-29T08:09:24Z</time>
      </trkpt>
      <trkpt lat="46.55039" lon="5.86786">
        <ele>1010.3</ele>
        <time>2014-06-29T08:09:31Z</time>
      </trkpt>
      <trkpt lat="46.55048" lon="5.8679">
        <ele>1010.9</ele>
        <time>2014-06-29T08:09:36Z</time>
      </trkpt>
      <trkpt lat="46.55057" lon="5.86794">
        <ele>1011.2</ele>
        <time>2014-06-29T08:09:39Z</time>
      </trkpt>
      <trkpt lat="46.55067" lon="5.86798">
        <ele>1011.8</ele>
        <time>2014-06-29T08:09:43Z</time>
      </trkpt>
      <trkpt lat="46.55077" lon="5.86805">
        <ele>1012.4</ele>
        <time>2014-06-29T08:09:47Z</time>
      </trkpt>
      <trkpt lat="46.55088" lon="5.86813">
        <ele>1013</ele>
        <time>2014-06-29T08:09:50Z</time>
      </trkpt>
      <trkpt lat="46.55095" lon="5.86821">
        <ele>1013.7</ele>
        <time>2014-06-29T08:09:53Z</time>
      </trkpt>
      <trkpt lat="46.551" lon="5.86832">
        <ele>1014.3</ele>
        <time>2014-06-29T08:09:57Z</time>
      </trkpt>
      <trkpt lat="46.55106" lon="5.86843">
        <ele>1014.9</ele>
        <time>2014-06-29T08:10:01Z</time>
      </trkpt>
      <trkpt lat="46.55115" lon="5.86851">
        <ele>1015.3</ele>
        <time>2014-06-29T08:10:05Z</time>
      </trkpt>
      <trkpt lat="46.55124" lon="5.86855">
        <ele>1015.6</ele>
        <time>2014-06-29T08:10:08Z</time>
      </trkpt>
      <trkpt lat="46.55143" lon="5.86864">
        <ele>1016.8</ele>
        <time>2014-06-29T08:10:15Z</time>
      </trkpt>
      <trkpt lat="46.55152" lon="5.8687">
        <ele>1017.6</ele>
        <time>2014-06-29T08:10:19Z</time>
      </trkpt>
      <trkpt lat="46.55162" lon="5.86874">
        <ele>1018.1</ele>
        <time>2014-06-29T08:10:23Z</time>
      </trkpt>
      <trkpt lat="46.55171" lon="5.86878">
        <ele>1018.8</ele>
        <time>2014-06-29T08:10:27Z</time>
      </trkpt>
      <trkpt lat="46.5518" lon="5.86882">
        <ele>1019.1</ele>
        <time>2014-06-29T08:10:31Z</time>
      </trkpt>
      <trkpt lat="46.55188" lon="5.86887">
        <ele>1019.7</ele>
        <time>2014-06-29T08:10:35Z</time>
      </trkpt>
      <trkpt lat="46.55196" lon="5.86894">
        <ele>1021</ele>
        <time>2014-06-29T08:10:39Z</time>
      </trkpt>
      <trkpt lat="46.55205" lon="5.86903">
        <ele>1021.4</ele>
        <time>2014-06-29T08:10:44Z</time>
      </trkpt>
      <trkpt lat="46.55214" lon="5.86909">
        <ele>1021.9</ele>
        <time>2014-06-29T08:10:49Z</time>
      </trkpt>
      <trkpt lat="46.55224" lon="5.86913">
        <ele>1022.9</ele>
        <time>2014-06-29T08:10:53Z</time>
      </trkpt>
      <trkpt lat="46.55233" lon="5.86917">
        <ele>1023.1</ele>
        <time>2014-06-29T08:10:57Z</time>
      </trkpt>
      <trkpt lat="46.55242" lon="5.86923">
        <ele>1024</ele>
        <time>2014-06-29T08:11:01Z</time>
      </trkpt>
      <trkpt lat="46.55253" lon="5.8693">
        <ele>1024.6</ele>
        <time>2014-06-29T08:11:05Z</time>
      </trkpt>
      <trkpt lat="46.55262" lon="5.86938">
        <ele>1024.7</ele>
        <time>2014-06-29T08:11:09Z</time>
      </trkpt>
      <trkpt lat="46.55279" lon="5.86952">
        <ele>1026.2</ele>
        <time>2014-06-29T08:11:17Z</time>
      </trkpt>
      <trkpt lat="46.55289" lon="5.86959">
        <ele>1027.3</ele>
        <time>2014-06-29T08:11:22Z</time>
      </trkpt>
      <trkpt lat="46.55299" lon="5.86966">
        <ele>1027.9</ele>
        <time>2014-06-29T08:11:26Z</time>
      </trkpt>
      <trkpt lat="46.55307" lon="5.86973">
        <ele>1028.4</ele>
        <time>2014-06-29T08:11:30Z</time>
      </trkpt>
      <trkpt lat="46.55315" lon="5.8698">
        <ele>1029.1</ele>
        <time>2014-06-29T08:11:35Z</time>
      </trkpt>
      <trkpt lat="46.55324" lon="5.86989">
        <ele>1030.4</ele>
        <time>2014-06-29T08:11:42Z</time>
      </trkpt>
      <trkpt lat="46.55333" lon="5.86996">
        <ele>1030.7</ele>
        <time>2014-06-29T08:11:45Z</time>
      </trkpt>
      <trkpt lat="46.55342" lon="5.87004">
        <ele>1030.5</ele>
        <time>2014-06-29T08:11:49Z</time>
      </trkpt>
      <trkpt lat="46.55351" lon="5.87012">
        <ele>1031.7</ele>
        <time>2014-06-29T08:11:54Z</time>
      </trkpt>
      <trkpt lat="46.55359" lon="5.87018">
        <ele>1032.7</ele>
        <time>2014-06-29T08:11:58Z</time>
      </trkpt>
      <trkpt lat="46.5537" lon="5.87024">
        <ele>1033.1</ele>
        <time>2014-06-29T08:12:02Z</time>
      </trkpt>
      <trkpt lat="46.55378" lon="5.87028">
        <ele>1033.5</ele>
        <time>2014-06-29T08:12:06Z</time>
      </trkpt>
      <trkpt lat="46.55388" lon="5.87033">
        <ele>1034.2</ele>
        <time>2014-06-29T08:12:11Z</time>
      </trkpt>
      <trkpt lat="46.55406" lon="5.87046">
        <ele>1035.4</ele>
        <time>2014-06-29T08:12:21Z</time>
      </trkpt>
      <trkpt lat="46.55415" lon="5.87054">
        <ele>1036</ele>
        <time>2014-06-29T08:12:26Z</time>
      </trkpt>
      <trkpt lat="46.55423" lon="5.87064">
        <ele>1037.2</ele>
        <time>2014-06-29T08:12:31Z</time>
      </trkpt>
      <trkpt lat="46.55432" lon="5.87072">
        <ele>1037.7</ele>
        <time>2014-06-29T08:12:35Z</time>
      </trkpt>
      <trkpt lat="46.55441" lon="5.87078">
        <ele>1038.1</ele>
        <time>2014-06-29T08:12:39Z</time>
      </trkpt>
      <trkpt lat="46.55449" lon="5.87084">
        <ele>1038.6</ele>
        <time>2014-06-29T08:12:43Z</time>
      </trkpt>
      <trkpt lat="46.5546" lon="5.8709">
        <ele>1038.8</ele>
        <time>2014-06-29T08:12:46Z</time>
      </trkpt>
      <trkpt lat="46.5547" lon="5.87097">
        <ele>1039.6</ele>
        <time>2014-06-29T08:12:49Z</time>
      </trkpt>
      <trkpt lat="46.55479" lon="5.87106">
        <ele>1040</ele>
        <time>2014-06-29T08:12:52Z</time>
      </trkpt>
      <trkpt lat="46.55488" lon="5.87113">
        <ele>1040.2</ele>
        <time>2014-06-29T08:12:55Z</time>
      </trkpt>
      <trkpt lat="46.55496" lon="5.87122">
        <ele>1040.4</ele>
        <time>2014-06-29T08:12:58Z</time>
      </trkpt>
      <trkpt lat="46.55502" lon="5.87136">
        <ele>1041</ele>
        <time>2014-06-29T08:13:02Z</time>
      </trkpt>
      <trkpt lat="46.55508" lon="5.87151">
        <ele>1041.6</ele>
        <time>2014-06-29T08:13:06Z</time>
      </trkpt>
      <trkpt lat="46.55514" lon="5.87164">
        <ele>1041.9</ele>
        <time>2014-06-29T08:13:09Z</time>
      </trkpt>
      <trkpt lat="46.55521" lon="5.87174">
        <ele>1042.2</ele>
        <time>2014-06-29T08:13:12Z</time>
      </trkpt>
      <trkpt lat="46.55535" lon="5.87196">
        <ele>1042.3</ele>
        <time>2014-06-29T08:13:18Z</time>
      </trkpt>
      <trkpt lat="46.55543" lon="5.87206">
        <ele>1042.4</ele>
        <time>2014-06-29T08:13:22Z</time>
      </trkpt>
      <trkpt lat="46.5555" lon="5.87216">
        <ele>1042.7</ele>
        <time>2014-06-29T08:13:28Z</time>
      </trkpt>
      <trkpt lat="46.55558" lon="5.87224">
        <ele>1043.1</ele>
        <time>2014-06-29T08:13:34Z</time>
      </trkpt>
      <trkpt lat="46.55549" lon="5.87218">
        <ele>1042</ele>
        <time>2014-06-29T08:14:32Z</time>
      </trkpt>
      <trkpt lat="46.55578" lon="5.87224">
        <ele>1043.4</ele>
        <time>2014-06-29T08:15:50Z</time>
      </trkpt>
      <trkpt lat="46.55588" lon="5.87228">
        <ele>1044.1</ele>
        <time>2014-06-29T08:15:54Z</time>
      </trkpt>
      <trkpt lat="46.55598" lon="5.87231">
        <ele>1044.4</ele>
        <time>2014-06-29T08:15:59Z</time>
      </trkpt>
      <trkpt lat="46.5561" lon="5.87234">
        <ele>1044.9</ele>
        <time>2014-06-29T08:16:03Z</time>
      </trkpt>
      <trkpt lat="46.55621" lon="5.87237">
        <ele>1045.1</ele>
        <time>2014-06-29T08:16:06Z</time>
      </trkpt>
      <trkpt lat="46.55631" lon="5.87242">
        <ele>1045.3</ele>
        <time>2014-06-29T08:16:09Z</time>
      </trkpt>
      <trkpt lat="46.55642" lon="5.87247">
        <ele>1045.5</ele>
        <time>2014-06-29T08:16:13Z</time>
      </trkpt>
      <trkpt lat="46.55652" lon="5.87253">
        <ele>1045.8</ele>
        <time>2014-06-29T08:16:16Z</time>
      </trkpt>
      <trkpt lat="46.55661" lon="5.87258">
        <ele>1045.9</ele>
        <time>2014-06-29T08:16:18Z</time>
      </trkpt>
      <trkpt lat="46.55669" lon="5.87264">
        <ele>1045.9</ele>
        <time>2014-06-29T08:16:21Z</time>
      </trkpt>
      <trkpt lat="46.55677" lon="5.87271">
        <ele>1046</ele>
        <time>2014-06-29T08:16:24Z</time>
      </trkpt>
      <trkpt lat="46.55685" lon="5.87278">
        <ele>1046.3</ele>
        <time>2014-06-29T08:16:27Z</time>
      </trkpt>
      <trkpt lat="46.55693" lon="5.87285">
        <ele>1046.5</ele>
        <time>2014-06-29T08:16:30Z</time>
      </trkpt>
      <trkpt lat="46.55703" lon="5.87294">
        <ele>1046.2</ele>
        <time>2014-06-29T08:16:33Z</time>
      </trkpt>
      <trkpt lat="46.55713" lon="5.87304">
        <ele>1046.4</ele>
        <time>2014-06-29T08:16:36Z</time>
      </trkpt>
      <trkpt lat="46.55725" lon="5.87314">
        <ele>1046.3</ele>
        <time>2014-06-29T08:16:39Z</time>
      </trkpt>
      <trkpt lat="46.55733" lon="5.8732">
        <ele>1046.2</ele>
        <time>2014-06-29T08:16:41Z</time>
      </trkpt>
      <trkpt lat="46.55744" lon="5.87327">
        <ele>1045.9</ele>
        <time>2014-06-29T08:16:43Z</time>
      </trkpt>
      <trkpt lat="46.55763" lon="5.87339">
        <ele>1045.8</ele>
        <time>2014-06-29T08:16:47Z</time>
      </trkpt>
      <trkpt lat="46.55771" lon="5.87346">
        <ele>1045.7</ele>
        <time>2014-06-29T08:16:49Z</time>
      </trkpt>
      <trkpt lat="46.5578" lon="5.87357">
        <ele>1045.9</ele>
        <time>2014-06-29T08:16:52Z</time>
      </trkpt>
      <trkpt lat="46.55788" lon="5.87365">
        <ele>1045.4</ele>
        <time>2014-06-29T08:16:55Z</time>
      </trkpt>
      <trkpt lat="46.55798" lon="5.87374">
        <ele>1045.4</ele>
        <time>2014-06-29T08:16:58Z</time>
      </trkpt>
      <trkpt lat="46.55807" lon="5.87381">
        <ele>1045.4</ele>
        <time>2014-06-29T08:17:00Z</time>
      </trkpt>
      <trkpt lat="46.55818" lon="5.87388">
        <ele>1045.4</ele>
        <time>2014-06-29T08:17:02Z</time>
      </trkpt>
      <trkpt lat="46.55829" lon="5.87396">
        <ele>1045.2</ele>
        <time>2014-06-29T08:17:04Z</time>
      </trkpt>
      <trkpt lat="46.55838" lon="5.87402">
        <ele>1045.5</ele>
        <time>2014-06-29T08:17:06Z</time>
      </trkpt>
      <trkpt lat="46.55846" lon="5.87409">
        <ele>1045.5</ele>
        <time>2014-06-29T08:17:08Z</time>
      </trkpt>
      <trkpt lat="46.55857" lon="5.87416">
        <ele>1045.4</ele>
        <time>2014-06-29T08:17:11Z</time>
      </trkpt>
      <trkpt lat="46.55865" lon="5.87422">
        <ele>1045.7</ele>
        <time>2014-06-29T08:17:14Z</time>
      </trkpt>
      <trkpt lat="46.55875" lon="5.87424">
        <ele>1046.2</ele>
        <time>2014-06-29T08:17:18Z</time>
      </trkpt>
      <trkpt lat="46.5588" lon="5.87413">
        <ele>1046.8</ele>
        <time>2014-06-29T08:17:22Z</time>
      </trkpt>
      <trkpt lat="46.55882" lon="5.87397">
        <ele>1046.9</ele>
        <time>2014-06-29T08:17:27Z</time>
      </trkpt>
      <trkpt lat="46.55889" lon="5.87386">
        <ele>1047.4</ele>
        <time>2014-06-29T08:17:31Z</time>
      </trkpt>
      <trkpt lat="46.55897" lon="5.87376">
        <ele>1047.9</ele>
        <time>2014-06-29T08:17:35Z</time>
      </trkpt>
      <trkpt lat="46.55905" lon="5.87367">
        <ele>1048.5</ele>
        <time>2014-06-29T08:17:39Z</time>
      </trkpt>
      <trkpt lat="46.55914" lon="5.87359">
        <ele>1048.9</ele>
        <time>2014-06-29T08:17:43Z</time>
      </trkpt>
      <trkpt lat="46.55924" lon="5.87353">
        <ele>1049.4</ele>
        <time>2014-06-29T08:17:48Z</time>
      </trkpt>
      <trkpt lat="46.55943" lon="5.8735">
        <ele>1049.9</ele>
        <time>2014-06-29T08:17:55Z</time>
      </trkpt>
      <trkpt lat="46.55951" lon="5.87356">
        <ele>1050.1</ele>
        <time>2014-06-29T08:18:00Z</time>
      </trkpt>
      <trkpt lat="46.55961" lon="5.87362">
        <ele>1050.5</ele>
        <time>2014-06-29T08:18:04Z</time>
      </trkpt>
      <trkpt lat="46.55971" lon="5.87368">
        <ele>1051.5</ele>
        <time>2014-06-29T08:18:09Z</time>
      </trkpt>
      <trkpt lat="46.5598" lon="5.87373">
        <ele>1051.6</ele>
        <time>2014-06-29T08:18:13Z</time>
      </trkpt>
      <trkpt lat="46.55991" lon="5.87379">
        <ele>1052</ele>
        <time>2014-06-29T08:18:16Z</time>
      </trkpt>
      <trkpt lat="46.56001" lon="5.87384">
        <ele>1052.4</ele>
        <time>2014-06-29T08:18:19Z</time>
      </trkpt>
      <trkpt lat="46.56011" lon="5.8739">
        <ele>1052.7</ele>
        <time>2014-06-29T08:18:22Z</time>
      </trkpt>
      <trkpt lat="46.5602" lon="5.87397">
        <ele>1053</ele>
        <time>2014-06-29T08:18:26Z</time>
      </trkpt>
      <trkpt lat="46.56028" lon="5.87405">
        <ele>1053.6</ele>
        <time>2014-06-29T08:18:30Z</time>
      </trkpt>
      <trkpt lat="46.56035" lon="5.87417">
        <ele>1054.5</ele>
        <time>2014-06-29T08:18:36Z</time>
      </trkpt>
      <trkpt lat="46.56042" lon="5.87428">
        <ele>1055.7</ele>
        <time>2014-06-29T08:18:42Z</time>
      </trkpt>
      <trkpt lat="46.5605" lon="5.8744">
        <ele>1056.2</ele>
        <time>2014-06-29T08:18:47Z</time>
      </trkpt>
      <trkpt lat="46.56059" lon="5.87448">
        <ele>1056.5</ele>
        <time>2014-06-29T08:18:50Z</time>
      </trkpt>
      <trkpt lat="46.56075" lon="5.87462">
        <ele>1056.9</ele>
        <time>2014-06-29T08:18:55Z</time>
      </trkpt>
      <trkpt lat="46.56085" lon="5.87472">
        <ele>1057.5</ele>
        <time>2014-06-29T08:18:59Z</time>
      </trkpt>
      <trkpt lat="46.56094" lon="5.87482">
        <ele>1058.2</ele>
        <time>2014-06-29T08:19:03Z</time>
      </trkpt>
      <trkpt lat="46.56102" lon="5.87492">
        <ele>1058.5</ele>
        <time>2014-06-29T08:19:08Z</time>
      </trkpt>
      <trkpt lat="46.56112" lon="5.87498">
        <ele>1058.9</ele>
        <time>2014-06-29T08:19:12Z</time>
      </trkpt>
      <trkpt lat="46.56121" lon="5.87503">
        <ele>1059.3</ele>
        <time>2014-06-29T08:19:16Z</time>
      </trkpt>
      <trkpt lat="46.56131" lon="5.87503">
        <ele>1060.2</ele>
        <time>2014-06-29T08:19:21Z</time>
      </trkpt>
      <trkpt lat="46.5614" lon="5.87501">
        <ele>1060.3</ele>
        <time>2014-06-29T08:19:25Z</time>
      </trkpt>
      <trkpt lat="46.56151" lon="5.87503">
        <ele>1060.5</ele>
        <time>2014-06-29T08:19:28Z</time>
      </trkpt>
      <trkpt lat="46.56162" lon="5.87506">
        <ele>1061</ele>
        <time>2014-06-29T08:19:32Z</time>
      </trkpt>
      <trkpt lat="46.56171" lon="5.87512">
        <ele>1061.3</ele>
        <time>2014-06-29T08:19:35Z</time>
      </trkpt>
      <trkpt lat="46.56179" lon="5.87521">
        <ele>1061.7</ele>
        <time>2014-06-29T08:19:39Z</time>
      </trkpt>
      <trkpt lat="46.56185" lon="5.87533">
        <ele>1062.2</ele>
        <time>2014-06-29T08:19:44Z</time>
      </trkpt>
      <trkpt lat="46.56193" lon="5.8754">
        <ele>1062.8</ele>
        <time>2014-06-29T08:19:48Z</time>
      </trkpt>
      <trkpt lat="46.56202" lon="5.87543">
        <ele>1063.6</ele>
        <time>2014-06-29T08:19:52Z</time>
      </trkpt>
      <trkpt lat="46.56224" lon="5.87536">
        <ele>1064.3</ele>
        <time>2014-06-29T08:20:00Z</time>
      </trkpt>
      <trkpt lat="46.56233" lon="5.87526">
        <ele>1064.6</ele>
        <time>2014-06-29T08:20:04Z</time>
      </trkpt>
      <trkpt lat="46.5624" lon="5.87515">
        <ele>1065.3</ele>
        <time>2014-06-29T08:20:08Z</time>
      </trkpt>
      <trkpt lat="46.56248" lon="5.87504">
        <ele>1065.9</ele>
        <time>2014-06-29T08:20:12Z</time>
      </trkpt>
      <trkpt lat="46.56255" lon="5.87492">
        <ele>1066</ele>
        <time>2014-06-29T08:20:16Z</time>
      </trkpt>
      <trkpt lat="46.56262" lon="5.87481">
        <ele>1066.7</ele>
        <time>2014-06-29T08:20:20Z</time>
      </trkpt>
      <trkpt lat="46.5627" lon="5.87472">
        <ele>1066.9</ele>
        <time>2014-06-29T08:20:24Z</time>
      </trkpt>
      <trkpt lat="46.56279" lon="5.87468">
        <ele>1067.5</ele>
        <time>2014-06-29T08:20:27Z</time>
      </trkpt>
      <trkpt lat="46.56288" lon="5.87461">
        <ele>1067.6</ele>
        <time>2014-06-29T08:20:31Z</time>
      </trkpt>
      <trkpt lat="46.56296" lon="5.87451">
        <ele>1068</ele>
        <time>2014-06-29T08:20:35Z</time>
      </trkpt>
      <trkpt lat="46.56301" lon="5.87438">
        <ele>1068.5</ele>
        <time>2014-06-29T08:20:39Z</time>
      </trkpt>
      <trkpt lat="46.56307" lon="5.87427">
        <ele>1069.2</ele>
        <time>2014-06-29T08:20:43Z</time>
      </trkpt>
      <trkpt lat="46.56314" lon="5.87416">
        <ele>1069.7</ele>
        <time>2014-06-29T08:20:47Z</time>
      </trkpt>
      <trkpt lat="46.56319" lon="5.87402">
        <ele>1070.3</ele>
        <time>2014-06-29T08:20:52Z</time>
      </trkpt>
      <trkpt lat="46.5632" lon="5.87386">
        <ele>1070.7</ele>
        <time>2014-06-29T08:20:56Z</time>
      </trkpt>
      <trkpt lat="46.56335" lon="5.87361">
        <ele>1069.5</ele>
        <time>2014-06-29T08:21:03Z</time>
      </trkpt>
      <trkpt lat="46.56338" lon="5.87345">
        <ele>1067.8</ele>
        <time>2014-06-29T08:21:06Z</time>
      </trkpt>
      <trkpt lat="46.56337" lon="5.87329">
        <ele>1067.1</ele>
        <time>2014-06-29T08:21:09Z</time>
      </trkpt>
      <trkpt lat="46.5634" lon="5.87316">
        <ele>1066.1</ele>
        <time>2014-06-29T08:21:12Z</time>
      </trkpt>
      <trkpt lat="46.56346" lon="5.87305">
        <ele>1064.8</ele>
        <time>2014-06-29T08:21:15Z</time>
      </trkpt>
      <trkpt lat="46.56356" lon="5.87294">
        <ele>1063.6</ele>
        <time>2014-06-29T08:21:18Z</time>
      </trkpt>
      <trkpt lat="46.56366" lon="5.87288">
        <ele>1062.2</ele>
        <time>2014-06-29T08:21:21Z</time>
      </trkpt>
      <trkpt lat="46.56379" lon="5.87282">
        <ele>1061.4</ele>
        <time>2014-06-29T08:21:24Z</time>
      </trkpt>
      <trkpt lat="46.56388" lon="5.87277">
        <ele>1060.8</ele>
        <time>2014-06-29T08:21:26Z</time>
      </trkpt>
      <trkpt lat="46.56398" lon="5.87271">
        <ele>1060.5</ele>
        <time>2014-06-29T08:21:28Z</time>
      </trkpt>
      <trkpt lat="46.56405" lon="5.87263">
        <ele>1060.2</ele>
        <time>2014-06-29T08:21:30Z</time>
      </trkpt>
      <trkpt lat="46.5641" lon="5.8725">
        <ele>1059.5</ele>
        <time>2014-06-29T08:21:33Z</time>
      </trkpt>
      <trkpt lat="46.56409" lon="5.87234">
        <ele>1058.1</ele>
        <time>2014-06-29T08:21:37Z</time>
      </trkpt>
      <trkpt lat="46.56414" lon="5.87222">
        <ele>1055.9</ele>
        <time>2014-06-29T08:21:41Z</time>
      </trkpt>
      <trkpt lat="46.56422" lon="5.87217">
        <ele>1053.7</ele>
        <time>2014-06-29T08:21:45Z</time>
      </trkpt>
      <trkpt lat="46.56435" lon="5.87216">
        <ele>1050.9</ele>
        <time>2014-06-29T08:21:49Z</time>
      </trkpt>
      <trkpt lat="46.56447" lon="5.87211">
        <ele>1048.8</ele>
        <time>2014-06-29T08:21:52Z</time>
      </trkpt>
      <trkpt lat="46.56456" lon="5.872">
        <ele>1047.1</ele>
        <time>2014-06-29T08:21:55Z</time>
      </trkpt>
      <trkpt lat="46.56466" lon="5.87188">
        <ele>1046.3</ele>
        <time>2014-06-29T08:21:58Z</time>
      </trkpt>
      <trkpt lat="46.56482" lon="5.87163">
        <ele>1043</ele>
        <time>2014-06-29T08:22:05Z</time>
      </trkpt>
      <trkpt lat="46.5649" lon="5.87153">
        <ele>1041.5</ele>
        <time>2014-06-29T08:22:10Z</time>
      </trkpt>
      <trkpt lat="46.56501" lon="5.87159">
        <ele>1039.7</ele>
        <time>2014-06-29T08:22:16Z</time>
      </trkpt>
      <trkpt lat="46.56509" lon="5.87171">
        <ele>1038.1</ele>
        <time>2014-06-29T08:22:20Z</time>
      </trkpt>
      <trkpt lat="46.56515" lon="5.87182">
        <ele>1036.9</ele>
        <time>2014-06-29T08:22:23Z</time>
      </trkpt>
      <trkpt lat="46.56518" lon="5.87194">
        <ele>1035.8</ele>
        <time>2014-06-29T08:22:26Z</time>
      </trkpt>
      <trkpt lat="46.5652" lon="5.87207">
        <ele>1035.3</ele>
        <time>2014-06-29T08:22:29Z</time>
      </trkpt>
      <trkpt lat="46.56522" lon="5.87223">
        <ele>1034.2</ele>
        <time>2014-06-29T08:22:32Z</time>
      </trkpt>
      <trkpt lat="46.56524" lon="5.87236">
        <ele>1033.5</ele>
        <time>2014-06-29T08:22:36Z</time>
      </trkpt>
      <trkpt lat="46.56527" lon="5.8725">
        <ele>1033</ele>
        <time>2014-06-29T08:22:40Z</time>
      </trkpt>
      <trkpt lat="46.56536" lon="5.8726">
        <ele>1032.4</ele>
        <time>2014-06-29T08:22:44Z</time>
      </trkpt>
      <trkpt lat="46.56544" lon="5.87272">
        <ele>1032.2</ele>
        <time>2014-06-29T08:22:47Z</time>
      </trkpt>
      <trkpt lat="46.5655" lon="5.87282">
        <ele>1031.3</ele>
        <time>2014-06-29T08:22:49Z</time>
      </trkpt>
      <trkpt lat="46.56558" lon="5.87294">
        <ele>1030.5</ele>
        <time>2014-06-29T08:22:51Z</time>
      </trkpt>
      <trkpt lat="46.56567" lon="5.87307">
        <ele>1029.9</ele>
        <time>2014-06-29T08:22:53Z</time>
      </trkpt>
      <trkpt lat="46.56577" lon="5.87318">
        <ele>1029.1</ele>
        <time>2014-06-29T08:22:55Z</time>
      </trkpt>
      <trkpt lat="46.56589" lon="5.87328">
        <ele>1028</ele>
        <time>2014-06-29T08:22:57Z</time>
      </trkpt>
      <trkpt lat="46.56601" lon="5.87337">
        <ele>1027.1</ele>
        <time>2014-06-29T08:22:59Z</time>
      </trkpt>
      <trkpt lat="46.56621" lon="5.87351">
        <ele>1024.1</ele>
        <time>2014-06-29T08:23:06Z</time>
      </trkpt>
      <trkpt lat="46.56631" lon="5.87363">
        <ele>1023.4</ele>
        <time>2014-06-29T08:23:09Z</time>
      </trkpt>
      <trkpt lat="46.56637" lon="5.87374">
        <ele>1022.9</ele>
        <time>2014-06-29T08:23:11Z</time>
      </trkpt>
      <trkpt lat="46.56644" lon="5.87385">
        <ele>1022.2</ele>
        <time>2014-06-29T08:23:13Z</time>
      </trkpt>
      <trkpt lat="46.56652" lon="5.87397">
        <ele>1021.6</ele>
        <time>2014-06-29T08:23:15Z</time>
      </trkpt>
      <trkpt lat="46.56662" lon="5.87407">
        <ele>1020.1</ele>
        <time>2014-06-29T08:23:18Z</time>
      </trkpt>
      <trkpt lat="46.56671" lon="5.87414">
        <ele>1018.9</ele>
        <time>2014-06-29T08:23:22Z</time>
      </trkpt>
      <trkpt lat="46.56681" lon="5.87413">
        <ele>1018</ele>
        <time>2014-06-29T08:23:26Z</time>
      </trkpt>
      <trkpt lat="46.5669" lon="5.87412">
        <ele>1017.7</ele>
        <time>2014-06-29T08:23:29Z</time>
      </trkpt>
      <trkpt lat="46.56701" lon="5.8741">
        <ele>1017.9</ele>
        <time>2014-06-29T08:23:32Z</time>
      </trkpt>
      <trkpt lat="46.5671" lon="5.87406">
        <ele>1017.9</ele>
        <time>2014-06-29T08:23:35Z</time>
      </trkpt>
      <trkpt lat="46.56719" lon="5.87399">
        <ele>1017.7</ele>
        <time>2014-06-29T08:23:38Z</time>
      </trkpt>
      <trkpt lat="46.56728" lon="5.87393">
        <ele>1017.6</ele>
        <time>2014-06-29T08:23:40Z</time>
      </trkpt>
      <trkpt lat="46.56737" lon="5.87385">
        <ele>1017.8</ele>
        <time>2014-06-29T08:23:42Z</time>
      </trkpt>
      <trkpt lat="46.56745" lon="5.87377">
        <ele>1017.7</ele>
        <time>2014-06-29T08:23:44Z</time>
      </trkpt>
      <trkpt lat="46.56753" lon="5.87369">
        <ele>1017.1</ele>
        <time>2014-06-29T08:23:47Z</time>
      </trkpt>
      <trkpt lat="46.56761" lon="5.87362">
        <ele>1017.2</ele>
        <time>2014-06-29T08:23:50Z</time>
      </trkpt>
      <trkpt lat="46.56771" lon="5.87354">
        <ele>1017.5</ele>
        <time>2014-06-29T08:23:53Z</time>
      </trkpt>
      <trkpt lat="46.56782" lon="5.8735">
        <ele>1017.4</ele>
        <time>2014-06-29T08:23:56Z</time>
      </trkpt>
      <trkpt lat="46.56794" lon="5.87347">
        <ele>1017.5</ele>
        <time>2014-06-29T08:23:59Z</time>
      </trkpt>
      <trkpt lat="46.56804" lon="5.87347">
        <ele>1017.8</ele>
        <time>2014-06-29T08:24:02Z</time>
      </trkpt>
      <trkpt lat="46.56827" lon="5.87353">
        <ele>1018.5</ele>
        <time>2014-06-29T08:24:08Z</time>
      </trkpt>
      <trkpt lat="46.56838" lon="5.87359">
        <ele>1018.7</ele>
        <time>2014-06-29T08:24:11Z</time>
      </trkpt>
      <trkpt lat="46.56848" lon="5.87363">
        <ele>1018.6</ele>
        <time>2014-06-29T08:24:13Z</time>
      </trkpt>
      <trkpt lat="46.56859" lon="5.87368">
        <ele>1018.5</ele>
        <time>2014-06-29T08:24:15Z</time>
      </trkpt>
      <trkpt lat="46.5687" lon="5.87371">
        <ele>1018.2</ele>
        <time>2014-06-29T08:24:17Z</time>
      </trkpt>
      <trkpt lat="46.56881" lon="5.87375">
        <ele>1017.9</ele>
        <time>2014-06-29T08:24:19Z</time>
      </trkpt>
      <trkpt lat="46.56892" lon="5.87379">
        <ele>1017.2</ele>
        <time>2014-06-29T08:24:21Z</time>
      </trkpt>
      <trkpt lat="46.56903" lon="5.87384">
        <ele>1017.1</ele>
        <time>2014-06-29T08:24:23Z</time>
      </trkpt>
      <trkpt lat="46.56913" lon="5.87391">
        <ele>1016.9</ele>
        <time>2014-06-29T08:24:25Z</time>
      </trkpt>
      <trkpt lat="46.56923" lon="5.874">
        <ele>1017</ele>
        <time>2014-06-29T08:24:27Z</time>
      </trkpt>
      <trkpt lat="46.5693" lon="5.87409">
        <ele>1016.9</ele>
        <time>2014-06-29T08:24:29Z</time>
      </trkpt>
      <trkpt lat="46.56939" lon="5.8742">
        <ele>1016.8</ele>
        <time>2014-06-29T08:24:32Z</time>
      </trkpt>
      <trkpt lat="46.56949" lon="5.87428">
        <ele>1016.7</ele>
        <time>2014-06-29T08:24:35Z</time>
      </trkpt>
      <trkpt lat="46.5696" lon="5.87439">
        <ele>1016.3</ele>
        <time>2014-06-29T08:24:38Z</time>
      </trkpt>
      <trkpt lat="46.56969" lon="5.87447">
        <ele>1016.1</ele>
        <time>2014-06-29T08:24:41Z</time>
      </trkpt>
      <trkpt lat="46.56977" lon="5.87456">
        <ele>1015.6</ele>
        <time>2014-06-29T08:24:44Z</time>
      </trkpt>
      <trkpt lat="46.56989" lon="5.87461">
        <ele>1015.4</ele>
        <time>2014-06-29T08:24:47Z</time>
      </trkpt>
      <trkpt lat="46.56999" lon="5.87461">
        <ele>1015.1</ele>
        <time>2014-06-29T08:24:49Z</time>
      </trkpt>
      <trkpt lat="46.57011" lon="5.87458">
        <ele>1014.9</ele>
        <time>2014-06-29T08:24:51Z</time>
      </trkpt>
      <trkpt lat="46.57023" lon="5.87454">
        <ele>1014.5</ele>
        <time>2014-06-29T08:24:53Z</time>
      </trkpt>
      <trkpt lat="46.57034" lon="5.87451">
        <ele>1013.5</ele>
        <time>2014-06-29T08:24:55Z</time>
      </trkpt>
      <trkpt lat="46.57046" lon="5.87451">
        <ele>1012.4</ele>
        <time>2014-06-29T08:24:57Z</time>
      </trkpt>
      <trkpt lat="46.57057" lon="5.87453">
        <ele>1011.3</ele>
        <time>2014-06-29T08:24:59Z</time>
      </trkpt>
      <trkpt lat="46.57068" lon="5.87455">
        <ele>1010.1</ele>
        <time>2014-06-29T08:25:01Z</time>
      </trkpt>
      <trkpt lat="46.5708" lon="5.8746">
        <ele>1008.8</ele>
        <time>2014-06-29T08:25:03Z</time>
      </trkpt>
      <trkpt lat="46.57105" lon="5.87474">
        <ele>1006.1</ele>
        <time>2014-06-29T08:25:07Z</time>
      </trkpt>
      <trkpt lat="46.57118" lon="5.87479">
        <ele>1004.7</ele>
        <time>2014-06-29T08:25:09Z</time>
      </trkpt>
      <trkpt lat="46.5713" lon="5.87483">
        <ele>1003.3</ele>
        <time>2014-06-29T08:25:11Z</time>
      </trkpt>
      <trkpt lat="46.5714" lon="5.87488">
        <ele>1001.8</ele>
        <time>2014-06-29T08:25:13Z</time>
      </trkpt>
      <trkpt lat="46.57155" lon="5.87492">
        <ele>999.9</ele>
        <time>2014-06-29T08:25:16Z</time>
      </trkpt>
      <trkpt lat="46.57167" lon="5.87497">
        <ele>998.7</ele>
        <time>2014-06-29T08:25:18Z</time>
      </trkpt>
      <trkpt lat="46.5718" lon="5.875">
        <ele>997.9</ele>
        <time>2014-06-29T08:25:20Z</time>
      </trkpt>
      <trkpt lat="46.57193" lon="5.87503">
        <ele>997</ele>
        <time>2014-06-29T08:25:22Z</time>
      </trkpt>
      <trkpt lat="46.57206" lon="5.87506">
        <ele>996</ele>
        <time>2014-06-29T08:25:24Z</time>
      </trkpt>
      <trkpt lat="46.57219" lon="5.87508">
        <ele>995</ele>
        <time>2014-06-29T08:25:26Z</time>
      </trkpt>
      <trkpt lat="46.57231" lon="5.87511">
        <ele>994</ele>
        <time>2014-06-29T08:25:28Z</time>
      </trkpt>
      <trkpt lat="46.57243" lon="5.87516">
        <ele>993.6</ele>
        <time>2014-06-29T08:25:30Z</time>
      </trkpt>
      <trkpt lat="46.57255" lon="5.87525">
        <ele>992.7</ele>
        <time>2014-06-29T08:25:32Z</time>
      </trkpt>
      <trkpt lat="46.57268" lon="5.87534">
        <ele>991.7</ele>
        <time>2014-06-29T08:25:34Z</time>
      </trkpt>
      <trkpt lat="46.57281" lon="5.87546">
        <ele>991</ele>
        <time>2014-06-29T08:25:36Z</time>
      </trkpt>
      <trkpt lat="46.57291" lon="5.87555">
        <ele>990.5</ele>
        <time>2014-06-29T08:25:38Z</time>
      </trkpt>
      <trkpt lat="46.57304" lon="5.87557">
        <ele>990</ele>
        <time>2014-06-29T08:25:40Z</time>
      </trkpt>
      <trkpt lat="46.57316" lon="5.87557">
        <ele>989.5</ele>
        <time>2014-06-29T08:25:42Z</time>
      </trkpt>
      <trkpt lat="46.57329" lon="5.87553">
        <ele>989</ele>
        <time>2014-06-29T08:25:45Z</time>
      </trkpt>
      <trkpt lat="46.5734" lon="5.8755">
        <ele>988.6</ele>
        <time>2014-06-29T08:25:47Z</time>
      </trkpt>
      <trkpt lat="46.57349" lon="5.87551">
        <ele>987.9</ele>
        <time>2014-06-29T08:25:49Z</time>
      </trkpt>
      <trkpt lat="46.57362" lon="5.87558">
        <ele>987.6</ele>
        <time>2014-06-29T08:25:52Z</time>
      </trkpt>
      <trkpt lat="46.57373" lon="5.87563">
        <ele>986.8</ele>
        <time>2014-06-29T08:25:55Z</time>
      </trkpt>
      <trkpt lat="46.57383" lon="5.87567">
        <ele>986.2</ele>
        <time>2014-06-29T08:25:58Z</time>
      </trkpt>
      <trkpt lat="46.57392" lon="5.87573">
        <ele>985.4</ele>
        <time>2014-06-29T08:26:00Z</time>
      </trkpt>
      <trkpt lat="46.574" lon="5.87579">
        <ele>984.6</ele>
        <time>2014-06-29T08:26:02Z</time>
      </trkpt>
      <trkpt lat="46.57412" lon="5.87586">
        <ele>983.6</ele>
        <time>2014-06-29T08:26:05Z</time>
      </trkpt>
      <trkpt lat="46.57436" lon="5.87585">
        <ele>981.4</ele>
        <time>2014-06-29T08:26:12Z</time>
      </trkpt>
      <trkpt lat="46.57446" lon="5.87581">
        <ele>981.3</ele>
        <time>2014-06-29T08:26:16Z</time>
      </trkpt>
      <trkpt lat="46.57455" lon="5.87575">
        <ele>981</ele>
        <time>2014-06-29T08:26:20Z</time>
      </trkpt>
      <trkpt lat="46.57464" lon="5.87567">
        <ele>981.3</ele>
        <time>2014-06-29T08:26:24Z</time>
      </trkpt>
      <trkpt lat="46.57473" lon="5.8756">
        <ele>981.7</ele>
        <time>2014-06-29T08:26:28Z</time>
      </trkpt>
      <trkpt lat="46.57482" lon="5.87554">
        <ele>982.2</ele>
        <time>2014-06-29T08:26:32Z</time>
      </trkpt>
      <trkpt lat="46.5749" lon="5.87544">
        <ele>983.3</ele>
        <time>2014-06-29T08:26:36Z</time>
      </trkpt>
      <trkpt lat="46.575" lon="5.87541">
        <ele>983.9</ele>
        <time>2014-06-29T08:26:40Z</time>
      </trkpt>
      <trkpt lat="46.57511" lon="5.87538">
        <ele>984.4</ele>
        <time>2014-06-29T08:26:44Z</time>
      </trkpt>
      <trkpt lat="46.57521" lon="5.87536">
        <ele>984.3</ele>
        <time>2014-06-29T08:26:47Z</time>
      </trkpt>
      <trkpt lat="46.57532" lon="5.87533">
        <ele>984.3</ele>
        <time>2014-06-29T08:26:50Z</time>
      </trkpt>
      <trkpt lat="46.57543" lon="5.8753">
        <ele>983.6</ele>
        <time>2014-06-29T08:26:52Z</time>
      </trkpt>
      <trkpt lat="46.57554" lon="5.87528">
        <ele>983</ele>
        <time>2014-06-29T08:26:54Z</time>
      </trkpt>
      <trkpt lat="46.57566" lon="5.87527">
        <ele>982.5</ele>
        <time>2014-06-29T08:26:56Z</time>
      </trkpt>
      <trkpt lat="46.57579" lon="5.87528">
        <ele>982.1</ele>
        <time>2014-06-29T08:26:58Z</time>
      </trkpt>
      <trkpt lat="46.57591" lon="5.87526">
        <ele>981.4</ele>
        <time>2014-06-29T08:27:00Z</time>
      </trkpt>
      <trkpt lat="46.576" lon="5.87524">
        <ele>980.8</ele>
        <time>2014-06-29T08:27:02Z</time>
      </trkpt>
      <trkpt lat="46.57613" lon="5.87522">
        <ele>979.9</ele>
        <time>2014-06-29T08:27:05Z</time>
      </trkpt>
      <trkpt lat="46.57626" lon="5.8753">
        <ele>978.4</ele>
        <time>2014-06-29T08:27:08Z</time>
      </trkpt>
      <trkpt lat="46.57643" lon="5.87547">
        <ele>975.8</ele>
        <time>2014-06-29T08:27:12Z</time>
      </trkpt>
      <trkpt lat="46.57656" lon="5.87554">
        <ele>974</ele>
        <time>2014-06-29T08:27:15Z</time>
      </trkpt>
      <trkpt lat="46.57666" lon="5.87555">
        <ele>972.9</ele>
        <time>2014-06-29T08:27:17Z</time>
      </trkpt>
      <trkpt lat="46.57676" lon="5.87551">
        <ele>971.8</ele>
        <time>2014-06-29T08:27:20Z</time>
      </trkpt>
      <trkpt lat="46.57687" lon="5.87545">
        <ele>971</ele>
        <time>2014-06-29T08:27:23Z</time>
      </trkpt>
      <trkpt lat="46.577" lon="5.87539">
        <ele>970.3</ele>
        <time>2014-06-29T08:27:26Z</time>
      </trkpt>
      <trkpt lat="46.57711" lon="5.87529">
        <ele>969.8</ele>
        <time>2014-06-29T08:27:29Z</time>
      </trkpt>
      <trkpt lat="46.5772" lon="5.87522">
        <ele>969.5</ele>
        <time>2014-06-29T08:27:31Z</time>
      </trkpt>
      <trkpt lat="46.57729" lon="5.87516">
        <ele>969.1</ele>
        <time>2014-06-29T08:27:33Z</time>
      </trkpt>
      <trkpt lat="46.57738" lon="5.87508">
        <ele>968.3</ele>
        <time>2014-06-29T08:27:36Z</time>
      </trkpt>
      <trkpt lat="46.57748" lon="5.87504">
        <ele>967.5</ele>
        <time>2014-06-29T08:27:42Z</time>
      </trkpt>
      <trkpt lat="46.57757" lon="5.87503">
        <ele>967.5</ele>
        <time>2014-06-29T08:27:47Z</time>
      </trkpt>
      <trkpt lat="46.57767" lon="5.87501">
        <ele>967.8</ele>
        <time>2014-06-29T08:27:51Z</time>
      </trkpt>
      <trkpt lat="46.57776" lon="5.87496">
        <ele>968.2</ele>
        <time>2014-06-29T08:27:54Z</time>
      </trkpt>
      <trkpt lat="46.57787" lon="5.87489">
        <ele>968.2</ele>
        <time>2014-06-29T08:27:57Z</time>
      </trkpt>
      <trkpt lat="46.57797" lon="5.87483">
        <ele>968.1</ele>
        <time>2014-06-29T08:28:00Z</time>
      </trkpt>
      <trkpt lat="46.57807" lon="5.87479">
        <ele>967.4</ele>
        <time>2014-06-29T08:28:05Z</time>
      </trkpt>
      <trkpt lat="46.57816" lon="5.87475">
        <ele>966.3</ele>
        <time>2014-06-29T08:28:26Z</time>
      </trkpt>
      <trkpt lat="46.57837" lon="5.87471">
        <ele>965.8</ele>
        <time>2014-06-29T08:28:46Z</time>
      </trkpt>
      <trkpt lat="46.57846" lon="5.87467">
        <ele>966.3</ele>
        <time>2014-06-29T08:28:54Z</time>
      </trkpt>
      <trkpt lat="46.57855" lon="5.87461">
        <ele>966.3</ele>
        <time>2014-06-29T08:29:03Z</time>
      </trkpt>
      <trkpt lat="46.57862" lon="5.87447">
        <ele>966.1</ele>
        <time>2014-06-29T08:29:15Z</time>
      </trkpt>
      <trkpt lat="46.57871" lon="5.87438">
        <ele>965.9</ele>
        <time>2014-06-29T08:29:19Z</time>
      </trkpt>
      <trkpt lat="46.57878" lon="5.8743">
        <ele>965.6</ele>
        <time>2014-06-29T08:29:24Z</time>
      </trkpt>
      <trkpt lat="46.57885" lon="5.87418">
        <ele>965.5</ele>
        <time>2014-06-29T08:29:29Z</time>
      </trkpt>
      <trkpt lat="46.57897" lon="5.87395">
        <ele>964.3</ele>
        <time>2014-06-29T08:29:40Z</time>
      </trkpt>
      <trkpt lat="46.579" lon="5.87382">
        <ele>962.8</ele>
        <time>2014-06-29T08:29:45Z</time>
      </trkpt>
      <trkpt lat="46.57907" lon="5.87374">
        <ele>962.1</ele>
        <time>2014-06-29T08:29:48Z</time>
      </trkpt>
      <trkpt lat="46.57913" lon="5.87362">
        <ele>961.3</ele>
        <time>2014-06-29T08:29:52Z</time>
      </trkpt>
      <trkpt lat="46.57921" lon="5.87354">
        <ele>960.5</ele>
        <time>2014-06-29T08:29:55Z</time>
      </trkpt>
      <trkpt lat="46.57928" lon="5.87345">
        <ele>959.4</ele>
        <time>2014-06-29T08:29:59Z</time>
      </trkpt>
      <trkpt lat="46.57934" lon="5.87332">
        <ele>957.5</ele>
        <time>2014-06-29T08:30:04Z</time>
      </trkpt>
      <trkpt lat="46.57939" lon="5.87319">
        <ele>954.9</ele>
        <time>2014-06-29T08:30:11Z</time>
      </trkpt>
      <trkpt lat="46.57946" lon="5.8731">
        <ele>951.3</ele>
        <time>2014-06-29T08:30:19Z</time>
      </trkpt>
      <trkpt lat="46.57955" lon="5.87303">
        <ele>948.4</ele>
        <time>2014-06-29T08:30:25Z</time>
      </trkpt>
      <trkpt lat="46.57963" lon="5.87297">
        <ele>945.9</ele>
        <time>2014-06-29T08:30:30Z</time>
      </trkpt>
      <trkpt lat="46.57983" lon="5.873">
        <ele>942.7</ele>
        <time>2014-06-29T08:30:37Z</time>
      </trkpt>
      <trkpt lat="46.57995" lon="5.87302">
        <ele>941.1</ele>
        <time>2014-06-29T08:30:41Z</time>
      </trkpt>
      <trkpt lat="46.58005" lon="5.87307">
        <ele>939.9</ele>
        <time>2014-06-29T08:30:44Z</time>
      </trkpt>
      <trkpt lat="46.58015" lon="5.8731">
        <ele>938</ele>
        <time>2014-06-29T08:30:48Z</time>
      </trkpt>
      <trkpt lat="46.58027" lon="5.87309">
        <ele>936.4</ele>
        <time>2014-06-29T08:30:52Z</time>
      </trkpt>
      <trkpt lat="46.58037" lon="5.87312">
        <ele>935.1</ele>
        <time>2014-06-29T08:30:55Z</time>
      </trkpt>
      <trkpt lat="46.58049" lon="5.87319">
        <ele>933.5</ele>
        <time>2014-06-29T08:30:59Z</time>
      </trkpt>
      <trkpt lat="46.58059" lon="5.87325">
        <ele>932.2</ele>
        <time>2014-06-29T08:31:02Z</time>
      </trkpt>
      <trkpt lat="46.58069" lon="5.87331">
        <ele>930.7</ele>
        <time>2014-06-29T08:31:06Z</time>
      </trkpt>
      <trkpt lat="46.58079" lon="5.87335">
        <ele>929.3</ele>
        <time>2014-06-29T08:31:09Z</time>
      </trkpt>
      <trkpt lat="46.58088" lon="5.87339">
        <ele>927.5</ele>
        <time>2014-06-29T08:31:12Z</time>
      </trkpt>
      <trkpt lat="46.58098" lon="5.87346">
        <ele>925.5</ele>
        <time>2014-06-29T08:31:15Z</time>
      </trkpt>
      <trkpt lat="46.58109" lon="5.87351">
        <ele>923.6</ele>
        <time>2014-06-29T08:31:19Z</time>
      </trkpt>
      <trkpt lat="46.58118" lon="5.87355">
        <ele>923</ele>
        <time>2014-06-29T08:31:21Z</time>
      </trkpt>
      <trkpt lat="46.58131" lon="5.87361">
        <ele>921.6</ele>
        <time>2014-06-29T08:31:24Z</time>
      </trkpt>
      <trkpt lat="46.58138" lon="5.8737">
        <ele>920.5</ele>
        <time>2014-06-29T08:31:27Z</time>
      </trkpt>
      <trkpt lat="46.58145" lon="5.87382">
        <ele>919.3</ele>
        <time>2014-06-29T08:31:30Z</time>
      </trkpt>
      <trkpt lat="46.58151" lon="5.87393">
        <ele>917.8</ele>
        <time>2014-06-29T08:31:33Z</time>
      </trkpt>
      <trkpt lat="46.58166" lon="5.87414">
        <ele>914.6</ele>
        <time>2014-06-29T08:31:39Z</time>
      </trkpt>
      <trkpt lat="46.58174" lon="5.87426">
        <ele>912.8</ele>
        <time>2014-06-29T08:31:42Z</time>
      </trkpt>
      <trkpt lat="46.58181" lon="5.87438">
        <ele>911.2</ele>
        <time>2014-06-29T08:31:45Z</time>
      </trkpt>
      <trkpt lat="46.58188" lon="5.8745">
        <ele>909.5</ele>
        <time>2014-06-29T08:31:48Z</time>
      </trkpt>
      <trkpt lat="46.58195" lon="5.87465">
        <ele>907.9</ele>
        <time>2014-06-29T08:31:51Z</time>
      </trkpt>
      <trkpt lat="46.58206" lon="5.87475">
        <ele>906.8</ele>
        <time>2014-06-29T08:31:53Z</time>
      </trkpt>
      <trkpt lat="46.58214" lon="5.87483">
        <ele>905.7</ele>
        <time>2014-06-29T08:31:55Z</time>
      </trkpt>
      <trkpt lat="46.58222" lon="5.87494">
        <ele>903.3</ele>
        <time>2014-06-29T08:31:58Z</time>
      </trkpt>
      <trkpt lat="46.58228" lon="5.87505">
        <ele>901.4</ele>
        <time>2014-06-29T08:32:01Z</time>
      </trkpt>
      <trkpt lat="46.58237" lon="5.87516">
        <ele>899</ele>
        <time>2014-06-29T08:32:05Z</time>
      </trkpt>
      <trkpt lat="46.58247" lon="5.87526">
        <ele>896.3</ele>
        <time>2014-06-29T08:32:10Z</time>
      </trkpt>
      <trkpt lat="46.58253" lon="5.87535">
        <ele>895.8</ele>
        <time>2014-06-29T08:32:11Z</time>
      </trkpt>
      <trkpt lat="46.58266" lon="5.87548">
        <ele>894.5</ele>
        <time>2014-06-29T08:32:14Z</time>
      </trkpt>
      <trkpt lat="46.58274" lon="5.87555">
        <ele>894</ele>
        <time>2014-06-29T08:32:16Z</time>
      </trkpt>
      <trkpt lat="46.58283" lon="5.87565">
        <ele>892.2</ele>
        <time>2014-06-29T08:32:19Z</time>
      </trkpt>
      <trkpt lat="46.58294" lon="5.87573">
        <ele>890.5</ele>
        <time>2014-06-29T08:32:22Z</time>
      </trkpt>
      <trkpt lat="46.58305" lon="5.87585">
        <ele>889.7</ele>
        <time>2014-06-29T08:32:24Z</time>
      </trkpt>
      <trkpt lat="46.58313" lon="5.87594">
        <ele>887.8</ele>
        <time>2014-06-29T08:32:27Z</time>
      </trkpt>
      <trkpt lat="46.58322" lon="5.87597">
        <ele>884.2</ele>
        <time>2014-06-29T08:32:34Z</time>
      </trkpt>
      <trkpt lat="46.58345" lon="5.87602">
        <ele>879.8</ele>
        <time>2014-06-29T08:32:42Z</time>
      </trkpt>
      <trkpt lat="46.58354" lon="5.87603">
        <ele>878</ele>
        <time>2014-06-29T08:32:45Z</time>
      </trkpt>
      <trkpt lat="46.58366" lon="5.87604">
        <ele>876.3</ele>
        <time>2014-06-29T08:32:48Z</time>
      </trkpt>
      <trkpt lat="46.58375" lon="5.87603">
        <ele>874.7</ele>
        <time>2014-06-29T08:32:51Z</time>
      </trkpt>
      <trkpt lat="46.58386" lon="5.87601">
        <ele>873</ele>
        <time>2014-06-29T08:32:54Z</time>
      </trkpt>
      <trkpt lat="46.58396" lon="5.87602">
        <ele>871.3</ele>
        <time>2014-06-29T08:32:57Z</time>
      </trkpt>
      <trkpt lat="46.58406" lon="5.87605">
        <ele>869</ele>
        <time>2014-06-29T08:33:01Z</time>
      </trkpt>
      <trkpt lat="46.58416" lon="5.87605">
        <ele>866.9</ele>
        <time>2014-06-29T08:33:05Z</time>
      </trkpt>
      <trkpt lat="46.58426" lon="5.87607">
        <ele>865.1</ele>
        <time>2014-06-29T08:33:08Z</time>
      </trkpt>
      <trkpt lat="46.58436" lon="5.87605">
        <ele>863.4</ele>
        <time>2014-06-29T08:33:11Z</time>
      </trkpt>
      <trkpt lat="46.58447" lon="5.87607">
        <ele>860.8</ele>
        <time>2014-06-29T08:33:15Z</time>
      </trkpt>
      <trkpt lat="46.58457" lon="5.87608">
        <ele>858.4</ele>
        <time>2014-06-29T08:33:18Z</time>
      </trkpt>
      <trkpt lat="46.58467" lon="5.87607">
        <ele>856.3</ele>
        <time>2014-06-29T08:33:21Z</time>
      </trkpt>
      <trkpt lat="46.58476" lon="5.87605">
        <ele>853.9</ele>
        <time>2014-06-29T08:33:24Z</time>
      </trkpt>
      <trkpt lat="46.58486" lon="5.87605">
        <ele>852.1</ele>
        <time>2014-06-29T08:33:27Z</time>
      </trkpt>
      <trkpt lat="46.58497" lon="5.87604">
        <ele>849.9</ele>
        <time>2014-06-29T08:33:30Z</time>
      </trkpt>
      <trkpt lat="46.58509" lon="5.87604">
        <ele>847.8</ele>
        <time>2014-06-29T08:33:33Z</time>
      </trkpt>
      <trkpt lat="46.5852" lon="5.87604">
        <ele>845.5</ele>
        <time>2014-06-29T08:33:36Z</time>
      </trkpt>
      <trkpt lat="46.58539" lon="5.87599">
        <ele>840.8</ele>
        <time>2014-06-29T08:33:44Z</time>
      </trkpt>
      <trkpt lat="46.58549" lon="5.876">
        <ele>838.1</ele>
        <time>2014-06-29T08:33:48Z</time>
      </trkpt>
      <trkpt lat="46.5854" lon="5.8759">
        <ele>833.8</ele>
        <time>2014-06-29T08:33:57Z</time>
      </trkpt>
      <trkpt lat="46.58533" lon="5.87577">
        <ele>830.2</ele>
        <time>2014-06-29T08:34:03Z</time>
      </trkpt>
      <trkpt lat="46.58526" lon="5.87568">
        <ele>826.6</ele>
        <time>2014-06-29T08:34:07Z</time>
      </trkpt>
      <trkpt lat="46.58521" lon="5.87558">
        <ele>823.4</ele>
        <time>2014-06-29T08:34:12Z</time>
      </trkpt>
      <trkpt lat="46.58528" lon="5.87549">
        <ele>822</ele>
        <time>2014-06-29T08:34:17Z</time>
      </trkpt>
      <trkpt lat="46.58537" lon="5.87542">
        <ele>821.7</ele>
        <time>2014-06-29T08:34:20Z</time>
      </trkpt>
      <trkpt lat="46.58549" lon="5.87534">
        <ele>820.8</ele>
        <time>2014-06-29T08:34:23Z</time>
      </trkpt>
      <trkpt lat="46.58559" lon="5.87532">
        <ele>819.7</ele>
        <time>2014-06-29T08:34:26Z</time>
      </trkpt>
      <trkpt lat="46.5855" lon="5.87525">
        <ele>815.2</ele>
        <time>2014-06-29T08:34:41Z</time>
      </trkpt>
      <trkpt lat="46.58532" lon="5.87532">
        <ele>813.5</ele>
        <time>2014-06-29T08:34:55Z</time>
      </trkpt>
      <trkpt lat="46.58539" lon="5.87522">
        <ele>807</ele>
        <time>2014-06-29T08:35:41Z</time>
      </trkpt>
      <trkpt lat="46.58547" lon="5.87513">
        <ele>806.8</ele>
        <time>2014-06-29T08:35:42Z</time>
      </trkpt>
      <trkpt lat="46.58567" lon="5.87503">
        <ele>807.5</ele>
        <time>2014-06-29T08:35:49Z</time>
      </trkpt>
      <trkpt lat="46.58577" lon="5.87503">
        <ele>807.6</ele>
        <time>2014-06-29T08:35:52Z</time>
      </trkpt>
      <trkpt lat="46.58586" lon="5.87506">
        <ele>807.8</ele>
        <time>2014-06-29T08:35:55Z</time>
      </trkpt>
      <trkpt lat="46.58595" lon="5.87513">
        <ele>807.9</ele>
        <time>2014-06-29T08:35:58Z</time>
      </trkpt>
      <trkpt lat="46.58602" lon="5.87523">
        <ele>808.1</ele>
        <time>2014-06-29T08:36:01Z</time>
      </trkpt>
      <trkpt lat="46.58612" lon="5.87531">
        <ele>808</ele>
        <time>2014-06-29T08:36:05Z</time>
      </trkpt>
      <trkpt lat="46.58622" lon="5.87538">
        <ele>807.8</ele>
        <time>2014-06-29T08:36:27Z</time>
      </trkpt>
      <trkpt lat="46.58633" lon="5.87539">
        <ele>807.9</ele>
        <time>2014-06-29T08:36:29Z</time>
      </trkpt>
      <trkpt lat="46.58642" lon="5.87542">
        <ele>807.9</ele>
        <time>2014-06-29T08:36:32Z</time>
      </trkpt>
      <trkpt lat="46.58654" lon="5.87547">
        <ele>807.6</ele>
        <time>2014-06-29T08:36:35Z</time>
      </trkpt>
      <trkpt lat="46.58665" lon="5.87552">
        <ele>807.7</ele>
        <time>2014-06-29T08:36:38Z</time>
      </trkpt>
      <trkpt lat="46.58678" lon="5.87557">
        <ele>807.8</ele>
        <time>2014-06-29T08:36:41Z</time>
      </trkpt>
      <trkpt lat="46.58689" lon="5.87563">
        <ele>808</ele>
        <time>2014-06-29T08:36:44Z</time>
      </trkpt>
      <trkpt lat="46.58712" lon="5.87575">
        <ele>808.4</ele>
        <time>2014-06-29T08:36:50Z</time>
      </trkpt>
      <trkpt lat="46.58724" lon="5.87583">
        <ele>808.8</ele>
        <time>2014-06-29T08:36:53Z</time>
      </trkpt>
      <trkpt lat="46.58736" lon="5.87585">
        <ele>808.6</ele>
        <time>2014-06-29T08:36:56Z</time>
      </trkpt>
      <trkpt lat="46.58751" lon="5.87586">
        <ele>808.5</ele>
        <time>2014-06-29T08:36:59Z</time>
      </trkpt>
      <trkpt lat="46.58761" lon="5.87584">
        <ele>808.5</ele>
        <time>2014-06-29T08:37:01Z</time>
      </trkpt>
      <trkpt lat="46.58773" lon="5.8758">
        <ele>808.5</ele>
        <time>2014-06-29T08:37:04Z</time>
      </trkpt>
      <trkpt lat="46.58783" lon="5.87576">
        <ele>808.3</ele>
        <time>2014-06-29T08:37:06Z</time>
      </trkpt>
      <trkpt lat="46.58793" lon="5.87573">
        <ele>808</ele>
        <time>2014-06-29T08:37:08Z</time>
      </trkpt>
      <trkpt lat="46.58803" lon="5.87569">
        <ele>807.7</ele>
        <time>2014-06-29T08:37:10Z</time>
      </trkpt>
      <trkpt lat="46.58813" lon="5.87565">
        <ele>807.6</ele>
        <time>2014-06-29T08:37:12Z</time>
      </trkpt>
      <trkpt lat="46.58823" lon="5.87564">
        <ele>807.3</ele>
        <time>2014-06-29T08:37:14Z</time>
      </trkpt>
      <trkpt lat="46.58833" lon="5.87563">
        <ele>807.3</ele>
        <time>2014-06-29T08:37:16Z</time>
      </trkpt>
      <trkpt lat="46.58842" lon="5.87561">
        <ele>807.6</ele>
        <time>2014-06-29T08:37:18Z</time>
      </trkpt>
      <trkpt lat="46.58854" lon="5.87557">
        <ele>807.6</ele>
        <time>2014-06-29T08:37:21Z</time>
      </trkpt>
      <trkpt lat="46.58865" lon="5.87558">
        <ele>807.9</ele>
        <time>2014-06-29T08:37:24Z</time>
      </trkpt>
      <trkpt lat="46.58874" lon="5.87564">
        <ele>808.8</ele>
        <time>2014-06-29T08:37:27Z</time>
      </trkpt>
      <trkpt lat="46.58885" lon="5.87566">
        <ele>809.7</ele>
        <time>2014-06-29T08:37:31Z</time>
      </trkpt>
      <trkpt lat="46.58895" lon="5.87567">
        <ele>810.2</ele>
        <time>2014-06-29T08:37:34Z</time>
      </trkpt>
      <trkpt lat="46.58904" lon="5.87567">
        <ele>810.4</ele>
        <time>2014-06-29T08:37:37Z</time>
      </trkpt>
      <trkpt lat="46.58915" lon="5.87569">
        <ele>810.7</ele>
        <time>2014-06-29T08:37:40Z</time>
      </trkpt>
      <trkpt lat="46.58926" lon="5.87572">
        <ele>810.7</ele>
        <time>2014-06-29T08:37:43Z</time>
      </trkpt>
      <trkpt lat="46.58935" lon="5.87575">
        <ele>811.1</ele>
        <time>2014-06-29T08:37:45Z</time>
      </trkpt>
      <trkpt lat="46.58958" lon="5.87585">
        <ele>811.9</ele>
        <time>2014-06-29T08:37:51Z</time>
      </trkpt>
      <trkpt lat="46.5897" lon="5.8759">
        <ele>812.1</ele>
        <time>2014-06-29T08:37:54Z</time>
      </trkpt>
      <trkpt lat="46.58983" lon="5.87597">
        <ele>812.3</ele>
        <time>2014-06-29T08:37:57Z</time>
      </trkpt>
      <trkpt lat="46.58991" lon="5.87602">
        <ele>812.5</ele>
        <time>2014-06-29T08:37:59Z</time>
      </trkpt>
      <trkpt lat="46.59002" lon="5.87611">
        <ele>812.7</ele>
        <time>2014-06-29T08:38:02Z</time>
      </trkpt>
      <trkpt lat="46.59012" lon="5.87614">
        <ele>813.1</ele>
        <time>2014-06-29T08:38:05Z</time>
      </trkpt>
      <trkpt lat="46.59022" lon="5.87614">
        <ele>813.4</ele>
        <time>2014-06-29T08:38:09Z</time>
      </trkpt>
      <trkpt lat="46.59032" lon="5.87611">
        <ele>813.4</ele>
        <time>2014-06-29T08:38:12Z</time>
      </trkpt>
      <trkpt lat="46.59043" lon="5.87604">
        <ele>813.7</ele>
        <time>2014-06-29T08:38:15Z</time>
      </trkpt>
      <trkpt lat="46.59052" lon="5.87598">
        <ele>813.7</ele>
        <time>2014-06-29T08:38:17Z</time>
      </trkpt>
      <trkpt lat="46.59064" lon="5.87595">
        <ele>813.9</ele>
        <time>2014-06-29T08:38:19Z</time>
      </trkpt>
      <trkpt lat="46.59071" lon="5.87587">
        <ele>814.1</ele>
        <time>2014-06-29T08:38:21Z</time>
      </trkpt>
      <trkpt lat="46.59079" lon="5.87579">
        <ele>814.3</ele>
        <time>2014-06-29T08:38:23Z</time>
      </trkpt>
      <trkpt lat="46.59089" lon="5.87574">
        <ele>814.4</ele>
        <time>2014-06-29T08:38:25Z</time>
      </trkpt>
      <trkpt lat="46.59097" lon="5.87566">
        <ele>814.1</ele>
        <time>2014-06-29T08:38:28Z</time>
      </trkpt>
      <trkpt lat="46.59106" lon="5.87557">
        <ele>814.2</ele>
        <time>2014-06-29T08:38:31Z</time>
      </trkpt>
      <trkpt lat="46.59115" lon="5.8755">
        <ele>814.5</ele>
        <time>2014-06-29T08:38:33Z</time>
      </trkpt>
      <trkpt lat="46.59124" lon="5.87545">
        <ele>814.5</ele>
        <time>2014-06-29T08:38:35Z</time>
      </trkpt>
      <trkpt lat="46.59134" lon="5.87542">
        <ele>814.9</ele>
        <time>2014-06-29T08:38:37Z</time>
      </trkpt>
      <trkpt lat="46.59147" lon="5.87539">
        <ele>815.1</ele>
        <time>2014-06-29T08:38:40Z</time>
      </trkpt>
      <trkpt lat="46.59159" lon="5.87537">
        <ele>815.7</ele>
        <time>2014-06-29T08:38:43Z</time>
      </trkpt>
      <trkpt lat="46.59168" lon="5.87536">
        <ele>815.8</ele>
        <time>2014-06-29T08:38:45Z</time>
      </trkpt>
      <trkpt lat="46.59181" lon="5.87534">
        <ele>816</ele>
        <time>2014-06-29T08:38:48Z</time>
      </trkpt>
      <trkpt lat="46.59203" lon="5.87518">
        <ele>816</ele>
        <time>2014-06-29T08:38:54Z</time>
      </trkpt>
      <trkpt lat="46.59211" lon="5.87511">
        <ele>816.2</ele>
        <time>2014-06-29T08:38:56Z</time>
      </trkpt>
      <trkpt lat="46.59219" lon="5.87503">
        <ele>816.2</ele>
        <time>2014-06-29T08:38:58Z</time>
      </trkpt>
      <trkpt lat="46.59228" lon="5.87495">
        <ele>816</ele>
        <time>2014-06-29T08:39:00Z</time>
      </trkpt>
      <trkpt lat="46.59237" lon="5.87485">
        <ele>815.5</ele>
        <time>2014-06-29T08:39:02Z</time>
      </trkpt>
      <trkpt lat="46.59248" lon="5.87477">
        <ele>815.2</ele>
        <time>2014-06-29T08:39:04Z</time>
      </trkpt>
      <trkpt lat="46.5926" lon="5.87472">
        <ele>815.2</ele>
        <time>2014-06-29T08:39:06Z</time>
      </trkpt>
      <trkpt lat="46.59272" lon="5.87466">
        <ele>814.9</ele>
        <time>2014-06-29T08:39:08Z</time>
      </trkpt>
      <trkpt lat="46.59283" lon="5.87461">
        <ele>814.5</ele>
        <time>2014-06-29T08:39:10Z</time>
      </trkpt>
      <trkpt lat="46.59296" lon="5.87455">
        <ele>813.9</ele>
        <time>2014-06-29T08:39:12Z</time>
      </trkpt>
      <trkpt lat="46.59305" lon="5.87456">
        <ele>813.7</ele>
        <time>2014-06-29T08:39:13Z</time>
      </trkpt>
      <trkpt lat="46.59316" lon="5.87458">
        <ele>813.4</ele>
        <time>2014-06-29T08:39:14Z</time>
      </trkpt>
      <trkpt lat="46.59332" lon="5.87455">
        <ele>812.9</ele>
        <time>2014-06-29T08:39:16Z</time>
      </trkpt>
      <trkpt lat="46.59347" lon="5.87449">
        <ele>812.6</ele>
        <time>2014-06-29T08:39:18Z</time>
      </trkpt>
      <trkpt lat="46.59363" lon="5.87444">
        <ele>812.1</ele>
        <time>2014-06-29T08:39:20Z</time>
      </trkpt>
      <trkpt lat="46.59379" lon="5.87439">
        <ele>811.5</ele>
        <time>2014-06-29T08:39:22Z</time>
      </trkpt>
      <trkpt lat="46.59396" lon="5.87432">
        <ele>810.8</ele>
        <time>2014-06-29T08:39:24Z</time>
      </trkpt>
      <trkpt lat="46.5941" lon="5.8742">
        <ele>810.1</ele>
        <time>2014-06-29T08:39:26Z</time>
      </trkpt>
      <trkpt lat="46.5942" lon="5.87403">
        <ele>809.7</ele>
        <time>2014-06-29T08:39:28Z</time>
      </trkpt>
      <trkpt lat="46.59424" lon="5.87386">
        <ele>809.3</ele>
        <time>2014-06-29T08:39:30Z</time>
      </trkpt>
      <trkpt lat="46.59426" lon="5.87373">
        <ele>808.6</ele>
        <time>2014-06-29T08:39:32Z</time>
      </trkpt>
      <trkpt lat="46.59435" lon="5.87368">
        <ele>807.7</ele>
        <time>2014-06-29T08:39:36Z</time>
      </trkpt>
      <trkpt lat="46.59447" lon="5.87368">
        <ele>807.5</ele>
        <time>2014-06-29T08:39:39Z</time>
      </trkpt>
      <trkpt lat="46.5946" lon="5.87363">
        <ele>807.3</ele>
        <time>2014-06-29T08:39:42Z</time>
      </trkpt>
      <trkpt lat="46.5947" lon="5.87359">
        <ele>807</ele>
        <time>2014-06-29T08:39:44Z</time>
      </trkpt>
      <trkpt lat="46.5948" lon="5.87356">
        <ele>806.9</ele>
        <time>2014-06-29T08:39:46Z</time>
      </trkpt>
      <trkpt lat="46.5949" lon="5.87354">
        <ele>806.6</ele>
        <time>2014-06-29T08:39:48Z</time>
      </trkpt>
      <trkpt lat="46.595" lon="5.87353">
        <ele>806.6</ele>
        <time>2014-06-29T08:39:50Z</time>
      </trkpt>
      <trkpt lat="46.59519" lon="5.87354">
        <ele>806.8</ele>
        <time>2014-06-29T08:39:54Z</time>
      </trkpt>
      <trkpt lat="46.59528" lon="5.87356">
        <ele>806.9</ele>
        <time>2014-06-29T08:39:56Z</time>
      </trkpt>
      <trkpt lat="46.59537" lon="5.87358">
        <ele>807.1</ele>
        <time>2014-06-29T08:39:58Z</time>
      </trkpt>
      <trkpt lat="46.5955" lon="5.87364">
        <ele>806.9</ele>
        <time>2014-06-29T08:40:01Z</time>
      </trkpt>
      <trkpt lat="46.59561" lon="5.87371">
        <ele>806.8</ele>
        <time>2014-06-29T08:40:04Z</time>
      </trkpt>
      <trkpt lat="46.5957" lon="5.87377">
        <ele>806.5</ele>
        <time>2014-06-29T08:40:06Z</time>
      </trkpt>
      <trkpt lat="46.59578" lon="5.87383">
        <ele>806.3</ele>
        <time>2014-06-29T08:40:08Z</time>
      </trkpt>
      <trkpt lat="46.59588" lon="5.8739">
        <ele>805.5</ele>
        <time>2014-06-29T08:40:10Z</time>
      </trkpt>
      <trkpt lat="46.596" lon="5.87395">
        <ele>805</ele>
        <time>2014-06-29T08:40:12Z</time>
      </trkpt>
      <trkpt lat="46.59612" lon="5.87396">
        <ele>804.2</ele>
        <time>2014-06-29T08:40:14Z</time>
      </trkpt>
      <trkpt lat="46.59624" lon="5.87395">
        <ele>803.2</ele>
        <time>2014-06-29T08:40:16Z</time>
      </trkpt>
      <trkpt lat="46.59637" lon="5.87396">
        <ele>802.8</ele>
        <time>2014-06-29T08:40:18Z</time>
      </trkpt>
      <trkpt lat="46.59649" lon="5.874">
        <ele>802.2</ele>
        <time>2014-06-29T08:40:20Z</time>
      </trkpt>
      <trkpt lat="46.59662" lon="5.87407">
        <ele>801.7</ele>
        <time>2014-06-29T08:40:22Z</time>
      </trkpt>
      <trkpt lat="46.59672" lon="5.87415">
        <ele>801.3</ele>
        <time>2014-06-29T08:40:24Z</time>
      </trkpt>
      <trkpt lat="46.59683" lon="5.87426">
        <ele>800.5</ele>
        <time>2014-06-29T08:40:26Z</time>
      </trkpt>
      <trkpt lat="46.5969" lon="5.87439">
        <ele>800.1</ele>
        <time>2014-06-29T08:40:28Z</time>
      </trkpt>
      <trkpt lat="46.59696" lon="5.87451">
        <ele>799.6</ele>
        <time>2014-06-29T08:40:30Z</time>
      </trkpt>
      <trkpt lat="46.59699" lon="5.87466">
        <ele>799.5</ele>
        <time>2014-06-29T08:40:32Z</time>
      </trkpt>
      <trkpt lat="46.59699" lon="5.87482">
        <ele>799.5</ele>
        <time>2014-06-29T08:40:34Z</time>
      </trkpt>
      <trkpt lat="46.59699" lon="5.87499">
        <ele>799.7</ele>
        <time>2014-06-29T08:40:36Z</time>
      </trkpt>
      <trkpt lat="46.597" lon="5.87515">
        <ele>799.2</ele>
        <time>2014-06-29T08:40:38Z</time>
      </trkpt>
      <trkpt lat="46.59701" lon="5.87528">
        <ele>799.1</ele>
        <time>2014-06-29T08:40:40Z</time>
      </trkpt>
      <trkpt lat="46.59696" lon="5.87546">
        <ele>798.9</ele>
        <time>2014-06-29T08:40:43Z</time>
      </trkpt>
      <trkpt lat="46.59692" lon="5.87564">
        <ele>798.6</ele>
        <time>2014-06-29T08:40:46Z</time>
      </trkpt>
      <trkpt lat="46.5969" lon="5.87577">
        <ele>798.7</ele>
        <time>2014-06-29T08:40:48Z</time>
      </trkpt>
      <trkpt lat="46.59693" lon="5.87595">
        <ele>798.5</ele>
        <time>2014-06-29T08:40:51Z</time>
      </trkpt>
      <trkpt lat="46.59697" lon="5.87632">
        <ele>798.8</ele>
        <time>2014-06-29T08:40:57Z</time>
      </trkpt>
      <trkpt lat="46.59701" lon="5.87649">
        <ele>799.1</ele>
        <time>2014-06-29T08:41:00Z</time>
      </trkpt>
      <trkpt lat="46.59708" lon="5.8766">
        <ele>799.6</ele>
        <time>2014-06-29T08:41:05Z</time>
      </trkpt>
      <trkpt lat="46.59716" lon="5.87667">
        <ele>800.1</ele>
        <time>2014-06-29T08:41:08Z</time>
      </trkpt>
      <trkpt lat="46.59726" lon="5.87675">
        <ele>800.9</ele>
        <time>2014-06-29T08:41:11Z</time>
      </trkpt>
      <trkpt lat="46.59736" lon="5.87683">
        <ele>801.5</ele>
        <time>2014-06-29T08:41:14Z</time>
      </trkpt>
      <trkpt lat="46.59745" lon="5.87692">
        <ele>802.1</ele>
        <time>2014-06-29T08:41:17Z</time>
      </trkpt>
      <trkpt lat="46.59755" lon="5.87702">
        <ele>802.7</ele>
        <time>2014-06-29T08:41:21Z</time>
      </trkpt>
      <trkpt lat="46.59764" lon="5.87712">
        <ele>803.3</ele>
        <time>2014-06-29T08:41:25Z</time>
      </trkpt>
      <trkpt lat="46.59773" lon="5.87719">
        <ele>803.8</ele>
        <time>2014-06-29T08:41:29Z</time>
      </trkpt>
      <trkpt lat="46.59783" lon="5.87722">
        <ele>804.6</ele>
        <time>2014-06-29T08:41:34Z</time>
      </trkpt>
      <trkpt lat="46.59795" lon="5.87721">
        <ele>805</ele>
        <time>2014-06-29T08:41:39Z</time>
      </trkpt>
      <trkpt lat="46.59805" lon="5.87723">
        <ele>805.6</ele>
        <time>2014-06-29T08:41:42Z</time>
      </trkpt>
      <trkpt lat="46.59816" lon="5.87723">
        <ele>806.1</ele>
        <time>2014-06-29T08:41:47Z</time>
      </trkpt>
      <trkpt lat="46.59825" lon="5.87724">
        <ele>806.8</ele>
        <time>2014-06-29T08:41:52Z</time>
      </trkpt>
      <trkpt lat="46.59847" lon="5.8773">
        <ele>808.5</ele>
        <time>2014-06-29T08:42:02Z</time>
      </trkpt>
      <trkpt lat="46.59856" lon="5.87736">
        <ele>809.1</ele>
        <time>2014-06-29T08:42:07Z</time>
      </trkpt>
      <trkpt lat="46.59866" lon="5.87743">
        <ele>809.6</ele>
        <time>2014-06-29T08:42:11Z</time>
      </trkpt>
      <trkpt lat="46.59876" lon="5.87748">
        <ele>810</ele>
        <time>2014-06-29T08:42:15Z</time>
      </trkpt>
      <trkpt lat="46.59886" lon="5.87752">
        <ele>810.3</ele>
        <time>2014-06-29T08:42:19Z</time>
      </trkpt>
      <trkpt lat="46.59894" lon="5.87756">
        <ele>810.8</ele>
        <time>2014-06-29T08:42:22Z</time>
      </trkpt>
      <trkpt lat="46.59904" lon="5.87757">
        <ele>811.2</ele>
        <time>2014-06-29T08:42:26Z</time>
      </trkpt>
      <trkpt lat="46.59914" lon="5.87757">
        <ele>812</ele>
        <time>2014-06-29T08:42:30Z</time>
      </trkpt>
      <trkpt lat="46.59923" lon="5.87759">
        <ele>812.5</ele>
        <time>2014-06-29T08:42:34Z</time>
      </trkpt>
      <trkpt lat="46.59933" lon="5.8776">
        <ele>813.2</ele>
        <time>2014-06-29T08:42:39Z</time>
      </trkpt>
      <trkpt lat="46.59943" lon="5.87759">
        <ele>813.5</ele>
        <time>2014-06-29T08:42:43Z</time>
      </trkpt>
      <trkpt lat="46.59953" lon="5.87756">
        <ele>814.1</ele>
        <time>2014-06-29T08:42:48Z</time>
      </trkpt>
      <trkpt lat="46.59963" lon="5.87757">
        <ele>814.5</ele>
        <time>2014-06-29T08:42:52Z</time>
      </trkpt>
      <trkpt lat="46.59973" lon="5.8776">
        <ele>815.2</ele>
        <time>2014-06-29T08:42:56Z</time>
      </trkpt>
      <trkpt lat="46.5999" lon="5.87771">
        <ele>815.6</ele>
        <time>2014-06-29T08:43:02Z</time>
      </trkpt>
      <trkpt lat="46.59999" lon="5.87778">
        <ele>815.9</ele>
        <time>2014-06-29T08:43:05Z</time>
      </trkpt>
      <trkpt lat="46.6001" lon="5.87787">
        <ele>816.3</ele>
        <time>2014-06-29T08:43:08Z</time>
      </trkpt>
      <trkpt lat="46.6002" lon="5.87797">
        <ele>816.3</ele>
        <time>2014-06-29T08:43:10Z</time>
      </trkpt>
      <trkpt lat="46.60029" lon="5.87803">
        <ele>816.5</ele>
        <time>2014-06-29T08:43:11Z</time>
      </trkpt>
      <trkpt lat="46.60038" lon="5.87812">
        <ele>816.8</ele>
        <time>2014-06-29T08:43:13Z</time>
      </trkpt>
      <trkpt lat="46.60048" lon="5.87824">
        <ele>817.1</ele>
        <time>2014-06-29T08:43:16Z</time>
      </trkpt>
      <trkpt lat="46.60056" lon="5.87837">
        <ele>817.1</ele>
        <time>2014-06-29T08:43:19Z</time>
      </trkpt>
      <trkpt lat="46.60064" lon="5.8785">
        <ele>817.3</ele>
        <time>2014-06-29T08:43:22Z</time>
      </trkpt>
      <trkpt lat="46.60072" lon="5.87864">
        <ele>817.4</ele>
        <time>2014-06-29T08:43:25Z</time>
      </trkpt>
      <trkpt lat="46.6008" lon="5.87879">
        <ele>817.6</ele>
        <time>2014-06-29T08:43:28Z</time>
      </trkpt>
      <trkpt lat="46.60086" lon="5.87889">
        <ele>817.4</ele>
        <time>2014-06-29T08:43:30Z</time>
      </trkpt>
      <trkpt lat="46.60095" lon="5.87904">
        <ele>817.4</ele>
        <time>2014-06-29T08:43:33Z</time>
      </trkpt>
      <trkpt lat="46.60101" lon="5.87914">
        <ele>817.4</ele>
        <time>2014-06-29T08:43:35Z</time>
      </trkpt>
      <trkpt lat="46.60108" lon="5.87922">
        <ele>817.1</ele>
        <time>2014-06-29T08:43:37Z</time>
      </trkpt>
      <trkpt lat="46.60116" lon="5.8793">
        <ele>816.8</ele>
        <time>2014-06-29T08:43:39Z</time>
      </trkpt>
      <trkpt lat="46.60124" lon="5.87938">
        <ele>816.7</ele>
        <time>2014-06-29T08:43:41Z</time>
      </trkpt>
      <trkpt lat="46.60135" lon="5.87947">
        <ele>816.5</ele>
        <time>2014-06-29T08:43:43Z</time>
      </trkpt>
      <trkpt lat="46.60145" lon="5.87958">
        <ele>816.2</ele>
        <time>2014-06-29T08:43:45Z</time>
      </trkpt>
      <trkpt lat="46.60155" lon="5.87969">
        <ele>815.7</ele>
        <time>2014-06-29T08:43:47Z</time>
      </trkpt>
      <trkpt lat="46.60164" lon="5.8798">
        <ele>815.2</ele>
        <time>2014-06-29T08:43:49Z</time>
      </trkpt>
      <trkpt lat="46.60175" lon="5.87989">
        <ele>814.7</ele>
        <time>2014-06-29T08:43:51Z</time>
      </trkpt>
      <trkpt lat="46.60185" lon="5.87998">
        <ele>814.2</ele>
        <time>2014-06-29T08:43:53Z</time>
      </trkpt>
      <trkpt lat="46.60196" lon="5.88005">
        <ele>813.6</ele>
        <time>2014-06-29T08:43:55Z</time>
      </trkpt>
      <trkpt lat="46.60208" lon="5.88013">
        <ele>812.9</ele>
        <time>2014-06-29T08:43:57Z</time>
      </trkpt>
      <trkpt lat="46.60232" lon="5.88032">
        <ele>811.2</ele>
        <time>2014-06-29T08:44:01Z</time>
      </trkpt>
      <trkpt lat="46.60243" lon="5.88041">
        <ele>810.6</ele>
        <time>2014-06-29T08:44:03Z</time>
      </trkpt>
      <trkpt lat="46.60255" lon="5.88049">
        <ele>810.1</ele>
        <time>2014-06-29T08:44:05Z</time>
      </trkpt>
      <trkpt lat="46.60266" lon="5.88058">
        <ele>809.6</ele>
        <time>2014-06-29T08:44:07Z</time>
      </trkpt>
      <trkpt lat="46.60277" lon="5.8807">
        <ele>808.9</ele>
        <time>2014-06-29T08:44:09Z</time>
      </trkpt>
      <trkpt lat="46.60289" lon="5.88085">
        <ele>808.4</ele>
        <time>2014-06-29T08:44:11Z</time>
      </trkpt>
      <trkpt lat="46.60303" lon="5.88102">
        <ele>807.6</ele>
        <time>2014-06-29T08:44:13Z</time>
      </trkpt>
      <trkpt lat="46.60314" lon="5.8812">
        <ele>806.5</ele>
        <time>2014-06-29T08:44:15Z</time>
      </trkpt>
      <trkpt lat="46.60325" lon="5.88137">
        <ele>805.9</ele>
        <time>2014-06-29T08:44:17Z</time>
      </trkpt>
      <trkpt lat="46.60337" lon="5.88152">
        <ele>805.1</ele>
        <time>2014-06-29T08:44:19Z</time>
      </trkpt>
      <trkpt lat="46.6035" lon="5.88168">
        <ele>804.2</ele>
        <time>2014-06-29T08:44:21Z</time>
      </trkpt>
      <trkpt lat="46.60363" lon="5.88181">
        <ele>803.3</ele>
        <time>2014-06-29T08:44:23Z</time>
      </trkpt>
      <trkpt lat="46.60377" lon="5.8819">
        <ele>802.3</ele>
        <time>2014-06-29T08:44:25Z</time>
      </trkpt>
      <trkpt lat="46.6039" lon="5.88192">
        <ele>801.2</ele>
        <time>2014-06-29T08:44:27Z</time>
      </trkpt>
      <trkpt lat="46.60404" lon="5.88184">
        <ele>800.4</ele>
        <time>2014-06-29T08:44:29Z</time>
      </trkpt>
      <trkpt lat="46.60416" lon="5.88173">
        <ele>799.8</ele>
        <time>2014-06-29T08:44:31Z</time>
      </trkpt>
      <trkpt lat="46.60427" lon="5.8816">
        <ele>799.1</ele>
        <time>2014-06-29T08:44:33Z</time>
      </trkpt>
      <trkpt lat="46.6044" lon="5.88148">
        <ele>798.3</ele>
        <time>2014-06-29T08:44:35Z</time>
      </trkpt>
      <trkpt lat="46.60452" lon="5.88135">
        <ele>797.6</ele>
        <time>2014-06-29T08:44:37Z</time>
      </trkpt>
      <trkpt lat="46.60466" lon="5.88121">
        <ele>796.8</ele>
        <time>2014-06-29T08:44:39Z</time>
      </trkpt>
      <trkpt lat="46.60479" lon="5.88113">
        <ele>796.2</ele>
        <time>2014-06-29T08:44:41Z</time>
      </trkpt>
      <trkpt lat="46.60493" lon="5.88107">
        <ele>795.1</ele>
        <time>2014-06-29T08:44:43Z</time>
      </trkpt>
      <trkpt lat="46.60508" lon="5.88099">
        <ele>794</ele>
        <time>2014-06-29T08:44:45Z</time>
      </trkpt>
      <trkpt lat="46.60521" lon="5.88094">
        <ele>793.1</ele>
        <time>2014-06-29T08:44:47Z</time>
      </trkpt>
      <trkpt lat="46.60533" lon="5.88087">
        <ele>792.1</ele>
        <time>2014-06-29T08:44:49Z</time>
      </trkpt>
      <trkpt lat="46.60543" lon="5.88078">
        <ele>790.8</ele>
        <time>2014-06-29T08:44:52Z</time>
      </trkpt>
      <trkpt lat="46.60548" lon="5.88066">
        <ele>789.6</ele>
        <time>2014-06-29T08:44:55Z</time>
      </trkpt>
      <trkpt lat="46.60539" lon="5.88053">
        <ele>789.1</ele>
        <time>2014-06-29T08:44:58Z</time>
      </trkpt>
      <trkpt lat="46.60527" lon="5.88031">
        <ele>788.9</ele>
        <time>2014-06-29T08:45:03Z</time>
      </trkpt>
      <trkpt lat="46.60538" lon="5.88028">
        <ele>789.1</ele>
        <time>2014-06-29T08:45:06Z</time>
      </trkpt>
      <trkpt lat="46.6055" lon="5.88028">
        <ele>789.4</ele>
        <time>2014-06-29T08:45:09Z</time>
      </trkpt>
      <trkpt lat="46.60561" lon="5.88027">
        <ele>789.3</ele>
        <time>2014-06-29T08:45:12Z</time>
      </trkpt>
      <trkpt lat="46.60573" lon="5.88028">
        <ele>789.4</ele>
        <time>2014-06-29T08:45:15Z</time>
      </trkpt>
      <trkpt lat="46.60586" lon="5.88028">
        <ele>789.5</ele>
        <time>2014-06-29T08:45:18Z</time>
      </trkpt>
      <trkpt lat="46.60596" lon="5.88031">
        <ele>789.8</ele>
        <time>2014-06-29T08:45:20Z</time>
      </trkpt>
      <trkpt lat="46.60607" lon="5.88037">
        <ele>789.8</ele>
        <time>2014-06-29T08:45:22Z</time>
      </trkpt>
      <trkpt lat="46.60617" lon="5.88045">
        <ele>790</ele>
        <time>2014-06-29T08:45:24Z</time>
      </trkpt>
      <trkpt lat="46.60627" lon="5.88052">
        <ele>790</ele>
        <time>2014-06-29T08:45:26Z</time>
      </trkpt>
      <trkpt lat="46.60638" lon="5.88058">
        <ele>789.7</ele>
        <time>2014-06-29T08:45:28Z</time>
      </trkpt>
      <trkpt lat="46.6065" lon="5.88061">
        <ele>789.4</ele>
        <time>2014-06-29T08:45:30Z</time>
      </trkpt>
      <trkpt lat="46.60662" lon="5.88063">
        <ele>789.1</ele>
        <time>2014-06-29T08:45:32Z</time>
      </trkpt>
      <trkpt lat="46.60674" lon="5.88062">
        <ele>788.9</ele>
        <time>2014-06-29T08:45:34Z</time>
      </trkpt>
      <trkpt lat="46.60687" lon="5.88061">
        <ele>788.5</ele>
        <time>2014-06-29T08:45:36Z</time>
      </trkpt>
      <trkpt lat="46.60701" lon="5.8806">
        <ele>787.9</ele>
        <time>2014-06-29T08:45:38Z</time>
      </trkpt>
      <trkpt lat="46.60715" lon="5.88061">
        <ele>787.3</ele>
        <time>2014-06-29T08:45:40Z</time>
      </trkpt>
      <trkpt lat="46.60729" lon="5.88065">
        <ele>787</ele>
        <time>2014-06-29T08:45:42Z</time>
      </trkpt>
      <trkpt lat="46.60742" lon="5.88072">
        <ele>786.7</ele>
        <time>2014-06-29T08:45:44Z</time>
      </trkpt>
      <trkpt lat="46.60755" lon="5.88081">
        <ele>786.6</ele>
        <time>2014-06-29T08:45:46Z</time>
      </trkpt>
      <trkpt lat="46.60768" lon="5.8809">
        <ele>786.3</ele>
        <time>2014-06-29T08:45:48Z</time>
      </trkpt>
      <trkpt lat="46.60781" lon="5.88097">
        <ele>786</ele>
        <time>2014-06-29T08:45:50Z</time>
      </trkpt>
      <trkpt lat="46.60794" lon="5.88105">
        <ele>785.8</ele>
        <time>2014-06-29T08:45:52Z</time>
      </trkpt>
      <trkpt lat="46.60806" lon="5.88112">
        <ele>785.7</ele>
        <time>2014-06-29T08:45:54Z</time>
      </trkpt>
      <trkpt lat="46.60818" lon="5.88119">
        <ele>785.4</ele>
        <time>2014-06-29T08:45:56Z</time>
      </trkpt>
      <trkpt lat="46.60829" lon="5.88128">
        <ele>785.3</ele>
        <time>2014-06-29T08:45:58Z</time>
      </trkpt>
      <trkpt lat="46.6084" lon="5.8814">
        <ele>784.7</ele>
        <time>2014-06-29T08:46:00Z</time>
      </trkpt>
      <trkpt lat="46.60861" lon="5.88163">
        <ele>783.9</ele>
        <time>2014-06-29T08:46:04Z</time>
      </trkpt>
      <trkpt lat="46.60874" lon="5.88169">
        <ele>783.4</ele>
        <time>2014-06-29T08:46:06Z</time>
      </trkpt>
      <trkpt lat="46.60886" lon="5.88177">
        <ele>782.4</ele>
        <time>2014-06-29T08:46:08Z</time>
      </trkpt>
      <trkpt lat="46.60896" lon="5.88189">
        <ele>782</ele>
        <time>2014-06-29T08:46:10Z</time>
      </trkpt>
      <trkpt lat="46.60906" lon="5.88203">
        <ele>781.6</ele>
        <time>2014-06-29T08:46:12Z</time>
      </trkpt>
      <trkpt lat="46.60916" lon="5.88218">
        <ele>781.1</ele>
        <time>2014-06-29T08:46:14Z</time>
      </trkpt>
      <trkpt lat="46.60927" lon="5.8823">
        <ele>780.7</ele>
        <time>2014-06-29T08:46:16Z</time>
      </trkpt>
      <trkpt lat="46.60938" lon="5.88237">
        <ele>779.9</ele>
        <time>2014-06-29T08:46:18Z</time>
      </trkpt>
      <trkpt lat="46.6095" lon="5.88237">
        <ele>779.1</ele>
        <time>2014-06-29T08:46:20Z</time>
      </trkpt>
      <trkpt lat="46.60961" lon="5.88238">
        <ele>777.8</ele>
        <time>2014-06-29T08:46:22Z</time>
      </trkpt>
      <trkpt lat="46.60973" lon="5.88243">
        <ele>776.8</ele>
        <time>2014-06-29T08:46:24Z</time>
      </trkpt>
      <trkpt lat="46.60983" lon="5.88251">
        <ele>775.2</ele>
        <time>2014-06-29T08:46:26Z</time>
      </trkpt>
      <trkpt lat="46.60994" lon="5.88258">
        <ele>773.8</ele>
        <time>2014-06-29T08:46:28Z</time>
      </trkpt>
      <trkpt lat="46.61006" lon="5.88262">
        <ele>772.3</ele>
        <time>2014-06-29T08:46:30Z</time>
      </trkpt>
      <trkpt lat="46.6102" lon="5.88264">
        <ele>770.8</ele>
        <time>2014-06-29T08:46:32Z</time>
      </trkpt>
      <trkpt lat="46.61033" lon="5.88267">
        <ele>768.9</ele>
        <time>2014-06-29T08:46:34Z</time>
      </trkpt>
      <trkpt lat="46.61046" lon="5.88271">
        <ele>766.8</ele>
        <time>2014-06-29T08:46:36Z</time>
      </trkpt>
      <trkpt lat="46.61058" lon="5.88275">
        <ele>764.6</ele>
        <time>2014-06-29T08:46:38Z</time>
      </trkpt>
      <trkpt lat="46.6107" lon="5.88279">
        <ele>762.8</ele>
        <time>2014-06-29T08:46:40Z</time>
      </trkpt>
      <trkpt lat="46.61085" lon="5.88286">
        <ele>760.5</ele>
        <time>2014-06-29T08:46:42Z</time>
      </trkpt>
      <trkpt lat="46.61099" lon="5.88295">
        <ele>758.3</ele>
        <time>2014-06-29T08:46:44Z</time>
      </trkpt>
      <trkpt lat="46.61111" lon="5.88302">
        <ele>755.7</ele>
        <time>2014-06-29T08:46:46Z</time>
      </trkpt>
      <trkpt lat="46.61123" lon="5.88307">
        <ele>753.2</ele>
        <time>2014-06-29T08:46:48Z</time>
      </trkpt>
      <trkpt lat="46.61134" lon="5.88309">
        <ele>750.8</ele>
        <time>2014-06-29T08:46:50Z</time>
      </trkpt>
      <trkpt lat="46.61148" lon="5.88311">
        <ele>748.9</ele>
        <time>2014-06-29T08:46:52Z</time>
      </trkpt>
      <trkpt lat="46.61159" lon="5.88317">
        <ele>746.2</ele>
        <time>2014-06-29T08:46:55Z</time>
      </trkpt>
      <trkpt lat="46.61168" lon="5.88327">
        <ele>745.2</ele>
        <time>2014-06-29T08:46:58Z</time>
      </trkpt>
      <trkpt lat="46.61177" lon="5.88335">
        <ele>744.4</ele>
        <time>2014-06-29T08:47:01Z</time>
      </trkpt>
      <trkpt lat="46.61195" lon="5.88347">
        <ele>744</ele>
        <time>2014-06-29T08:47:07Z</time>
      </trkpt>
      <trkpt lat="46.61205" lon="5.88353">
        <ele>744.1</ele>
        <time>2014-06-29T08:47:10Z</time>
      </trkpt>
      <trkpt lat="46.61213" lon="5.88361">
        <ele>744.7</ele>
        <time>2014-06-29T08:47:13Z</time>
      </trkpt>
      <trkpt lat="46.61221" lon="5.8837">
        <ele>745.1</ele>
        <time>2014-06-29T08:47:16Z</time>
      </trkpt>
      <trkpt lat="46.61229" lon="5.88375">
        <ele>745.4</ele>
        <time>2014-06-29T08:47:20Z</time>
      </trkpt>
      <trkpt lat="46.61243" lon="5.88378">
        <ele>745.2</ele>
        <time>2014-06-29T08:47:23Z</time>
      </trkpt>
      <trkpt lat="46.61254" lon="5.88378">
        <ele>745.1</ele>
        <time>2014-06-29T08:47:25Z</time>
      </trkpt>
      <trkpt lat="46.61265" lon="5.88373">
        <ele>744.3</ele>
        <time>2014-06-29T08:47:27Z</time>
      </trkpt>
      <trkpt lat="46.61274" lon="5.88364">
        <ele>743.3</ele>
        <time>2014-06-29T08:47:29Z</time>
      </trkpt>
      <trkpt lat="46.61283" lon="5.88357">
        <ele>743.3</ele>
        <time>2014-06-29T08:47:32Z</time>
      </trkpt>
      <trkpt lat="46.61292" lon="5.88351">
        <ele>744.2</ele>
        <time>2014-06-29T08:47:36Z</time>
      </trkpt>
      <trkpt lat="46.61302" lon="5.88348">
        <ele>744.9</ele>
        <time>2014-06-29T08:47:40Z</time>
      </trkpt>
      <trkpt lat="46.61313" lon="5.88345">
        <ele>745.4</ele>
        <time>2014-06-29T08:47:44Z</time>
      </trkpt>
      <trkpt lat="46.61322" lon="5.88345">
        <ele>745.8</ele>
        <time>2014-06-29T08:47:47Z</time>
      </trkpt>
      <trkpt lat="46.61332" lon="5.88343">
        <ele>747.1</ele>
        <time>2014-06-29T08:47:50Z</time>
      </trkpt>
      <trkpt lat="46.61341" lon="5.88337">
        <ele>748.1</ele>
        <time>2014-06-29T08:47:54Z</time>
      </trkpt>
      <trkpt lat="46.6135" lon="5.88333">
        <ele>748.3</ele>
        <time>2014-06-29T08:47:58Z</time>
      </trkpt>
      <trkpt lat="46.6136" lon="5.88327">
        <ele>749.5</ele>
        <time>2014-06-29T08:48:03Z</time>
      </trkpt>
      <trkpt lat="46.61376" lon="5.88312">
        <ele>751</ele>
        <time>2014-06-29T08:48:11Z</time>
      </trkpt>
      <trkpt lat="46.61385" lon="5.88305">
        <ele>752.2</ele>
        <time>2014-06-29T08:48:15Z</time>
      </trkpt>
      <trkpt lat="46.61392" lon="5.88297">
        <ele>752.9</ele>
        <time>2014-06-29T08:48:20Z</time>
      </trkpt>
      <trkpt lat="46.61401" lon="5.88291">
        <ele>753.9</ele>
        <time>2014-06-29T08:48:25Z</time>
      </trkpt>
      <trkpt lat="46.61409" lon="5.88287">
        <ele>754.5</ele>
        <time>2014-06-29T08:48:30Z</time>
      </trkpt>
      <trkpt lat="46.6142" lon="5.88282">
        <ele>755.3</ele>
        <time>2014-06-29T08:48:36Z</time>
      </trkpt>
      <trkpt lat="46.61429" lon="5.8828">
        <ele>756.5</ele>
        <time>2014-06-29T08:48:41Z</time>
      </trkpt>
      <trkpt lat="46.61438" lon="5.88272">
        <ele>757.6</ele>
        <time>2014-06-29T08:48:47Z</time>
      </trkpt>
      <trkpt lat="46.61446" lon="5.88264">
        <ele>758.6</ele>
        <time>2014-06-29T08:48:53Z</time>
      </trkpt>
      <trkpt lat="46.61455" lon="5.8826">
        <ele>759.9</ele>
        <time>2014-06-29T08:48:58Z</time>
      </trkpt>
      <trkpt lat="46.61465" lon="5.88255">
        <ele>760.7</ele>
        <time>2014-06-29T08:49:04Z</time>
      </trkpt>
      <trkpt lat="46.61482" lon="5.88242">
        <ele>762.4</ele>
        <time>2014-06-29T08:49:15Z</time>
      </trkpt>
      <trkpt lat="46.61491" lon="5.88237">
        <ele>763.9</ele>
        <time>2014-06-29T08:49:20Z</time>
      </trkpt>
      <trkpt lat="46.615" lon="5.88231">
        <ele>764.7</ele>
        <time>2014-06-29T08:49:25Z</time>
      </trkpt>
      <trkpt lat="46.61507" lon="5.88224">
        <ele>765.8</ele>
        <time>2014-06-29T08:49:30Z</time>
      </trkpt>
      <trkpt lat="46.61516" lon="5.88218">
        <ele>766.4</ele>
        <time>2014-06-29T08:49:35Z</time>
      </trkpt>
      <trkpt lat="46.61525" lon="5.88212">
        <ele>767.4</ele>
        <time>2014-06-29T08:49:40Z</time>
      </trkpt>
      <trkpt lat="46.61534" lon="5.88206">
        <ele>768.2</ele>
        <time>2014-06-29T08:49:46Z</time>
      </trkpt>
      <trkpt lat="46.61543" lon="5.88197">
        <ele>769.1</ele>
        <time>2014-06-29T08:49:52Z</time>
      </trkpt>
      <trkpt lat="46.61552" lon="5.88191">
        <ele>769.8</ele>
        <time>2014-06-29T08:49:57Z</time>
      </trkpt>
      <trkpt lat="46.61561" lon="5.88188">
        <ele>770.6</ele>
        <time>2014-06-29T08:50:02Z</time>
      </trkpt>
      <trkpt lat="46.61571" lon="5.88185">
        <ele>771.2</ele>
        <time>2014-06-29T08:50:07Z</time>
      </trkpt>
      <trkpt lat="46.6159" lon="5.88173">
        <ele>773.1</ele>
        <time>2014-06-29T08:50:18Z</time>
      </trkpt>
      <trkpt lat="46.616" lon="5.88169">
        <ele>774.1</ele>
        <time>2014-06-29T08:50:23Z</time>
      </trkpt>
      <trkpt lat="46.6161" lon="5.88164">
        <ele>774.6</ele>
        <time>2014-06-29T08:50:27Z</time>
      </trkpt>
      <trkpt lat="46.61619" lon="5.88163">
        <ele>775</ele>
        <time>2014-06-29T08:50:31Z</time>
      </trkpt>
      <trkpt lat="46.61629" lon="5.88166">
        <ele>775.4</ele>
        <time>2014-06-29T08:50:35Z</time>
      </trkpt>
      <trkpt lat="46.61638" lon="5.88167">
        <ele>775.4</ele>
        <time>2014-06-29T08:50:39Z</time>
      </trkpt>
      <trkpt lat="46.61648" lon="5.8817">
        <ele>776.1</ele>
        <time>2014-06-29T08:50:43Z</time>
      </trkpt>
      <trkpt lat="46.61658" lon="5.88171">
        <ele>776.7</ele>
        <time>2014-06-29T08:50:47Z</time>
      </trkpt>
      <trkpt lat="46.61667" lon="5.88168">
        <ele>777.3</ele>
        <time>2014-06-29T08:50:51Z</time>
      </trkpt>
      <trkpt lat="46.61677" lon="5.88161">
        <ele>778.8</ele>
        <time>2014-06-29T08:50:56Z</time>
      </trkpt>
      <trkpt lat="46.61685" lon="5.88155">
        <ele>779.3</ele>
        <time>2014-06-29T08:51:02Z</time>
      </trkpt>
      <trkpt lat="46.61694" lon="5.88148">
        <ele>780.1</ele>
        <time>2014-06-29T08:51:07Z</time>
      </trkpt>
      <trkpt lat="46.61704" lon="5.88142">
        <ele>781.3</ele>
        <time>2014-06-29T08:51:12Z</time>
      </trkpt>
      <trkpt lat="46.61724" lon="5.88135">
        <ele>782.6</ele>
        <time>2014-06-29T08:51:22Z</time>
      </trkpt>
      <trkpt lat="46.61734" lon="5.88131">
        <ele>783</ele>
        <time>2014-06-29T08:51:27Z</time>
      </trkpt>
      <trkpt lat="46.61743" lon="5.88126">
        <ele>783.5</ele>
        <time>2014-06-29T08:51:31Z</time>
      </trkpt>
      <trkpt lat="46.61752" lon="5.88121">
        <ele>784.2</ele>
        <time>2014-06-29T08:51:35Z</time>
      </trkpt>
      <trkpt lat="46.61761" lon="5.88119">
        <ele>784.8</ele>
        <time>2014-06-29T08:51:39Z</time>
      </trkpt>
      <trkpt lat="46.61771" lon="5.88124">
        <ele>785.1</ele>
        <time>2014-06-29T08:51:43Z</time>
      </trkpt>
      <trkpt lat="46.61781" lon="5.8813">
        <ele>785</ele>
        <time>2014-06-29T08:51:46Z</time>
      </trkpt>
      <trkpt lat="46.6179" lon="5.88137">
        <ele>785</ele>
        <time>2014-06-29T08:51:49Z</time>
      </trkpt>
      <trkpt lat="46.618" lon="5.88144">
        <ele>785.3</ele>
        <time>2014-06-29T08:51:52Z</time>
      </trkpt>
      <trkpt lat="46.61809" lon="5.88151">
        <ele>785.7</ele>
        <time>2014-06-29T08:51:55Z</time>
      </trkpt>
      <trkpt lat="46.61819" lon="5.88159">
        <ele>786.1</ele>
        <time>2014-06-29T08:51:58Z</time>
      </trkpt>
      <trkpt lat="46.61831" lon="5.88166">
        <ele>785.8</ele>
        <time>2014-06-29T08:52:01Z</time>
      </trkpt>
      <trkpt lat="46.61842" lon="5.8817">
        <ele>785.8</ele>
        <time>2014-06-29T08:52:04Z</time>
      </trkpt>
      <trkpt lat="46.61853" lon="5.88168">
        <ele>785.9</ele>
        <time>2014-06-29T08:52:07Z</time>
      </trkpt>
      <trkpt lat="46.61862" lon="5.88163">
        <ele>786.1</ele>
        <time>2014-06-29T08:52:10Z</time>
      </trkpt>
      <trkpt lat="46.61871" lon="5.88159">
        <ele>786.5</ele>
        <time>2014-06-29T08:52:14Z</time>
      </trkpt>
      <trkpt lat="46.6189" lon="5.88151">
        <ele>788.2</ele>
        <time>2014-06-29T08:52:24Z</time>
      </trkpt>
      <trkpt lat="46.61899" lon="5.88158">
        <ele>788.5</ele>
        <time>2014-06-29T08:52:28Z</time>
      </trkpt>
      <trkpt lat="46.61907" lon="5.8817">
        <ele>788.7</ele>
        <time>2014-06-29T08:52:32Z</time>
      </trkpt>
      <trkpt lat="46.61907" lon="5.88187">
        <ele>788.6</ele>
        <time>2014-06-29T08:52:35Z</time>
      </trkpt>
      <trkpt lat="46.61907" lon="5.882">
        <ele>788.2</ele>
        <time>2014-06-29T08:52:37Z</time>
      </trkpt>
      <trkpt lat="46.61906" lon="5.88217">
        <ele>787.5</ele>
        <time>2014-06-29T08:52:40Z</time>
      </trkpt>
      <trkpt lat="46.61901" lon="5.88231">
        <ele>786.6</ele>
        <time>2014-06-29T08:52:43Z</time>
      </trkpt>
      <trkpt lat="46.61897" lon="5.88243">
        <ele>786.5</ele>
        <time>2014-06-29T08:52:46Z</time>
      </trkpt>
      <trkpt lat="46.61893" lon="5.88258">
        <ele>787.2</ele>
        <time>2014-06-29T08:52:50Z</time>
      </trkpt>
      <trkpt lat="46.61889" lon="5.88271">
        <ele>787.8</ele>
        <time>2014-06-29T08:52:55Z</time>
      </trkpt>
      <trkpt lat="46.61883" lon="5.88286">
        <ele>788.6</ele>
        <time>2014-06-29T08:53:00Z</time>
      </trkpt>
      <trkpt lat="46.61877" lon="5.88299">
        <ele>789.5</ele>
        <time>2014-06-29T08:53:05Z</time>
      </trkpt>
      <trkpt lat="46.61871" lon="5.8831">
        <ele>790.4</ele>
        <time>2014-06-29T08:53:09Z</time>
      </trkpt>
      <trkpt lat="46.61865" lon="5.88321">
        <ele>791.7</ele>
        <time>2014-06-29T08:53:14Z</time>
      </trkpt>
      <trkpt lat="46.61859" lon="5.88332">
        <ele>793.3</ele>
        <time>2014-06-29T08:53:21Z</time>
      </trkpt>
      <trkpt lat="46.61847" lon="5.88352">
        <ele>795.7</ele>
        <time>2014-06-29T08:53:37Z</time>
      </trkpt>
      <trkpt lat="46.61841" lon="5.88363">
        <ele>796.6</ele>
        <time>2014-06-29T08:53:44Z</time>
      </trkpt>
      <trkpt lat="46.61833" lon="5.88371">
        <ele>798.1</ele>
        <time>2014-06-29T08:53:51Z</time>
      </trkpt>
      <trkpt lat="46.61826" lon="5.8838">
        <ele>799.6</ele>
        <time>2014-06-29T08:54:02Z</time>
      </trkpt>
      <trkpt lat="46.61818" lon="5.88389">
        <ele>802</ele>
        <time>2014-06-29T08:54:18Z</time>
      </trkpt>
      <trkpt lat="46.61814" lon="5.88402">
        <ele>802</ele>
        <time>2014-06-29T08:54:25Z</time>
      </trkpt>
      <trkpt lat="46.61812" lon="5.88434">
        <ele>801.2</ele>
        <time>2014-06-29T08:54:32Z</time>
      </trkpt>
      <trkpt lat="46.61811" lon="5.88449">
        <ele>800.3</ele>
        <time>2014-06-29T08:54:35Z</time>
      </trkpt>
      <trkpt lat="46.61809" lon="5.88463">
        <ele>799.6</ele>
        <time>2014-06-29T08:54:38Z</time>
      </trkpt>
      <trkpt lat="46.61808" lon="5.88477">
        <ele>798.8</ele>
        <time>2014-06-29T08:54:44Z</time>
      </trkpt>
      <trkpt lat="46.61805" lon="5.8849">
        <ele>798.1</ele>
        <time>2014-06-29T08:54:50Z</time>
      </trkpt>
      <trkpt lat="46.61808" lon="5.88505">
        <ele>797.5</ele>
        <time>2014-06-29T08:54:57Z</time>
      </trkpt>
      <trkpt lat="46.61806" lon="5.88519">
        <ele>797.8</ele>
        <time>2014-06-29T08:55:02Z</time>
      </trkpt>
      <trkpt lat="46.61806" lon="5.88534">
        <ele>797.8</ele>
        <time>2014-06-29T08:55:06Z</time>
      </trkpt>
      <trkpt lat="46.61809" lon="5.88549">
        <ele>797.8</ele>
        <time>2014-06-29T08:55:10Z</time>
      </trkpt>
      <trkpt lat="46.61809" lon="5.88564">
        <ele>797.7</ele>
        <time>2014-06-29T08:55:13Z</time>
      </trkpt>
      <trkpt lat="46.61806" lon="5.88581">
        <ele>797.4</ele>
        <time>2014-06-29T08:55:16Z</time>
      </trkpt>
      <trkpt lat="46.61806" lon="5.88595">
        <ele>797.2</ele>
        <time>2014-06-29T08:55:18Z</time>
      </trkpt>
      <trkpt lat="46.61806" lon="5.88609">
        <ele>796.9</ele>
        <time>2014-06-29T08:55:20Z</time>
      </trkpt>
      <trkpt lat="46.61808" lon="5.88628">
        <ele>796.3</ele>
        <time>2014-06-29T08:55:23Z</time>
      </trkpt>
      <trkpt lat="46.61813" lon="5.8864">
        <ele>795.9</ele>
        <time>2014-06-29T08:55:25Z</time>
      </trkpt>
      <trkpt lat="46.6182" lon="5.88652">
        <ele>795.7</ele>
        <time>2014-06-29T08:55:27Z</time>
      </trkpt>
      <trkpt lat="46.61828" lon="5.88679">
        <ele>795</ele>
        <time>2014-06-29T08:55:31Z</time>
      </trkpt>
      <trkpt lat="46.6183" lon="5.88694">
        <ele>794.5</ele>
        <time>2014-06-29T08:55:33Z</time>
      </trkpt>
      <trkpt lat="46.61834" lon="5.88709">
        <ele>794.3</ele>
        <time>2014-06-29T08:55:35Z</time>
      </trkpt>
      <trkpt lat="46.61837" lon="5.88725">
        <ele>793.8</ele>
        <time>2014-06-29T08:55:37Z</time>
      </trkpt>
      <trkpt lat="46.61838" lon="5.88741">
        <ele>792.7</ele>
        <time>2014-06-29T08:55:39Z</time>
      </trkpt>
      <trkpt lat="46.61839" lon="5.88756">
        <ele>791.5</ele>
        <time>2014-06-29T08:55:41Z</time>
      </trkpt>
      <trkpt lat="46.6184" lon="5.88772">
        <ele>790.9</ele>
        <time>2014-06-29T08:55:43Z</time>
      </trkpt>
      <trkpt lat="46.61841" lon="5.88789">
        <ele>790.3</ele>
        <time>2014-06-29T08:55:45Z</time>
      </trkpt>
      <trkpt lat="46.61841" lon="5.88807">
        <ele>789.7</ele>
        <time>2014-06-29T08:55:47Z</time>
      </trkpt>
      <trkpt lat="46.61837" lon="5.88824">
        <ele>788.9</ele>
        <time>2014-06-29T08:55:49Z</time>
      </trkpt>
      <trkpt lat="46.61834" lon="5.8884">
        <ele>788.6</ele>
        <time>2014-06-29T08:55:51Z</time>
      </trkpt>
      <trkpt lat="46.61833" lon="5.88856">
        <ele>788.4</ele>
        <time>2014-06-29T08:55:53Z</time>
      </trkpt>
      <trkpt lat="46.61831" lon="5.88872">
        <ele>788.3</ele>
        <time>2014-06-29T08:55:55Z</time>
      </trkpt>
      <trkpt lat="46.6183" lon="5.88888">
        <ele>788.2</ele>
        <time>2014-06-29T08:55:57Z</time>
      </trkpt>
      <trkpt lat="46.61829" lon="5.88905">
        <ele>788.3</ele>
        <time>2014-06-29T08:55:59Z</time>
      </trkpt>
      <trkpt lat="46.61828" lon="5.88922">
        <ele>788.2</ele>
        <time>2014-06-29T08:56:01Z</time>
      </trkpt>
      <trkpt lat="46.61826" lon="5.88938">
        <ele>788.3</ele>
        <time>2014-06-29T08:56:03Z</time>
      </trkpt>
      <trkpt lat="46.61822" lon="5.88954">
        <ele>788.4</ele>
        <time>2014-06-29T08:56:05Z</time>
      </trkpt>
      <trkpt lat="46.61815" lon="5.88967">
        <ele>788.5</ele>
        <time>2014-06-29T08:56:07Z</time>
      </trkpt>
      <trkpt lat="46.61805" lon="5.88977">
        <ele>788.3</ele>
        <time>2014-06-29T08:56:09Z</time>
      </trkpt>
      <trkpt lat="46.61796" lon="5.88987">
        <ele>788.4</ele>
        <time>2014-06-29T08:56:11Z</time>
      </trkpt>
      <trkpt lat="46.61788" lon="5.88997">
        <ele>788.3</ele>
        <time>2014-06-29T08:56:13Z</time>
      </trkpt>
      <trkpt lat="46.61779" lon="5.89005">
        <ele>788.6</ele>
        <time>2014-06-29T08:56:15Z</time>
      </trkpt>
      <trkpt lat="46.61768" lon="5.89005">
        <ele>788.5</ele>
        <time>2014-06-29T08:56:17Z</time>
      </trkpt>
      <trkpt lat="46.61759" lon="5.89001">
        <ele>788.4</ele>
        <time>2014-06-29T08:56:19Z</time>
      </trkpt>
      <trkpt lat="46.61751" lon="5.88994">
        <ele>788</ele>
        <time>2014-06-29T08:56:21Z</time>
      </trkpt>
      <trkpt lat="46.61743" lon="5.88986">
        <ele>788.3</ele>
        <time>2014-06-29T08:56:23Z</time>
      </trkpt>
      <trkpt lat="46.61732" lon="5.88977">
        <ele>788.5</ele>
        <time>2014-06-29T08:56:26Z</time>
      </trkpt>
      <trkpt lat="46.61722" lon="5.88974">
        <ele>788.6</ele>
        <time>2014-06-29T08:56:28Z</time>
      </trkpt>
      <trkpt lat="46.61702" lon="5.8897">
        <ele>788.2</ele>
        <time>2014-06-29T08:56:32Z</time>
      </trkpt>
      <trkpt lat="46.6169" lon="5.88972">
        <ele>788.5</ele>
        <time>2014-06-29T08:56:35Z</time>
      </trkpt>
      <trkpt lat="46.6168" lon="5.88976">
        <ele>788.4</ele>
        <time>2014-06-29T08:56:37Z</time>
      </trkpt>
      <trkpt lat="46.6167" lon="5.88981">
        <ele>788.5</ele>
        <time>2014-06-29T08:56:39Z</time>
      </trkpt>
      <trkpt lat="46.61661" lon="5.88985">
        <ele>788.5</ele>
        <time>2014-06-29T08:56:41Z</time>
      </trkpt>
      <trkpt lat="46.61652" lon="5.88992">
        <ele>788.5</ele>
        <time>2014-06-29T08:56:43Z</time>
      </trkpt>
      <trkpt lat="46.61645" lon="5.89003">
        <ele>788.3</ele>
        <time>2014-06-29T08:56:45Z</time>
      </trkpt>
      <trkpt lat="46.61638" lon="5.89014">
        <ele>788.2</ele>
        <time>2014-06-29T08:56:47Z</time>
      </trkpt>
      <trkpt lat="46.61633" lon="5.89026">
        <ele>788.3</ele>
        <time>2014-06-29T08:56:49Z</time>
      </trkpt>
      <trkpt lat="46.61628" lon="5.89038">
        <ele>788.2</ele>
        <time>2014-06-29T08:56:51Z</time>
      </trkpt>
      <trkpt lat="46.61626" lon="5.89053">
        <ele>788.3</ele>
        <time>2014-06-29T08:56:53Z</time>
      </trkpt>
      <trkpt lat="46.61624" lon="5.89067">
        <ele>788.5</ele>
        <time>2014-06-29T08:56:55Z</time>
      </trkpt>
      <trkpt lat="46.61624" lon="5.89083">
        <ele>788.4</ele>
        <time>2014-06-29T08:56:57Z</time>
      </trkpt>
      <trkpt lat="46.61624" lon="5.89097">
        <ele>788.3</ele>
        <time>2014-06-29T08:56:59Z</time>
      </trkpt>
      <trkpt lat="46.61627" lon="5.89115">
        <ele>788.5</ele>
        <time>2014-06-29T08:57:02Z</time>
      </trkpt>
      <trkpt lat="46.61636" lon="5.89119">
        <ele>788.5</ele>
        <time>2014-06-29T08:57:04Z</time>
      </trkpt>
      <trkpt lat="46.61645" lon="5.89121">
        <ele>788.4</ele>
        <time>2014-06-29T08:57:06Z</time>
      </trkpt>
      <trkpt lat="46.61654" lon="5.89125">
        <ele>788.4</ele>
        <time>2014-06-29T08:57:08Z</time>
      </trkpt>
      <trkpt lat="46.61666" lon="5.89133">
        <ele>788.3</ele>
        <time>2014-06-29T08:57:11Z</time>
      </trkpt>
      <trkpt lat="46.61677" lon="5.89142">
        <ele>788.4</ele>
        <time>2014-06-29T08:57:14Z</time>
      </trkpt>
      <trkpt lat="46.61689" lon="5.8915">
        <ele>788.4</ele>
        <time>2014-06-29T08:57:17Z</time>
      </trkpt>
      <trkpt lat="46.61697" lon="5.89156">
        <ele>788.6</ele>
        <time>2014-06-29T08:57:19Z</time>
      </trkpt>
      <trkpt lat="46.61706" lon="5.89163">
        <ele>788.3</ele>
        <time>2014-06-29T08:57:21Z</time>
      </trkpt>
      <trkpt lat="46.61716" lon="5.89171">
        <ele>788.2</ele>
        <time>2014-06-29T08:57:23Z</time>
      </trkpt>
      <trkpt lat="46.61723" lon="5.8918">
        <ele>788.3</ele>
        <time>2014-06-29T08:57:25Z</time>
      </trkpt>
      <trkpt lat="46.61733" lon="5.89195">
        <ele>788.1</ele>
        <time>2014-06-29T08:57:28Z</time>
      </trkpt>
      <trkpt lat="46.61739" lon="5.8921">
        <ele>788</ele>
        <time>2014-06-29T08:57:31Z</time>
      </trkpt>
      <trkpt lat="46.61756" lon="5.89227">
        <ele>788</ele>
        <time>2014-06-29T08:57:35Z</time>
      </trkpt>
      <trkpt lat="46.61765" lon="5.89235">
        <ele>788</ele>
        <time>2014-06-29T08:57:37Z</time>
      </trkpt>
      <trkpt lat="46.61774" lon="5.89243">
        <ele>788</ele>
        <time>2014-06-29T08:57:39Z</time>
      </trkpt>
      <trkpt lat="46.61782" lon="5.8925">
        <ele>787.9</ele>
        <time>2014-06-29T08:57:41Z</time>
      </trkpt>
      <trkpt lat="46.61792" lon="5.89259">
        <ele>788.1</ele>
        <time>2014-06-29T08:57:44Z</time>
      </trkpt>
      <trkpt lat="46.61799" lon="5.89273">
        <ele>788.6</ele>
        <time>2014-06-29T08:57:47Z</time>
      </trkpt>
      <trkpt lat="46.61806" lon="5.89289">
        <ele>789.3</ele>
        <time>2014-06-29T08:57:50Z</time>
      </trkpt>
      <trkpt lat="46.61817" lon="5.89307">
        <ele>789.6</ele>
        <time>2014-06-29T08:57:53Z</time>
      </trkpt>
      <trkpt lat="46.61826" lon="5.89317">
        <ele>790</ele>
        <time>2014-06-29T08:57:55Z</time>
      </trkpt>
      <trkpt lat="46.61832" lon="5.89329">
        <ele>790.3</ele>
        <time>2014-06-29T08:57:58Z</time>
      </trkpt>
      <trkpt lat="46.61839" lon="5.89338">
        <ele>790.6</ele>
        <time>2014-06-29T08:58:00Z</time>
      </trkpt>
      <trkpt lat="46.61846" lon="5.89353">
        <ele>791.2</ele>
        <time>2014-06-29T08:58:03Z</time>
      </trkpt>
      <trkpt lat="46.61853" lon="5.89367">
        <ele>791.3</ele>
        <time>2014-06-29T08:58:06Z</time>
      </trkpt>
      <trkpt lat="46.6186" lon="5.89381">
        <ele>791.5</ele>
        <time>2014-06-29T08:58:09Z</time>
      </trkpt>
      <trkpt lat="46.61867" lon="5.89396">
        <ele>791.4</ele>
        <time>2014-06-29T08:58:12Z</time>
      </trkpt>
      <trkpt lat="46.61874" lon="5.8941">
        <ele>791.9</ele>
        <time>2014-06-29T08:58:15Z</time>
      </trkpt>
      <trkpt lat="46.61881" lon="5.89421">
        <ele>792.2</ele>
        <time>2014-06-29T08:58:18Z</time>
      </trkpt>
      <trkpt lat="46.61888" lon="5.89432">
        <ele>792.5</ele>
        <time>2014-06-29T08:58:21Z</time>
      </trkpt>
      <trkpt lat="46.61897" lon="5.89443">
        <ele>792.6</ele>
        <time>2014-06-29T08:58:24Z</time>
      </trkpt>
      <trkpt lat="46.61905" lon="5.89456">
        <ele>792.7</ele>
        <time>2014-06-29T08:58:27Z</time>
      </trkpt>
      <trkpt lat="46.61909" lon="5.89469">
        <ele>792.7</ele>
        <time>2014-06-29T08:58:29Z</time>
      </trkpt>
      <trkpt lat="46.6191" lon="5.89489">
        <ele>792.7</ele>
        <time>2014-06-29T08:58:32Z</time>
      </trkpt>
      <trkpt lat="46.61914" lon="5.89525">
        <ele>793.5</ele>
        <time>2014-06-29T08:58:38Z</time>
      </trkpt>
      <trkpt lat="46.61916" lon="5.89541">
        <ele>793.7</ele>
        <time>2014-06-29T08:58:41Z</time>
      </trkpt>
      <trkpt lat="46.61917" lon="5.89556">
        <ele>794.2</ele>
        <time>2014-06-29T08:58:45Z</time>
      </trkpt>
      <trkpt lat="46.61917" lon="5.89572">
        <ele>794.8</ele>
        <time>2014-06-29T08:58:50Z</time>
      </trkpt>
      <trkpt lat="46.61919" lon="5.89585">
        <ele>795.8</ele>
        <time>2014-06-29T08:58:54Z</time>
      </trkpt>
      <trkpt lat="46.61927" lon="5.89596">
        <ele>796</ele>
        <time>2014-06-29T08:58:56Z</time>
      </trkpt>
      <trkpt lat="46.61933" lon="5.89608">
        <ele>796.4</ele>
        <time>2014-06-29T08:58:59Z</time>
      </trkpt>
      <trkpt lat="46.61941" lon="5.89615">
        <ele>797.5</ele>
        <time>2014-06-29T08:59:03Z</time>
      </trkpt>
      <trkpt lat="46.61949" lon="5.89623">
        <ele>798.2</ele>
        <time>2014-06-29T08:59:08Z</time>
      </trkpt>
      <trkpt lat="46.61955" lon="5.89634">
        <ele>799.1</ele>
        <time>2014-06-29T08:59:13Z</time>
      </trkpt>
      <trkpt lat="46.6196" lon="5.89647">
        <ele>799.5</ele>
        <time>2014-06-29T08:59:17Z</time>
      </trkpt>
      <trkpt lat="46.61967" lon="5.8966">
        <ele>799.8</ele>
        <time>2014-06-29T08:59:21Z</time>
      </trkpt>
      <trkpt lat="46.61971" lon="5.89675">
        <ele>799.8</ele>
        <time>2014-06-29T08:59:25Z</time>
      </trkpt>
      <trkpt lat="46.61973" lon="5.89688">
        <ele>800.1</ele>
        <time>2014-06-29T08:59:28Z</time>
      </trkpt>
      <trkpt lat="46.61976" lon="5.89703">
        <ele>800.1</ele>
        <time>2014-06-29T08:59:31Z</time>
      </trkpt>
      <trkpt lat="46.61979" lon="5.89717">
        <ele>800.3</ele>
        <time>2014-06-29T08:59:34Z</time>
      </trkpt>
      <trkpt lat="46.61985" lon="5.89745">
        <ele>800.5</ele>
        <time>2014-06-29T08:59:40Z</time>
      </trkpt>
      <trkpt lat="46.61987" lon="5.8976">
        <ele>801.3</ele>
        <time>2014-06-29T08:59:44Z</time>
      </trkpt>
      <trkpt lat="46.61983" lon="5.89774">
        <ele>801.8</ele>
        <time>2014-06-29T08:59:48Z</time>
      </trkpt>
      <trkpt lat="46.61976" lon="5.89784">
        <ele>802.5</ele>
        <time>2014-06-29T08:59:52Z</time>
      </trkpt>
      <trkpt lat="46.61968" lon="5.89796">
        <ele>803.1</ele>
        <time>2014-06-29T08:59:56Z</time>
      </trkpt>
      <trkpt lat="46.61965" lon="5.89809">
        <ele>803.4</ele>
        <time>2014-06-29T08:59:59Z</time>
      </trkpt>
      <trkpt lat="46.61959" lon="5.89823">
        <ele>803.4</ele>
        <time>2014-06-29T09:00:03Z</time>
      </trkpt>
      <trkpt lat="46.61953" lon="5.89833">
        <ele>804.3</ele>
        <time>2014-06-29T09:00:06Z</time>
      </trkpt>
      <trkpt lat="46.61947" lon="5.89844">
        <ele>804.7</ele>
        <time>2014-06-29T09:00:09Z</time>
      </trkpt>
      <trkpt lat="46.6194" lon="5.89854">
        <ele>804.9</ele>
        <time>2014-06-29T09:00:12Z</time>
      </trkpt>
      <trkpt lat="46.61933" lon="5.89864">
        <ele>804.9</ele>
        <time>2014-06-29T09:00:15Z</time>
      </trkpt>
      <trkpt lat="46.61926" lon="5.89875">
        <ele>805</ele>
        <time>2014-06-29T09:00:18Z</time>
      </trkpt>
      <trkpt lat="46.61918" lon="5.89885">
        <ele>805.2</ele>
        <time>2014-06-29T09:00:21Z</time>
      </trkpt>
      <trkpt lat="46.61916" lon="5.89898">
        <ele>805.7</ele>
        <time>2014-06-29T09:00:25Z</time>
      </trkpt>
      <trkpt lat="46.61913" lon="5.89911">
        <ele>805.9</ele>
        <time>2014-06-29T09:00:29Z</time>
      </trkpt>
      <trkpt lat="46.61917" lon="5.89925">
        <ele>805.9</ele>
        <time>2014-06-29T09:00:31Z</time>
      </trkpt>
      <trkpt lat="46.61917" lon="5.89939">
        <ele>806.2</ele>
        <time>2014-06-29T09:00:34Z</time>
      </trkpt>
      <trkpt lat="46.61919" lon="5.89953">
        <ele>806.5</ele>
        <time>2014-06-29T09:00:37Z</time>
      </trkpt>
      <trkpt lat="46.61925" lon="5.89983">
        <ele>807</ele>
        <time>2014-06-29T09:00:43Z</time>
      </trkpt>
      <trkpt lat="46.61932" lon="5.89997">
        <ele>807</ele>
        <time>2014-06-29T09:00:47Z</time>
      </trkpt>
      <trkpt lat="46.6194" lon="5.90009">
        <ele>807.4</ele>
        <time>2014-06-29T09:00:51Z</time>
      </trkpt>
      <trkpt lat="46.61946" lon="5.90022">
        <ele>807.8</ele>
        <time>2014-06-29T09:00:55Z</time>
      </trkpt>
      <trkpt lat="46.61949" lon="5.90038">
        <ele>807.9</ele>
        <time>2014-06-29T09:00:59Z</time>
      </trkpt>
      <trkpt lat="46.61952" lon="5.90054">
        <ele>807.6</ele>
        <time>2014-06-29T09:01:02Z</time>
      </trkpt>
      <trkpt lat="46.61957" lon="5.9007">
        <ele>807.3</ele>
        <time>2014-06-29T09:01:04Z</time>
      </trkpt>
      <trkpt lat="46.61964" lon="5.90088">
        <ele>807.2</ele>
        <time>2014-06-29T09:01:06Z</time>
      </trkpt>
      <trkpt lat="46.61966" lon="5.90104">
        <ele>807</ele>
        <time>2014-06-29T09:01:08Z</time>
      </trkpt>
      <trkpt lat="46.61969" lon="5.90119">
        <ele>806.8</ele>
        <time>2014-06-29T09:01:10Z</time>
      </trkpt>
      <trkpt lat="46.61972" lon="5.90134">
        <ele>806.9</ele>
        <time>2014-06-29T09:01:12Z</time>
      </trkpt>
      <trkpt lat="46.61973" lon="5.90149">
        <ele>807</ele>
        <time>2014-06-29T09:01:14Z</time>
      </trkpt>
      <trkpt lat="46.61975" lon="5.90163">
        <ele>807</ele>
        <time>2014-06-29T09:01:16Z</time>
      </trkpt>
      <trkpt lat="46.61977" lon="5.90177">
        <ele>806.7</ele>
        <time>2014-06-29T09:01:18Z</time>
      </trkpt>
      <trkpt lat="46.61979" lon="5.90195">
        <ele>806.5</ele>
        <time>2014-06-29T09:01:20Z</time>
      </trkpt>
      <trkpt lat="46.61981" lon="5.90212">
        <ele>806.3</ele>
        <time>2014-06-29T09:01:22Z</time>
      </trkpt>
      <trkpt lat="46.61982" lon="5.90228">
        <ele>806.3</ele>
        <time>2014-06-29T09:01:24Z</time>
      </trkpt>
      <trkpt lat="46.61985" lon="5.90242">
        <ele>805.9</ele>
        <time>2014-06-29T09:01:26Z</time>
      </trkpt>
      <trkpt lat="46.61991" lon="5.90255">
        <ele>805.3</ele>
        <time>2014-06-29T09:01:28Z</time>
      </trkpt>
      <trkpt lat="46.61997" lon="5.90267">
        <ele>804.5</ele>
        <time>2014-06-29T09:01:30Z</time>
      </trkpt>
      <trkpt lat="46.62006" lon="5.90276">
        <ele>804.1</ele>
        <time>2014-06-29T09:01:32Z</time>
      </trkpt>
      <trkpt lat="46.62018" lon="5.90282">
        <ele>803.3</ele>
        <time>2014-06-29T09:01:34Z</time>
      </trkpt>
      <trkpt lat="46.62029" lon="5.90289">
        <ele>802.5</ele>
        <time>2014-06-29T09:01:37Z</time>
      </trkpt>
      <trkpt lat="46.62036" lon="5.903">
        <ele>801</ele>
        <time>2014-06-29T09:01:41Z</time>
      </trkpt>
      <trkpt lat="46.62047" lon="5.90333">
        <ele>799.7</ele>
        <time>2014-06-29T09:01:47Z</time>
      </trkpt>
      <trkpt lat="46.62053" lon="5.90347">
        <ele>799.3</ele>
        <time>2014-06-29T09:01:49Z</time>
      </trkpt>
      <trkpt lat="46.6206" lon="5.90361">
        <ele>798.9</ele>
        <time>2014-06-29T09:01:51Z</time>
      </trkpt>
      <trkpt lat="46.62069" lon="5.90373">
        <ele>798.1</ele>
        <time>2014-06-29T09:01:53Z</time>
      </trkpt>
      <trkpt lat="46.62077" lon="5.90384">
        <ele>797.3</ele>
        <time>2014-06-29T09:01:55Z</time>
      </trkpt>
      <trkpt lat="46.62086" lon="5.90393">
        <ele>796.6</ele>
        <time>2014-06-29T09:01:57Z</time>
      </trkpt>
      <trkpt lat="46.62097" lon="5.90402">
        <ele>795.8</ele>
        <time>2014-06-29T09:01:59Z</time>
      </trkpt>
      <trkpt lat="46.6211" lon="5.90415">
        <ele>795</ele>
        <time>2014-06-29T09:02:01Z</time>
      </trkpt>
      <trkpt lat="46.62121" lon="5.90429">
        <ele>794.1</ele>
        <time>2014-06-29T09:02:03Z</time>
      </trkpt>
      <trkpt lat="46.62131" lon="5.90441">
        <ele>793</ele>
        <time>2014-06-29T09:02:05Z</time>
      </trkpt>
      <trkpt lat="46.6214" lon="5.90453">
        <ele>792.1</ele>
        <time>2014-06-29T09:02:07Z</time>
      </trkpt>
      <trkpt lat="46.62147" lon="5.90467">
        <ele>791.6</ele>
        <time>2014-06-29T09:02:09Z</time>
      </trkpt>
      <trkpt lat="46.62155" lon="5.90481">
        <ele>790.7</ele>
        <time>2014-06-29T09:02:11Z</time>
      </trkpt>
      <trkpt lat="46.62162" lon="5.90494">
        <ele>790.4</ele>
        <time>2014-06-29T09:02:13Z</time>
      </trkpt>
      <trkpt lat="46.62169" lon="5.90507">
        <ele>790.3</ele>
        <time>2014-06-29T09:02:15Z</time>
      </trkpt>
      <trkpt lat="46.62175" lon="5.90521">
        <ele>790</ele>
        <time>2014-06-29T09:02:17Z</time>
      </trkpt>
      <trkpt lat="46.62181" lon="5.90536">
        <ele>789.7</ele>
        <time>2014-06-29T09:02:19Z</time>
      </trkpt>
      <trkpt lat="46.62187" lon="5.9055">
        <ele>789.4</ele>
        <time>2014-06-29T09:02:21Z</time>
      </trkpt>
      <trkpt lat="46.62194" lon="5.90563">
        <ele>789.5</ele>
        <time>2014-06-29T09:02:23Z</time>
      </trkpt>
      <trkpt lat="46.62199" lon="5.90576">
        <ele>789.4</ele>
        <time>2014-06-29T09:02:25Z</time>
      </trkpt>
      <trkpt lat="46.62203" lon="5.90589">
        <ele>789.3</ele>
        <time>2014-06-29T09:02:27Z</time>
      </trkpt>
      <trkpt lat="46.62206" lon="5.90602">
        <ele>789.1</ele>
        <time>2014-06-29T09:02:29Z</time>
      </trkpt>
      <trkpt lat="46.6221" lon="5.90619">
        <ele>789.5</ele>
        <time>2014-06-29T09:02:32Z</time>
      </trkpt>
      <trkpt lat="46.62216" lon="5.90636">
        <ele>789.7</ele>
        <time>2014-06-29T09:02:35Z</time>
      </trkpt>
      <trkpt lat="46.62225" lon="5.90649">
        <ele>789.8</ele>
        <time>2014-06-29T09:02:38Z</time>
      </trkpt>
      <trkpt lat="46.62234" lon="5.90657">
        <ele>789.7</ele>
        <time>2014-06-29T09:02:40Z</time>
      </trkpt>
      <trkpt lat="46.62242" lon="5.90666">
        <ele>790.2</ele>
        <time>2014-06-29T09:02:42Z</time>
      </trkpt>
      <trkpt lat="46.62257" lon="5.90681">
        <ele>790.7</ele>
        <time>2014-06-29T09:02:46Z</time>
      </trkpt>
      <trkpt lat="46.62264" lon="5.90691">
        <ele>790.7</ele>
        <time>2014-06-29T09:02:48Z</time>
      </trkpt>
      <trkpt lat="46.62271" lon="5.90703">
        <ele>790.8</ele>
        <time>2014-06-29T09:02:50Z</time>
      </trkpt>
      <trkpt lat="46.62277" lon="5.90716">
        <ele>790.6</ele>
        <time>2014-06-29T09:02:52Z</time>
      </trkpt>
      <trkpt lat="46.62283" lon="5.90728">
        <ele>790.7</ele>
        <time>2014-06-29T09:02:54Z</time>
      </trkpt>
      <trkpt lat="46.62289" lon="5.90738">
        <ele>790.8</ele>
        <time>2014-06-29T09:02:56Z</time>
      </trkpt>
      <trkpt lat="46.62297" lon="5.90746">
        <ele>790.6</ele>
        <time>2014-06-29T09:02:58Z</time>
      </trkpt>
      <trkpt lat="46.62305" lon="5.90754">
        <ele>790.6</ele>
        <time>2014-06-29T09:03:00Z</time>
      </trkpt>
      <trkpt lat="46.62313" lon="5.90761">
        <ele>790.8</ele>
        <time>2014-06-29T09:03:02Z</time>
      </trkpt>
      <trkpt lat="46.62321" lon="5.90767">
        <ele>790.5</ele>
        <time>2014-06-29T09:03:04Z</time>
      </trkpt>
      <trkpt lat="46.62331" lon="5.90773">
        <ele>790.3</ele>
        <time>2014-06-29T09:03:06Z</time>
      </trkpt>
      <trkpt lat="46.6234" lon="5.90778">
        <ele>790.1</ele>
        <time>2014-06-29T09:03:08Z</time>
      </trkpt>
      <trkpt lat="46.6235" lon="5.90783">
        <ele>789.9</ele>
        <time>2014-06-29T09:03:10Z</time>
      </trkpt>
      <trkpt lat="46.6236" lon="5.9079">
        <ele>789.8</ele>
        <time>2014-06-29T09:03:12Z</time>
      </trkpt>
      <trkpt lat="46.6237" lon="5.90796">
        <ele>789.3</ele>
        <time>2014-06-29T09:03:14Z</time>
      </trkpt>
      <trkpt lat="46.62379" lon="5.90801">
        <ele>789</ele>
        <time>2014-06-29T09:03:16Z</time>
      </trkpt>
      <trkpt lat="46.62387" lon="5.90806">
        <ele>788.9</ele>
        <time>2014-06-29T09:03:18Z</time>
      </trkpt>
      <trkpt lat="46.62398" lon="5.90818">
        <ele>788.4</ele>
        <time>2014-06-29T09:03:21Z</time>
      </trkpt>
      <trkpt lat="46.62407" lon="5.90824">
        <ele>788.5</ele>
        <time>2014-06-29T09:03:23Z</time>
      </trkpt>
      <trkpt lat="46.62415" lon="5.90831">
        <ele>788.6</ele>
        <time>2014-06-29T09:03:25Z</time>
      </trkpt>
      <trkpt lat="46.62424" lon="5.90838">
        <ele>788.4</ele>
        <time>2014-06-29T09:03:27Z</time>
      </trkpt>
      <trkpt lat="46.62432" lon="5.90845">
        <ele>788.3</ele>
        <time>2014-06-29T09:03:29Z</time>
      </trkpt>
      <trkpt lat="46.62441" lon="5.90851">
        <ele>788.4</ele>
        <time>2014-06-29T09:03:31Z</time>
      </trkpt>
      <trkpt lat="46.62449" lon="5.90856">
        <ele>788.4</ele>
        <time>2014-06-29T09:03:33Z</time>
      </trkpt>
      <trkpt lat="46.62459" lon="5.90861">
        <ele>788.3</ele>
        <time>2014-06-29T09:03:35Z</time>
      </trkpt>
      <trkpt lat="46.62468" lon="5.90869">
        <ele>788.7</ele>
        <time>2014-06-29T09:03:37Z</time>
      </trkpt>
      <trkpt lat="46.62476" lon="5.90878">
        <ele>788.6</ele>
        <time>2014-06-29T09:03:39Z</time>
      </trkpt>
      <trkpt lat="46.62484" lon="5.90886">
        <ele>788.4</ele>
        <time>2014-06-29T09:03:41Z</time>
      </trkpt>
      <trkpt lat="46.62491" lon="5.90894">
        <ele>788.5</ele>
        <time>2014-06-29T09:03:43Z</time>
      </trkpt>
      <trkpt lat="46.62504" lon="5.90916">
        <ele>788.4</ele>
        <time>2014-06-29T09:03:47Z</time>
      </trkpt>
      <trkpt lat="46.6251" lon="5.90926">
        <ele>788.4</ele>
        <time>2014-06-29T09:03:49Z</time>
      </trkpt>
      <trkpt lat="46.62516" lon="5.90937">
        <ele>788.4</ele>
        <time>2014-06-29T09:03:51Z</time>
      </trkpt>
      <trkpt lat="46.62522" lon="5.90947">
        <ele>788.2</ele>
        <time>2014-06-29T09:03:53Z</time>
      </trkpt>
      <trkpt lat="46.62532" lon="5.9096">
        <ele>788.3</ele>
        <time>2014-06-29T09:03:56Z</time>
      </trkpt>
      <trkpt lat="46.62539" lon="5.90969">
        <ele>788.2</ele>
        <time>2014-06-29T09:03:58Z</time>
      </trkpt>
      <trkpt lat="46.62549" lon="5.90981">
        <ele>788.3</ele>
        <time>2014-06-29T09:04:01Z</time>
      </trkpt>
      <trkpt lat="46.62559" lon="5.90987">
        <ele>788.6</ele>
        <time>2014-06-29T09:04:03Z</time>
      </trkpt>
      <trkpt lat="46.62568" lon="5.90995">
        <ele>788.5</ele>
        <time>2014-06-29T09:04:05Z</time>
      </trkpt>
      <trkpt lat="46.62576" lon="5.91003">
        <ele>788.3</ele>
        <time>2014-06-29T09:04:07Z</time>
      </trkpt>
      <trkpt lat="46.62588" lon="5.91011">
        <ele>788.1</ele>
        <time>2014-06-29T09:04:10Z</time>
      </trkpt>
      <trkpt lat="46.62595" lon="5.91021">
        <ele>788.1</ele>
        <time>2014-06-29T09:04:12Z</time>
      </trkpt>
      <trkpt lat="46.62601" lon="5.91031">
        <ele>788.3</ele>
        <time>2014-06-29T09:04:14Z</time>
      </trkpt>
      <trkpt lat="46.62609" lon="5.91041">
        <ele>788.3</ele>
        <time>2014-06-29T09:04:16Z</time>
      </trkpt>
      <trkpt lat="46.62616" lon="5.91052">
        <ele>788.3</ele>
        <time>2014-06-29T09:04:18Z</time>
      </trkpt>
      <trkpt lat="46.62624" lon="5.91063">
        <ele>788.2</ele>
        <time>2014-06-29T09:04:20Z</time>
      </trkpt>
      <trkpt lat="46.62631" lon="5.91074">
        <ele>788.1</ele>
        <time>2014-06-29T09:04:22Z</time>
      </trkpt>
      <trkpt lat="46.62638" lon="5.91084">
        <ele>788</ele>
        <time>2014-06-29T09:04:24Z</time>
      </trkpt>
      <trkpt lat="46.62646" lon="5.91093">
        <ele>788</ele>
        <time>2014-06-29T09:04:26Z</time>
      </trkpt>
      <trkpt lat="46.62655" lon="5.911">
        <ele>788.1</ele>
        <time>2014-06-29T09:04:28Z</time>
      </trkpt>
      <trkpt lat="46.62665" lon="5.91113">
        <ele>788.1</ele>
        <time>2014-06-29T09:04:31Z</time>
      </trkpt>
      <trkpt lat="46.62672" lon="5.91122">
        <ele>788.2</ele>
        <time>2014-06-29T09:04:33Z</time>
      </trkpt>
      <trkpt lat="46.6268" lon="5.91129">
        <ele>788.1</ele>
        <time>2014-06-29T09:04:35Z</time>
      </trkpt>
      <trkpt lat="46.62691" lon="5.91138">
        <ele>788.5</ele>
        <time>2014-06-29T09:04:38Z</time>
      </trkpt>
      <trkpt lat="46.62698" lon="5.91147">
        <ele>788.7</ele>
        <time>2014-06-29T09:04:40Z</time>
      </trkpt>
      <trkpt lat="46.62705" lon="5.91154">
        <ele>788.6</ele>
        <time>2014-06-29T09:04:42Z</time>
      </trkpt>
      <trkpt lat="46.62715" lon="5.91167">
        <ele>788.8</ele>
        <time>2014-06-29T09:04:45Z</time>
      </trkpt>
      <trkpt lat="46.62729" lon="5.91185">
        <ele>788.9</ele>
        <time>2014-06-29T09:04:49Z</time>
      </trkpt>
      <trkpt lat="46.62737" lon="5.91194">
        <ele>788.9</ele>
        <time>2014-06-29T09:04:51Z</time>
      </trkpt>
      <trkpt lat="46.62748" lon="5.91204">
        <ele>789.4</ele>
        <time>2014-06-29T09:04:54Z</time>
      </trkpt>
      <trkpt lat="46.62757" lon="5.9121">
        <ele>789.2</ele>
        <time>2014-06-29T09:04:56Z</time>
      </trkpt>
      <trkpt lat="46.62765" lon="5.91217">
        <ele>789.1</ele>
        <time>2014-06-29T09:04:58Z</time>
      </trkpt>
      <trkpt lat="46.62773" lon="5.91227">
        <ele>789.1</ele>
        <time>2014-06-29T09:05:00Z</time>
      </trkpt>
      <trkpt lat="46.62781" lon="5.91237">
        <ele>789</ele>
        <time>2014-06-29T09:05:02Z</time>
      </trkpt>
      <trkpt lat="46.62789" lon="5.91244">
        <ele>788.8</ele>
        <time>2014-06-29T09:05:04Z</time>
      </trkpt>
      <trkpt lat="46.62798" lon="5.91248">
        <ele>789</ele>
        <time>2014-06-29T09:05:06Z</time>
      </trkpt>
      <trkpt lat="46.62809" lon="5.91253">
        <ele>788.9</ele>
        <time>2014-06-29T09:05:08Z</time>
      </trkpt>
      <trkpt lat="46.62819" lon="5.9126">
        <ele>789</ele>
        <time>2014-06-29T09:05:10Z</time>
      </trkpt>
      <trkpt lat="46.62828" lon="5.91268">
        <ele>788.8</ele>
        <time>2014-06-29T09:05:12Z</time>
      </trkpt>
      <trkpt lat="46.62838" lon="5.9128">
        <ele>788.8</ele>
        <time>2014-06-29T09:05:15Z</time>
      </trkpt>
      <trkpt lat="46.62845" lon="5.91291">
        <ele>789</ele>
        <time>2014-06-29T09:05:17Z</time>
      </trkpt>
      <trkpt lat="46.62853" lon="5.913">
        <ele>789</ele>
        <time>2014-06-29T09:05:19Z</time>
      </trkpt>
      <trkpt lat="46.62861" lon="5.9131">
        <ele>789</ele>
        <time>2014-06-29T09:05:21Z</time>
      </trkpt>
      <trkpt lat="46.62869" lon="5.91319">
        <ele>789.2</ele>
        <time>2014-06-29T09:05:23Z</time>
      </trkpt>
      <trkpt lat="46.62876" lon="5.91328">
        <ele>789.3</ele>
        <time>2014-06-29T09:05:25Z</time>
      </trkpt>
      <trkpt lat="46.62885" lon="5.91336">
        <ele>789.2</ele>
        <time>2014-06-29T09:05:27Z</time>
      </trkpt>
      <trkpt lat="46.62893" lon="5.91346">
        <ele>789.1</ele>
        <time>2014-06-29T09:05:29Z</time>
      </trkpt>
      <trkpt lat="46.62902" lon="5.91359">
        <ele>789.2</ele>
        <time>2014-06-29T09:05:32Z</time>
      </trkpt>
      <trkpt lat="46.62908" lon="5.91373">
        <ele>789</ele>
        <time>2014-06-29T09:05:34Z</time>
      </trkpt>
      <trkpt lat="46.62914" lon="5.91385">
        <ele>789.2</ele>
        <time>2014-06-29T09:05:36Z</time>
      </trkpt>
      <trkpt lat="46.6292" lon="5.91397">
        <ele>788.9</ele>
        <time>2014-06-29T09:05:38Z</time>
      </trkpt>
      <trkpt lat="46.62927" lon="5.91408">
        <ele>789.1</ele>
        <time>2014-06-29T09:05:40Z</time>
      </trkpt>
      <trkpt lat="46.62934" lon="5.91421">
        <ele>789.3</ele>
        <time>2014-06-29T09:05:42Z</time>
      </trkpt>
      <trkpt lat="46.62943" lon="5.91434">
        <ele>789.2</ele>
        <time>2014-06-29T09:05:45Z</time>
      </trkpt>
      <trkpt lat="46.6295" lon="5.91444">
        <ele>789.1</ele>
        <time>2014-06-29T09:05:47Z</time>
      </trkpt>
      <trkpt lat="46.62964" lon="5.91464">
        <ele>789</ele>
        <time>2014-06-29T09:05:51Z</time>
      </trkpt>
      <trkpt lat="46.62972" lon="5.91477">
        <ele>789</ele>
        <time>2014-06-29T09:05:53Z</time>
      </trkpt>
      <trkpt lat="46.6298" lon="5.91488">
        <ele>788.9</ele>
        <time>2014-06-29T09:05:55Z</time>
      </trkpt>
      <trkpt lat="46.62987" lon="5.91501">
        <ele>788.8</ele>
        <time>2014-06-29T09:05:57Z</time>
      </trkpt>
      <trkpt lat="46.62994" lon="5.91511">
        <ele>788.7</ele>
        <time>2014-06-29T09:05:59Z</time>
      </trkpt>
      <trkpt lat="46.63002" lon="5.91526">
        <ele>788.4</ele>
        <time>2014-06-29T09:06:02Z</time>
      </trkpt>
      <trkpt lat="46.63008" lon="5.91537">
        <ele>788.2</ele>
        <time>2014-06-29T09:06:04Z</time>
      </trkpt>
      <trkpt lat="46.63015" lon="5.91554">
        <ele>788.3</ele>
        <time>2014-06-29T09:06:07Z</time>
      </trkpt>
      <trkpt lat="46.63023" lon="5.91565">
        <ele>788.4</ele>
        <time>2014-06-29T09:06:09Z</time>
      </trkpt>
      <trkpt lat="46.6303" lon="5.91576">
        <ele>788.6</ele>
        <time>2014-06-29T09:06:11Z</time>
      </trkpt>
      <trkpt lat="46.63037" lon="5.91586">
        <ele>788.6</ele>
        <time>2014-06-29T09:06:13Z</time>
      </trkpt>
      <trkpt lat="46.63043" lon="5.91597">
        <ele>788.8</ele>
        <time>2014-06-29T09:06:14Z</time>
      </trkpt>
      <trkpt lat="46.6305" lon="5.91615">
        <ele>789.1</ele>
        <time>2014-06-29T09:06:16Z</time>
      </trkpt>
      <trkpt lat="46.63055" lon="5.91629">
        <ele>789</ele>
        <time>2014-06-29T09:06:18Z</time>
      </trkpt>
      <trkpt lat="46.6306" lon="5.91642">
        <ele>789</ele>
        <time>2014-06-29T09:06:20Z</time>
      </trkpt>
      <trkpt lat="46.63065" lon="5.91654">
        <ele>789</ele>
        <time>2014-06-29T09:06:22Z</time>
      </trkpt>
      <trkpt lat="46.63071" lon="5.91667">
        <ele>789</ele>
        <time>2014-06-29T09:06:24Z</time>
      </trkpt>
      <trkpt lat="46.63077" lon="5.9168">
        <ele>788.9</ele>
        <time>2014-06-29T09:06:26Z</time>
      </trkpt>
      <trkpt lat="46.63082" lon="5.91692">
        <ele>789.1</ele>
        <time>2014-06-29T09:06:28Z</time>
      </trkpt>
      <trkpt lat="46.63088" lon="5.91705">
        <ele>789.1</ele>
        <time>2014-06-29T09:06:30Z</time>
      </trkpt>
      <trkpt lat="46.63093" lon="5.91717">
        <ele>788.9</ele>
        <time>2014-06-29T09:06:32Z</time>
      </trkpt>
      <trkpt lat="46.631" lon="5.91729">
        <ele>789</ele>
        <time>2014-06-29T09:06:34Z</time>
      </trkpt>
      <trkpt lat="46.63105" lon="5.91741">
        <ele>788.9</ele>
        <time>2014-06-29T09:06:36Z</time>
      </trkpt>
      <trkpt lat="46.63112" lon="5.91751">
        <ele>788.8</ele>
        <time>2014-06-29T09:06:38Z</time>
      </trkpt>
      <trkpt lat="46.63119" lon="5.91761">
        <ele>788.5</ele>
        <time>2014-06-29T09:06:40Z</time>
      </trkpt>
      <trkpt lat="46.63124" lon="5.91773">
        <ele>788.7</ele>
        <time>2014-06-29T09:06:42Z</time>
      </trkpt>
      <trkpt lat="46.63131" lon="5.91783">
        <ele>788.9</ele>
        <time>2014-06-29T09:06:44Z</time>
      </trkpt>
      <trkpt lat="46.63138" lon="5.91793">
        <ele>789.2</ele>
        <time>2014-06-29T09:06:46Z</time>
      </trkpt>
      <trkpt lat="46.63146" lon="5.91802">
        <ele>789</ele>
        <time>2014-06-29T09:06:48Z</time>
      </trkpt>
      <trkpt lat="46.63165" lon="5.91821">
        <ele>788.8</ele>
        <time>2014-06-29T09:06:53Z</time>
      </trkpt>
      <trkpt lat="46.63176" lon="5.91833">
        <ele>788.7</ele>
        <time>2014-06-29T09:06:56Z</time>
      </trkpt>
      <trkpt lat="46.63184" lon="5.91839">
        <ele>788.7</ele>
        <time>2014-06-29T09:06:58Z</time>
      </trkpt>
      <trkpt lat="46.63192" lon="5.91846">
        <ele>788.8</ele>
        <time>2014-06-29T09:07:00Z</time>
      </trkpt>
      <trkpt lat="46.63203" lon="5.91856">
        <ele>788.7</ele>
        <time>2014-06-29T09:07:03Z</time>
      </trkpt>
      <trkpt lat="46.63215" lon="5.9186">
        <ele>788.5</ele>
        <time>2014-06-29T09:07:06Z</time>
      </trkpt>
      <trkpt lat="46.63224" lon="5.91859">
        <ele>788.3</ele>
        <time>2014-06-29T09:07:08Z</time>
      </trkpt>
      <trkpt lat="46.63232" lon="5.91853">
        <ele>788.5</ele>
        <time>2014-06-29T09:07:10Z</time>
      </trkpt>
      <trkpt lat="46.63241" lon="5.91846">
        <ele>788.3</ele>
        <time>2014-06-29T09:07:12Z</time>
      </trkpt>
      <trkpt lat="46.6325" lon="5.91846">
        <ele>788.4</ele>
        <time>2014-06-29T09:07:14Z</time>
      </trkpt>
      <trkpt lat="46.63263" lon="5.91853">
        <ele>788.6</ele>
        <time>2014-06-29T09:07:17Z</time>
      </trkpt>
      <trkpt lat="46.63271" lon="5.9186">
        <ele>788.7</ele>
        <time>2014-06-29T09:07:19Z</time>
      </trkpt>
      <trkpt lat="46.63278" lon="5.91869">
        <ele>788.9</ele>
        <time>2014-06-29T09:07:21Z</time>
      </trkpt>
      <trkpt lat="46.63284" lon="5.9188">
        <ele>788.9</ele>
        <time>2014-06-29T09:07:23Z</time>
      </trkpt>
      <trkpt lat="46.63291" lon="5.91891">
        <ele>788.9</ele>
        <time>2014-06-29T09:07:25Z</time>
      </trkpt>
      <trkpt lat="46.63302" lon="5.91902">
        <ele>788.8</ele>
        <time>2014-06-29T09:07:28Z</time>
      </trkpt>
      <trkpt lat="46.63312" lon="5.91911">
        <ele>789.4</ele>
        <time>2014-06-29T09:07:31Z</time>
      </trkpt>
      <trkpt lat="46.63321" lon="5.91917">
        <ele>789.9</ele>
        <time>2014-06-29T09:07:34Z</time>
      </trkpt>
      <trkpt lat="46.6333" lon="5.91923">
        <ele>790.3</ele>
        <time>2014-06-29T09:07:37Z</time>
      </trkpt>
      <trkpt lat="46.6334" lon="5.91931">
        <ele>790.4</ele>
        <time>2014-06-29T09:07:40Z</time>
      </trkpt>
      <trkpt lat="46.63349" lon="5.91939">
        <ele>790.6</ele>
        <time>2014-06-29T09:07:43Z</time>
      </trkpt>
      <trkpt lat="46.63359" lon="5.91942">
        <ele>791.1</ele>
        <time>2014-06-29T09:07:46Z</time>
      </trkpt>
      <trkpt lat="46.63369" lon="5.9194">
        <ele>791.3</ele>
        <time>2014-06-29T09:07:49Z</time>
      </trkpt>
      <trkpt lat="46.63389" lon="5.91935">
        <ele>791.8</ele>
        <time>2014-06-29T09:07:55Z</time>
      </trkpt>
      <trkpt lat="46.634" lon="5.91933">
        <ele>792.1</ele>
        <time>2014-06-29T09:08:00Z</time>
      </trkpt>
      <trkpt lat="46.63408" lon="5.9193">
        <ele>793.5</ele>
        <time>2014-06-29T09:08:13Z</time>
      </trkpt>
      <trkpt lat="46.63418" lon="5.91932">
        <ele>794.2</ele>
        <time>2014-06-29T09:08:24Z</time>
      </trkpt>
      <trkpt lat="46.63427" lon="5.9193">
        <ele>794.9</ele>
        <time>2014-06-29T09:08:29Z</time>
      </trkpt>
      <trkpt lat="46.63437" lon="5.91929">
        <ele>795.4</ele>
        <time>2014-06-29T09:08:35Z</time>
      </trkpt>
      <trkpt lat="46.63446" lon="5.9193">
        <ele>796</ele>
        <time>2014-06-29T09:08:41Z</time>
      </trkpt>
      <trkpt lat="46.63455" lon="5.91926">
        <ele>796.6</ele>
        <time>2014-06-29T09:08:47Z</time>
      </trkpt>
      <trkpt lat="46.63461" lon="5.91916">
        <ele>797.7</ele>
        <time>2014-06-29T09:08:55Z</time>
      </trkpt>
      <trkpt lat="46.63468" lon="5.91886">
        <ele>799.8</ele>
        <time>2014-06-29T09:09:08Z</time>
      </trkpt>
      <trkpt lat="46.63467" lon="5.91873">
        <ele>800.4</ele>
        <time>2014-06-29T09:09:13Z</time>
      </trkpt>
      <trkpt lat="46.63467" lon="5.9186">
        <ele>801.3</ele>
        <time>2014-06-29T09:09:19Z</time>
      </trkpt>
      <trkpt lat="46.6347" lon="5.91846">
        <ele>801.8</ele>
        <time>2014-06-29T09:09:24Z</time>
      </trkpt>
      <trkpt lat="46.63476" lon="5.91833">
        <ele>802.3</ele>
        <time>2014-06-29T09:09:28Z</time>
      </trkpt>
      <trkpt lat="46.63482" lon="5.9182">
        <ele>802.2</ele>
        <time>2014-06-29T09:09:33Z</time>
      </trkpt>
      <trkpt lat="46.63488" lon="5.91811">
        <ele>802</ele>
        <time>2014-06-29T09:09:37Z</time>
      </trkpt>
      <trkpt lat="46.63493" lon="5.91798">
        <ele>802.1</ele>
        <time>2014-06-29T09:09:42Z</time>
      </trkpt>
      <trkpt lat="46.635" lon="5.91788">
        <ele>803.2</ele>
        <time>2014-06-29T09:09:47Z</time>
      </trkpt>
      <trkpt lat="46.63507" lon="5.91778">
        <ele>804</ele>
        <time>2014-06-29T09:09:52Z</time>
      </trkpt>
      <trkpt lat="46.63515" lon="5.91769">
        <ele>804.3</ele>
        <time>2014-06-29T09:09:56Z</time>
      </trkpt>
      <trkpt lat="46.63533" lon="5.91758">
        <ele>804.9</ele>
        <time>2014-06-29T09:10:07Z</time>
      </trkpt>
      <trkpt lat="46.63543" lon="5.91752">
        <ele>805.2</ele>
        <time>2014-06-29T09:10:12Z</time>
      </trkpt>
      <trkpt lat="46.63553" lon="5.91749">
        <ele>805.3</ele>
        <time>2014-06-29T09:10:16Z</time>
      </trkpt>
      <trkpt lat="46.63564" lon="5.91742">
        <ele>805.1</ele>
        <time>2014-06-29T09:10:20Z</time>
      </trkpt>
      <trkpt lat="46.63572" lon="5.91734">
        <ele>804.9</ele>
        <time>2014-06-29T09:10:22Z</time>
      </trkpt>
      <trkpt lat="46.63581" lon="5.91725">
        <ele>804.9</ele>
        <time>2014-06-29T09:10:24Z</time>
      </trkpt>
      <trkpt lat="46.63592" lon="5.91715">
        <ele>804.5</ele>
        <time>2014-06-29T09:10:26Z</time>
      </trkpt>
      <trkpt lat="46.636" lon="5.91704">
        <ele>804</ele>
        <time>2014-06-29T09:10:28Z</time>
      </trkpt>
      <trkpt lat="46.63603" lon="5.91687">
        <ele>803.5</ele>
        <time>2014-06-29T09:10:30Z</time>
      </trkpt>
      <trkpt lat="46.63606" lon="5.91671">
        <ele>802.9</ele>
        <time>2014-06-29T09:10:32Z</time>
      </trkpt>
      <trkpt lat="46.63609" lon="5.91655">
        <ele>802.4</ele>
        <time>2014-06-29T09:10:34Z</time>
      </trkpt>
      <trkpt lat="46.63611" lon="5.91639">
        <ele>802.3</ele>
        <time>2014-06-29T09:10:36Z</time>
      </trkpt>
      <trkpt lat="46.63615" lon="5.91626">
        <ele>802.3</ele>
        <time>2014-06-29T09:10:38Z</time>
      </trkpt>
      <trkpt lat="46.63617" lon="5.91614">
        <ele>801.8</ele>
        <time>2014-06-29T09:10:40Z</time>
      </trkpt>
      <trkpt lat="46.6362" lon="5.91601">
        <ele>801.7</ele>
        <time>2014-06-29T09:10:42Z</time>
      </trkpt>
      <trkpt lat="46.63624" lon="5.91589">
        <ele>801.7</ele>
        <time>2014-06-29T09:10:44Z</time>
      </trkpt>
      <trkpt lat="46.63629" lon="5.91576">
        <ele>801.7</ele>
        <time>2014-06-29T09:10:46Z</time>
      </trkpt>
      <trkpt lat="46.63633" lon="5.91565">
        <ele>801.9</ele>
        <time>2014-06-29T09:10:48Z</time>
      </trkpt>
      <trkpt lat="46.6364" lon="5.91547">
        <ele>801.8</ele>
        <time>2014-06-29T09:10:51Z</time>
      </trkpt>
      <trkpt lat="46.63645" lon="5.91535">
        <ele>801.8</ele>
        <time>2014-06-29T09:10:53Z</time>
      </trkpt>
      <trkpt lat="46.6365" lon="5.91522">
        <ele>801.7</ele>
        <time>2014-06-29T09:10:55Z</time>
      </trkpt>
      <trkpt lat="46.63656" lon="5.91509">
        <ele>801.8</ele>
        <time>2014-06-29T09:10:57Z</time>
      </trkpt>
      <trkpt lat="46.63657" lon="5.91479">
        <ele>801.6</ele>
        <time>2014-06-29T09:11:01Z</time>
      </trkpt>
      <trkpt lat="46.63652" lon="5.91465">
        <ele>800.6</ele>
        <time>2014-06-29T09:11:05Z</time>
      </trkpt>
      <trkpt lat="46.63646" lon="5.91455">
        <ele>799.8</ele>
        <time>2014-06-29T09:11:10Z</time>
      </trkpt>
      <trkpt lat="46.63651" lon="5.91443">
        <ele>799.5</ele>
        <time>2014-06-29T09:11:14Z</time>
      </trkpt>
      <trkpt lat="46.63661" lon="5.91435">
        <ele>799.5</ele>
        <time>2014-06-29T09:11:18Z</time>
      </trkpt>
      <trkpt lat="46.63669" lon="5.91426">
        <ele>799.8</ele>
        <time>2014-06-29T09:11:22Z</time>
      </trkpt>
      <trkpt lat="46.63679" lon="5.91417">
        <ele>800.1</ele>
        <time>2014-06-29T09:11:26Z</time>
      </trkpt>
      <trkpt lat="46.63689" lon="5.91411">
        <ele>800.5</ele>
        <time>2014-06-29T09:11:29Z</time>
      </trkpt>
      <trkpt lat="46.63698" lon="5.91405">
        <ele>800.5</ele>
        <time>2014-06-29T09:11:32Z</time>
      </trkpt>
      <trkpt lat="46.63707" lon="5.91396">
        <ele>800.2</ele>
        <time>2014-06-29T09:11:36Z</time>
      </trkpt>
      <trkpt lat="46.63713" lon="5.91385">
        <ele>799.2</ele>
        <time>2014-06-29T09:11:39Z</time>
      </trkpt>
      <trkpt lat="46.63717" lon="5.91369">
        <ele>798.3</ele>
        <time>2014-06-29T09:11:42Z</time>
      </trkpt>
      <trkpt lat="46.63722" lon="5.91353">
        <ele>797</ele>
        <time>2014-06-29T09:11:45Z</time>
      </trkpt>
      <trkpt lat="46.63727" lon="5.91342">
        <ele>796.5</ele>
        <time>2014-06-29T09:11:47Z</time>
      </trkpt>
      <trkpt lat="46.63735" lon="5.91329">
        <ele>795.4</ele>
        <time>2014-06-29T09:11:50Z</time>
      </trkpt>
      <trkpt lat="46.63744" lon="5.9132">
        <ele>794.2</ele>
        <time>2014-06-29T09:11:53Z</time>
      </trkpt>
      <trkpt lat="46.63752" lon="5.91307">
        <ele>792.3</ele>
        <time>2014-06-29T09:11:56Z</time>
      </trkpt>
      <trkpt lat="46.63759" lon="5.91291">
        <ele>791.1</ele>
        <time>2014-06-29T09:11:59Z</time>
      </trkpt>
      <trkpt lat="46.63777" lon="5.91278">
        <ele>789.1</ele>
        <time>2014-06-29T09:12:06Z</time>
      </trkpt>
      <trkpt lat="46.63789" lon="5.91281">
        <ele>789.2</ele>
        <time>2014-06-29T09:13:06Z</time>
      </trkpt>
      <trkpt lat="46.63808" lon="5.91288">
        <ele>788.2</ele>
        <time>2014-06-29T09:13:12Z</time>
      </trkpt>
      <trkpt lat="46.63819" lon="5.91286">
        <ele>787.6</ele>
        <time>2014-06-29T09:13:15Z</time>
      </trkpt>
      <trkpt lat="46.63831" lon="5.91285">
        <ele>786.7</ele>
        <time>2014-06-29T09:13:18Z</time>
      </trkpt>
      <trkpt lat="46.63842" lon="5.91286">
        <ele>785.8</ele>
        <time>2014-06-29T09:13:21Z</time>
      </trkpt>
      <trkpt lat="46.63853" lon="5.91291">
        <ele>784.9</ele>
        <time>2014-06-29T09:13:24Z</time>
      </trkpt>
      <trkpt lat="46.63864" lon="5.91302">
        <ele>783.8</ele>
        <time>2014-06-29T09:13:27Z</time>
      </trkpt>
      <trkpt lat="46.63873" lon="5.91314">
        <ele>783.1</ele>
        <time>2014-06-29T09:13:30Z</time>
      </trkpt>
      <trkpt lat="46.63885" lon="5.91326">
        <ele>781.8</ele>
        <time>2014-06-29T09:13:33Z</time>
      </trkpt>
      <trkpt lat="46.63892" lon="5.91333">
        <ele>781.1</ele>
        <time>2014-06-29T09:13:35Z</time>
      </trkpt>
      <trkpt lat="46.63904" lon="5.91344">
        <ele>779.9</ele>
        <time>2014-06-29T09:13:38Z</time>
      </trkpt>
      <trkpt lat="46.63914" lon="5.91355">
        <ele>779</ele>
        <time>2014-06-29T09:13:40Z</time>
      </trkpt>
      <trkpt lat="46.63922" lon="5.91363">
        <ele>778.5</ele>
        <time>2014-06-29T09:13:42Z</time>
      </trkpt>
      <trkpt lat="46.63932" lon="5.91373">
        <ele>777.5</ele>
        <time>2014-06-29T09:13:45Z</time>
      </trkpt>
      <trkpt lat="46.6394" lon="5.9138">
        <ele>776.4</ele>
        <time>2014-06-29T09:13:48Z</time>
      </trkpt>
      <trkpt lat="46.63948" lon="5.91393">
        <ele>776</ele>
        <time>2014-06-29T09:13:51Z</time>
      </trkpt>
      <trkpt lat="46.63955" lon="5.91401">
        <ele>775.1</ele>
        <time>2014-06-29T09:13:53Z</time>
      </trkpt>
      <trkpt lat="46.63963" lon="5.9141">
        <ele>774.6</ele>
        <time>2014-06-29T09:13:55Z</time>
      </trkpt>
      <trkpt lat="46.63971" lon="5.9142">
        <ele>774.4</ele>
        <time>2014-06-29T09:13:57Z</time>
      </trkpt>
      <trkpt lat="46.63979" lon="5.91434">
        <ele>773.6</ele>
        <time>2014-06-29T09:14:00Z</time>
      </trkpt>
      <trkpt lat="46.63986" lon="5.91446">
        <ele>772.6</ele>
        <time>2014-06-29T09:14:03Z</time>
      </trkpt>
      <trkpt lat="46.63995" lon="5.91457">
        <ele>771.7</ele>
        <time>2014-06-29T09:14:06Z</time>
      </trkpt>
      <trkpt lat="46.64005" lon="5.91467">
        <ele>771.2</ele>
        <time>2014-06-29T09:14:09Z</time>
      </trkpt>
      <trkpt lat="46.64024" lon="5.91485">
        <ele>771.9</ele>
        <time>2014-06-29T09:14:17Z</time>
      </trkpt>
      <trkpt lat="46.64032" lon="5.91493">
        <ele>772.4</ele>
        <time>2014-06-29T09:14:20Z</time>
      </trkpt>
      <trkpt lat="46.64039" lon="5.91502">
        <ele>772.4</ele>
        <time>2014-06-29T09:14:23Z</time>
      </trkpt>
      <trkpt lat="46.64047" lon="5.9151">
        <ele>772.8</ele>
        <time>2014-06-29T09:14:26Z</time>
      </trkpt>
      <trkpt lat="46.64056" lon="5.91516">
        <ele>773.1</ele>
        <time>2014-06-29T09:14:30Z</time>
      </trkpt>
      <trkpt lat="46.64066" lon="5.91525">
        <ele>773.1</ele>
        <time>2014-06-29T09:14:34Z</time>
      </trkpt>
      <trkpt lat="46.64074" lon="5.91533">
        <ele>773.4</ele>
        <time>2014-06-29T09:14:37Z</time>
      </trkpt>
      <trkpt lat="46.64082" lon="5.9154">
        <ele>773.5</ele>
        <time>2014-06-29T09:14:40Z</time>
      </trkpt>
      <trkpt lat="46.6409" lon="5.91549">
        <ele>773.4</ele>
        <time>2014-06-29T09:14:43Z</time>
      </trkpt>
      <trkpt lat="46.64099" lon="5.91557">
        <ele>773.5</ele>
        <time>2014-06-29T09:14:46Z</time>
      </trkpt>
      <trkpt lat="46.64108" lon="5.91567">
        <ele>773.3</ele>
        <time>2014-06-29T09:14:49Z</time>
      </trkpt>
      <trkpt lat="46.64119" lon="5.91576">
        <ele>773</ele>
        <time>2014-06-29T09:14:52Z</time>
      </trkpt>
      <trkpt lat="46.64129" lon="5.91585">
        <ele>772.7</ele>
        <time>2014-06-29T09:14:55Z</time>
      </trkpt>
      <trkpt lat="46.64138" lon="5.91594">
        <ele>772.1</ele>
        <time>2014-06-29T09:14:58Z</time>
      </trkpt>
      <trkpt lat="46.64149" lon="5.91601">
        <ele>771.7</ele>
        <time>2014-06-29T09:15:01Z</time>
      </trkpt>
      <trkpt lat="46.64158" lon="5.91609">
        <ele>771</ele>
        <time>2014-06-29T09:15:04Z</time>
      </trkpt>
      <trkpt lat="46.64168" lon="5.91617">
        <ele>769.3</ele>
        <time>2014-06-29T09:15:09Z</time>
      </trkpt>
      <trkpt lat="46.64178" lon="5.91626">
        <ele>767.3</ele>
        <time>2014-06-29T09:15:13Z</time>
      </trkpt>
      <trkpt lat="46.64192" lon="5.91647">
        <ele>763.7</ele>
        <time>2014-06-29T09:15:38Z</time>
      </trkpt>
      <trkpt lat="46.64197" lon="5.91659">
        <ele>764.2</ele>
        <time>2014-06-29T09:15:42Z</time>
      </trkpt>
      <trkpt lat="46.64204" lon="5.91669">
        <ele>764.6</ele>
        <time>2014-06-29T09:15:46Z</time>
      </trkpt>
      <trkpt lat="46.64212" lon="5.91677">
        <ele>765.2</ele>
        <time>2014-06-29T09:15:49Z</time>
      </trkpt>
      <trkpt lat="46.64218" lon="5.91686">
        <ele>765.5</ele>
        <time>2014-06-29T09:15:52Z</time>
      </trkpt>
      <trkpt lat="46.64224" lon="5.91696">
        <ele>766</ele>
        <time>2014-06-29T09:15:55Z</time>
      </trkpt>
      <trkpt lat="46.6423" lon="5.91706">
        <ele>766.8</ele>
        <time>2014-06-29T09:15:59Z</time>
      </trkpt>
      <trkpt lat="46.64237" lon="5.91716">
        <ele>767.4</ele>
        <time>2014-06-29T09:16:03Z</time>
      </trkpt>
      <trkpt lat="46.64243" lon="5.91728">
        <ele>768.2</ele>
        <time>2014-06-29T09:16:08Z</time>
      </trkpt>
      <trkpt lat="46.6425" lon="5.91741">
        <ele>768.8</ele>
        <time>2014-06-29T09:16:12Z</time>
      </trkpt>
      <trkpt lat="46.64256" lon="5.91752">
        <ele>768.7</ele>
        <time>2014-06-29T09:16:16Z</time>
      </trkpt>
      <trkpt lat="46.64268" lon="5.91775">
        <ele>770.3</ele>
        <time>2014-06-29T09:16:25Z</time>
      </trkpt>
      <trkpt lat="46.64278" lon="5.91781">
        <ele>770.8</ele>
        <time>2014-06-29T09:16:29Z</time>
      </trkpt>
      <trkpt lat="46.64288" lon="5.91785">
        <ele>770.7</ele>
        <time>2014-06-29T09:16:33Z</time>
      </trkpt>
      <trkpt lat="46.64299" lon="5.91786">
        <ele>770.6</ele>
        <time>2014-06-29T09:16:37Z</time>
      </trkpt>
      <trkpt lat="46.64308" lon="5.91787">
        <ele>770.6</ele>
        <time>2014-06-29T09:16:40Z</time>
      </trkpt>
      <trkpt lat="46.64318" lon="5.91794">
        <ele>770.5</ele>
        <time>2014-06-29T09:16:43Z</time>
      </trkpt>
      <trkpt lat="46.64327" lon="5.91797">
        <ele>770.4</ele>
        <time>2014-06-29T09:16:46Z</time>
      </trkpt>
      <trkpt lat="46.64333" lon="5.91807">
        <ele>770.8</ele>
        <time>2014-06-29T09:16:52Z</time>
      </trkpt>
      <trkpt lat="46.64342" lon="5.91811">
        <ele>771.3</ele>
        <time>2014-06-29T09:17:00Z</time>
      </trkpt>
      <trkpt lat="46.64354" lon="5.91811">
        <ele>770.8</ele>
        <time>2014-06-29T09:17:24Z</time>
      </trkpt>
      <trkpt lat="46.64369" lon="5.9183">
        <ele>770.6</ele>
        <time>2014-06-29T09:17:33Z</time>
      </trkpt>
      <trkpt lat="46.64378" lon="5.9184">
        <ele>770.2</ele>
        <time>2014-06-29T09:17:41Z</time>
      </trkpt>
      <trkpt lat="46.64386" lon="5.9185">
        <ele>770.1</ele>
        <time>2014-06-29T09:17:47Z</time>
      </trkpt>
      <trkpt lat="46.64392" lon="5.9186">
        <ele>769.9</ele>
        <time>2014-06-29T09:17:51Z</time>
      </trkpt>
      <trkpt lat="46.64401" lon="5.91872">
        <ele>770.3</ele>
        <time>2014-06-29T09:17:56Z</time>
      </trkpt>
      <trkpt lat="46.64407" lon="5.91883">
        <ele>770.1</ele>
        <time>2014-06-29T09:17:59Z</time>
      </trkpt>
      <trkpt lat="46.64414" lon="5.91895">
        <ele>770</ele>
        <time>2014-06-29T09:18:03Z</time>
      </trkpt>
      <trkpt lat="46.64422" lon="5.91902">
        <ele>770</ele>
        <time>2014-06-29T09:18:08Z</time>
      </trkpt>
      <trkpt lat="46.64431" lon="5.91909">
        <ele>769.9</ele>
        <time>2014-06-29T09:18:13Z</time>
      </trkpt>
      <trkpt lat="46.64441" lon="5.91915">
        <ele>770.4</ele>
        <time>2014-06-29T09:18:18Z</time>
      </trkpt>
      <trkpt lat="46.64449" lon="5.9192">
        <ele>771</ele>
        <time>2014-06-29T09:18:24Z</time>
      </trkpt>
      <trkpt lat="46.64459" lon="5.91915">
        <ele>771.3</ele>
        <time>2014-06-29T09:18:29Z</time>
      </trkpt>
      <trkpt lat="46.6449" lon="5.91913">
        <ele>770</ele>
        <time>2014-06-29T09:18:41Z</time>
      </trkpt>
      <trkpt lat="46.64503" lon="5.91894">
        <ele>770.5</ele>
        <time>2014-06-29T09:18:46Z</time>
      </trkpt>
      <trkpt lat="46.64512" lon="5.91884">
        <ele>770.6</ele>
        <time>2014-06-29T09:18:49Z</time>
      </trkpt>
      <trkpt lat="46.64515" lon="5.91871">
        <ele>771</ele>
        <time>2014-06-29T09:18:52Z</time>
      </trkpt>
      <trkpt lat="46.64518" lon="5.91857">
        <ele>770.4</ele>
        <time>2014-06-29T09:18:55Z</time>
      </trkpt>
      <trkpt lat="46.64517" lon="5.91839">
        <ele>770.3</ele>
        <time>2014-06-29T09:18:58Z</time>
      </trkpt>
      <trkpt lat="46.64521" lon="5.91824">
        <ele>770.3</ele>
        <time>2014-06-29T09:19:01Z</time>
      </trkpt>
      <trkpt lat="46.64525" lon="5.9181">
        <ele>770.3</ele>
        <time>2014-06-29T09:19:04Z</time>
      </trkpt>
      <trkpt lat="46.64532" lon="5.91796">
        <ele>769.8</ele>
        <time>2014-06-29T09:19:07Z</time>
      </trkpt>
      <trkpt lat="46.64538" lon="5.91786">
        <ele>769.4</ele>
        <time>2014-06-29T09:19:09Z</time>
      </trkpt>
      <trkpt lat="46.64544" lon="5.91774">
        <ele>768.5</ele>
        <time>2014-06-29T09:19:11Z</time>
      </trkpt>
      <trkpt lat="46.64551" lon="5.91761">
        <ele>767.8</ele>
        <time>2014-06-29T09:19:13Z</time>
      </trkpt>
      <trkpt lat="46.6456" lon="5.91749">
        <ele>766.8</ele>
        <time>2014-06-29T09:19:15Z</time>
      </trkpt>
      <trkpt lat="46.64568" lon="5.9174">
        <ele>765.4</ele>
        <time>2014-06-29T09:19:18Z</time>
      </trkpt>
      <trkpt lat="46.64575" lon="5.91731">
        <ele>764.6</ele>
        <time>2014-06-29T09:19:21Z</time>
      </trkpt>
      <trkpt lat="46.64583" lon="5.91721">
        <ele>764.4</ele>
        <time>2014-06-29T09:19:24Z</time>
      </trkpt>
      <trkpt lat="46.64592" lon="5.91707">
        <ele>763.8</ele>
        <time>2014-06-29T09:19:27Z</time>
      </trkpt>
      <trkpt lat="46.646" lon="5.91698">
        <ele>763.7</ele>
        <time>2014-06-29T09:19:29Z</time>
      </trkpt>
      <trkpt lat="46.64607" lon="5.91689">
        <ele>763.3</ele>
        <time>2014-06-29T09:19:31Z</time>
      </trkpt>
      <trkpt lat="46.64625" lon="5.9166">
        <ele>763</ele>
        <time>2014-06-29T09:19:37Z</time>
      </trkpt>
      <trkpt lat="46.64631" lon="5.91644">
        <ele>763.2</ele>
        <time>2014-06-29T09:19:40Z</time>
      </trkpt>
      <trkpt lat="46.64636" lon="5.91629">
        <ele>763.1</ele>
        <time>2014-06-29T09:19:43Z</time>
      </trkpt>
      <trkpt lat="46.64638" lon="5.91612">
        <ele>764</ele>
        <time>2014-06-29T09:19:46Z</time>
      </trkpt>
      <trkpt lat="46.6464" lon="5.91594">
        <ele>764</ele>
        <time>2014-06-29T09:19:49Z</time>
      </trkpt>
      <trkpt lat="46.64641" lon="5.91574">
        <ele>764</ele>
        <time>2014-06-29T09:19:52Z</time>
      </trkpt>
      <trkpt lat="46.64641" lon="5.91561">
        <ele>764.1</ele>
        <time>2014-06-29T09:19:54Z</time>
      </trkpt>
      <trkpt lat="46.64641" lon="5.91547">
        <ele>763.9</ele>
        <time>2014-06-29T09:19:56Z</time>
      </trkpt>
      <trkpt lat="46.64642" lon="5.91533">
        <ele>763.8</ele>
        <time>2014-06-29T09:19:58Z</time>
      </trkpt>
      <trkpt lat="46.64641" lon="5.91515">
        <ele>763.8</ele>
        <time>2014-06-29T09:20:01Z</time>
      </trkpt>
      <trkpt lat="46.6464" lon="5.91499">
        <ele>763.3</ele>
        <time>2014-06-29T09:20:04Z</time>
      </trkpt>
      <trkpt lat="46.64637" lon="5.91483">
        <ele>763.4</ele>
        <time>2014-06-29T09:20:07Z</time>
      </trkpt>
      <trkpt lat="46.6463" lon="5.91467">
        <ele>763.5</ele>
        <time>2014-06-29T09:20:10Z</time>
      </trkpt>
      <trkpt lat="46.64623" lon="5.91458">
        <ele>763.3</ele>
        <time>2014-06-29T09:20:12Z</time>
      </trkpt>
      <trkpt lat="46.64614" lon="5.91452">
        <ele>763.2</ele>
        <time>2014-06-29T09:20:14Z</time>
      </trkpt>
      <trkpt lat="46.64604" lon="5.91445">
        <ele>763.2</ele>
        <time>2014-06-29T09:20:16Z</time>
      </trkpt>
      <trkpt lat="46.64595" lon="5.91438">
        <ele>763.1</ele>
        <time>2014-06-29T09:20:18Z</time>
      </trkpt>
      <trkpt lat="46.64585" lon="5.91431">
        <ele>762.9</ele>
        <time>2014-06-29T09:20:20Z</time>
      </trkpt>
      <trkpt lat="46.64576" lon="5.91425">
        <ele>762.9</ele>
        <time>2014-06-29T09:20:22Z</time>
      </trkpt>
      <trkpt lat="46.64567" lon="5.91419">
        <ele>763</ele>
        <time>2014-06-29T09:20:24Z</time>
      </trkpt>
      <trkpt lat="46.64558" lon="5.91411">
        <ele>762.9</ele>
        <time>2014-06-29T09:20:26Z</time>
      </trkpt>
      <trkpt lat="46.64549" lon="5.91403">
        <ele>762.8</ele>
        <time>2014-06-29T09:20:28Z</time>
      </trkpt>
      <trkpt lat="46.64541" lon="5.91394">
        <ele>762.9</ele>
        <time>2014-06-29T09:20:30Z</time>
      </trkpt>
      <trkpt lat="46.64532" lon="5.91385">
        <ele>762.9</ele>
        <time>2014-06-29T09:20:32Z</time>
      </trkpt>
      <trkpt lat="46.64516" lon="5.91366">
        <ele>762.9</ele>
        <time>2014-06-29T09:20:36Z</time>
      </trkpt>
      <trkpt lat="46.64508" lon="5.91357">
        <ele>762.9</ele>
        <time>2014-06-29T09:20:38Z</time>
      </trkpt>
      <trkpt lat="46.645" lon="5.91347">
        <ele>763</ele>
        <time>2014-06-29T09:20:40Z</time>
      </trkpt>
      <trkpt lat="46.64493" lon="5.91335">
        <ele>762.8</ele>
        <time>2014-06-29T09:20:42Z</time>
      </trkpt>
      <trkpt lat="46.64489" lon="5.91322">
        <ele>762.8</ele>
        <time>2014-06-29T09:20:44Z</time>
      </trkpt>
      <trkpt lat="46.64489" lon="5.91302">
        <ele>763</ele>
        <time>2014-06-29T09:20:47Z</time>
      </trkpt>
      <trkpt lat="46.64491" lon="5.91289">
        <ele>763.3</ele>
        <time>2014-06-29T09:20:49Z</time>
      </trkpt>
      <trkpt lat="46.64493" lon="5.91275">
        <ele>763.3</ele>
        <time>2014-06-29T09:20:51Z</time>
      </trkpt>
      <trkpt lat="46.64495" lon="5.91259">
        <ele>763.2</ele>
        <time>2014-06-29T09:20:53Z</time>
      </trkpt>
      <trkpt lat="46.64497" lon="5.91243">
        <ele>763.1</ele>
        <time>2014-06-29T09:20:55Z</time>
      </trkpt>
      <trkpt lat="46.64499" lon="5.91227">
        <ele>762.5</ele>
        <time>2014-06-29T09:20:57Z</time>
      </trkpt>
      <trkpt lat="46.645" lon="5.91212">
        <ele>762.4</ele>
        <time>2014-06-29T09:20:59Z</time>
      </trkpt>
      <trkpt lat="46.64501" lon="5.91196">
        <ele>762.4</ele>
        <time>2014-06-29T09:21:01Z</time>
      </trkpt>
      <trkpt lat="46.64502" lon="5.91181">
        <ele>762.4</ele>
        <time>2014-06-29T09:21:03Z</time>
      </trkpt>
      <trkpt lat="46.64501" lon="5.91166">
        <ele>762.8</ele>
        <time>2014-06-29T09:21:05Z</time>
      </trkpt>
      <trkpt lat="46.64499" lon="5.91151">
        <ele>762.5</ele>
        <time>2014-06-29T09:21:07Z</time>
      </trkpt>
      <trkpt lat="46.64496" lon="5.91136">
        <ele>762.5</ele>
        <time>2014-06-29T09:21:09Z</time>
      </trkpt>
      <trkpt lat="46.64493" lon="5.91122">
        <ele>762.3</ele>
        <time>2014-06-29T09:21:11Z</time>
      </trkpt>
      <trkpt lat="46.64489" lon="5.91109">
        <ele>762</ele>
        <time>2014-06-29T09:21:13Z</time>
      </trkpt>
      <trkpt lat="46.64486" lon="5.91096">
        <ele>762.1</ele>
        <time>2014-06-29T09:21:15Z</time>
      </trkpt>
      <trkpt lat="46.64482" lon="5.91077">
        <ele>762.3</ele>
        <time>2014-06-29T09:21:18Z</time>
      </trkpt>
      <trkpt lat="46.64479" lon="5.91064">
        <ele>762.4</ele>
        <time>2014-06-29T09:21:20Z</time>
      </trkpt>
      <trkpt lat="46.64476" lon="5.9105">
        <ele>762.6</ele>
        <time>2014-06-29T09:21:22Z</time>
      </trkpt>
      <trkpt lat="46.64472" lon="5.91037">
        <ele>762.4</ele>
        <time>2014-06-29T09:21:24Z</time>
      </trkpt>
      <trkpt lat="46.64468" lon="5.91024">
        <ele>762.5</ele>
        <time>2014-06-29T09:21:26Z</time>
      </trkpt>
      <trkpt lat="46.64464" lon="5.91011">
        <ele>762.5</ele>
        <time>2014-06-29T09:21:28Z</time>
      </trkpt>
      <trkpt lat="46.6446" lon="5.90999">
        <ele>762.6</ele>
        <time>2014-06-29T09:21:30Z</time>
      </trkpt>
      <trkpt lat="46.64455" lon="5.90981">
        <ele>762.7</ele>
        <time>2014-06-29T09:21:33Z</time>
      </trkpt>
      <trkpt lat="46.64449" lon="5.90953">
        <ele>762.8</ele>
        <time>2014-06-29T09:21:37Z</time>
      </trkpt>
      <trkpt lat="46.64445" lon="5.9094">
        <ele>762.8</ele>
        <time>2014-06-29T09:21:39Z</time>
      </trkpt>
      <trkpt lat="46.64442" lon="5.90927">
        <ele>763</ele>
        <time>2014-06-29T09:21:41Z</time>
      </trkpt>
      <trkpt lat="46.64438" lon="5.90914">
        <ele>762.8</ele>
        <time>2014-06-29T09:21:43Z</time>
      </trkpt>
      <trkpt lat="46.64435" lon="5.90901">
        <ele>762.7</ele>
        <time>2014-06-29T09:21:45Z</time>
      </trkpt>
      <trkpt lat="46.64433" lon="5.90888">
        <ele>762.6</ele>
        <time>2014-06-29T09:21:47Z</time>
      </trkpt>
      <trkpt lat="46.64429" lon="5.90875">
        <ele>762.6</ele>
        <time>2014-06-29T09:21:49Z</time>
      </trkpt>
      <trkpt lat="46.64426" lon="5.90862">
        <ele>762.7</ele>
        <time>2014-06-29T09:21:51Z</time>
      </trkpt>
      <trkpt lat="46.64424" lon="5.90848">
        <ele>762.7</ele>
        <time>2014-06-29T09:21:53Z</time>
      </trkpt>
      <trkpt lat="46.64422" lon="5.90835">
        <ele>762.8</ele>
        <time>2014-06-29T09:21:55Z</time>
      </trkpt>
      <trkpt lat="46.6442" lon="5.90821">
        <ele>762.7</ele>
        <time>2014-06-29T09:21:57Z</time>
      </trkpt>
      <trkpt lat="46.64418" lon="5.90808">
        <ele>762.9</ele>
        <time>2014-06-29T09:21:59Z</time>
      </trkpt>
      <trkpt lat="46.64418" lon="5.90795">
        <ele>762.4</ele>
        <time>2014-06-29T09:22:01Z</time>
      </trkpt>
      <trkpt lat="46.64418" lon="5.90781">
        <ele>762.3</ele>
        <time>2014-06-29T09:22:03Z</time>
      </trkpt>
      <trkpt lat="46.64417" lon="5.90767">
        <ele>762.3</ele>
        <time>2014-06-29T09:22:05Z</time>
      </trkpt>
      <trkpt lat="46.64416" lon="5.90754">
        <ele>762.6</ele>
        <time>2014-06-29T09:22:07Z</time>
      </trkpt>
      <trkpt lat="46.64415" lon="5.9074">
        <ele>762.6</ele>
        <time>2014-06-29T09:22:09Z</time>
      </trkpt>
      <trkpt lat="46.64415" lon="5.90727">
        <ele>762.9</ele>
        <time>2014-06-29T09:22:11Z</time>
      </trkpt>
      <trkpt lat="46.64414" lon="5.90713">
        <ele>762.6</ele>
        <time>2014-06-29T09:22:13Z</time>
      </trkpt>
      <trkpt lat="46.64412" lon="5.907">
        <ele>762.6</ele>
        <time>2014-06-29T09:22:15Z</time>
      </trkpt>
      <trkpt lat="46.6441" lon="5.90687">
        <ele>762.8</ele>
        <time>2014-06-29T09:22:17Z</time>
      </trkpt>
      <trkpt lat="46.64408" lon="5.90673">
        <ele>762.5</ele>
        <time>2014-06-29T09:22:19Z</time>
      </trkpt>
      <trkpt lat="46.64405" lon="5.90659">
        <ele>762.5</ele>
        <time>2014-06-29T09:22:21Z</time>
      </trkpt>
      <trkpt lat="46.64402" lon="5.90646">
        <ele>762.4</ele>
        <time>2014-06-29T09:22:23Z</time>
      </trkpt>
      <trkpt lat="46.64398" lon="5.90633">
        <ele>762.4</ele>
        <time>2014-06-29T09:22:25Z</time>
      </trkpt>
      <trkpt lat="46.64395" lon="5.90619">
        <ele>762.4</ele>
        <time>2014-06-29T09:22:27Z</time>
      </trkpt>
      <trkpt lat="46.64392" lon="5.90605">
        <ele>762.3</ele>
        <time>2014-06-29T09:22:29Z</time>
      </trkpt>
      <trkpt lat="46.6439" lon="5.90592">
        <ele>762.3</ele>
        <time>2014-06-29T09:22:31Z</time>
      </trkpt>
      <trkpt lat="46.6439" lon="5.90578">
        <ele>762.5</ele>
        <time>2014-06-29T09:22:33Z</time>
      </trkpt>
      <trkpt lat="46.6439" lon="5.90563">
        <ele>762.5</ele>
        <time>2014-06-29T09:22:35Z</time>
      </trkpt>
      <trkpt lat="46.64393" lon="5.90535">
        <ele>763.1</ele>
        <time>2014-06-29T09:22:39Z</time>
      </trkpt>
      <trkpt lat="46.64395" lon="5.90521">
        <ele>763.1</ele>
        <time>2014-06-29T09:22:41Z</time>
      </trkpt>
      <trkpt lat="46.64394" lon="5.90507">
        <ele>763</ele>
        <time>2014-06-29T09:22:43Z</time>
      </trkpt>
      <trkpt lat="46.64393" lon="5.90494">
        <ele>762.9</ele>
        <time>2014-06-29T09:22:45Z</time>
      </trkpt>
      <trkpt lat="46.64392" lon="5.9048">
        <ele>763.2</ele>
        <time>2014-06-29T09:22:47Z</time>
      </trkpt>
      <trkpt lat="46.64389" lon="5.90462">
        <ele>763.7</ele>
        <time>2014-06-29T09:22:50Z</time>
      </trkpt>
      <trkpt lat="46.64386" lon="5.90445">
        <ele>764.3</ele>
        <time>2014-06-29T09:22:53Z</time>
      </trkpt>
      <trkpt lat="46.64381" lon="5.9043">
        <ele>764.4</ele>
        <time>2014-06-29T09:22:56Z</time>
      </trkpt>
      <trkpt lat="46.64376" lon="5.90415">
        <ele>765.3</ele>
        <time>2014-06-29T09:23:00Z</time>
      </trkpt>
      <trkpt lat="46.64373" lon="5.90402">
        <ele>765.7</ele>
        <time>2014-06-29T09:23:03Z</time>
      </trkpt>
      <trkpt lat="46.64366" lon="5.90393">
        <ele>765.8</ele>
        <time>2014-06-29T09:23:06Z</time>
      </trkpt>
      <trkpt lat="46.64358" lon="5.90388">
        <ele>766</ele>
        <time>2014-06-29T09:23:09Z</time>
      </trkpt>
      <trkpt lat="46.64347" lon="5.90387">
        <ele>766</ele>
        <time>2014-06-29T09:23:12Z</time>
      </trkpt>
      <trkpt lat="46.64336" lon="5.90387">
        <ele>766</ele>
        <time>2014-06-29T09:23:15Z</time>
      </trkpt>
      <trkpt lat="46.64324" lon="5.90387">
        <ele>765.9</ele>
        <time>2014-06-29T09:23:18Z</time>
      </trkpt>
      <trkpt lat="46.64313" lon="5.90387">
        <ele>766.2</ele>
        <time>2014-06-29T09:23:21Z</time>
      </trkpt>
      <trkpt lat="46.64302" lon="5.9039">
        <ele>767.3</ele>
        <time>2014-06-29T09:23:25Z</time>
      </trkpt>
      <trkpt lat="46.64293" lon="5.90395">
        <ele>768</ele>
        <time>2014-06-29T09:23:30Z</time>
      </trkpt>
      <trkpt lat="46.64284" lon="5.90405">
        <ele>769.2</ele>
        <time>2014-06-29T09:23:35Z</time>
      </trkpt>
      <trkpt lat="46.64275" lon="5.90416">
        <ele>770.5</ele>
        <time>2014-06-29T09:23:39Z</time>
      </trkpt>
      <trkpt lat="46.64257" lon="5.9043">
        <ele>771.5</ele>
        <time>2014-06-29T09:23:46Z</time>
      </trkpt>
      <trkpt lat="46.64248" lon="5.90432">
        <ele>772</ele>
        <time>2014-06-29T09:23:50Z</time>
      </trkpt>
      <trkpt lat="46.64239" lon="5.90426">
        <ele>772.3</ele>
        <time>2014-06-29T09:23:54Z</time>
      </trkpt>
      <trkpt lat="46.64234" lon="5.90414">
        <ele>773.3</ele>
        <time>2014-06-29T09:23:58Z</time>
      </trkpt>
      <trkpt lat="46.64229" lon="5.904">
        <ele>774.4</ele>
        <time>2014-06-29T09:24:03Z</time>
      </trkpt>
      <trkpt lat="46.64226" lon="5.90385">
        <ele>775.3</ele>
        <time>2014-06-29T09:24:08Z</time>
      </trkpt>
      <trkpt lat="46.64224" lon="5.9037">
        <ele>776.3</ele>
        <time>2014-06-29T09:24:13Z</time>
      </trkpt>
      <trkpt lat="46.6422" lon="5.90357">
        <ele>777.5</ele>
        <time>2014-06-29T09:24:18Z</time>
      </trkpt>
      <trkpt lat="46.64216" lon="5.90345">
        <ele>778.4</ele>
        <time>2014-06-29T09:24:23Z</time>
      </trkpt>
      <trkpt lat="46.64207" lon="5.90337">
        <ele>779.1</ele>
        <time>2014-06-29T09:24:29Z</time>
      </trkpt>
      <trkpt lat="46.64197" lon="5.90331">
        <ele>779.7</ele>
        <time>2014-06-29T09:24:34Z</time>
      </trkpt>
      <trkpt lat="46.64188" lon="5.90328">
        <ele>779.8</ele>
        <time>2014-06-29T09:24:38Z</time>
      </trkpt>
      <trkpt lat="46.64178" lon="5.90324">
        <ele>780.1</ele>
        <time>2014-06-29T09:24:44Z</time>
      </trkpt>
      <trkpt lat="46.64158" lon="5.90318">
        <ele>782.2</ele>
        <time>2014-06-29T09:24:57Z</time>
      </trkpt>
      <trkpt lat="46.6415" lon="5.90312">
        <ele>783.2</ele>
        <time>2014-06-29T09:25:05Z</time>
      </trkpt>
      <trkpt lat="46.64143" lon="5.90305">
        <ele>785.3</ele>
        <time>2014-06-29T09:25:14Z</time>
      </trkpt>
      <trkpt lat="46.64135" lon="5.90297">
        <ele>787.6</ele>
        <time>2014-06-29T09:25:25Z</time>
      </trkpt>
      <trkpt lat="46.6413" lon="5.90285">
        <ele>790.5</ele>
        <time>2014-06-29T09:25:36Z</time>
      </trkpt>
      <trkpt lat="46.64123" lon="5.90274">
        <ele>792.4</ele>
        <time>2014-06-29T09:25:53Z</time>
      </trkpt>
      <trkpt lat="46.64107" lon="5.90262">
        <ele>795.4</ele>
        <time>2014-06-29T09:26:13Z</time>
      </trkpt>
      <trkpt lat="46.64099" lon="5.90248">
        <ele>797.2</ele>
        <time>2014-06-29T09:26:37Z</time>
      </trkpt>
      <trkpt lat="46.64092" lon="5.90238">
        <ele>798.9</ele>
        <time>2014-06-29T09:26:52Z</time>
      </trkpt>
      <trkpt lat="46.64084" lon="5.90231">
        <ele>800.9</ele>
        <time>2014-06-29T09:27:05Z</time>
      </trkpt>
      <trkpt lat="46.64072" lon="5.90209">
        <ele>804.7</ele>
        <time>2014-06-29T09:27:34Z</time>
      </trkpt>
      <trkpt lat="46.64065" lon="5.90199">
        <ele>805.8</ele>
        <time>2014-06-29T09:27:40Z</time>
      </trkpt>
      <trkpt lat="46.6406" lon="5.90187">
        <ele>806.7</ele>
        <time>2014-06-29T09:27:46Z</time>
      </trkpt>
      <trkpt lat="46.64054" lon="5.90175">
        <ele>807.1</ele>
        <time>2014-06-29T09:27:52Z</time>
      </trkpt>
      <trkpt lat="46.64048" lon="5.90164">
        <ele>808.1</ele>
        <time>2014-06-29T09:27:58Z</time>
      </trkpt>
      <trkpt lat="46.64042" lon="5.90152">
        <ele>808.6</ele>
        <time>2014-06-29T09:28:04Z</time>
      </trkpt>
      <trkpt lat="46.64036" lon="5.90139">
        <ele>809.4</ele>
        <time>2014-06-29T09:28:10Z</time>
      </trkpt>
      <trkpt lat="46.64024" lon="5.90114">
        <ele>810.3</ele>
        <time>2014-06-29T09:28:19Z</time>
      </trkpt>
      <trkpt lat="46.64019" lon="5.90101">
        <ele>810.4</ele>
        <time>2014-06-29T09:28:23Z</time>
      </trkpt>
      <trkpt lat="46.64011" lon="5.90091">
        <ele>810.6</ele>
        <time>2014-06-29T09:28:27Z</time>
      </trkpt>
      <trkpt lat="46.64002" lon="5.90084">
        <ele>811.3</ele>
        <time>2014-06-29T09:28:31Z</time>
      </trkpt>
      <trkpt lat="46.63993" lon="5.90076">
        <ele>811.9</ele>
        <time>2014-06-29T09:28:35Z</time>
      </trkpt>
      <trkpt lat="46.63987" lon="5.90067">
        <ele>812.3</ele>
        <time>2014-06-29T09:28:39Z</time>
      </trkpt>
      <trkpt lat="46.63979" lon="5.9006">
        <ele>813</ele>
        <time>2014-06-29T09:28:43Z</time>
      </trkpt>
      <trkpt lat="46.63971" lon="5.90053">
        <ele>813.8</ele>
        <time>2014-06-29T09:28:47Z</time>
      </trkpt>
      <trkpt lat="46.63962" lon="5.90047">
        <ele>814.5</ele>
        <time>2014-06-29T09:28:52Z</time>
      </trkpt>
      <trkpt lat="46.63952" lon="5.90041">
        <ele>815.4</ele>
        <time>2014-06-29T09:28:57Z</time>
      </trkpt>
      <trkpt lat="46.63943" lon="5.90036">
        <ele>815.3</ele>
        <time>2014-06-29T09:29:01Z</time>
      </trkpt>
      <trkpt lat="46.63933" lon="5.90031">
        <ele>815.5</ele>
        <time>2014-06-29T09:29:05Z</time>
      </trkpt>
      <trkpt lat="46.63924" lon="5.90025">
        <ele>816</ele>
        <time>2014-06-29T09:29:09Z</time>
      </trkpt>
      <trkpt lat="46.63915" lon="5.90022">
        <ele>815.8</ele>
        <time>2014-06-29T09:29:12Z</time>
      </trkpt>
      <trkpt lat="46.63891" lon="5.90021">
        <ele>815.3</ele>
        <time>2014-06-29T09:29:18Z</time>
      </trkpt>
      <trkpt lat="46.63881" lon="5.90021">
        <ele>815.2</ele>
        <time>2014-06-29T09:29:20Z</time>
      </trkpt>
      <trkpt lat="46.63871" lon="5.90014">
        <ele>814.9</ele>
        <time>2014-06-29T09:29:22Z</time>
      </trkpt>
      <trkpt lat="46.6386" lon="5.90006">
        <ele>814.2</ele>
        <time>2014-06-29T09:29:24Z</time>
      </trkpt>
      <trkpt lat="46.63847" lon="5.89999">
        <ele>813.6</ele>
        <time>2014-06-29T09:29:26Z</time>
      </trkpt>
      <trkpt lat="46.63836" lon="5.89993">
        <ele>813</ele>
        <time>2014-06-29T09:29:28Z</time>
      </trkpt>
      <trkpt lat="46.63824" lon="5.89988">
        <ele>812.5</ele>
        <time>2014-06-29T09:29:30Z</time>
      </trkpt>
      <trkpt lat="46.63813" lon="5.89983">
        <ele>812.1</ele>
        <time>2014-06-29T09:29:32Z</time>
      </trkpt>
      <trkpt lat="46.63803" lon="5.89978">
        <ele>811.4</ele>
        <time>2014-06-29T09:29:34Z</time>
      </trkpt>
      <trkpt lat="46.63792" lon="5.89974">
        <ele>811</ele>
        <time>2014-06-29T09:29:36Z</time>
      </trkpt>
      <trkpt lat="46.63783" lon="5.89972">
        <ele>810.5</ele>
        <time>2014-06-29T09:29:38Z</time>
      </trkpt>
      <trkpt lat="46.63773" lon="5.8997">
        <ele>810.1</ele>
        <time>2014-06-29T09:29:40Z</time>
      </trkpt>
      <trkpt lat="46.63763" lon="5.89971">
        <ele>809</ele>
        <time>2014-06-29T09:29:43Z</time>
      </trkpt>
      <trkpt lat="46.63763" lon="5.89987">
        <ele>808</ele>
        <time>2014-06-29T09:29:47Z</time>
      </trkpt>
      <trkpt lat="46.6377" lon="5.9">
        <ele>807.4</ele>
        <time>2014-06-29T09:29:51Z</time>
      </trkpt>
      <trkpt lat="46.6378" lon="5.90003">
        <ele>806.7</ele>
        <time>2014-06-29T09:30:13Z</time>
      </trkpt>
      <trkpt lat="46.6376" lon="5.89981">
        <ele>803.3</ele>
        <time>2014-06-29T09:38:18Z</time>
      </trkpt>
      <trkpt lat="46.63753" lon="5.89968">
        <ele>803.4</ele>
        <time>2014-06-29T09:38:23Z</time>
      </trkpt>
      <trkpt lat="46.63747" lon="5.89958">
        <ele>803</ele>
        <time>2014-06-29T09:38:27Z</time>
      </trkpt>
      <trkpt lat="46.63746" lon="5.89944">
        <ele>802.5</ele>
        <time>2014-06-29T09:38:31Z</time>
      </trkpt>
      <trkpt lat="46.63749" lon="5.89929">
        <ele>801.9</ele>
        <time>2014-06-29T09:38:34Z</time>
      </trkpt>
      <trkpt lat="46.63752" lon="5.8991">
        <ele>801.4</ele>
        <time>2014-06-29T09:38:37Z</time>
      </trkpt>
      <trkpt lat="46.63754" lon="5.89897">
        <ele>801.2</ele>
        <time>2014-06-29T09:38:39Z</time>
      </trkpt>
      <trkpt lat="46.63756" lon="5.8988">
        <ele>801.1</ele>
        <time>2014-06-29T09:38:42Z</time>
      </trkpt>
      <trkpt lat="46.63758" lon="5.89867">
        <ele>801.2</ele>
        <time>2014-06-29T09:38:45Z</time>
      </trkpt>
      <trkpt lat="46.63759" lon="5.89852">
        <ele>802.1</ele>
        <time>2014-06-29T09:38:49Z</time>
      </trkpt>
      <trkpt lat="46.63762" lon="5.89839">
        <ele>802.9</ele>
        <time>2014-06-29T09:38:54Z</time>
      </trkpt>
      <trkpt lat="46.6376" lon="5.89825">
        <ele>803.5</ele>
        <time>2014-06-29T09:38:59Z</time>
      </trkpt>
      <trkpt lat="46.63755" lon="5.8981">
        <ele>804.1</ele>
        <time>2014-06-29T09:39:04Z</time>
      </trkpt>
      <trkpt lat="46.63751" lon="5.89798">
        <ele>804.1</ele>
        <time>2014-06-29T09:39:08Z</time>
      </trkpt>
      <trkpt lat="46.63735" lon="5.89774">
        <ele>803.4</ele>
        <time>2014-06-29T09:39:15Z</time>
      </trkpt>
      <trkpt lat="46.63728" lon="5.89765">
        <ele>803.3</ele>
        <time>2014-06-29T09:39:19Z</time>
      </trkpt>
      <trkpt lat="46.63721" lon="5.89757">
        <ele>804.3</ele>
        <time>2014-06-29T09:39:27Z</time>
      </trkpt>
      <trkpt lat="46.63713" lon="5.8975">
        <ele>805.5</ele>
        <time>2014-06-29T09:39:33Z</time>
      </trkpt>
      <trkpt lat="46.63705" lon="5.89742">
        <ele>805</ele>
        <time>2014-06-29T09:39:37Z</time>
      </trkpt>
      <trkpt lat="46.63693" lon="5.89736">
        <ele>804.7</ele>
        <time>2014-06-29T09:39:40Z</time>
      </trkpt>
      <trkpt lat="46.63681" lon="5.89733">
        <ele>804</ele>
        <time>2014-06-29T09:39:43Z</time>
      </trkpt>
      <trkpt lat="46.63671" lon="5.89727">
        <ele>803.9</ele>
        <time>2014-06-29T09:39:47Z</time>
      </trkpt>
      <trkpt lat="46.6366" lon="5.8972">
        <ele>803.9</ele>
        <time>2014-06-29T09:39:51Z</time>
      </trkpt>
      <trkpt lat="46.63652" lon="5.89713">
        <ele>803.8</ele>
        <time>2014-06-29T09:39:54Z</time>
      </trkpt>
      <trkpt lat="46.63643" lon="5.89708">
        <ele>803.6</ele>
        <time>2014-06-29T09:39:57Z</time>
      </trkpt>
      <trkpt lat="46.63634" lon="5.89703">
        <ele>803.7</ele>
        <time>2014-06-29T09:40:01Z</time>
      </trkpt>
      <trkpt lat="46.63625" lon="5.89703">
        <ele>803.6</ele>
        <time>2014-06-29T09:40:04Z</time>
      </trkpt>
      <trkpt lat="46.63614" lon="5.89703">
        <ele>803.4</ele>
        <time>2014-06-29T09:40:07Z</time>
      </trkpt>
      <trkpt lat="46.63603" lon="5.89703">
        <ele>803.2</ele>
        <time>2014-06-29T09:40:10Z</time>
      </trkpt>
      <trkpt lat="46.63578" lon="5.89703">
        <ele>802.3</ele>
        <time>2014-06-29T09:40:15Z</time>
      </trkpt>
      <trkpt lat="46.63568" lon="5.89702">
        <ele>801.6</ele>
        <time>2014-06-29T09:40:17Z</time>
      </trkpt>
      <trkpt lat="46.63557" lon="5.89701">
        <ele>801.1</ele>
        <time>2014-06-29T09:40:19Z</time>
      </trkpt>
      <trkpt lat="46.63545" lon="5.89703">
        <ele>800.5</ele>
        <time>2014-06-29T09:40:21Z</time>
      </trkpt>
      <trkpt lat="46.63532" lon="5.89704">
        <ele>799.9</ele>
        <time>2014-06-29T09:40:23Z</time>
      </trkpt>
      <trkpt lat="46.6352" lon="5.89705">
        <ele>799.4</ele>
        <time>2014-06-29T09:40:25Z</time>
      </trkpt>
      <trkpt lat="46.63507" lon="5.89708">
        <ele>798.7</ele>
        <time>2014-06-29T09:40:27Z</time>
      </trkpt>
      <trkpt lat="46.63493" lon="5.89713">
        <ele>797.8</ele>
        <time>2014-06-29T09:40:29Z</time>
      </trkpt>
      <trkpt lat="46.63478" lon="5.89717">
        <ele>796.7</ele>
        <time>2014-06-29T09:40:31Z</time>
      </trkpt>
      <trkpt lat="46.63463" lon="5.89721">
        <ele>795.6</ele>
        <time>2014-06-29T09:40:33Z</time>
      </trkpt>
      <trkpt lat="46.63449" lon="5.8972">
        <ele>794.4</ele>
        <time>2014-06-29T09:40:35Z</time>
      </trkpt>
      <trkpt lat="46.63438" lon="5.89711">
        <ele>793.5</ele>
        <time>2014-06-29T09:40:37Z</time>
      </trkpt>
      <trkpt lat="46.63431" lon="5.89698">
        <ele>793</ele>
        <time>2014-06-29T09:40:39Z</time>
      </trkpt>
      <trkpt lat="46.63424" lon="5.89685">
        <ele>792.5</ele>
        <time>2014-06-29T09:40:41Z</time>
      </trkpt>
      <trkpt lat="46.63417" lon="5.89672">
        <ele>792.1</ele>
        <time>2014-06-29T09:40:43Z</time>
      </trkpt>
      <trkpt lat="46.6341" lon="5.89659">
        <ele>791.7</ele>
        <time>2014-06-29T09:40:45Z</time>
      </trkpt>
      <trkpt lat="46.63402" lon="5.89644">
        <ele>791.3</ele>
        <time>2014-06-29T09:40:47Z</time>
      </trkpt>
      <trkpt lat="46.63397" lon="5.89627">
        <ele>790.6</ele>
        <time>2014-06-29T09:40:49Z</time>
      </trkpt>
      <trkpt lat="46.63394" lon="5.89608">
        <ele>789.8</ele>
        <time>2014-06-29T09:40:51Z</time>
      </trkpt>
      <trkpt lat="46.63393" lon="5.89587">
        <ele>789.3</ele>
        <time>2014-06-29T09:40:53Z</time>
      </trkpt>
      <trkpt lat="46.63394" lon="5.89566">
        <ele>788.9</ele>
        <time>2014-06-29T09:40:55Z</time>
      </trkpt>
      <trkpt lat="46.63397" lon="5.89544">
        <ele>788.5</ele>
        <time>2014-06-29T09:40:57Z</time>
      </trkpt>
      <trkpt lat="46.63401" lon="5.89522">
        <ele>787.9</ele>
        <time>2014-06-29T09:40:59Z</time>
      </trkpt>
      <trkpt lat="46.63404" lon="5.895">
        <ele>787.3</ele>
        <time>2014-06-29T09:41:01Z</time>
      </trkpt>
      <trkpt lat="46.63401" lon="5.89478">
        <ele>786.4</ele>
        <time>2014-06-29T09:41:03Z</time>
      </trkpt>
      <trkpt lat="46.63395" lon="5.89457">
        <ele>786</ele>
        <time>2014-06-29T09:41:05Z</time>
      </trkpt>
      <trkpt lat="46.63388" lon="5.89437">
        <ele>785</ele>
        <time>2014-06-29T09:41:07Z</time>
      </trkpt>
      <trkpt lat="46.63382" lon="5.8942">
        <ele>784.5</ele>
        <time>2014-06-29T09:41:09Z</time>
      </trkpt>
      <trkpt lat="46.63376" lon="5.89404">
        <ele>784</ele>
        <time>2014-06-29T09:41:11Z</time>
      </trkpt>
      <trkpt lat="46.63364" lon="5.89375">
        <ele>784</ele>
        <time>2014-06-29T09:41:15Z</time>
      </trkpt>
      <trkpt lat="46.63359" lon="5.8936">
        <ele>783.7</ele>
        <time>2014-06-29T09:41:17Z</time>
      </trkpt>
      <trkpt lat="46.63354" lon="5.89345">
        <ele>783.7</ele>
        <time>2014-06-29T09:41:19Z</time>
      </trkpt>
      <trkpt lat="46.6335" lon="5.89331">
        <ele>783.9</ele>
        <time>2014-06-29T09:41:21Z</time>
      </trkpt>
      <trkpt lat="46.6335" lon="5.89317">
        <ele>784.1</ele>
        <time>2014-06-29T09:41:23Z</time>
      </trkpt>
      <trkpt lat="46.63356" lon="5.893">
        <ele>784.6</ele>
        <time>2014-06-29T09:41:26Z</time>
      </trkpt>
      <trkpt lat="46.63366" lon="5.89286">
        <ele>784.5</ele>
        <time>2014-06-29T09:41:29Z</time>
      </trkpt>
      <trkpt lat="46.63375" lon="5.89279">
        <ele>784.6</ele>
        <time>2014-06-29T09:41:31Z</time>
      </trkpt>
      <trkpt lat="46.63383" lon="5.89271">
        <ele>784.8</ele>
        <time>2014-06-29T09:41:33Z</time>
      </trkpt>
      <trkpt lat="46.63391" lon="5.89261">
        <ele>784.7</ele>
        <time>2014-06-29T09:41:35Z</time>
      </trkpt>
      <trkpt lat="46.63398" lon="5.89251">
        <ele>784.9</ele>
        <time>2014-06-29T09:41:37Z</time>
      </trkpt>
      <trkpt lat="46.63405" lon="5.8924">
        <ele>785</ele>
        <time>2014-06-29T09:41:39Z</time>
      </trkpt>
      <trkpt lat="46.63412" lon="5.8923">
        <ele>785</ele>
        <time>2014-06-29T09:41:41Z</time>
      </trkpt>
      <trkpt lat="46.63419" lon="5.89215">
        <ele>785.7</ele>
        <time>2014-06-29T09:41:44Z</time>
      </trkpt>
      <trkpt lat="46.63425" lon="5.89201">
        <ele>786.1</ele>
        <time>2014-06-29T09:41:47Z</time>
      </trkpt>
      <trkpt lat="46.63429" lon="5.89189">
        <ele>786.3</ele>
        <time>2014-06-29T09:41:50Z</time>
      </trkpt>
      <trkpt lat="46.63434" lon="5.89173">
        <ele>787.2</ele>
        <time>2014-06-29T09:41:54Z</time>
      </trkpt>
      <trkpt lat="46.63436" lon="5.89157">
        <ele>787.8</ele>
        <time>2014-06-29T09:41:58Z</time>
      </trkpt>
      <trkpt lat="46.63437" lon="5.89142">
        <ele>788.2</ele>
        <time>2014-06-29T09:42:02Z</time>
      </trkpt>
      <trkpt lat="46.63438" lon="5.89129">
        <ele>788.8</ele>
        <time>2014-06-29T09:42:06Z</time>
      </trkpt>
      <trkpt lat="46.6344" lon="5.89114">
        <ele>789.6</ele>
        <time>2014-06-29T09:42:10Z</time>
      </trkpt>
      <trkpt lat="46.63441" lon="5.89099">
        <ele>790.1</ele>
        <time>2014-06-29T09:42:14Z</time>
      </trkpt>
      <trkpt lat="46.63445" lon="5.89069">
        <ele>790</ele>
        <time>2014-06-29T09:42:20Z</time>
      </trkpt>
      <trkpt lat="46.63446" lon="5.89053">
        <ele>790</ele>
        <time>2014-06-29T09:42:23Z</time>
      </trkpt>
      <trkpt lat="46.63448" lon="5.89037">
        <ele>790.1</ele>
        <time>2014-06-29T09:42:26Z</time>
      </trkpt>
      <trkpt lat="46.63449" lon="5.89023">
        <ele>790.3</ele>
        <time>2014-06-29T09:42:29Z</time>
      </trkpt>
      <trkpt lat="46.6345" lon="5.8901">
        <ele>790.3</ele>
        <time>2014-06-29T09:42:32Z</time>
      </trkpt>
      <trkpt lat="46.63452" lon="5.88994">
        <ele>791</ele>
        <time>2014-06-29T09:42:36Z</time>
      </trkpt>
      <trkpt lat="46.63453" lon="5.88978">
        <ele>791.9</ele>
        <time>2014-06-29T09:42:40Z</time>
      </trkpt>
      <trkpt lat="46.63454" lon="5.88963">
        <ele>792.6</ele>
        <time>2014-06-29T09:42:44Z</time>
      </trkpt>
      <trkpt lat="46.63455" lon="5.88948">
        <ele>793.5</ele>
        <time>2014-06-29T09:42:48Z</time>
      </trkpt>
      <trkpt lat="46.63456" lon="5.88932">
        <ele>794.1</ele>
        <time>2014-06-29T09:42:52Z</time>
      </trkpt>
      <trkpt lat="46.63458" lon="5.88919">
        <ele>794.2</ele>
        <time>2014-06-29T09:42:55Z</time>
      </trkpt>
      <trkpt lat="46.6346" lon="5.88905">
        <ele>794.1</ele>
        <time>2014-06-29T09:42:58Z</time>
      </trkpt>
      <trkpt lat="46.63462" lon="5.88892">
        <ele>794.1</ele>
        <time>2014-06-29T09:43:01Z</time>
      </trkpt>
      <trkpt lat="46.63464" lon="5.88877">
        <ele>794.4</ele>
        <time>2014-06-29T09:43:04Z</time>
      </trkpt>
      <trkpt lat="46.63466" lon="5.88863">
        <ele>794.1</ele>
        <time>2014-06-29T09:43:07Z</time>
      </trkpt>
      <trkpt lat="46.6347" lon="5.8885">
        <ele>794</ele>
        <time>2014-06-29T09:43:10Z</time>
      </trkpt>
      <trkpt lat="46.63475" lon="5.88835">
        <ele>794.2</ele>
        <time>2014-06-29T09:43:14Z</time>
      </trkpt>
      <trkpt lat="46.63479" lon="5.8882">
        <ele>794.7</ele>
        <time>2014-06-29T09:43:18Z</time>
      </trkpt>
      <trkpt lat="46.63488" lon="5.88791">
        <ele>795.7</ele>
        <time>2014-06-29T09:43:26Z</time>
      </trkpt>
      <trkpt lat="46.63492" lon="5.88778">
        <ele>795.7</ele>
        <time>2014-06-29T09:43:29Z</time>
      </trkpt>
      <trkpt lat="46.63495" lon="5.88766">
        <ele>795.6</ele>
        <time>2014-06-29T09:43:31Z</time>
      </trkpt>
      <trkpt lat="46.63498" lon="5.88753">
        <ele>795.4</ele>
        <time>2014-06-29T09:43:33Z</time>
      </trkpt>
      <trkpt lat="46.63502" lon="5.88739">
        <ele>795.2</ele>
        <time>2014-06-29T09:43:35Z</time>
      </trkpt>
      <trkpt lat="46.63508" lon="5.88722">
        <ele>795.1</ele>
        <time>2014-06-29T09:43:38Z</time>
      </trkpt>
      <trkpt lat="46.63512" lon="5.8871">
        <ele>795</ele>
        <time>2014-06-29T09:43:40Z</time>
      </trkpt>
      <trkpt lat="46.63517" lon="5.88692">
        <ele>794.7</ele>
        <time>2014-06-29T09:43:43Z</time>
      </trkpt>
      <trkpt lat="46.6352" lon="5.88679">
        <ele>794.4</ele>
        <time>2014-06-29T09:43:45Z</time>
      </trkpt>
      <trkpt lat="46.63524" lon="5.88666">
        <ele>794.4</ele>
        <time>2014-06-29T09:43:47Z</time>
      </trkpt>
      <trkpt lat="46.6353" lon="5.88655">
        <ele>794.3</ele>
        <time>2014-06-29T09:43:49Z</time>
      </trkpt>
      <trkpt lat="46.63536" lon="5.88645">
        <ele>794.4</ele>
        <time>2014-06-29T09:43:51Z</time>
      </trkpt>
      <trkpt lat="46.63545" lon="5.88639">
        <ele>794.2</ele>
        <time>2014-06-29T09:43:53Z</time>
      </trkpt>
      <trkpt lat="46.63554" lon="5.88635">
        <ele>794.2</ele>
        <time>2014-06-29T09:43:55Z</time>
      </trkpt>
      <trkpt lat="46.63563" lon="5.88631">
        <ele>794.1</ele>
        <time>2014-06-29T09:43:57Z</time>
      </trkpt>
      <trkpt lat="46.63573" lon="5.88627">
        <ele>794.2</ele>
        <time>2014-06-29T09:43:59Z</time>
      </trkpt>
      <trkpt lat="46.63584" lon="5.88621">
        <ele>793.9</ele>
        <time>2014-06-29T09:44:01Z</time>
      </trkpt>
      <trkpt lat="46.63595" lon="5.88615">
        <ele>793.5</ele>
        <time>2014-06-29T09:44:03Z</time>
      </trkpt>
      <trkpt lat="46.63605" lon="5.88607">
        <ele>793.4</ele>
        <time>2014-06-29T09:44:05Z</time>
      </trkpt>
      <trkpt lat="46.63616" lon="5.88602">
        <ele>793.2</ele>
        <time>2014-06-29T09:44:07Z</time>
      </trkpt>
      <trkpt lat="46.63627" lon="5.88597">
        <ele>793.4</ele>
        <time>2014-06-29T09:44:09Z</time>
      </trkpt>
      <trkpt lat="46.63637" lon="5.88592">
        <ele>793.2</ele>
        <time>2014-06-29T09:44:11Z</time>
      </trkpt>
      <trkpt lat="46.63648" lon="5.88585">
        <ele>793.1</ele>
        <time>2014-06-29T09:44:13Z</time>
      </trkpt>
      <trkpt lat="46.63658" lon="5.88578">
        <ele>792.8</ele>
        <time>2014-06-29T09:44:15Z</time>
      </trkpt>
      <trkpt lat="46.63667" lon="5.88568">
        <ele>792.4</ele>
        <time>2014-06-29T09:44:17Z</time>
      </trkpt>
      <trkpt lat="46.63677" lon="5.88559">
        <ele>792.1</ele>
        <time>2014-06-29T09:44:19Z</time>
      </trkpt>
      <trkpt lat="46.63695" lon="5.88546">
        <ele>792.1</ele>
        <time>2014-06-29T09:44:23Z</time>
      </trkpt>
      <trkpt lat="46.63707" lon="5.88537">
        <ele>792</ele>
        <time>2014-06-29T09:44:26Z</time>
      </trkpt>
      <trkpt lat="46.63718" lon="5.88528">
        <ele>792.3</ele>
        <time>2014-06-29T09:44:29Z</time>
      </trkpt>
      <trkpt lat="46.63729" lon="5.88523">
        <ele>792.7</ele>
        <time>2014-06-29T09:44:32Z</time>
      </trkpt>
      <trkpt lat="46.63738" lon="5.88519">
        <ele>793.4</ele>
        <time>2014-06-29T09:44:35Z</time>
      </trkpt>
      <trkpt lat="46.63749" lon="5.8851">
        <ele>793.2</ele>
        <time>2014-06-29T09:44:38Z</time>
      </trkpt>
      <trkpt lat="46.63758" lon="5.88502">
        <ele>792.5</ele>
        <time>2014-06-29T09:44:40Z</time>
      </trkpt>
      <trkpt lat="46.63771" lon="5.88491">
        <ele>791.8</ele>
        <time>2014-06-29T09:44:42Z</time>
      </trkpt>
      <trkpt lat="46.63781" lon="5.88478">
        <ele>791.4</ele>
        <time>2014-06-29T09:44:44Z</time>
      </trkpt>
      <trkpt lat="46.6379" lon="5.88468">
        <ele>791</ele>
        <time>2014-06-29T09:44:46Z</time>
      </trkpt>
      <trkpt lat="46.63799" lon="5.88461">
        <ele>790.7</ele>
        <time>2014-06-29T09:44:48Z</time>
      </trkpt>
      <trkpt lat="46.63808" lon="5.88454">
        <ele>790.7</ele>
        <time>2014-06-29T09:44:50Z</time>
      </trkpt>
      <trkpt lat="46.63818" lon="5.88446">
        <ele>790.8</ele>
        <time>2014-06-29T09:44:53Z</time>
      </trkpt>
      <trkpt lat="46.63827" lon="5.88441">
        <ele>791.7</ele>
        <time>2014-06-29T09:44:57Z</time>
      </trkpt>
      <trkpt lat="46.63835" lon="5.88436">
        <ele>792.6</ele>
        <time>2014-06-29T09:45:01Z</time>
      </trkpt>
      <trkpt lat="46.63844" lon="5.88426">
        <ele>793.7</ele>
        <time>2014-06-29T09:45:06Z</time>
      </trkpt>
      <trkpt lat="46.6385" lon="5.88414">
        <ele>794</ele>
        <time>2014-06-29T09:45:10Z</time>
      </trkpt>
      <trkpt lat="46.63848" lon="5.88399">
        <ele>794.5</ele>
        <time>2014-06-29T09:45:14Z</time>
      </trkpt>
      <trkpt lat="46.63845" lon="5.88384">
        <ele>795.2</ele>
        <time>2014-06-29T09:45:18Z</time>
      </trkpt>
      <trkpt lat="46.63851" lon="5.88371">
        <ele>795.8</ele>
        <time>2014-06-29T09:45:23Z</time>
      </trkpt>
      <trkpt lat="46.63866" lon="5.88356">
        <ele>798</ele>
        <time>2014-06-29T09:45:34Z</time>
      </trkpt>
      <trkpt lat="46.63876" lon="5.88352">
        <ele>798.9</ele>
        <time>2014-06-29T09:45:40Z</time>
      </trkpt>
      <trkpt lat="46.63885" lon="5.88347">
        <ele>799.5</ele>
        <time>2014-06-29T09:45:44Z</time>
      </trkpt>
      <trkpt lat="46.63893" lon="5.88342">
        <ele>800.2</ele>
        <time>2014-06-29T09:45:48Z</time>
      </trkpt>
      <trkpt lat="46.63902" lon="5.88337">
        <ele>801.1</ele>
        <time>2014-06-29T09:45:54Z</time>
      </trkpt>
      <trkpt lat="46.63911" lon="5.88331">
        <ele>801.6</ele>
        <time>2014-06-29T09:46:00Z</time>
      </trkpt>
      <trkpt lat="46.6392" lon="5.88326">
        <ele>803</ele>
        <time>2014-06-29T09:46:07Z</time>
      </trkpt>
      <trkpt lat="46.63928" lon="5.88321">
        <ele>804.1</ele>
        <time>2014-06-29T09:46:13Z</time>
      </trkpt>
      <trkpt lat="46.63936" lon="5.88315">
        <ele>804.7</ele>
        <time>2014-06-29T09:46:19Z</time>
      </trkpt>
      <trkpt lat="46.63944" lon="5.88308">
        <ele>805.9</ele>
        <time>2014-06-29T09:46:26Z</time>
      </trkpt>
      <trkpt lat="46.63961" lon="5.88295">
        <ele>808.8</ele>
        <time>2014-06-29T09:46:41Z</time>
      </trkpt>
      <trkpt lat="46.6397" lon="5.8829">
        <ele>810.3</ele>
        <time>2014-06-29T09:46:49Z</time>
      </trkpt>
      <trkpt lat="46.6398" lon="5.88286">
        <ele>811.6</ele>
        <time>2014-06-29T09:46:56Z</time>
      </trkpt>
      <trkpt lat="46.6399" lon="5.88288">
        <ele>812.3</ele>
        <time>2014-06-29T09:47:02Z</time>
      </trkpt>
      <trkpt lat="46.64002" lon="5.88285">
        <ele>812</ele>
        <time>2014-06-29T09:47:06Z</time>
      </trkpt>
      <trkpt lat="46.64012" lon="5.88282">
        <ele>811.9</ele>
        <time>2014-06-29T09:47:10Z</time>
      </trkpt>
      <trkpt lat="46.64022" lon="5.88277">
        <ele>811.9</ele>
        <time>2014-06-29T09:47:14Z</time>
      </trkpt>
      <trkpt lat="46.64032" lon="5.88269">
        <ele>812.2</ele>
        <time>2014-06-29T09:47:18Z</time>
      </trkpt>
      <trkpt lat="46.6404" lon="5.88263">
        <ele>812.8</ele>
        <time>2014-06-29T09:47:22Z</time>
      </trkpt>
      <trkpt lat="46.64048" lon="5.88258">
        <ele>813</ele>
        <time>2014-06-29T09:47:26Z</time>
      </trkpt>
      <trkpt lat="46.64054" lon="5.88247">
        <ele>813.3</ele>
        <time>2014-06-29T09:47:29Z</time>
      </trkpt>
      <trkpt lat="46.64051" lon="5.88216">
        <ele>813.2</ele>
        <time>2014-06-29T09:47:36Z</time>
      </trkpt>
      <trkpt lat="46.64048" lon="5.88202">
        <ele>813.2</ele>
        <time>2014-06-29T09:47:39Z</time>
      </trkpt>
      <trkpt lat="46.64047" lon="5.88187">
        <ele>812.8</ele>
        <time>2014-06-29T09:47:42Z</time>
      </trkpt>
      <trkpt lat="46.64053" lon="5.88175">
        <ele>812.5</ele>
        <time>2014-06-29T09:47:45Z</time>
      </trkpt>
      <trkpt lat="46.64063" lon="5.88169">
        <ele>812.5</ele>
        <time>2014-06-29T09:47:47Z</time>
      </trkpt>
      <trkpt lat="46.64075" lon="5.88164">
        <ele>811.9</ele>
        <time>2014-06-29T09:47:49Z</time>
      </trkpt>
      <trkpt lat="46.64085" lon="5.88166">
        <ele>811.1</ele>
        <time>2014-06-29T09:47:51Z</time>
      </trkpt>
      <trkpt lat="46.64096" lon="5.88166">
        <ele>809.8</ele>
        <time>2014-06-29T09:47:53Z</time>
      </trkpt>
      <trkpt lat="46.64106" lon="5.88168">
        <ele>808.4</ele>
        <time>2014-06-29T09:47:55Z</time>
      </trkpt>
      <trkpt lat="46.64114" lon="5.88174">
        <ele>807.1</ele>
        <time>2014-06-29T09:47:57Z</time>
      </trkpt>
      <trkpt lat="46.6412" lon="5.88187">
        <ele>805.8</ele>
        <time>2014-06-29T09:47:59Z</time>
      </trkpt>
      <trkpt lat="46.64124" lon="5.88202">
        <ele>804.5</ele>
        <time>2014-06-29T09:48:01Z</time>
      </trkpt>
      <trkpt lat="46.6413" lon="5.88215">
        <ele>803</ele>
        <time>2014-06-29T09:48:03Z</time>
      </trkpt>
      <trkpt lat="46.64141" lon="5.88221">
        <ele>801.9</ele>
        <time>2014-06-29T09:48:05Z</time>
      </trkpt>
      <trkpt lat="46.64152" lon="5.88221">
        <ele>800.5</ele>
        <time>2014-06-29T09:48:07Z</time>
      </trkpt>
      <trkpt lat="46.64164" lon="5.88218">
        <ele>799</ele>
        <time>2014-06-29T09:48:09Z</time>
      </trkpt>
      <trkpt lat="46.64175" lon="5.88212">
        <ele>797.3</ele>
        <time>2014-06-29T09:48:11Z</time>
      </trkpt>
      <trkpt lat="46.64184" lon="5.88206">
        <ele>795.6</ele>
        <time>2014-06-29T09:48:13Z</time>
      </trkpt>
      <trkpt lat="46.64196" lon="5.882">
        <ele>792.3</ele>
        <time>2014-06-29T09:48:16Z</time>
      </trkpt>
      <trkpt lat="46.64204" lon="5.88192">
        <ele>790.9</ele>
        <time>2014-06-29T09:48:18Z</time>
      </trkpt>
      <trkpt lat="46.64214" lon="5.88182">
        <ele>788.6</ele>
        <time>2014-06-29T09:48:21Z</time>
      </trkpt>
      <trkpt lat="46.64221" lon="5.88172">
        <ele>785.8</ele>
        <time>2014-06-29T09:48:25Z</time>
      </trkpt>
      <trkpt lat="46.64215" lon="5.88161">
        <ele>782.9</ele>
        <time>2014-06-29T09:48:30Z</time>
      </trkpt>
      <trkpt lat="46.64193" lon="5.88138">
        <ele>781.2</ele>
        <time>2014-06-29T09:48:35Z</time>
      </trkpt>
      <trkpt lat="46.64186" lon="5.88121">
        <ele>780</ele>
        <time>2014-06-29T09:48:37Z</time>
      </trkpt>
      <trkpt lat="46.64183" lon="5.88101">
        <ele>779.1</ele>
        <time>2014-06-29T09:48:39Z</time>
      </trkpt>
      <trkpt lat="46.64183" lon="5.88082">
        <ele>778.3</ele>
        <time>2014-06-29T09:48:41Z</time>
      </trkpt>
      <trkpt lat="46.64183" lon="5.88066">
        <ele>778.2</ele>
        <time>2014-06-29T09:48:44Z</time>
      </trkpt>
      <trkpt lat="46.64181" lon="5.88051">
        <ele>779.7</ele>
        <time>2014-06-29T09:48:50Z</time>
      </trkpt>
      <trkpt lat="46.64183" lon="5.88037">
        <ele>781</ele>
        <time>2014-06-29T09:48:55Z</time>
      </trkpt>
      <trkpt lat="46.64184" lon="5.88024">
        <ele>783.2</ele>
        <time>2014-06-29T09:49:02Z</time>
      </trkpt>
      <trkpt lat="46.64187" lon="5.8801">
        <ele>783.8</ele>
        <time>2014-06-29T09:49:07Z</time>
      </trkpt>
      <trkpt lat="46.6419" lon="5.87998">
        <ele>784.8</ele>
        <time>2014-06-29T09:49:12Z</time>
      </trkpt>
      <trkpt lat="46.64192" lon="5.87984">
        <ele>785.5</ele>
        <time>2014-06-29T09:49:17Z</time>
      </trkpt>
      <trkpt lat="46.64196" lon="5.87968">
        <ele>786.2</ele>
        <time>2014-06-29T09:49:21Z</time>
      </trkpt>
      <trkpt lat="46.64199" lon="5.87955">
        <ele>786.9</ele>
        <time>2014-06-29T09:49:25Z</time>
      </trkpt>
      <trkpt lat="46.64203" lon="5.87942">
        <ele>788.1</ele>
        <time>2014-06-29T09:49:32Z</time>
      </trkpt>
      <trkpt lat="46.64215" lon="5.87919">
        <ele>790.6</ele>
        <time>2014-06-29T09:49:45Z</time>
      </trkpt>
      <trkpt lat="46.6422" lon="5.87908">
        <ele>791.4</ele>
        <time>2014-06-29T09:49:50Z</time>
      </trkpt>
      <trkpt lat="46.64226" lon="5.87896">
        <ele>792.4</ele>
        <time>2014-06-29T09:49:56Z</time>
      </trkpt>
      <trkpt lat="46.64229" lon="5.87882">
        <ele>793</ele>
        <time>2014-06-29T09:50:01Z</time>
      </trkpt>
      <trkpt lat="46.64229" lon="5.87869">
        <ele>794</ele>
        <time>2014-06-29T09:50:07Z</time>
      </trkpt>
      <trkpt lat="46.64224" lon="5.87856">
        <ele>795.3</ele>
        <time>2014-06-29T09:50:14Z</time>
      </trkpt>
      <trkpt lat="46.6422" lon="5.87843">
        <ele>796.3</ele>
        <time>2014-06-29T09:50:20Z</time>
      </trkpt>
      <trkpt lat="46.64221" lon="5.87829">
        <ele>796.6</ele>
        <time>2014-06-29T09:50:26Z</time>
      </trkpt>
      <trkpt lat="46.64218" lon="5.87815">
        <ele>797.8</ele>
        <time>2014-06-29T09:50:32Z</time>
      </trkpt>
      <trkpt lat="46.64216" lon="5.87802">
        <ele>799.1</ele>
        <time>2014-06-29T09:50:38Z</time>
      </trkpt>
      <trkpt lat="46.64212" lon="5.87774">
        <ele>801.8</ele>
        <time>2014-06-29T09:50:52Z</time>
      </trkpt>
      <trkpt lat="46.64212" lon="5.8776">
        <ele>802.7</ele>
        <time>2014-06-29T09:50:59Z</time>
      </trkpt>
      <trkpt lat="46.64209" lon="5.87747">
        <ele>804.7</ele>
        <time>2014-06-29T09:51:08Z</time>
      </trkpt>
      <trkpt lat="46.64207" lon="5.87733">
        <ele>806.2</ele>
        <time>2014-06-29T09:51:14Z</time>
      </trkpt>
      <trkpt lat="46.64204" lon="5.8772">
        <ele>806.7</ele>
        <time>2014-06-29T09:51:21Z</time>
      </trkpt>
      <trkpt lat="46.64202" lon="5.87704">
        <ele>807.7</ele>
        <time>2014-06-29T09:51:27Z</time>
      </trkpt>
      <trkpt lat="46.642" lon="5.87691">
        <ele>808.5</ele>
        <time>2014-06-29T09:51:33Z</time>
      </trkpt>
      <trkpt lat="46.64198" lon="5.87676">
        <ele>809</ele>
        <time>2014-06-29T09:51:39Z</time>
      </trkpt>
      <trkpt lat="46.64198" lon="5.87645">
        <ele>810.2</ele>
        <time>2014-06-29T09:51:49Z</time>
      </trkpt>
      <trkpt lat="46.64197" lon="5.87632">
        <ele>810.7</ele>
        <time>2014-06-29T09:51:53Z</time>
      </trkpt>
      <trkpt lat="46.64197" lon="5.87618">
        <ele>811.1</ele>
        <time>2014-06-29T09:51:57Z</time>
      </trkpt>
      <trkpt lat="46.64194" lon="5.87603">
        <ele>811.9</ele>
        <time>2014-06-29T09:52:03Z</time>
      </trkpt>
      <trkpt lat="46.64193" lon="5.87589">
        <ele>812.4</ele>
        <time>2014-06-29T09:52:08Z</time>
      </trkpt>
      <trkpt lat="46.64189" lon="5.87573">
        <ele>812.9</ele>
        <time>2014-06-29T09:52:14Z</time>
      </trkpt>
      <trkpt lat="46.64186" lon="5.87559">
        <ele>812.7</ele>
        <time>2014-06-29T09:52:18Z</time>
      </trkpt>
      <trkpt lat="46.64182" lon="5.87544">
        <ele>812.5</ele>
        <time>2014-06-29T09:52:22Z</time>
      </trkpt>
      <trkpt lat="46.64177" lon="5.87528">
        <ele>812.1</ele>
        <time>2014-06-29T09:52:26Z</time>
      </trkpt>
      <trkpt lat="46.64174" lon="5.87512">
        <ele>812</ele>
        <time>2014-06-29T09:52:29Z</time>
      </trkpt>
      <trkpt lat="46.64172" lon="5.87498">
        <ele>811.9</ele>
        <time>2014-06-29T09:52:31Z</time>
      </trkpt>
      <trkpt lat="46.64171" lon="5.87481">
        <ele>811</ele>
        <time>2014-06-29T09:52:33Z</time>
      </trkpt>
      <trkpt lat="46.64169" lon="5.87463">
        <ele>810.6</ele>
        <time>2014-06-29T09:52:35Z</time>
      </trkpt>
      <trkpt lat="46.64165" lon="5.87447">
        <ele>810</ele>
        <time>2014-06-29T09:52:37Z</time>
      </trkpt>
      <trkpt lat="46.64161" lon="5.87431">
        <ele>809.7</ele>
        <time>2014-06-29T09:52:39Z</time>
      </trkpt>
      <trkpt lat="46.64157" lon="5.87415">
        <ele>809.3</ele>
        <time>2014-06-29T09:52:41Z</time>
      </trkpt>
      <trkpt lat="46.64153" lon="5.87378">
        <ele>806.8</ele>
        <time>2014-06-29T09:52:45Z</time>
      </trkpt>
      <trkpt lat="46.64152" lon="5.87357">
        <ele>805.3</ele>
        <time>2014-06-29T09:52:47Z</time>
      </trkpt>
      <trkpt lat="46.64147" lon="5.87337">
        <ele>803.7</ele>
        <time>2014-06-29T09:52:49Z</time>
      </trkpt>
      <trkpt lat="46.6414" lon="5.87317">
        <ele>802.2</ele>
        <time>2014-06-29T09:52:51Z</time>
      </trkpt>
      <trkpt lat="46.64136" lon="5.87296">
        <ele>801.1</ele>
        <time>2014-06-29T09:52:53Z</time>
      </trkpt>
      <trkpt lat="46.64132" lon="5.87274">
        <ele>800</ele>
        <time>2014-06-29T09:52:55Z</time>
      </trkpt>
      <trkpt lat="46.64127" lon="5.8725">
        <ele>798.5</ele>
        <time>2014-06-29T09:52:57Z</time>
      </trkpt>
      <trkpt lat="46.64122" lon="5.87227">
        <ele>797</ele>
        <time>2014-06-29T09:52:59Z</time>
      </trkpt>
      <trkpt lat="46.64117" lon="5.87204">
        <ele>795.6</ele>
        <time>2014-06-29T09:53:01Z</time>
      </trkpt>
      <trkpt lat="46.64112" lon="5.87184">
        <ele>794.5</ele>
        <time>2014-06-29T09:53:03Z</time>
      </trkpt>
      <trkpt lat="46.64107" lon="5.87169">
        <ele>794</ele>
        <time>2014-06-29T09:53:05Z</time>
      </trkpt>
      <trkpt lat="46.64099" lon="5.87157">
        <ele>793.9</ele>
        <time>2014-06-29T09:53:08Z</time>
      </trkpt>
      <trkpt lat="46.64092" lon="5.87148">
        <ele>793.2</ele>
        <time>2014-06-29T09:53:11Z</time>
      </trkpt>
      <trkpt lat="46.64085" lon="5.87135">
        <ele>793.3</ele>
        <time>2014-06-29T09:53:14Z</time>
      </trkpt>
      <trkpt lat="46.64079" lon="5.87119">
        <ele>793.2</ele>
        <time>2014-06-29T09:53:17Z</time>
      </trkpt>
      <trkpt lat="46.64075" lon="5.87105">
        <ele>792.8</ele>
        <time>2014-06-29T09:53:19Z</time>
      </trkpt>
      <trkpt lat="46.64071" lon="5.8709">
        <ele>792.2</ele>
        <time>2014-06-29T09:53:21Z</time>
      </trkpt>
      <trkpt lat="46.64068" lon="5.87074">
        <ele>791.6</ele>
        <time>2014-06-29T09:53:23Z</time>
      </trkpt>
      <trkpt lat="46.64066" lon="5.87056">
        <ele>790.8</ele>
        <time>2014-06-29T09:53:25Z</time>
      </trkpt>
      <trkpt lat="46.64066" lon="5.87036">
        <ele>789.9</ele>
        <time>2014-06-29T09:53:27Z</time>
      </trkpt>
      <trkpt lat="46.64066" lon="5.87016">
        <ele>789.4</ele>
        <time>2014-06-29T09:53:29Z</time>
      </trkpt>
      <trkpt lat="46.64066" lon="5.86997">
        <ele>788.9</ele>
        <time>2014-06-29T09:53:31Z</time>
      </trkpt>
      <trkpt lat="46.64066" lon="5.86979">
        <ele>788.3</ele>
        <time>2014-06-29T09:53:34Z</time>
      </trkpt>
      <trkpt lat="46.64067" lon="5.86965">
        <ele>788</ele>
        <time>2014-06-29T09:53:37Z</time>
      </trkpt>
      <trkpt lat="46.64067" lon="5.86951">
        <ele>787.9</ele>
        <time>2014-06-29T09:53:40Z</time>
      </trkpt>
      <trkpt lat="46.64067" lon="5.86936">
        <ele>787.9</ele>
        <time>2014-06-29T09:53:43Z</time>
      </trkpt>
      <trkpt lat="46.64065" lon="5.86909">
        <ele>788.1</ele>
        <time>2014-06-29T09:53:49Z</time>
      </trkpt>
      <trkpt lat="46.64062" lon="5.86896">
        <ele>788.2</ele>
        <time>2014-06-29T09:53:52Z</time>
      </trkpt>
      <trkpt lat="46.64061" lon="5.86878">
        <ele>787.8</ele>
        <time>2014-06-29T09:53:55Z</time>
      </trkpt>
      <trkpt lat="46.6406" lon="5.86859">
        <ele>787.6</ele>
        <time>2014-06-29T09:53:58Z</time>
      </trkpt>
      <trkpt lat="46.64057" lon="5.86842">
        <ele>788.1</ele>
        <time>2014-06-29T09:54:01Z</time>
      </trkpt>
      <trkpt lat="46.64052" lon="5.86828">
        <ele>788.3</ele>
        <time>2014-06-29T09:54:04Z</time>
      </trkpt>
      <trkpt lat="46.64045" lon="5.86816">
        <ele>788.8</ele>
        <time>2014-06-29T09:54:07Z</time>
      </trkpt>
      <trkpt lat="46.64039" lon="5.86804">
        <ele>788.7</ele>
        <time>2014-06-29T09:54:10Z</time>
      </trkpt>
      <trkpt lat="46.64034" lon="5.86792">
        <ele>788.4</ele>
        <time>2014-06-29T09:54:13Z</time>
      </trkpt>
      <trkpt lat="46.64029" lon="5.86775">
        <ele>788.4</ele>
        <time>2014-06-29T09:54:16Z</time>
      </trkpt>
      <trkpt lat="46.64029" lon="5.86757">
        <ele>788.5</ele>
        <time>2014-06-29T09:54:19Z</time>
      </trkpt>
      <trkpt lat="46.64033" lon="5.86742">
        <ele>788.9</ele>
        <time>2014-06-29T09:54:22Z</time>
      </trkpt>
      <trkpt lat="46.64039" lon="5.86728">
        <ele>789.3</ele>
        <time>2014-06-29T09:54:26Z</time>
      </trkpt>
      <trkpt lat="46.64045" lon="5.86717">
        <ele>789.5</ele>
        <time>2014-06-29T09:54:29Z</time>
      </trkpt>
      <trkpt lat="46.64053" lon="5.86704">
        <ele>789.6</ele>
        <time>2014-06-29T09:54:32Z</time>
      </trkpt>
      <trkpt lat="46.64056" lon="5.86691">
        <ele>789.8</ele>
        <time>2014-06-29T09:54:35Z</time>
      </trkpt>
      <trkpt lat="46.64057" lon="5.86676">
        <ele>790.6</ele>
        <time>2014-06-29T09:54:38Z</time>
      </trkpt>
      <trkpt lat="46.64054" lon="5.86661">
        <ele>791.1</ele>
        <time>2014-06-29T09:54:42Z</time>
      </trkpt>
      <trkpt lat="46.6405" lon="5.86648">
        <ele>792.1</ele>
        <time>2014-06-29T09:54:47Z</time>
      </trkpt>
      <trkpt lat="46.64053" lon="5.86621">
        <ele>794.1</ele>
        <time>2014-06-29T09:54:58Z</time>
      </trkpt>
      <trkpt lat="46.64058" lon="5.86607">
        <ele>794.7</ele>
        <time>2014-06-29T09:55:02Z</time>
      </trkpt>
      <trkpt lat="46.64066" lon="5.86597">
        <ele>795.7</ele>
        <time>2014-06-29T09:55:07Z</time>
      </trkpt>
      <trkpt lat="46.64071" lon="5.86584">
        <ele>796.3</ele>
        <time>2014-06-29T09:55:13Z</time>
      </trkpt>
      <trkpt lat="46.64079" lon="5.86575">
        <ele>796.8</ele>
        <time>2014-06-29T09:55:18Z</time>
      </trkpt>
      <trkpt lat="46.64086" lon="5.8656">
        <ele>797.2</ele>
        <time>2014-06-29T09:55:23Z</time>
      </trkpt>
      <trkpt lat="46.64092" lon="5.8655">
        <ele>797.3</ele>
        <time>2014-06-29T09:55:26Z</time>
      </trkpt>
      <trkpt lat="46.64098" lon="5.86541">
        <ele>798</ele>
        <time>2014-06-29T09:55:30Z</time>
      </trkpt>
      <trkpt lat="46.64105" lon="5.86531">
        <ele>798.7</ele>
        <time>2014-06-29T09:55:35Z</time>
      </trkpt>
      <trkpt lat="46.64113" lon="5.86521">
        <ele>799.1</ele>
        <time>2014-06-29T09:55:40Z</time>
      </trkpt>
      <trkpt lat="46.64121" lon="5.86513">
        <ele>799.5</ele>
        <time>2014-06-29T09:55:45Z</time>
      </trkpt>
      <trkpt lat="46.6413" lon="5.86505">
        <ele>799.8</ele>
        <time>2014-06-29T09:55:49Z</time>
      </trkpt>
      <trkpt lat="46.64146" lon="5.86483">
        <ele>799.9</ele>
        <time>2014-06-29T09:55:57Z</time>
      </trkpt>
      <trkpt lat="46.64152" lon="5.86473">
        <ele>799.8</ele>
        <time>2014-06-29T09:55:59Z</time>
      </trkpt>
      <trkpt lat="46.64159" lon="5.8646">
        <ele>799.5</ele>
        <time>2014-06-29T09:56:01Z</time>
      </trkpt>
      <trkpt lat="46.6417" lon="5.86439">
        <ele>799</ele>
        <time>2014-06-29T09:56:03Z</time>
      </trkpt>
      <trkpt lat="46.64177" lon="5.86425">
        <ele>798.4</ele>
        <time>2014-06-29T09:56:05Z</time>
      </trkpt>
      <trkpt lat="46.64181" lon="5.8641">
        <ele>798</ele>
        <time>2014-06-29T09:56:07Z</time>
      </trkpt>
      <trkpt lat="46.64186" lon="5.86394">
        <ele>798</ele>
        <time>2014-06-29T09:56:09Z</time>
      </trkpt>
      <trkpt lat="46.6419" lon="5.8638">
        <ele>797.4</ele>
        <time>2014-06-29T09:56:11Z</time>
      </trkpt>
      <trkpt lat="46.64193" lon="5.86365">
        <ele>797.1</ele>
        <time>2014-06-29T09:56:13Z</time>
      </trkpt>
      <trkpt lat="46.64198" lon="5.86349">
        <ele>796.7</ele>
        <time>2014-06-29T09:56:15Z</time>
      </trkpt>
      <trkpt lat="46.64202" lon="5.86331">
        <ele>796.2</ele>
        <time>2014-06-29T09:56:17Z</time>
      </trkpt>
      <trkpt lat="46.64208" lon="5.86315">
        <ele>795.7</ele>
        <time>2014-06-29T09:56:19Z</time>
      </trkpt>
      <trkpt lat="46.64214" lon="5.86298">
        <ele>795.1</ele>
        <time>2014-06-29T09:56:21Z</time>
      </trkpt>
      <trkpt lat="46.64221" lon="5.86278">
        <ele>794.3</ele>
        <time>2014-06-29T09:56:23Z</time>
      </trkpt>
      <trkpt lat="46.64228" lon="5.8626">
        <ele>793</ele>
        <time>2014-06-29T09:56:25Z</time>
      </trkpt>
      <trkpt lat="46.64235" lon="5.86243">
        <ele>792.2</ele>
        <time>2014-06-29T09:56:27Z</time>
      </trkpt>
      <trkpt lat="46.64241" lon="5.86229">
        <ele>791.7</ele>
        <time>2014-06-29T09:56:29Z</time>
      </trkpt>
      <trkpt lat="46.64245" lon="5.86212">
        <ele>789.9</ele>
        <time>2014-06-29T09:56:32Z</time>
      </trkpt>
      <trkpt lat="46.64249" lon="5.86199">
        <ele>789</ele>
        <time>2014-06-29T09:56:34Z</time>
      </trkpt>
      <trkpt lat="46.64257" lon="5.86186">
        <ele>787.4</ele>
        <time>2014-06-29T09:56:36Z</time>
      </trkpt>
      <trkpt lat="46.64267" lon="5.86171">
        <ele>786.5</ele>
        <time>2014-06-29T09:56:38Z</time>
      </trkpt>
      <trkpt lat="46.64275" lon="5.86154">
        <ele>785.8</ele>
        <time>2014-06-29T09:56:40Z</time>
      </trkpt>
      <trkpt lat="46.64279" lon="5.86136">
        <ele>785.4</ele>
        <time>2014-06-29T09:56:42Z</time>
      </trkpt>
      <trkpt lat="46.64282" lon="5.86117">
        <ele>784.7</ele>
        <time>2014-06-29T09:56:44Z</time>
      </trkpt>
      <trkpt lat="46.64286" lon="5.86098">
        <ele>784.1</ele>
        <time>2014-06-29T09:56:46Z</time>
      </trkpt>
      <trkpt lat="46.64292" lon="5.86081">
        <ele>783.4</ele>
        <time>2014-06-29T09:56:48Z</time>
      </trkpt>
      <trkpt lat="46.64298" lon="5.86066">
        <ele>783.1</ele>
        <time>2014-06-29T09:56:50Z</time>
      </trkpt>
      <trkpt lat="46.6431" lon="5.86038">
        <ele>781.9</ele>
        <time>2014-06-29T09:56:54Z</time>
      </trkpt>
      <trkpt lat="46.64315" lon="5.86024">
        <ele>781.6</ele>
        <time>2014-06-29T09:56:56Z</time>
      </trkpt>
      <trkpt lat="46.6432" lon="5.86006">
        <ele>781.5</ele>
        <time>2014-06-29T09:56:59Z</time>
      </trkpt>
      <trkpt lat="46.64323" lon="5.85989">
        <ele>781.9</ele>
        <time>2014-06-29T09:57:02Z</time>
      </trkpt>
      <trkpt lat="46.64328" lon="5.85969">
        <ele>782.1</ele>
        <time>2014-06-29T09:57:05Z</time>
      </trkpt>
      <trkpt lat="46.64332" lon="5.85954">
        <ele>782.7</ele>
        <time>2014-06-29T09:57:08Z</time>
      </trkpt>
      <trkpt lat="46.64333" lon="5.8594">
        <ele>783</ele>
        <time>2014-06-29T09:57:11Z</time>
      </trkpt>
      <trkpt lat="46.64333" lon="5.85927">
        <ele>783.5</ele>
        <time>2014-06-29T09:57:14Z</time>
      </trkpt>
      <trkpt lat="46.64329" lon="5.85911">
        <ele>783.6</ele>
        <time>2014-06-29T09:57:17Z</time>
      </trkpt>
      <trkpt lat="46.64325" lon="5.85897">
        <ele>784</ele>
        <time>2014-06-29T09:57:20Z</time>
      </trkpt>
      <trkpt lat="46.64317" lon="5.85888">
        <ele>784.3</ele>
        <time>2014-06-29T09:57:23Z</time>
      </trkpt>
      <trkpt lat="46.64309" lon="5.85883">
        <ele>785</ele>
        <time>2014-06-29T09:57:26Z</time>
      </trkpt>
      <trkpt lat="46.64299" lon="5.8588">
        <ele>785.5</ele>
        <time>2014-06-29T09:57:29Z</time>
      </trkpt>
      <trkpt lat="46.64288" lon="5.85878">
        <ele>786.3</ele>
        <time>2014-06-29T09:57:33Z</time>
      </trkpt>
      <trkpt lat="46.64277" lon="5.85875">
        <ele>786.8</ele>
        <time>2014-06-29T09:57:36Z</time>
      </trkpt>
      <trkpt lat="46.64267" lon="5.85874">
        <ele>787.3</ele>
        <time>2014-06-29T09:57:39Z</time>
      </trkpt>
      <trkpt lat="46.64255" lon="5.85872">
        <ele>788.1</ele>
        <time>2014-06-29T09:57:43Z</time>
      </trkpt>
      <trkpt lat="46.64243" lon="5.85873">
        <ele>788.5</ele>
        <time>2014-06-29T09:57:47Z</time>
      </trkpt>
      <trkpt lat="46.64232" lon="5.85874">
        <ele>789</ele>
        <time>2014-06-29T09:57:51Z</time>
      </trkpt>
      <trkpt lat="46.64213" lon="5.85862">
        <ele>789.8</ele>
        <time>2014-06-29T09:57:59Z</time>
      </trkpt>
      <trkpt lat="46.64205" lon="5.85851">
        <ele>790</ele>
        <time>2014-06-29T09:58:02Z</time>
      </trkpt>
      <trkpt lat="46.64199" lon="5.85839">
        <ele>790.2</ele>
        <time>2014-06-29T09:58:05Z</time>
      </trkpt>
      <trkpt lat="46.64194" lon="5.85824">
        <ele>790.2</ele>
        <time>2014-06-29T09:58:08Z</time>
      </trkpt>
      <trkpt lat="46.6419" lon="5.85808">
        <ele>790.9</ele>
        <time>2014-06-29T09:58:12Z</time>
      </trkpt>
      <trkpt lat="46.64186" lon="5.85791">
        <ele>791</ele>
        <time>2014-06-29T09:58:15Z</time>
      </trkpt>
      <trkpt lat="46.64184" lon="5.85776">
        <ele>791.3</ele>
        <time>2014-06-29T09:58:18Z</time>
      </trkpt>
      <trkpt lat="46.64181" lon="5.85762">
        <ele>791.5</ele>
        <time>2014-06-29T09:58:21Z</time>
      </trkpt>
      <trkpt lat="46.64176" lon="5.85747">
        <ele>792.1</ele>
        <time>2014-06-29T09:58:25Z</time>
      </trkpt>
      <trkpt lat="46.64172" lon="5.85733">
        <ele>792.2</ele>
        <time>2014-06-29T09:58:29Z</time>
      </trkpt>
      <trkpt lat="46.64167" lon="5.8572">
        <ele>792.2</ele>
        <time>2014-06-29T09:58:32Z</time>
      </trkpt>
      <trkpt lat="46.64161" lon="5.85708">
        <ele>791.7</ele>
        <time>2014-06-29T09:58:34Z</time>
      </trkpt>
      <trkpt lat="46.64156" lon="5.85693">
        <ele>791.1</ele>
        <time>2014-06-29T09:58:36Z</time>
      </trkpt>
      <trkpt lat="46.6415" lon="5.85678">
        <ele>790.7</ele>
        <time>2014-06-29T09:58:38Z</time>
      </trkpt>
      <trkpt lat="46.64143" lon="5.85665">
        <ele>790.5</ele>
        <time>2014-06-29T09:58:40Z</time>
      </trkpt>
      <trkpt lat="46.64136" lon="5.85656">
        <ele>790.4</ele>
        <time>2014-06-29T09:58:42Z</time>
      </trkpt>
      <trkpt lat="46.6413" lon="5.85643">
        <ele>790.4</ele>
        <time>2014-06-29T09:58:44Z</time>
      </trkpt>
      <trkpt lat="46.64125" lon="5.85629">
        <ele>790</ele>
        <time>2014-06-29T09:58:46Z</time>
      </trkpt>
      <trkpt lat="46.6412" lon="5.85612">
        <ele>789.2</ele>
        <time>2014-06-29T09:58:48Z</time>
      </trkpt>
      <trkpt lat="46.64116" lon="5.85595">
        <ele>788.7</ele>
        <time>2014-06-29T09:58:50Z</time>
      </trkpt>
      <trkpt lat="46.6411" lon="5.85581">
        <ele>788.3</ele>
        <time>2014-06-29T09:58:52Z</time>
      </trkpt>
      <trkpt lat="46.64106" lon="5.85568">
        <ele>787.7</ele>
        <time>2014-06-29T09:58:54Z</time>
      </trkpt>
      <trkpt lat="46.64108" lon="5.85537">
        <ele>786.8</ele>
        <time>2014-06-29T09:58:58Z</time>
      </trkpt>
      <trkpt lat="46.64111" lon="5.85521">
        <ele>786.6</ele>
        <time>2014-06-29T09:59:00Z</time>
      </trkpt>
      <trkpt lat="46.64113" lon="5.85505">
        <ele>786.4</ele>
        <time>2014-06-29T09:59:02Z</time>
      </trkpt>
      <trkpt lat="46.64112" lon="5.85487">
        <ele>785.9</ele>
        <time>2014-06-29T09:59:04Z</time>
      </trkpt>
      <trkpt lat="46.6411" lon="5.85468">
        <ele>785.4</ele>
        <time>2014-06-29T09:59:06Z</time>
      </trkpt>
      <trkpt lat="46.64107" lon="5.85449">
        <ele>784.8</ele>
        <time>2014-06-29T09:59:08Z</time>
      </trkpt>
      <trkpt lat="46.64103" lon="5.85422">
        <ele>783.8</ele>
        <time>2014-06-29T09:59:10Z</time>
      </trkpt>
      <trkpt lat="46.64101" lon="5.85407">
        <ele>783.2</ele>
        <time>2014-06-29T09:59:11Z</time>
      </trkpt>
      <trkpt lat="46.64098" lon="5.85383">
        <ele>782.3</ele>
        <time>2014-06-29T09:59:13Z</time>
      </trkpt>
      <trkpt lat="46.64093" lon="5.85362">
        <ele>781.3</ele>
        <time>2014-06-29T09:59:15Z</time>
      </trkpt>
      <trkpt lat="46.64086" lon="5.85338">
        <ele>780.3</ele>
        <time>2014-06-29T09:59:17Z</time>
      </trkpt>
      <trkpt lat="46.64078" lon="5.85315">
        <ele>779.2</ele>
        <time>2014-06-29T09:59:19Z</time>
      </trkpt>
      <trkpt lat="46.64069" lon="5.85296">
        <ele>778.3</ele>
        <time>2014-06-29T09:59:21Z</time>
      </trkpt>
      <trkpt lat="46.64061" lon="5.85277">
        <ele>777</ele>
        <time>2014-06-29T09:59:23Z</time>
      </trkpt>
      <trkpt lat="46.6405" lon="5.8526">
        <ele>775.6</ele>
        <time>2014-06-29T09:59:25Z</time>
      </trkpt>
      <trkpt lat="46.64043" lon="5.85241">
        <ele>774.5</ele>
        <time>2014-06-29T09:59:27Z</time>
      </trkpt>
      <trkpt lat="46.64037" lon="5.85222">
        <ele>773.5</ele>
        <time>2014-06-29T09:59:29Z</time>
      </trkpt>
      <trkpt lat="46.64033" lon="5.85203">
        <ele>772.3</ele>
        <time>2014-06-29T09:59:31Z</time>
      </trkpt>
      <trkpt lat="46.6403" lon="5.85182">
        <ele>770.6</ele>
        <time>2014-06-29T09:59:33Z</time>
      </trkpt>
      <trkpt lat="46.6403" lon="5.85159">
        <ele>769</ele>
        <time>2014-06-29T09:59:35Z</time>
      </trkpt>
      <trkpt lat="46.64032" lon="5.85134">
        <ele>767.2</ele>
        <time>2014-06-29T09:59:37Z</time>
      </trkpt>
      <trkpt lat="46.64032" lon="5.8512">
        <ele>766.3</ele>
        <time>2014-06-29T09:59:38Z</time>
      </trkpt>
      <trkpt lat="46.64033" lon="5.85107">
        <ele>765.4</ele>
        <time>2014-06-29T09:59:39Z</time>
      </trkpt>
      <trkpt lat="46.64033" lon="5.85093">
        <ele>764.7</ele>
        <time>2014-06-29T09:59:40Z</time>
      </trkpt>
      <trkpt lat="46.64032" lon="5.8507">
        <ele>763.6</ele>
        <time>2014-06-29T09:59:42Z</time>
      </trkpt>
      <trkpt lat="46.64031" lon="5.85052">
        <ele>763</ele>
        <time>2014-06-29T09:59:43Z</time>
      </trkpt>
      <trkpt lat="46.64031" lon="5.85039">
        <ele>762.3</ele>
        <time>2014-06-29T09:59:44Z</time>
      </trkpt>
      <trkpt lat="46.64031" lon="5.85016">
        <ele>761.3</ele>
        <time>2014-06-29T09:59:46Z</time>
      </trkpt>
      <trkpt lat="46.6403" lon="5.84994">
        <ele>759.8</ele>
        <time>2014-06-29T09:59:48Z</time>
      </trkpt>
      <trkpt lat="46.64028" lon="5.84974">
        <ele>758</ele>
        <time>2014-06-29T09:59:50Z</time>
      </trkpt>
      <trkpt lat="46.64023" lon="5.84954">
        <ele>756.4</ele>
        <time>2014-06-29T09:59:52Z</time>
      </trkpt>
      <trkpt lat="46.64017" lon="5.84935">
        <ele>754.8</ele>
        <time>2014-06-29T09:59:54Z</time>
      </trkpt>
      <trkpt lat="46.6401" lon="5.84913">
        <ele>753</ele>
        <time>2014-06-29T09:59:56Z</time>
      </trkpt>
      <trkpt lat="46.64002" lon="5.84871">
        <ele>749.9</ele>
        <time>2014-06-29T10:00:00Z</time>
      </trkpt>
      <trkpt lat="46.64003" lon="5.84851">
        <ele>748.1</ele>
        <time>2014-06-29T10:00:02Z</time>
      </trkpt>
      <trkpt lat="46.64006" lon="5.84833">
        <ele>746.1</ele>
        <time>2014-06-29T10:00:04Z</time>
      </trkpt>
      <trkpt lat="46.64011" lon="5.84819">
        <ele>744.2</ele>
        <time>2014-06-29T10:00:06Z</time>
      </trkpt>
      <trkpt lat="46.64019" lon="5.84809">
        <ele>742.3</ele>
        <time>2014-06-29T10:00:08Z</time>
      </trkpt>
      <trkpt lat="46.6403" lon="5.84799">
        <ele>740.6</ele>
        <time>2014-06-29T10:00:10Z</time>
      </trkpt>
      <trkpt lat="46.64041" lon="5.84788">
        <ele>739.2</ele>
        <time>2014-06-29T10:00:12Z</time>
      </trkpt>
      <trkpt lat="46.64053" lon="5.84778">
        <ele>737.8</ele>
        <time>2014-06-29T10:00:14Z</time>
      </trkpt>
      <trkpt lat="46.64063" lon="5.84767">
        <ele>736</ele>
        <time>2014-06-29T10:00:16Z</time>
      </trkpt>
      <trkpt lat="46.64073" lon="5.84749">
        <ele>733.8</ele>
        <time>2014-06-29T10:00:18Z</time>
      </trkpt>
      <trkpt lat="46.6408" lon="5.84729">
        <ele>732.5</ele>
        <time>2014-06-29T10:00:20Z</time>
      </trkpt>
      <trkpt lat="46.64084" lon="5.84709">
        <ele>731.1</ele>
        <time>2014-06-29T10:00:22Z</time>
      </trkpt>
      <trkpt lat="46.64084" lon="5.84691">
        <ele>730.1</ele>
        <time>2014-06-29T10:00:24Z</time>
      </trkpt>
      <trkpt lat="46.64079" lon="5.84674">
        <ele>729</ele>
        <time>2014-06-29T10:00:26Z</time>
      </trkpt>
      <trkpt lat="46.64071" lon="5.84656">
        <ele>728.4</ele>
        <time>2014-06-29T10:00:28Z</time>
      </trkpt>
      <trkpt lat="46.64064" lon="5.84637">
        <ele>727.5</ele>
        <time>2014-06-29T10:00:30Z</time>
      </trkpt>
      <trkpt lat="46.64057" lon="5.84617">
        <ele>726.8</ele>
        <time>2014-06-29T10:00:32Z</time>
      </trkpt>
      <trkpt lat="46.64051" lon="5.84597">
        <ele>726.1</ele>
        <time>2014-06-29T10:00:34Z</time>
      </trkpt>
      <trkpt lat="46.64045" lon="5.84577">
        <ele>725.3</ele>
        <time>2014-06-29T10:00:36Z</time>
      </trkpt>
      <trkpt lat="46.64042" lon="5.84556">
        <ele>724.4</ele>
        <time>2014-06-29T10:00:38Z</time>
      </trkpt>
      <trkpt lat="46.6404" lon="5.84535">
        <ele>723.7</ele>
        <time>2014-06-29T10:00:40Z</time>
      </trkpt>
      <trkpt lat="46.64041" lon="5.84516">
        <ele>723.2</ele>
        <time>2014-06-29T10:00:42Z</time>
      </trkpt>
      <trkpt lat="46.64043" lon="5.84497">
        <ele>722.1</ele>
        <time>2014-06-29T10:00:44Z</time>
      </trkpt>
      <trkpt lat="46.64045" lon="5.84483">
        <ele>721.6</ele>
        <time>2014-06-29T10:00:45Z</time>
      </trkpt>
      <trkpt lat="46.64049" lon="5.84465">
        <ele>720.8</ele>
        <time>2014-06-29T10:00:47Z</time>
      </trkpt>
      <trkpt lat="46.64058" lon="5.84449">
        <ele>720</ele>
        <time>2014-06-29T10:00:49Z</time>
      </trkpt>
      <trkpt lat="46.64068" lon="5.84432">
        <ele>718.9</ele>
        <time>2014-06-29T10:00:51Z</time>
      </trkpt>
      <trkpt lat="46.64078" lon="5.84412">
        <ele>718.1</ele>
        <time>2014-06-29T10:00:53Z</time>
      </trkpt>
      <trkpt lat="46.64087" lon="5.84392">
        <ele>717.1</ele>
        <time>2014-06-29T10:00:55Z</time>
      </trkpt>
      <trkpt lat="46.64096" lon="5.84371">
        <ele>715.9</ele>
        <time>2014-06-29T10:00:57Z</time>
      </trkpt>
      <trkpt lat="46.64104" lon="5.84349">
        <ele>715</ele>
        <time>2014-06-29T10:00:59Z</time>
      </trkpt>
      <trkpt lat="46.64115" lon="5.84314">
        <ele>713.3</ele>
        <time>2014-06-29T10:01:02Z</time>
      </trkpt>
      <trkpt lat="46.64119" lon="5.84301">
        <ele>712.8</ele>
        <time>2014-06-29T10:01:03Z</time>
      </trkpt>
      <trkpt lat="46.64122" lon="5.84288">
        <ele>712.3</ele>
        <time>2014-06-29T10:01:04Z</time>
      </trkpt>
      <trkpt lat="46.64126" lon="5.84275">
        <ele>711.5</ele>
        <time>2014-06-29T10:01:05Z</time>
      </trkpt>
      <trkpt lat="46.6413" lon="5.84263">
        <ele>710.7</ele>
        <time>2014-06-29T10:01:06Z</time>
      </trkpt>
      <trkpt lat="46.64134" lon="5.8425">
        <ele>710</ele>
        <time>2014-06-29T10:01:07Z</time>
      </trkpt>
      <trkpt lat="46.64138" lon="5.84238">
        <ele>709.1</ele>
        <time>2014-06-29T10:01:08Z</time>
      </trkpt>
      <trkpt lat="46.64142" lon="5.84226">
        <ele>708.3</ele>
        <time>2014-06-29T10:01:09Z</time>
      </trkpt>
      <trkpt lat="46.64149" lon="5.84203">
        <ele>706.9</ele>
        <time>2014-06-29T10:01:11Z</time>
      </trkpt>
      <trkpt lat="46.64156" lon="5.8418">
        <ele>705.6</ele>
        <time>2014-06-29T10:01:13Z</time>
      </trkpt>
      <trkpt lat="46.64162" lon="5.84157">
        <ele>704.5</ele>
        <time>2014-06-29T10:01:15Z</time>
      </trkpt>
      <trkpt lat="46.64168" lon="5.84134">
        <ele>703.6</ele>
        <time>2014-06-29T10:01:17Z</time>
      </trkpt>
      <trkpt lat="46.64173" lon="5.84111">
        <ele>702.7</ele>
        <time>2014-06-29T10:01:19Z</time>
      </trkpt>
      <trkpt lat="46.64179" lon="5.84088">
        <ele>701.5</ele>
        <time>2014-06-29T10:01:21Z</time>
      </trkpt>
      <trkpt lat="46.64185" lon="5.84065">
        <ele>700.8</ele>
        <time>2014-06-29T10:01:23Z</time>
      </trkpt>
      <trkpt lat="46.6419" lon="5.84043">
        <ele>699.8</ele>
        <time>2014-06-29T10:01:25Z</time>
      </trkpt>
      <trkpt lat="46.64196" lon="5.84021">
        <ele>699.3</ele>
        <time>2014-06-29T10:01:27Z</time>
      </trkpt>
      <trkpt lat="46.642" lon="5.83998">
        <ele>698.6</ele>
        <time>2014-06-29T10:01:29Z</time>
      </trkpt>
      <trkpt lat="46.64204" lon="5.83977">
        <ele>698.3</ele>
        <time>2014-06-29T10:01:31Z</time>
      </trkpt>
      <trkpt lat="46.64208" lon="5.83955">
        <ele>698.1</ele>
        <time>2014-06-29T10:01:33Z</time>
      </trkpt>
      <trkpt lat="46.64211" lon="5.83933">
        <ele>697.8</ele>
        <time>2014-06-29T10:01:35Z</time>
      </trkpt>
      <trkpt lat="46.64213" lon="5.83911">
        <ele>697</ele>
        <time>2014-06-29T10:01:37Z</time>
      </trkpt>
      <trkpt lat="46.64216" lon="5.83889">
        <ele>696.9</ele>
        <time>2014-06-29T10:01:39Z</time>
      </trkpt>
      <trkpt lat="46.64218" lon="5.83868">
        <ele>696.8</ele>
        <time>2014-06-29T10:01:41Z</time>
      </trkpt>
      <trkpt lat="46.64221" lon="5.83847">
        <ele>696.6</ele>
        <time>2014-06-29T10:01:43Z</time>
      </trkpt>
      <trkpt lat="46.64224" lon="5.83826">
        <ele>696.5</ele>
        <time>2014-06-29T10:01:45Z</time>
      </trkpt>
      <trkpt lat="46.64229" lon="5.83808">
        <ele>695.8</ele>
        <time>2014-06-29T10:01:47Z</time>
      </trkpt>
      <trkpt lat="46.64239" lon="5.83794">
        <ele>695.2</ele>
        <time>2014-06-29T10:01:49Z</time>
      </trkpt>
      <trkpt lat="46.64251" lon="5.83783">
        <ele>694.4</ele>
        <time>2014-06-29T10:01:51Z</time>
      </trkpt>
      <trkpt lat="46.64266" lon="5.8378">
        <ele>693.3</ele>
        <time>2014-06-29T10:01:53Z</time>
      </trkpt>
      <trkpt lat="46.64283" lon="5.83785">
        <ele>692.2</ele>
        <time>2014-06-29T10:01:55Z</time>
      </trkpt>
      <trkpt lat="46.64298" lon="5.83791">
        <ele>691</ele>
        <time>2014-06-29T10:01:57Z</time>
      </trkpt>
      <trkpt lat="46.64312" lon="5.83789">
        <ele>690</ele>
        <time>2014-06-29T10:01:59Z</time>
      </trkpt>
      <trkpt lat="46.64327" lon="5.83779">
        <ele>689.3</ele>
        <time>2014-06-29T10:02:01Z</time>
      </trkpt>
      <trkpt lat="46.64347" lon="5.83741">
        <ele>686.7</ele>
        <time>2014-06-29T10:02:05Z</time>
      </trkpt>
      <trkpt lat="46.64359" lon="5.83723">
        <ele>685.2</ele>
        <time>2014-06-29T10:02:07Z</time>
      </trkpt>
      <trkpt lat="46.64371" lon="5.83706">
        <ele>684.3</ele>
        <time>2014-06-29T10:02:09Z</time>
      </trkpt>
      <trkpt lat="46.64382" lon="5.83688">
        <ele>683.5</ele>
        <time>2014-06-29T10:02:11Z</time>
      </trkpt>
      <trkpt lat="46.64393" lon="5.83669">
        <ele>682.6</ele>
        <time>2014-06-29T10:02:13Z</time>
      </trkpt>
      <trkpt lat="46.64401" lon="5.83649">
        <ele>681.6</ele>
        <time>2014-06-29T10:02:15Z</time>
      </trkpt>
      <trkpt lat="46.64406" lon="5.83626">
        <ele>680.8</ele>
        <time>2014-06-29T10:02:17Z</time>
      </trkpt>
      <trkpt lat="46.64408" lon="5.83603">
        <ele>679.9</ele>
        <time>2014-06-29T10:02:19Z</time>
      </trkpt>
      <trkpt lat="46.64412" lon="5.83577">
        <ele>678.9</ele>
        <time>2014-06-29T10:02:21Z</time>
      </trkpt>
      <trkpt lat="46.64416" lon="5.83564">
        <ele>678.3</ele>
        <time>2014-06-29T10:02:22Z</time>
      </trkpt>
      <trkpt lat="46.64419" lon="5.83551">
        <ele>677.7</ele>
        <time>2014-06-29T10:02:23Z</time>
      </trkpt>
      <trkpt lat="46.64421" lon="5.83537">
        <ele>677</ele>
        <time>2014-06-29T10:02:24Z</time>
      </trkpt>
      <trkpt lat="46.64422" lon="5.83522">
        <ele>676.3</ele>
        <time>2014-06-29T10:02:25Z</time>
      </trkpt>
      <trkpt lat="46.64422" lon="5.83507">
        <ele>675.7</ele>
        <time>2014-06-29T10:02:26Z</time>
      </trkpt>
      <trkpt lat="46.64421" lon="5.83492">
        <ele>675.1</ele>
        <time>2014-06-29T10:02:27Z</time>
      </trkpt>
      <trkpt lat="46.64421" lon="5.83476">
        <ele>674.4</ele>
        <time>2014-06-29T10:02:28Z</time>
      </trkpt>
      <trkpt lat="46.64421" lon="5.8346">
        <ele>673.6</ele>
        <time>2014-06-29T10:02:29Z</time>
      </trkpt>
      <trkpt lat="46.64421" lon="5.83445">
        <ele>672.9</ele>
        <time>2014-06-29T10:02:30Z</time>
      </trkpt>
      <trkpt lat="46.6442" lon="5.83429">
        <ele>672.3</ele>
        <time>2014-06-29T10:02:31Z</time>
      </trkpt>
      <trkpt lat="46.64419" lon="5.83414">
        <ele>671.6</ele>
        <time>2014-06-29T10:02:32Z</time>
      </trkpt>
      <trkpt lat="46.64421" lon="5.83399">
        <ele>670.8</ele>
        <time>2014-06-29T10:02:33Z</time>
      </trkpt>
      <trkpt lat="46.64424" lon="5.83385">
        <ele>670.1</ele>
        <time>2014-06-29T10:02:34Z</time>
      </trkpt>
      <trkpt lat="46.64429" lon="5.83371">
        <ele>669.3</ele>
        <time>2014-06-29T10:02:35Z</time>
      </trkpt>
      <trkpt lat="46.64435" lon="5.83359">
        <ele>668.7</ele>
        <time>2014-06-29T10:02:36Z</time>
      </trkpt>
      <trkpt lat="46.64441" lon="5.83348">
        <ele>667.9</ele>
        <time>2014-06-29T10:02:37Z</time>
      </trkpt>
      <trkpt lat="46.64448" lon="5.83338">
        <ele>667.2</ele>
        <time>2014-06-29T10:02:38Z</time>
      </trkpt>
      <trkpt lat="46.64456" lon="5.83328">
        <ele>666.8</ele>
        <time>2014-06-29T10:02:39Z</time>
      </trkpt>
      <trkpt lat="46.64462" lon="5.83317">
        <ele>666.4</ele>
        <time>2014-06-29T10:02:40Z</time>
      </trkpt>
      <trkpt lat="46.64468" lon="5.83306">
        <ele>665.8</ele>
        <time>2014-06-29T10:02:41Z</time>
      </trkpt>
      <trkpt lat="46.64473" lon="5.83294">
        <ele>665.3</ele>
        <time>2014-06-29T10:02:42Z</time>
      </trkpt>
      <trkpt lat="46.64477" lon="5.83282">
        <ele>664.9</ele>
        <time>2014-06-29T10:02:43Z</time>
      </trkpt>
      <trkpt lat="46.6448" lon="5.83269">
        <ele>664.7</ele>
        <time>2014-06-29T10:02:44Z</time>
      </trkpt>
      <trkpt lat="46.64483" lon="5.83257">
        <ele>664.4</ele>
        <time>2014-06-29T10:02:45Z</time>
      </trkpt>
      <trkpt lat="46.64489" lon="5.83233">
        <ele>663.5</ele>
        <time>2014-06-29T10:02:47Z</time>
      </trkpt>
      <trkpt lat="46.64496" lon="5.83209">
        <ele>662.2</ele>
        <time>2014-06-29T10:02:49Z</time>
      </trkpt>
      <trkpt lat="46.64503" lon="5.83184">
        <ele>661.1</ele>
        <time>2014-06-29T10:02:51Z</time>
      </trkpt>
      <trkpt lat="46.64506" lon="5.83172">
        <ele>660.7</ele>
        <time>2014-06-29T10:02:52Z</time>
      </trkpt>
      <trkpt lat="46.6451" lon="5.83159">
        <ele>660.4</ele>
        <time>2014-06-29T10:02:53Z</time>
      </trkpt>
      <trkpt lat="46.64514" lon="5.83147">
        <ele>660</ele>
        <time>2014-06-29T10:02:54Z</time>
      </trkpt>
      <trkpt lat="46.64518" lon="5.83135">
        <ele>659.6</ele>
        <time>2014-06-29T10:02:55Z</time>
      </trkpt>
      <trkpt lat="46.64522" lon="5.83123">
        <ele>659.2</ele>
        <time>2014-06-29T10:02:56Z</time>
      </trkpt>
      <trkpt lat="46.64527" lon="5.83112">
        <ele>658.9</ele>
        <time>2014-06-29T10:02:57Z</time>
      </trkpt>
      <trkpt lat="46.64533" lon="5.83102">
        <ele>658.5</ele>
        <time>2014-06-29T10:02:58Z</time>
      </trkpt>
      <trkpt lat="46.6454" lon="5.83093">
        <ele>658.1</ele>
        <time>2014-06-29T10:02:59Z</time>
      </trkpt>
      <trkpt lat="46.64554" lon="5.83078">
        <ele>657.5</ele>
        <time>2014-06-29T10:03:01Z</time>
      </trkpt>
      <trkpt lat="46.64568" lon="5.83063">
        <ele>656.8</ele>
        <time>2014-06-29T10:03:03Z</time>
      </trkpt>
      <trkpt lat="46.64589" lon="5.83037">
        <ele>656.4</ele>
        <time>2014-06-29T10:03:07Z</time>
      </trkpt>
      <trkpt lat="46.64595" lon="5.83023">
        <ele>656.4</ele>
        <time>2014-06-29T10:03:09Z</time>
      </trkpt>
      <trkpt lat="46.64599" lon="5.83007">
        <ele>656.7</ele>
        <time>2014-06-29T10:03:11Z</time>
      </trkpt>
      <trkpt lat="46.64602" lon="5.82992">
        <ele>657</ele>
        <time>2014-06-29T10:03:13Z</time>
      </trkpt>
      <trkpt lat="46.64605" lon="5.82976">
        <ele>657.3</ele>
        <time>2014-06-29T10:03:15Z</time>
      </trkpt>
      <trkpt lat="46.64608" lon="5.8296">
        <ele>657.2</ele>
        <time>2014-06-29T10:03:17Z</time>
      </trkpt>
      <trkpt lat="46.6461" lon="5.82944">
        <ele>657</ele>
        <time>2014-06-29T10:03:19Z</time>
      </trkpt>
      <trkpt lat="46.64613" lon="5.82927">
        <ele>656.6</ele>
        <time>2014-06-29T10:03:21Z</time>
      </trkpt>
      <trkpt lat="46.64615" lon="5.82909">
        <ele>656.4</ele>
        <time>2014-06-29T10:03:23Z</time>
      </trkpt>
      <trkpt lat="46.64617" lon="5.8289">
        <ele>656</ele>
        <time>2014-06-29T10:03:25Z</time>
      </trkpt>
      <trkpt lat="46.64617" lon="5.82869">
        <ele>655.5</ele>
        <time>2014-06-29T10:03:27Z</time>
      </trkpt>
      <trkpt lat="46.64618" lon="5.82848">
        <ele>655.1</ele>
        <time>2014-06-29T10:03:29Z</time>
      </trkpt>
      <trkpt lat="46.64618" lon="5.82826">
        <ele>654.8</ele>
        <time>2014-06-29T10:03:31Z</time>
      </trkpt>
      <trkpt lat="46.64617" lon="5.82804">
        <ele>654.2</ele>
        <time>2014-06-29T10:03:33Z</time>
      </trkpt>
      <trkpt lat="46.64617" lon="5.82781">
        <ele>653.5</ele>
        <time>2014-06-29T10:03:35Z</time>
      </trkpt>
      <trkpt lat="46.64616" lon="5.82758">
        <ele>652.9</ele>
        <time>2014-06-29T10:03:37Z</time>
      </trkpt>
      <trkpt lat="46.64615" lon="5.82735">
        <ele>652.3</ele>
        <time>2014-06-29T10:03:39Z</time>
      </trkpt>
      <trkpt lat="46.64614" lon="5.82712">
        <ele>651.7</ele>
        <time>2014-06-29T10:03:41Z</time>
      </trkpt>
      <trkpt lat="46.64613" lon="5.8269">
        <ele>651.5</ele>
        <time>2014-06-29T10:03:43Z</time>
      </trkpt>
      <trkpt lat="46.64613" lon="5.82667">
        <ele>650.8</ele>
        <time>2014-06-29T10:03:45Z</time>
      </trkpt>
      <trkpt lat="46.64616" lon="5.82646">
        <ele>650.2</ele>
        <time>2014-06-29T10:03:47Z</time>
      </trkpt>
      <trkpt lat="46.6462" lon="5.82625">
        <ele>649.7</ele>
        <time>2014-06-29T10:03:49Z</time>
      </trkpt>
      <trkpt lat="46.64625" lon="5.82605">
        <ele>649.1</ele>
        <time>2014-06-29T10:03:51Z</time>
      </trkpt>
      <trkpt lat="46.64631" lon="5.82585">
        <ele>648.9</ele>
        <time>2014-06-29T10:03:53Z</time>
      </trkpt>
      <trkpt lat="46.64638" lon="5.82565">
        <ele>648.3</ele>
        <time>2014-06-29T10:03:55Z</time>
      </trkpt>
      <trkpt lat="46.64647" lon="5.82546">
        <ele>647.6</ele>
        <time>2014-06-29T10:03:57Z</time>
      </trkpt>
      <trkpt lat="46.64657" lon="5.82527">
        <ele>646.8</ele>
        <time>2014-06-29T10:03:59Z</time>
      </trkpt>
      <trkpt lat="46.64669" lon="5.82509">
        <ele>646.3</ele>
        <time>2014-06-29T10:04:01Z</time>
      </trkpt>
      <trkpt lat="46.64682" lon="5.82492">
        <ele>645.5</ele>
        <time>2014-06-29T10:04:03Z</time>
      </trkpt>
      <trkpt lat="46.64694" lon="5.82475">
        <ele>644.8</ele>
        <time>2014-06-29T10:04:05Z</time>
      </trkpt>
      <trkpt lat="46.6472" lon="5.82442">
        <ele>642.9</ele>
        <time>2014-06-29T10:04:09Z</time>
      </trkpt>
      <trkpt lat="46.64732" lon="5.82424">
        <ele>642.2</ele>
        <time>2014-06-29T10:04:11Z</time>
      </trkpt>
      <trkpt lat="46.64744" lon="5.82405">
        <ele>641.5</ele>
        <time>2014-06-29T10:04:13Z</time>
      </trkpt>
      <trkpt lat="46.64755" lon="5.82385">
        <ele>640.8</ele>
        <time>2014-06-29T10:04:15Z</time>
      </trkpt>
      <trkpt lat="46.64761" lon="5.82375">
        <ele>640.3</ele>
        <time>2014-06-29T10:04:16Z</time>
      </trkpt>
      <trkpt lat="46.64772" lon="5.82356">
        <ele>639.2</ele>
        <time>2014-06-29T10:04:18Z</time>
      </trkpt>
      <trkpt lat="46.64785" lon="5.82337">
        <ele>638.4</ele>
        <time>2014-06-29T10:04:20Z</time>
      </trkpt>
      <trkpt lat="46.64797" lon="5.82318">
        <ele>638</ele>
        <time>2014-06-29T10:04:22Z</time>
      </trkpt>
      <trkpt lat="46.64809" lon="5.823">
        <ele>637.4</ele>
        <time>2014-06-29T10:04:24Z</time>
      </trkpt>
      <trkpt lat="46.64822" lon="5.82283">
        <ele>636.7</ele>
        <time>2014-06-29T10:04:26Z</time>
      </trkpt>
      <trkpt lat="46.64836" lon="5.82268">
        <ele>636.1</ele>
        <time>2014-06-29T10:04:28Z</time>
      </trkpt>
      <trkpt lat="46.64851" lon="5.82255">
        <ele>635.3</ele>
        <time>2014-06-29T10:04:30Z</time>
      </trkpt>
      <trkpt lat="46.64866" lon="5.82244">
        <ele>634.7</ele>
        <time>2014-06-29T10:04:32Z</time>
      </trkpt>
      <trkpt lat="46.64881" lon="5.82233">
        <ele>633.9</ele>
        <time>2014-06-29T10:04:34Z</time>
      </trkpt>
      <trkpt lat="46.64896" lon="5.82223">
        <ele>633.2</ele>
        <time>2014-06-29T10:04:36Z</time>
      </trkpt>
      <trkpt lat="46.64911" lon="5.82213">
        <ele>632.7</ele>
        <time>2014-06-29T10:04:38Z</time>
      </trkpt>
      <trkpt lat="46.64926" lon="5.82205">
        <ele>632.2</ele>
        <time>2014-06-29T10:04:40Z</time>
      </trkpt>
      <trkpt lat="46.64942" lon="5.82196">
        <ele>631.7</ele>
        <time>2014-06-29T10:04:42Z</time>
      </trkpt>
      <trkpt lat="46.64955" lon="5.82186">
        <ele>631.3</ele>
        <time>2014-06-29T10:04:44Z</time>
      </trkpt>
      <trkpt lat="46.64969" lon="5.82173">
        <ele>630.9</ele>
        <time>2014-06-29T10:04:46Z</time>
      </trkpt>
      <trkpt lat="46.64983" lon="5.8216">
        <ele>630.2</ele>
        <time>2014-06-29T10:04:48Z</time>
      </trkpt>
      <trkpt lat="46.64997" lon="5.82148">
        <ele>629.7</ele>
        <time>2014-06-29T10:04:50Z</time>
      </trkpt>
      <trkpt lat="46.65011" lon="5.82134">
        <ele>628.7</ele>
        <time>2014-06-29T10:04:52Z</time>
      </trkpt>
      <trkpt lat="46.65025" lon="5.82121">
        <ele>627.5</ele>
        <time>2014-06-29T10:04:54Z</time>
      </trkpt>
      <trkpt lat="46.65037" lon="5.82111">
        <ele>626.5</ele>
        <time>2014-06-29T10:04:56Z</time>
      </trkpt>
      <trkpt lat="46.65048" lon="5.82105">
        <ele>625.6</ele>
        <time>2014-06-29T10:04:58Z</time>
      </trkpt>
      <trkpt lat="46.65057" lon="5.82097">
        <ele>624.8</ele>
        <time>2014-06-29T10:05:00Z</time>
      </trkpt>
      <trkpt lat="46.65067" lon="5.82087">
        <ele>624</ele>
        <time>2014-06-29T10:05:02Z</time>
      </trkpt>
      <trkpt lat="46.65077" lon="5.82079">
        <ele>623.5</ele>
        <time>2014-06-29T10:05:04Z</time>
      </trkpt>
      <trkpt lat="46.65087" lon="5.82072">
        <ele>622.7</ele>
        <time>2014-06-29T10:05:06Z</time>
      </trkpt>
      <trkpt lat="46.6511" lon="5.82061">
        <ele>621.4</ele>
        <time>2014-06-29T10:05:10Z</time>
      </trkpt>
      <trkpt lat="46.65124" lon="5.82056">
        <ele>621</ele>
        <time>2014-06-29T10:05:12Z</time>
      </trkpt>
      <trkpt lat="46.65135" lon="5.8205">
        <ele>620.6</ele>
        <time>2014-06-29T10:05:14Z</time>
      </trkpt>
      <trkpt lat="46.65144" lon="5.82045">
        <ele>620.2</ele>
        <time>2014-06-29T10:05:16Z</time>
      </trkpt>
      <trkpt lat="46.65155" lon="5.82039">
        <ele>619.8</ele>
        <time>2014-06-29T10:05:18Z</time>
      </trkpt>
      <trkpt lat="46.65165" lon="5.82029">
        <ele>619.3</ele>
        <time>2014-06-29T10:05:20Z</time>
      </trkpt>
      <trkpt lat="46.65175" lon="5.82018">
        <ele>618.6</ele>
        <time>2014-06-29T10:05:22Z</time>
      </trkpt>
      <trkpt lat="46.65186" lon="5.82004">
        <ele>618</ele>
        <time>2014-06-29T10:05:24Z</time>
      </trkpt>
      <trkpt lat="46.65198" lon="5.8199">
        <ele>617.1</ele>
        <time>2014-06-29T10:05:26Z</time>
      </trkpt>
      <trkpt lat="46.65212" lon="5.81979">
        <ele>616.2</ele>
        <time>2014-06-29T10:05:28Z</time>
      </trkpt>
      <trkpt lat="46.65226" lon="5.81968">
        <ele>615.5</ele>
        <time>2014-06-29T10:05:30Z</time>
      </trkpt>
      <trkpt lat="46.65241" lon="5.81958">
        <ele>614.8</ele>
        <time>2014-06-29T10:05:32Z</time>
      </trkpt>
      <trkpt lat="46.65257" lon="5.81946">
        <ele>614.2</ele>
        <time>2014-06-29T10:05:34Z</time>
      </trkpt>
      <trkpt lat="46.65265" lon="5.8194">
        <ele>613.7</ele>
        <time>2014-06-29T10:05:35Z</time>
      </trkpt>
      <trkpt lat="46.65274" lon="5.81935">
        <ele>613.4</ele>
        <time>2014-06-29T10:05:36Z</time>
      </trkpt>
      <trkpt lat="46.65282" lon="5.81929">
        <ele>612.8</ele>
        <time>2014-06-29T10:05:37Z</time>
      </trkpt>
      <trkpt lat="46.65291" lon="5.81924">
        <ele>612.3</ele>
        <time>2014-06-29T10:05:38Z</time>
      </trkpt>
      <trkpt lat="46.65299" lon="5.81919">
        <ele>611.9</ele>
        <time>2014-06-29T10:05:39Z</time>
      </trkpt>
      <trkpt lat="46.65308" lon="5.81914">
        <ele>611.6</ele>
        <time>2014-06-29T10:05:40Z</time>
      </trkpt>
      <trkpt lat="46.65317" lon="5.8191">
        <ele>611.2</ele>
        <time>2014-06-29T10:05:41Z</time>
      </trkpt>
      <trkpt lat="46.65326" lon="5.81906">
        <ele>611</ele>
        <time>2014-06-29T10:05:42Z</time>
      </trkpt>
      <trkpt lat="46.65335" lon="5.81902">
        <ele>610.5</ele>
        <time>2014-06-29T10:05:43Z</time>
      </trkpt>
      <trkpt lat="46.65343" lon="5.81897">
        <ele>610.3</ele>
        <time>2014-06-29T10:05:44Z</time>
      </trkpt>
      <trkpt lat="46.65351" lon="5.81891">
        <ele>610</ele>
        <time>2014-06-29T10:05:45Z</time>
      </trkpt>
      <trkpt lat="46.65366" lon="5.81876">
        <ele>609.4</ele>
        <time>2014-06-29T10:05:47Z</time>
      </trkpt>
      <trkpt lat="46.65379" lon="5.81859">
        <ele>608.5</ele>
        <time>2014-06-29T10:05:49Z</time>
      </trkpt>
      <trkpt lat="46.65394" lon="5.81847">
        <ele>607.8</ele>
        <time>2014-06-29T10:05:51Z</time>
      </trkpt>
      <trkpt lat="46.65408" lon="5.81838">
        <ele>607.4</ele>
        <time>2014-06-29T10:05:53Z</time>
      </trkpt>
      <trkpt lat="46.65418" lon="5.8183">
        <ele>607.4</ele>
        <time>2014-06-29T10:05:55Z</time>
      </trkpt>
      <trkpt lat="46.65427" lon="5.81825">
        <ele>607.6</ele>
        <time>2014-06-29T10:05:57Z</time>
      </trkpt>
      <trkpt lat="46.65438" lon="5.81825">
        <ele>608.1</ele>
        <time>2014-06-29T10:06:00Z</time>
      </trkpt>
      <trkpt lat="46.65448" lon="5.81826">
        <ele>608.8</ele>
        <time>2014-06-29T10:06:04Z</time>
      </trkpt>
      <trkpt lat="46.65459" lon="5.81825">
        <ele>610.2</ele>
        <time>2014-06-29T10:06:10Z</time>
      </trkpt>
      <trkpt lat="46.65476" lon="5.81835">
        <ele>613.5</ele>
        <time>2014-06-29T10:06:24Z</time>
      </trkpt>
      <trkpt lat="46.65474" lon="5.81849">
        <ele>614.4</ele>
        <time>2014-06-29T10:06:28Z</time>
      </trkpt>
      <trkpt lat="46.65474" lon="5.81863">
        <ele>615.4</ele>
        <time>2014-06-29T10:06:33Z</time>
      </trkpt>
      <trkpt lat="46.6548" lon="5.81874">
        <ele>616.7</ele>
        <time>2014-06-29T10:06:39Z</time>
      </trkpt>
      <trkpt lat="46.6549" lon="5.81869">
        <ele>618.1</ele>
        <time>2014-06-29T10:06:45Z</time>
      </trkpt>
      <trkpt lat="46.65497" lon="5.81856">
        <ele>618.8</ele>
        <time>2014-06-29T10:06:50Z</time>
      </trkpt>
      <trkpt lat="46.65502" lon="5.81844">
        <ele>619.3</ele>
        <time>2014-06-29T10:06:54Z</time>
      </trkpt>
      <trkpt lat="46.65505" lon="5.81829">
        <ele>619.6</ele>
        <time>2014-06-29T10:06:58Z</time>
      </trkpt>
      <trkpt lat="46.6551" lon="5.81813">
        <ele>619.4</ele>
        <time>2014-06-29T10:07:02Z</time>
      </trkpt>
      <trkpt lat="46.65515" lon="5.81802">
        <ele>619.3</ele>
        <time>2014-06-29T10:07:05Z</time>
      </trkpt>
      <trkpt lat="46.65523" lon="5.81792">
        <ele>620.2</ele>
        <time>2014-06-29T10:07:11Z</time>
      </trkpt>
      <trkpt lat="46.65533" lon="5.81768">
        <ele>622.5</ele>
        <time>2014-06-29T10:07:24Z</time>
      </trkpt>
      <trkpt lat="46.6554" lon="5.81756">
        <ele>622.9</ele>
        <time>2014-06-29T10:07:29Z</time>
      </trkpt>
      <trkpt lat="46.65546" lon="5.81745">
        <ele>623.9</ele>
        <time>2014-06-29T10:07:34Z</time>
      </trkpt>
      <trkpt lat="46.65549" lon="5.81732">
        <ele>624.7</ele>
        <time>2014-06-29T10:07:39Z</time>
      </trkpt>
      <trkpt lat="46.65552" lon="5.81719">
        <ele>624.8</ele>
        <time>2014-06-29T10:07:43Z</time>
      </trkpt>
      <trkpt lat="46.65555" lon="5.81703">
        <ele>624.9</ele>
        <time>2014-06-29T10:07:47Z</time>
      </trkpt>
      <trkpt lat="46.65559" lon="5.81688">
        <ele>625.2</ele>
        <time>2014-06-29T10:07:51Z</time>
      </trkpt>
      <trkpt lat="46.65562" lon="5.81676">
        <ele>625.3</ele>
        <time>2014-06-29T10:07:55Z</time>
      </trkpt>
      <trkpt lat="46.65569" lon="5.81664">
        <ele>625.4</ele>
        <time>2014-06-29T10:07:59Z</time>
      </trkpt>
      <trkpt lat="46.65576" lon="5.81654">
        <ele>626.5</ele>
        <time>2014-06-29T10:08:03Z</time>
      </trkpt>
      <trkpt lat="46.65581" lon="5.81642">
        <ele>627.3</ele>
        <time>2014-06-29T10:08:08Z</time>
      </trkpt>
      <trkpt lat="46.65588" lon="5.81632">
        <ele>628.2</ele>
        <time>2014-06-29T10:08:13Z</time>
      </trkpt>
      <trkpt lat="46.6561" lon="5.81629">
        <ele>629.2</ele>
        <time>2014-06-29T10:08:22Z</time>
      </trkpt>
      <trkpt lat="46.65618" lon="5.81632">
        <ele>629.5</ele>
        <time>2014-06-29T10:08:25Z</time>
      </trkpt>
      <trkpt lat="46.65628" lon="5.81631">
        <ele>630.3</ele>
        <time>2014-06-29T10:08:30Z</time>
      </trkpt>
      <trkpt lat="46.65637" lon="5.81637">
        <ele>631.2</ele>
        <time>2014-06-29T10:08:38Z</time>
      </trkpt>
      <trkpt lat="46.65644" lon="5.81646">
        <ele>631.8</ele>
        <time>2014-06-29T10:08:44Z</time>
      </trkpt>
      <trkpt lat="46.65653" lon="5.8165">
        <ele>632.9</ele>
        <time>2014-06-29T10:08:50Z</time>
      </trkpt>
      <trkpt lat="46.65662" lon="5.81652">
        <ele>633.8</ele>
        <time>2014-06-29T10:08:57Z</time>
      </trkpt>
      <trkpt lat="46.65671" lon="5.81649">
        <ele>634.8</ele>
        <time>2014-06-29T10:09:04Z</time>
      </trkpt>
      <trkpt lat="46.65677" lon="5.81639">
        <ele>635.9</ele>
        <time>2014-06-29T10:09:11Z</time>
      </trkpt>
      <trkpt lat="46.65685" lon="5.81633">
        <ele>636.6</ele>
        <time>2014-06-29T10:09:18Z</time>
      </trkpt>
      <trkpt lat="46.65698" lon="5.81609">
        <ele>637.4</ele>
        <time>2014-06-29T10:09:28Z</time>
      </trkpt>
      <trkpt lat="46.65704" lon="5.81597">
        <ele>637.9</ele>
        <time>2014-06-29T10:09:33Z</time>
      </trkpt>
      <trkpt lat="46.65709" lon="5.81581">
        <ele>638.1</ele>
        <time>2014-06-29T10:09:38Z</time>
      </trkpt>
      <trkpt lat="46.65716" lon="5.81569">
        <ele>638.9</ele>
        <time>2014-06-29T10:09:43Z</time>
      </trkpt>
      <trkpt lat="46.65723" lon="5.8156">
        <ele>639.4</ele>
        <time>2014-06-29T10:09:49Z</time>
      </trkpt>
      <trkpt lat="46.65731" lon="5.8155">
        <ele>639.6</ele>
        <time>2014-06-29T10:09:55Z</time>
      </trkpt>
      <trkpt lat="46.65739" lon="5.81538">
        <ele>640</ele>
        <time>2014-06-29T10:10:01Z</time>
      </trkpt>
      <trkpt lat="46.65746" lon="5.81525">
        <ele>640.1</ele>
        <time>2014-06-29T10:10:04Z</time>
      </trkpt>
      <trkpt lat="46.65755" lon="5.81518">
        <ele>640.3</ele>
        <time>2014-06-29T10:10:09Z</time>
      </trkpt>
      <trkpt lat="46.65762" lon="5.81508">
        <ele>640.6</ele>
        <time>2014-06-29T10:10:14Z</time>
      </trkpt>
      <trkpt lat="46.65771" lon="5.815">
        <ele>640.1</ele>
        <time>2014-06-29T10:10:19Z</time>
      </trkpt>
      <trkpt lat="46.6579" lon="5.81492">
        <ele>641.2</ele>
        <time>2014-06-29T10:10:29Z</time>
      </trkpt>
      <trkpt lat="46.65799" lon="5.81486">
        <ele>641.7</ele>
        <time>2014-06-29T10:10:33Z</time>
      </trkpt>
      <trkpt lat="46.65809" lon="5.81486">
        <ele>642.1</ele>
        <time>2014-06-29T10:10:39Z</time>
      </trkpt>
      <trkpt lat="46.65819" lon="5.81489">
        <ele>641.7</ele>
        <time>2014-06-29T10:10:44Z</time>
      </trkpt>
      <trkpt lat="46.65829" lon="5.81494">
        <ele>642</ele>
        <time>2014-06-29T10:10:51Z</time>
      </trkpt>
      <trkpt lat="46.65838" lon="5.81498">
        <ele>642.2</ele>
        <time>2014-06-29T10:10:57Z</time>
      </trkpt>
      <trkpt lat="46.65848" lon="5.81499">
        <ele>642.1</ele>
        <time>2014-06-29T10:11:03Z</time>
      </trkpt>
      <trkpt lat="46.65856" lon="5.81505">
        <ele>642.2</ele>
        <time>2014-06-29T10:11:07Z</time>
      </trkpt>
      <trkpt lat="46.65865" lon="5.81512">
        <ele>642.4</ele>
        <time>2014-06-29T10:11:14Z</time>
      </trkpt>
      <trkpt lat="46.65875" lon="5.81511">
        <ele>642.2</ele>
        <time>2014-06-29T10:11:20Z</time>
      </trkpt>
      <trkpt lat="46.65894" lon="5.81523">
        <ele>642.7</ele>
        <time>2014-06-29T10:11:32Z</time>
      </trkpt>
      <trkpt lat="46.65903" lon="5.81531">
        <ele>643</ele>
        <time>2014-06-29T10:11:37Z</time>
      </trkpt>
      <trkpt lat="46.65912" lon="5.81538">
        <ele>643.2</ele>
        <time>2014-06-29T10:11:40Z</time>
      </trkpt>
      <trkpt lat="46.65923" lon="5.81544">
        <ele>642.8</ele>
        <time>2014-06-29T10:11:43Z</time>
      </trkpt>
      <trkpt lat="46.65932" lon="5.81552">
        <ele>642.5</ele>
        <time>2014-06-29T10:11:47Z</time>
      </trkpt>
      <trkpt lat="46.6594" lon="5.81558">
        <ele>642.3</ele>
        <time>2014-06-29T10:11:51Z</time>
      </trkpt>
      <trkpt lat="46.65949" lon="5.81568">
        <ele>642.6</ele>
        <time>2014-06-29T10:11:55Z</time>
      </trkpt>
      <trkpt lat="46.65958" lon="5.81579">
        <ele>642.6</ele>
        <time>2014-06-29T10:11:59Z</time>
      </trkpt>
      <trkpt lat="46.65966" lon="5.81586">
        <ele>642.2</ele>
        <time>2014-06-29T10:12:03Z</time>
      </trkpt>
      <trkpt lat="46.65974" lon="5.81591">
        <ele>641.5</ele>
        <time>2014-06-29T10:12:06Z</time>
      </trkpt>
      <trkpt lat="46.65983" lon="5.81599">
        <ele>638.6</ele>
        <time>2014-06-29T10:12:19Z</time>
      </trkpt>
      <trkpt lat="46.6599" lon="5.81609">
        <ele>638.1</ele>
        <time>2014-06-29T10:12:22Z</time>
      </trkpt>
      <trkpt lat="46.65997" lon="5.81636">
        <ele>636.1</ele>
        <time>2014-06-29T10:12:28Z</time>
      </trkpt>
      <trkpt lat="46.65993" lon="5.81652">
        <ele>634.9</ele>
        <time>2014-06-29T10:12:31Z</time>
      </trkpt>
      <trkpt lat="46.65989" lon="5.81665">
        <ele>633.6</ele>
        <time>2014-06-29T10:12:35Z</time>
      </trkpt>
      <trkpt lat="46.65983" lon="5.81677">
        <ele>632.9</ele>
        <time>2014-06-29T10:12:43Z</time>
      </trkpt>
      <trkpt lat="46.65976" lon="5.81686">
        <ele>632.9</ele>
        <time>2014-06-29T10:12:52Z</time>
      </trkpt>
      <trkpt lat="46.65971" lon="5.81701">
        <ele>632.7</ele>
        <time>2014-06-29T10:13:12Z</time>
      </trkpt>
      <trkpt lat="46.65962" lon="5.81713">
        <ele>632.8</ele>
        <time>2014-06-29T10:13:15Z</time>
      </trkpt>
      <trkpt lat="46.65957" lon="5.81725">
        <ele>632.5</ele>
        <time>2014-06-29T10:13:18Z</time>
      </trkpt>
      <trkpt lat="46.65956" lon="5.81738">
        <ele>632.5</ele>
        <time>2014-06-29T10:13:24Z</time>
      </trkpt>
      <trkpt lat="46.65955" lon="5.81763">
        <ele>632.2</ele>
        <time>2014-06-29T10:13:34Z</time>
      </trkpt>
      <trkpt lat="46.6596" lon="5.81777">
        <ele>632.1</ele>
        <time>2014-06-29T10:13:38Z</time>
      </trkpt>
      <trkpt lat="46.6597" lon="5.81778">
        <ele>631.1</ele>
        <time>2014-06-29T10:13:44Z</time>
      </trkpt>
      <trkpt lat="46.65979" lon="5.81778">
        <ele>629.3</ele>
        <time>2014-06-29T10:13:48Z</time>
      </trkpt>
      <trkpt lat="46.6599" lon="5.81781">
        <ele>627.1</ele>
        <time>2014-06-29T10:13:53Z</time>
      </trkpt>
      <trkpt lat="46.66" lon="5.81786">
        <ele>626.1</ele>
        <time>2014-06-29T10:13:57Z</time>
      </trkpt>
      <trkpt lat="46.66011" lon="5.81789">
        <ele>624.8</ele>
        <time>2014-06-29T10:14:01Z</time>
      </trkpt>
      <trkpt lat="46.6602" lon="5.81786">
        <ele>623.5</ele>
        <time>2014-06-29T10:14:04Z</time>
      </trkpt>
      <trkpt lat="46.66027" lon="5.81776">
        <ele>620.6</ele>
        <time>2014-06-29T10:14:09Z</time>
      </trkpt>
      <trkpt lat="46.66034" lon="5.81767">
        <ele>616.2</ele>
        <time>2014-06-29T10:14:16Z</time>
      </trkpt>
      <trkpt lat="46.66043" lon="5.81766">
        <ele>613</ele>
        <time>2014-06-29T10:14:21Z</time>
      </trkpt>
      <trkpt lat="46.66056" lon="5.8177">
        <ele>610.6</ele>
        <time>2014-06-29T10:14:25Z</time>
      </trkpt>
      <trkpt lat="46.66065" lon="5.81771">
        <ele>608.5</ele>
        <time>2014-06-29T10:14:28Z</time>
      </trkpt>
      <trkpt lat="46.66085" lon="5.81754">
        <ele>605.2</ele>
        <time>2014-06-29T10:14:36Z</time>
      </trkpt>
      <trkpt lat="46.66095" lon="5.81743">
        <ele>604.6</ele>
        <time>2014-06-29T10:14:39Z</time>
      </trkpt>
      <trkpt lat="46.66102" lon="5.81732">
        <ele>604.7</ele>
        <time>2014-06-29T10:14:43Z</time>
      </trkpt>
      <trkpt lat="46.6611" lon="5.81721">
        <ele>604.7</ele>
        <time>2014-06-29T10:14:46Z</time>
      </trkpt>
      <trkpt lat="46.66119" lon="5.81717">
        <ele>604.4</ele>
        <time>2014-06-29T10:14:49Z</time>
      </trkpt>
      <trkpt lat="46.66129" lon="5.81709">
        <ele>604.1</ele>
        <time>2014-06-29T10:14:52Z</time>
      </trkpt>
      <trkpt lat="46.66137" lon="5.81699">
        <ele>603.5</ele>
        <time>2014-06-29T10:14:55Z</time>
      </trkpt>
      <trkpt lat="46.66141" lon="5.81685">
        <ele>602.4</ele>
        <time>2014-06-29T10:14:58Z</time>
      </trkpt>
      <trkpt lat="46.66138" lon="5.81667">
        <ele>601.5</ele>
        <time>2014-06-29T10:15:01Z</time>
      </trkpt>
      <trkpt lat="46.66132" lon="5.8165">
        <ele>600.4</ele>
        <time>2014-06-29T10:15:04Z</time>
      </trkpt>
      <trkpt lat="46.66127" lon="5.81632">
        <ele>599.3</ele>
        <time>2014-06-29T10:15:07Z</time>
      </trkpt>
      <trkpt lat="46.66125" lon="5.81619">
        <ele>597.9</ele>
        <time>2014-06-29T10:15:10Z</time>
      </trkpt>
      <trkpt lat="46.66136" lon="5.81616">
        <ele>596.9</ele>
        <time>2014-06-29T10:15:15Z</time>
      </trkpt>
      <trkpt lat="46.66144" lon="5.81631">
        <ele>596.7</ele>
        <time>2014-06-29T10:15:18Z</time>
      </trkpt>
      <trkpt lat="46.66152" lon="5.81642">
        <ele>596.6</ele>
        <time>2014-06-29T10:15:21Z</time>
      </trkpt>
      <trkpt lat="46.66164" lon="5.81648">
        <ele>596.3</ele>
        <time>2014-06-29T10:15:24Z</time>
      </trkpt>
      <trkpt lat="46.66177" lon="5.81651">
        <ele>596.7</ele>
        <time>2014-06-29T10:15:27Z</time>
      </trkpt>
      <trkpt lat="46.66189" lon="5.81654">
        <ele>596.6</ele>
        <time>2014-06-29T10:15:30Z</time>
      </trkpt>
      <trkpt lat="46.66213" lon="5.81659">
        <ele>596.9</ele>
        <time>2014-06-29T10:15:36Z</time>
      </trkpt>
      <trkpt lat="46.66222" lon="5.81662">
        <ele>596.9</ele>
        <time>2014-06-29T10:15:38Z</time>
      </trkpt>
      <trkpt lat="46.66235" lon="5.81665">
        <ele>597.1</ele>
        <time>2014-06-29T10:15:41Z</time>
      </trkpt>
      <trkpt lat="46.66244" lon="5.81667">
        <ele>597.2</ele>
        <time>2014-06-29T10:15:43Z</time>
      </trkpt>
      <trkpt lat="46.66254" lon="5.8167">
        <ele>597.1</ele>
        <time>2014-06-29T10:15:45Z</time>
      </trkpt>
      <trkpt lat="46.66263" lon="5.81671">
        <ele>597</ele>
        <time>2014-06-29T10:15:47Z</time>
      </trkpt>
      <trkpt lat="46.66274" lon="5.81673">
        <ele>597.2</ele>
        <time>2014-06-29T10:15:50Z</time>
      </trkpt>
      <trkpt lat="46.66283" lon="5.81664">
        <ele>597.2</ele>
        <time>2014-06-29T10:15:54Z</time>
      </trkpt>
      <trkpt lat="46.66293" lon="5.81658">
        <ele>596.2</ele>
        <time>2014-06-29T10:15:59Z</time>
      </trkpt>
      <trkpt lat="46.66302" lon="5.8165">
        <ele>594.9</ele>
        <time>2014-06-29T10:16:03Z</time>
      </trkpt>
      <trkpt lat="46.66312" lon="5.8165">
        <ele>593</ele>
        <time>2014-06-29T10:16:09Z</time>
      </trkpt>
      <trkpt lat="46.66318" lon="5.81661">
        <ele>591.9</ele>
        <time>2014-06-29T10:16:14Z</time>
      </trkpt>
      <trkpt lat="46.66324" lon="5.81673">
        <ele>591.2</ele>
        <time>2014-06-29T10:16:17Z</time>
      </trkpt>
      <trkpt lat="46.66331" lon="5.81685">
        <ele>590.9</ele>
        <time>2014-06-29T10:16:20Z</time>
      </trkpt>
      <trkpt lat="46.66331" lon="5.81698">
        <ele>591.2</ele>
        <time>2014-06-29T10:16:25Z</time>
      </trkpt>
      <trkpt lat="46.6633" lon="5.81713">
        <ele>591.6</ele>
        <time>2014-06-29T10:16:40Z</time>
      </trkpt>
      <trkpt lat="46.66333" lon="5.81739">
        <ele>589.6</ele>
        <time>2014-06-29T10:16:57Z</time>
      </trkpt>
      <trkpt lat="46.66338" lon="5.81753">
        <ele>587.5</ele>
        <time>2014-06-29T10:17:17Z</time>
      </trkpt>
      <trkpt lat="46.66339" lon="5.81767">
        <ele>586.7</ele>
        <time>2014-06-29T10:17:20Z</time>
      </trkpt>
      <trkpt lat="46.66335" lon="5.81781">
        <ele>586.8</ele>
        <time>2014-06-29T10:17:26Z</time>
      </trkpt>
      <trkpt lat="46.66328" lon="5.81792">
        <ele>586.4</ele>
        <time>2014-06-29T10:17:31Z</time>
      </trkpt>
      <trkpt lat="46.6632" lon="5.81803">
        <ele>586.4</ele>
        <time>2014-06-29T10:17:36Z</time>
      </trkpt>
      <trkpt lat="46.66317" lon="5.81817">
        <ele>585.8</ele>
        <time>2014-06-29T10:17:43Z</time>
      </trkpt>
      <trkpt lat="46.66308" lon="5.81844">
        <ele>583.5</ele>
        <time>2014-06-29T10:17:55Z</time>
      </trkpt>
      <trkpt lat="46.66315" lon="5.81856">
        <ele>583.1</ele>
        <time>2014-06-29T10:18:00Z</time>
      </trkpt>
      <trkpt lat="46.6632" lon="5.81867">
        <ele>584.3</ele>
        <time>2014-06-29T10:18:07Z</time>
      </trkpt>
      <trkpt lat="46.66326" lon="5.81878">
        <ele>585.4</ele>
        <time>2014-06-29T10:18:15Z</time>
      </trkpt>
      <trkpt lat="46.66332" lon="5.81889">
        <ele>586</ele>
        <time>2014-06-29T10:18:25Z</time>
      </trkpt>
      <trkpt lat="46.66336" lon="5.81901">
        <ele>586.5</ele>
        <time>2014-06-29T10:18:35Z</time>
      </trkpt>
      <trkpt lat="46.66342" lon="5.81913">
        <ele>587.8</ele>
        <time>2014-06-29T10:18:49Z</time>
      </trkpt>
      <trkpt lat="46.66349" lon="5.81939">
        <ele>587.5</ele>
        <time>2014-06-29T10:19:06Z</time>
      </trkpt>
      <trkpt lat="46.66349" lon="5.81957">
        <ele>585.8</ele>
        <time>2014-06-29T10:19:09Z</time>
      </trkpt>
      <trkpt lat="46.6635" lon="5.81972">
        <ele>584.9</ele>
        <time>2014-06-29T10:19:12Z</time>
      </trkpt>
      <trkpt lat="46.66345" lon="5.81985">
        <ele>584.5</ele>
        <time>2014-06-29T10:19:18Z</time>
      </trkpt>
      <trkpt lat="46.66348" lon="5.81998">
        <ele>584.3</ele>
        <time>2014-06-29T10:19:23Z</time>
      </trkpt>
      <trkpt lat="46.66348" lon="5.82013">
        <ele>584.6</ele>
        <time>2014-06-29T10:19:28Z</time>
      </trkpt>
      <trkpt lat="46.66346" lon="5.82026">
        <ele>584.5</ele>
        <time>2014-06-29T10:19:32Z</time>
      </trkpt>
      <trkpt lat="46.66342" lon="5.82039">
        <ele>584.4</ele>
        <time>2014-06-29T10:19:36Z</time>
      </trkpt>
      <trkpt lat="46.66334" lon="5.82048">
        <ele>584.4</ele>
        <time>2014-06-29T10:19:41Z</time>
      </trkpt>
      <trkpt lat="46.6633" lon="5.82061">
        <ele>583.9</ele>
        <time>2014-06-29T10:19:52Z</time>
      </trkpt>
      <trkpt lat="46.66341" lon="5.8208">
        <ele>584.5</ele>
        <time>2014-06-29T10:20:11Z</time>
      </trkpt>
      <trkpt lat="46.66348" lon="5.82092">
        <ele>585.3</ele>
        <time>2014-06-29T10:20:16Z</time>
      </trkpt>
      <trkpt lat="46.66351" lon="5.82106">
        <ele>585.1</ele>
        <time>2014-06-29T10:20:21Z</time>
      </trkpt>
      <trkpt lat="46.66359" lon="5.82119">
        <ele>585.4</ele>
        <time>2014-06-29T10:20:25Z</time>
      </trkpt>
      <trkpt lat="46.66367" lon="5.82129">
        <ele>585.2</ele>
        <time>2014-06-29T10:20:29Z</time>
      </trkpt>
      <trkpt lat="46.66375" lon="5.82142">
        <ele>585.6</ele>
        <time>2014-06-29T10:20:33Z</time>
      </trkpt>
      <trkpt lat="46.66378" lon="5.82157">
        <ele>585.5</ele>
        <time>2014-06-29T10:20:37Z</time>
      </trkpt>
      <trkpt lat="46.6638" lon="5.8217">
        <ele>585.9</ele>
        <time>2014-06-29T10:20:41Z</time>
      </trkpt>
      <trkpt lat="46.66373" lon="5.8218">
        <ele>586.5</ele>
        <time>2014-06-29T10:20:45Z</time>
      </trkpt>
      <trkpt lat="46.66371" lon="5.82193">
        <ele>587.4</ele>
        <time>2014-06-29T10:20:50Z</time>
      </trkpt>
      <trkpt lat="46.66371" lon="5.82207">
        <ele>587.7</ele>
        <time>2014-06-29T10:20:54Z</time>
      </trkpt>
      <trkpt lat="46.66376" lon="5.82236">
        <ele>588.7</ele>
        <time>2014-06-29T10:21:02Z</time>
      </trkpt>
      <trkpt lat="46.66376" lon="5.82251">
        <ele>589</ele>
        <time>2014-06-29T10:21:05Z</time>
      </trkpt>
      <trkpt lat="46.66375" lon="5.82267">
        <ele>589.2</ele>
        <time>2014-06-29T10:21:08Z</time>
      </trkpt>
      <trkpt lat="46.66375" lon="5.8228">
        <ele>589.2</ele>
        <time>2014-06-29T10:21:10Z</time>
      </trkpt>
      <trkpt lat="46.66373" lon="5.82299">
        <ele>589</ele>
        <time>2014-06-29T10:21:13Z</time>
      </trkpt>
      <trkpt lat="46.66372" lon="5.82319">
        <ele>588.9</ele>
        <time>2014-06-29T10:21:16Z</time>
      </trkpt>
      <trkpt lat="46.66371" lon="5.82333">
        <ele>588.6</ele>
        <time>2014-06-29T10:21:18Z</time>
      </trkpt>
      <trkpt lat="46.66371" lon="5.82348">
        <ele>588.5</ele>
        <time>2014-06-29T10:21:20Z</time>
      </trkpt>
      <trkpt lat="46.66371" lon="5.82361">
        <ele>588.5</ele>
        <time>2014-06-29T10:21:22Z</time>
      </trkpt>
      <trkpt lat="46.66371" lon="5.82375">
        <ele>588.4</ele>
        <time>2014-06-29T10:21:24Z</time>
      </trkpt>
      <trkpt lat="46.66371" lon="5.82388">
        <ele>588.3</ele>
        <time>2014-06-29T10:21:26Z</time>
      </trkpt>
      <trkpt lat="46.66371" lon="5.82402">
        <ele>588.2</ele>
        <time>2014-06-29T10:21:28Z</time>
      </trkpt>
      <trkpt lat="46.66371" lon="5.82417">
        <ele>588.3</ele>
        <time>2014-06-29T10:21:30Z</time>
      </trkpt>
      <trkpt lat="46.66371" lon="5.82432">
        <ele>588</ele>
        <time>2014-06-29T10:21:32Z</time>
      </trkpt>
      <trkpt lat="46.66371" lon="5.82448">
        <ele>587.8</ele>
        <time>2014-06-29T10:21:34Z</time>
      </trkpt>
      <trkpt lat="46.66372" lon="5.82462">
        <ele>587.5</ele>
        <time>2014-06-29T10:21:36Z</time>
      </trkpt>
      <trkpt lat="46.66373" lon="5.82477">
        <ele>587.6</ele>
        <time>2014-06-29T10:21:38Z</time>
      </trkpt>
      <trkpt lat="46.66373" lon="5.82493">
        <ele>587.5</ele>
        <time>2014-06-29T10:21:40Z</time>
      </trkpt>
      <trkpt lat="46.66371" lon="5.82508">
        <ele>587.4</ele>
        <time>2014-06-29T10:21:42Z</time>
      </trkpt>
      <trkpt lat="46.66369" lon="5.82523">
        <ele>587.1</ele>
        <time>2014-06-29T10:21:44Z</time>
      </trkpt>
      <trkpt lat="46.66368" lon="5.82538">
        <ele>586.7</ele>
        <time>2014-06-29T10:21:46Z</time>
      </trkpt>
      <trkpt lat="46.66366" lon="5.82553">
        <ele>586.5</ele>
        <time>2014-06-29T10:21:48Z</time>
      </trkpt>
      <trkpt lat="46.66365" lon="5.82567">
        <ele>586.7</ele>
        <time>2014-06-29T10:21:50Z</time>
      </trkpt>
      <trkpt lat="46.66364" lon="5.82581">
        <ele>586.5</ele>
        <time>2014-06-29T10:21:52Z</time>
      </trkpt>
      <trkpt lat="46.66366" lon="5.82594">
        <ele>586.4</ele>
        <time>2014-06-29T10:21:54Z</time>
      </trkpt>
      <trkpt lat="46.66367" lon="5.82612">
        <ele>586.3</ele>
        <time>2014-06-29T10:21:57Z</time>
      </trkpt>
      <trkpt lat="46.66378" lon="5.82621">
        <ele>586.9</ele>
        <time>2014-06-29T10:22:04Z</time>
      </trkpt>
      <trkpt lat="46.66383" lon="5.8261">
        <ele>587.1</ele>
        <time>2014-06-29T10:22:07Z</time>
      </trkpt>
      <trkpt lat="46.66389" lon="5.826">
        <ele>587.6</ele>
        <time>2014-06-29T10:22:10Z</time>
      </trkpt>
      <trkpt lat="46.66398" lon="5.82589">
        <ele>588.1</ele>
        <time>2014-06-29T10:22:13Z</time>
      </trkpt>
      <trkpt lat="46.66406" lon="5.82583">
        <ele>588.4</ele>
        <time>2014-06-29T10:22:16Z</time>
      </trkpt>
      <trkpt lat="46.66415" lon="5.82578">
        <ele>588.9</ele>
        <time>2014-06-29T10:22:19Z</time>
      </trkpt>
      <trkpt lat="46.66424" lon="5.82575">
        <ele>589.5</ele>
        <time>2014-06-29T10:22:22Z</time>
      </trkpt>
      <trkpt lat="46.66433" lon="5.82573">
        <ele>589.9</ele>
        <time>2014-06-29T10:22:25Z</time>
      </trkpt>
      <trkpt lat="46.66443" lon="5.82572">
        <ele>590.6</ele>
        <time>2014-06-29T10:22:28Z</time>
      </trkpt>
      <trkpt lat="46.66453" lon="5.8257">
        <ele>590.5</ele>
        <time>2014-06-29T10:22:31Z</time>
      </trkpt>
      <trkpt lat="46.66463" lon="5.82569">
        <ele>590.9</ele>
        <time>2014-06-29T10:22:34Z</time>
      </trkpt>
      <trkpt lat="46.66473" lon="5.82567">
        <ele>591.1</ele>
        <time>2014-06-29T10:22:37Z</time>
      </trkpt>
      <trkpt lat="46.66482" lon="5.82564">
        <ele>591.2</ele>
        <time>2014-06-29T10:22:40Z</time>
      </trkpt>
      <trkpt lat="46.66492" lon="5.8256">
        <ele>591.3</ele>
        <time>2014-06-29T10:22:43Z</time>
      </trkpt>
      <trkpt lat="46.66502" lon="5.82556">
        <ele>591.7</ele>
        <time>2014-06-29T10:22:46Z</time>
      </trkpt>
      <trkpt lat="46.66511" lon="5.82552">
        <ele>592.1</ele>
        <time>2014-06-29T10:22:49Z</time>
      </trkpt>
      <trkpt lat="46.6652" lon="5.82548">
        <ele>592.6</ele>
        <time>2014-06-29T10:22:52Z</time>
      </trkpt>
      <trkpt lat="46.66529" lon="5.82543">
        <ele>592.9</ele>
        <time>2014-06-29T10:22:55Z</time>
      </trkpt>
      <trkpt lat="46.66537" lon="5.82537">
        <ele>593.1</ele>
        <time>2014-06-29T10:22:58Z</time>
      </trkpt>
      <trkpt lat="46.66546" lon="5.8253">
        <ele>593.9</ele>
        <time>2014-06-29T10:23:01Z</time>
      </trkpt>
      <trkpt lat="46.66562" lon="5.82514">
        <ele>595</ele>
        <time>2014-06-29T10:23:07Z</time>
      </trkpt>
      <trkpt lat="46.6657" lon="5.82507">
        <ele>595.3</ele>
        <time>2014-06-29T10:23:10Z</time>
      </trkpt>
      <trkpt lat="46.6658" lon="5.82501">
        <ele>595.8</ele>
        <time>2014-06-29T10:23:13Z</time>
      </trkpt>
      <trkpt lat="46.6659" lon="5.82496">
        <ele>596</ele>
        <time>2014-06-29T10:23:16Z</time>
      </trkpt>
      <trkpt lat="46.666" lon="5.82491">
        <ele>596</ele>
        <time>2014-06-29T10:23:19Z</time>
      </trkpt>
      <trkpt lat="46.66611" lon="5.82487">
        <ele>595.8</ele>
        <time>2014-06-29T10:23:22Z</time>
      </trkpt>
      <trkpt lat="46.6662" lon="5.82481">
        <ele>595.7</ele>
        <time>2014-06-29T10:23:24Z</time>
      </trkpt>
      <trkpt lat="46.66628" lon="5.82474">
        <ele>595.2</ele>
        <time>2014-06-29T10:23:26Z</time>
      </trkpt>
      <trkpt lat="46.66638" lon="5.82466">
        <ele>594.8</ele>
        <time>2014-06-29T10:23:28Z</time>
      </trkpt>
      <trkpt lat="46.66648" lon="5.82455">
        <ele>594.6</ele>
        <time>2014-06-29T10:23:30Z</time>
      </trkpt>
      <trkpt lat="46.66658" lon="5.82444">
        <ele>593.9</ele>
        <time>2014-06-29T10:23:32Z</time>
      </trkpt>
      <trkpt lat="46.66668" lon="5.82433">
        <ele>594</ele>
        <time>2014-06-29T10:23:34Z</time>
      </trkpt>
      <trkpt lat="46.66678" lon="5.82422">
        <ele>593.9</ele>
        <time>2014-06-29T10:23:36Z</time>
      </trkpt>
      <trkpt lat="46.66689" lon="5.82412">
        <ele>593.9</ele>
        <time>2014-06-29T10:23:38Z</time>
      </trkpt>
      <trkpt lat="46.66699" lon="5.82401">
        <ele>593.7</ele>
        <time>2014-06-29T10:23:40Z</time>
      </trkpt>
      <trkpt lat="46.66709" lon="5.8239">
        <ele>593.6</ele>
        <time>2014-06-29T10:23:42Z</time>
      </trkpt>
      <trkpt lat="46.6672" lon="5.8238">
        <ele>593.5</ele>
        <time>2014-06-29T10:23:44Z</time>
      </trkpt>
      <trkpt lat="46.6673" lon="5.82369">
        <ele>593.3</ele>
        <time>2014-06-29T10:23:46Z</time>
      </trkpt>
      <trkpt lat="46.6674" lon="5.82359">
        <ele>593.6</ele>
        <time>2014-06-29T10:23:48Z</time>
      </trkpt>
      <trkpt lat="46.6675" lon="5.82351">
        <ele>594</ele>
        <time>2014-06-29T10:23:50Z</time>
      </trkpt>
      <trkpt lat="46.66758" lon="5.82342">
        <ele>594.2</ele>
        <time>2014-06-29T10:23:52Z</time>
      </trkpt>
      <trkpt lat="46.66765" lon="5.82333">
        <ele>594.3</ele>
        <time>2014-06-29T10:23:54Z</time>
      </trkpt>
      <trkpt lat="46.66774" lon="5.8232">
        <ele>594.3</ele>
        <time>2014-06-29T10:23:57Z</time>
      </trkpt>
      <trkpt lat="46.66783" lon="5.82305">
        <ele>594.3</ele>
        <time>2014-06-29T10:24:00Z</time>
      </trkpt>
      <trkpt lat="46.66792" lon="5.82294">
        <ele>594.5</ele>
        <time>2014-06-29T10:24:03Z</time>
      </trkpt>
      <trkpt lat="46.66788" lon="5.82267">
        <ele>594.4</ele>
        <time>2014-06-29T10:24:08Z</time>
      </trkpt>
      <trkpt lat="46.66781" lon="5.82258">
        <ele>594.4</ele>
        <time>2014-06-29T10:24:10Z</time>
      </trkpt>
      <trkpt lat="46.66777" lon="5.82242">
        <ele>594.6</ele>
        <time>2014-06-29T10:24:13Z</time>
      </trkpt>
      <trkpt lat="46.66773" lon="5.82228">
        <ele>594.6</ele>
        <time>2014-06-29T10:24:16Z</time>
      </trkpt>
      <trkpt lat="46.66769" lon="5.82215">
        <ele>594.2</ele>
        <time>2014-06-29T10:24:20Z</time>
      </trkpt>
      <trkpt lat="46.66764" lon="5.82199">
        <ele>593.6</ele>
        <time>2014-06-29T10:24:23Z</time>
      </trkpt>
      <trkpt lat="46.66764" lon="5.82182">
        <ele>593.1</ele>
        <time>2014-06-29T10:24:25Z</time>
      </trkpt>
      <trkpt lat="46.6677" lon="5.82163">
        <ele>592.3</ele>
        <time>2014-06-29T10:24:27Z</time>
      </trkpt>
      <trkpt lat="46.66777" lon="5.82142">
        <ele>591.5</ele>
        <time>2014-06-29T10:24:29Z</time>
      </trkpt>
      <trkpt lat="46.66783" lon="5.82121">
        <ele>590.6</ele>
        <time>2014-06-29T10:24:31Z</time>
      </trkpt>
      <trkpt lat="46.66791" lon="5.82099">
        <ele>589.7</ele>
        <time>2014-06-29T10:24:33Z</time>
      </trkpt>
      <trkpt lat="46.66799" lon="5.82079">
        <ele>589.1</ele>
        <time>2014-06-29T10:24:35Z</time>
      </trkpt>
      <trkpt lat="46.66805" lon="5.82057">
        <ele>588</ele>
        <time>2014-06-29T10:24:37Z</time>
      </trkpt>
      <trkpt lat="46.66805" lon="5.82036">
        <ele>587.6</ele>
        <time>2014-06-29T10:24:39Z</time>
      </trkpt>
      <trkpt lat="46.66801" lon="5.82019">
        <ele>587.3</ele>
        <time>2014-06-29T10:24:41Z</time>
      </trkpt>
      <trkpt lat="46.66795" lon="5.82005">
        <ele>587.6</ele>
        <time>2014-06-29T10:24:44Z</time>
      </trkpt>
      <trkpt lat="46.6679" lon="5.81994">
        <ele>588.8</ele>
        <time>2014-06-29T10:24:48Z</time>
      </trkpt>
      <trkpt lat="46.66786" lon="5.8198">
        <ele>589</ele>
        <time>2014-06-29T10:24:53Z</time>
      </trkpt>
      <trkpt lat="46.66784" lon="5.81967">
        <ele>590.1</ele>
        <time>2014-06-29T10:24:57Z</time>
      </trkpt>
      <trkpt lat="46.66782" lon="5.81952">
        <ele>591</ele>
        <time>2014-06-29T10:25:01Z</time>
      </trkpt>
      <trkpt lat="46.6678" lon="5.81938">
        <ele>591.9</ele>
        <time>2014-06-29T10:25:05Z</time>
      </trkpt>
      <trkpt lat="46.66782" lon="5.81909">
        <ele>592.8</ele>
        <time>2014-06-29T10:25:13Z</time>
      </trkpt>
      <trkpt lat="46.66784" lon="5.81892">
        <ele>592.9</ele>
        <time>2014-06-29T10:25:17Z</time>
      </trkpt>
      <trkpt lat="46.66787" lon="5.81878">
        <ele>593.4</ele>
        <time>2014-06-29T10:25:21Z</time>
      </trkpt>
      <trkpt lat="46.66789" lon="5.81864">
        <ele>594.5</ele>
        <time>2014-06-29T10:25:26Z</time>
      </trkpt>
      <trkpt lat="46.66792" lon="5.81851">
        <ele>595.8</ele>
        <time>2014-06-29T10:25:31Z</time>
      </trkpt>
      <trkpt lat="46.66796" lon="5.81839">
        <ele>596.1</ele>
        <time>2014-06-29T10:25:36Z</time>
      </trkpt>
      <trkpt lat="46.66799" lon="5.81825">
        <ele>597.8</ele>
        <time>2014-06-29T10:25:42Z</time>
      </trkpt>
      <trkpt lat="46.66803" lon="5.81811">
        <ele>599.5</ele>
        <time>2014-06-29T10:25:48Z</time>
      </trkpt>
      <trkpt lat="46.66807" lon="5.81798">
        <ele>600.6</ele>
        <time>2014-06-29T10:25:53Z</time>
      </trkpt>
      <trkpt lat="46.66809" lon="5.81784">
        <ele>601.5</ele>
        <time>2014-06-29T10:25:57Z</time>
      </trkpt>
      <trkpt lat="46.66809" lon="5.81768">
        <ele>602.1</ele>
        <time>2014-06-29T10:26:02Z</time>
      </trkpt>
      <trkpt lat="46.66809" lon="5.81752">
        <ele>602.8</ele>
        <time>2014-06-29T10:26:07Z</time>
      </trkpt>
      <trkpt lat="46.66814" lon="5.81725">
        <ele>604.8</ele>
        <time>2014-06-29T10:26:17Z</time>
      </trkpt>
      <trkpt lat="46.66819" lon="5.81713">
        <ele>605.8</ele>
        <time>2014-06-29T10:26:22Z</time>
      </trkpt>
      <trkpt lat="46.66825" lon="5.81702">
        <ele>606.4</ele>
        <time>2014-06-29T10:26:26Z</time>
      </trkpt>
      <trkpt lat="46.66832" lon="5.81689">
        <ele>606.7</ele>
        <time>2014-06-29T10:26:30Z</time>
      </trkpt>
      <trkpt lat="46.6684" lon="5.81677">
        <ele>606.4</ele>
        <time>2014-06-29T10:26:33Z</time>
      </trkpt>
      <trkpt lat="46.66848" lon="5.81664">
        <ele>606.5</ele>
        <time>2014-06-29T10:26:36Z</time>
      </trkpt>
      <trkpt lat="46.66857" lon="5.81652">
        <ele>606.4</ele>
        <time>2014-06-29T10:26:39Z</time>
      </trkpt>
      <trkpt lat="46.66865" lon="5.81638">
        <ele>606.2</ele>
        <time>2014-06-29T10:26:42Z</time>
      </trkpt>
      <trkpt lat="46.66874" lon="5.81625">
        <ele>606.3</ele>
        <time>2014-06-29T10:26:45Z</time>
      </trkpt>
      <trkpt lat="46.66881" lon="5.81612">
        <ele>606.4</ele>
        <time>2014-06-29T10:26:48Z</time>
      </trkpt>
      <trkpt lat="46.66889" lon="5.81597">
        <ele>606.5</ele>
        <time>2014-06-29T10:26:51Z</time>
      </trkpt>
      <trkpt lat="46.66898" lon="5.81582">
        <ele>606.5</ele>
        <time>2014-06-29T10:26:54Z</time>
      </trkpt>
      <trkpt lat="46.66904" lon="5.81572">
        <ele>606.3</ele>
        <time>2014-06-29T10:26:56Z</time>
      </trkpt>
      <trkpt lat="46.6691" lon="5.81562">
        <ele>606.4</ele>
        <time>2014-06-29T10:26:58Z</time>
      </trkpt>
      <trkpt lat="46.66915" lon="5.81552">
        <ele>606.5</ele>
        <time>2014-06-29T10:27:00Z</time>
      </trkpt>
      <trkpt lat="46.66924" lon="5.81537">
        <ele>606.7</ele>
        <time>2014-06-29T10:27:03Z</time>
      </trkpt>
      <trkpt lat="46.66929" lon="5.81526">
        <ele>606.8</ele>
        <time>2014-06-29T10:27:05Z</time>
      </trkpt>
      <trkpt lat="46.66935" lon="5.81516">
        <ele>607.2</ele>
        <time>2014-06-29T10:27:07Z</time>
      </trkpt>
      <trkpt lat="46.66941" lon="5.81505">
        <ele>607.2</ele>
        <time>2014-06-29T10:27:09Z</time>
      </trkpt>
      <trkpt lat="46.66954" lon="5.81485">
        <ele>607.5</ele>
        <time>2014-06-29T10:27:13Z</time>
      </trkpt>
      <trkpt lat="46.6696" lon="5.81471">
        <ele>607.6</ele>
        <time>2014-06-29T10:27:16Z</time>
      </trkpt>
      <trkpt lat="46.66962" lon="5.81451">
        <ele>607</ele>
        <time>2014-06-29T10:27:19Z</time>
      </trkpt>
      <trkpt lat="46.66964" lon="5.81432">
        <ele>606.2</ele>
        <time>2014-06-29T10:27:21Z</time>
      </trkpt>
      <trkpt lat="46.66967" lon="5.81416">
        <ele>605.5</ele>
        <time>2014-06-29T10:27:23Z</time>
      </trkpt>
      <trkpt lat="46.66972" lon="5.81403">
        <ele>604.9</ele>
        <time>2014-06-29T10:27:26Z</time>
      </trkpt>
      <trkpt lat="46.66976" lon="5.8139">
        <ele>605.1</ele>
        <time>2014-06-29T10:27:31Z</time>
      </trkpt>
      <trkpt lat="46.66985" lon="5.81385">
        <ele>605.4</ele>
        <time>2014-06-29T10:27:36Z</time>
      </trkpt>
      <trkpt lat="46.66995" lon="5.81382">
        <ele>604.7</ele>
        <time>2014-06-29T10:27:41Z</time>
      </trkpt>
      <trkpt lat="46.67005" lon="5.8138">
        <ele>604.3</ele>
        <time>2014-06-29T10:27:54Z</time>
      </trkpt>
      <trkpt lat="46.67013" lon="5.81373">
        <ele>605.2</ele>
        <time>2014-06-29T10:29:53Z</time>
      </trkpt>
      <trkpt lat="46.67028" lon="5.81382">
        <ele>604.9</ele>
        <time>2014-06-29T10:30:08Z</time>
      </trkpt>
      <trkpt lat="46.67021" lon="5.81393">
        <ele>604.3</ele>
        <time>2014-06-29T10:30:25Z</time>
      </trkpt>
      <trkpt lat="46.67012" lon="5.81403">
        <ele>604.5</ele>
        <time>2014-06-29T10:30:29Z</time>
      </trkpt>
      <trkpt lat="46.67005" lon="5.81416">
        <ele>604.5</ele>
        <time>2014-06-29T10:30:33Z</time>
      </trkpt>
      <trkpt lat="46.66999" lon="5.81426">
        <ele>604.8</ele>
        <time>2014-06-29T10:30:36Z</time>
      </trkpt>
      <trkpt lat="46.66992" lon="5.81435">
        <ele>605.2</ele>
        <time>2014-06-29T10:30:39Z</time>
      </trkpt>
      <trkpt lat="46.66984" lon="5.81442">
        <ele>605.5</ele>
        <time>2014-06-29T10:30:42Z</time>
      </trkpt>
      <trkpt lat="46.66976" lon="5.8145">
        <ele>605.8</ele>
        <time>2014-06-29T10:30:45Z</time>
      </trkpt>
      <trkpt lat="46.6697" lon="5.8146">
        <ele>606.3</ele>
        <time>2014-06-29T10:30:48Z</time>
      </trkpt>
      <trkpt lat="46.66962" lon="5.81473">
        <ele>606.4</ele>
        <time>2014-06-29T10:30:52Z</time>
      </trkpt>
      <trkpt lat="46.66955" lon="5.81484">
        <ele>606.9</ele>
        <time>2014-06-29T10:30:56Z</time>
      </trkpt>
      <trkpt lat="46.66956" lon="5.81487">
        <ele>606.8</ele>
        <time>2014-06-29T10:31:20Z</time>
      </trkpt>
      <trkpt lat="46.66963" lon="5.81474">
        <ele>606.7</ele>
        <time>2014-06-29T10:31:25Z</time>
      </trkpt>
      <trkpt lat="46.66972" lon="5.81464">
        <ele>606.6</ele>
        <time>2014-06-29T10:31:29Z</time>
      </trkpt>
      <trkpt lat="46.66978" lon="5.81454">
        <ele>606.5</ele>
        <time>2014-06-29T10:31:32Z</time>
      </trkpt>
      <trkpt lat="46.66985" lon="5.81444">
        <ele>606.2</ele>
        <time>2014-06-29T10:31:35Z</time>
      </trkpt>
      <trkpt lat="46.66993" lon="5.81433">
        <ele>606</ele>
        <time>2014-06-29T10:31:38Z</time>
      </trkpt>
      <trkpt lat="46.67" lon="5.81424">
        <ele>605.7</ele>
        <time>2014-06-29T10:31:41Z</time>
      </trkpt>
      <trkpt lat="46.67005" lon="5.81413">
        <ele>605.1</ele>
        <time>2014-06-29T10:31:49Z</time>
      </trkpt>
      <trkpt lat="46.67012" lon="5.81402">
        <ele>604.8</ele>
        <time>2014-06-29T10:32:06Z</time>
      </trkpt>
      <trkpt lat="46.67027" lon="5.8138">
        <ele>604.6</ele>
        <time>2014-06-29T10:32:14Z</time>
      </trkpt>
      <trkpt lat="46.67034" lon="5.81372">
        <ele>604.7</ele>
        <time>2014-06-29T10:32:18Z</time>
      </trkpt>
      <trkpt lat="46.67042" lon="5.81362">
        <ele>604.6</ele>
        <time>2014-06-29T10:32:22Z</time>
      </trkpt>
      <trkpt lat="46.6705" lon="5.81352">
        <ele>604.3</ele>
        <time>2014-06-29T10:32:27Z</time>
      </trkpt>
      <trkpt lat="46.67058" lon="5.81344">
        <ele>604.4</ele>
        <time>2014-06-29T10:32:30Z</time>
      </trkpt>
      <trkpt lat="46.67066" lon="5.81333">
        <ele>604.3</ele>
        <time>2014-06-29T10:32:33Z</time>
      </trkpt>
      <trkpt lat="46.67074" lon="5.81317">
        <ele>603.9</ele>
        <time>2014-06-29T10:32:36Z</time>
      </trkpt>
      <trkpt lat="46.6708" lon="5.81306">
        <ele>603.8</ele>
        <time>2014-06-29T10:32:38Z</time>
      </trkpt>
      <trkpt lat="46.67086" lon="5.81293">
        <ele>603.2</ele>
        <time>2014-06-29T10:32:40Z</time>
      </trkpt>
      <trkpt lat="46.67091" lon="5.81279">
        <ele>602.8</ele>
        <time>2014-06-29T10:32:42Z</time>
      </trkpt>
      <trkpt lat="46.67099" lon="5.81268">
        <ele>602.3</ele>
        <time>2014-06-29T10:32:44Z</time>
      </trkpt>
      <trkpt lat="46.67109" lon="5.81259">
        <ele>601.7</ele>
        <time>2014-06-29T10:32:46Z</time>
      </trkpt>
      <trkpt lat="46.67119" lon="5.81253">
        <ele>601.3</ele>
        <time>2014-06-29T10:32:48Z</time>
      </trkpt>
      <trkpt lat="46.6713" lon="5.81246">
        <ele>600.5</ele>
        <time>2014-06-29T10:32:50Z</time>
      </trkpt>
      <trkpt lat="46.67142" lon="5.81238">
        <ele>599.4</ele>
        <time>2014-06-29T10:32:52Z</time>
      </trkpt>
      <trkpt lat="46.67155" lon="5.81231">
        <ele>598.6</ele>
        <time>2014-06-29T10:32:54Z</time>
      </trkpt>
      <trkpt lat="46.67169" lon="5.81222">
        <ele>598</ele>
        <time>2014-06-29T10:32:56Z</time>
      </trkpt>
      <trkpt lat="46.67179" lon="5.81209">
        <ele>597.3</ele>
        <time>2014-06-29T10:32:58Z</time>
      </trkpt>
      <trkpt lat="46.67187" lon="5.81194">
        <ele>596.7</ele>
        <time>2014-06-29T10:33:00Z</time>
      </trkpt>
      <trkpt lat="46.67195" lon="5.8118">
        <ele>596.6</ele>
        <time>2014-06-29T10:33:02Z</time>
      </trkpt>
      <trkpt lat="46.672" lon="5.81167">
        <ele>596.3</ele>
        <time>2014-06-29T10:33:04Z</time>
      </trkpt>
      <trkpt lat="46.67205" lon="5.81153">
        <ele>596.4</ele>
        <time>2014-06-29T10:33:07Z</time>
      </trkpt>
      <trkpt lat="46.67209" lon="5.81139">
        <ele>596.2</ele>
        <time>2014-06-29T10:33:11Z</time>
      </trkpt>
      <trkpt lat="46.67215" lon="5.81107">
        <ele>596</ele>
        <time>2014-06-29T10:33:18Z</time>
      </trkpt>
      <trkpt lat="46.6722" lon="5.81093">
        <ele>595.6</ele>
        <time>2014-06-29T10:33:20Z</time>
      </trkpt>
      <trkpt lat="46.67225" lon="5.81081">
        <ele>595.3</ele>
        <time>2014-06-29T10:33:22Z</time>
      </trkpt>
      <trkpt lat="46.6723" lon="5.81069">
        <ele>594.9</ele>
        <time>2014-06-29T10:33:24Z</time>
      </trkpt>
      <trkpt lat="46.67233" lon="5.81054">
        <ele>594.5</ele>
        <time>2014-06-29T10:33:27Z</time>
      </trkpt>
      <trkpt lat="46.67239" lon="5.81038">
        <ele>594.2</ele>
        <time>2014-06-29T10:33:30Z</time>
      </trkpt>
      <trkpt lat="46.67244" lon="5.81022">
        <ele>593.8</ele>
        <time>2014-06-29T10:33:33Z</time>
      </trkpt>
      <trkpt lat="46.67249" lon="5.81008">
        <ele>594</ele>
        <time>2014-06-29T10:33:36Z</time>
      </trkpt>
      <trkpt lat="46.67254" lon="5.80996">
        <ele>594.3</ele>
        <time>2014-06-29T10:33:39Z</time>
      </trkpt>
      <trkpt lat="46.67258" lon="5.80984">
        <ele>594.8</ele>
        <time>2014-06-29T10:33:42Z</time>
      </trkpt>
      <trkpt lat="46.67262" lon="5.80971">
        <ele>595.8</ele>
        <time>2014-06-29T10:33:45Z</time>
      </trkpt>
      <trkpt lat="46.67267" lon="5.80959">
        <ele>596.1</ele>
        <time>2014-06-29T10:33:48Z</time>
      </trkpt>
      <trkpt lat="46.67271" lon="5.80945">
        <ele>596.4</ele>
        <time>2014-06-29T10:33:51Z</time>
      </trkpt>
      <trkpt lat="46.67274" lon="5.80931">
        <ele>596.7</ele>
        <time>2014-06-29T10:33:54Z</time>
      </trkpt>
      <trkpt lat="46.67276" lon="5.80917">
        <ele>597.2</ele>
        <time>2014-06-29T10:33:57Z</time>
      </trkpt>
      <trkpt lat="46.67277" lon="5.80902">
        <ele>597.5</ele>
        <time>2014-06-29T10:34:00Z</time>
      </trkpt>
      <trkpt lat="46.67277" lon="5.80886">
        <ele>597.6</ele>
        <time>2014-06-29T10:34:03Z</time>
      </trkpt>
      <trkpt lat="46.67276" lon="5.8087">
        <ele>597.8</ele>
        <time>2014-06-29T10:34:06Z</time>
      </trkpt>
      <trkpt lat="46.67277" lon="5.80854">
        <ele>598.1</ele>
        <time>2014-06-29T10:34:09Z</time>
      </trkpt>
      <trkpt lat="46.67279" lon="5.80837">
        <ele>598</ele>
        <time>2014-06-29T10:34:12Z</time>
      </trkpt>
      <trkpt lat="46.67282" lon="5.8082">
        <ele>598.1</ele>
        <time>2014-06-29T10:34:15Z</time>
      </trkpt>
      <trkpt lat="46.67294" lon="5.80787">
        <ele>596.9</ele>
        <time>2014-06-29T10:34:21Z</time>
      </trkpt>
      <trkpt lat="46.673" lon="5.80772">
        <ele>596.8</ele>
        <time>2014-06-29T10:34:24Z</time>
      </trkpt>
      <trkpt lat="46.67307" lon="5.8076">
        <ele>596.9</ele>
        <time>2014-06-29T10:34:27Z</time>
      </trkpt>
      <trkpt lat="46.67314" lon="5.80749">
        <ele>597.3</ele>
        <time>2014-06-29T10:34:30Z</time>
      </trkpt>
      <trkpt lat="46.67319" lon="5.80737">
        <ele>597.5</ele>
        <time>2014-06-29T10:34:33Z</time>
      </trkpt>
      <trkpt lat="46.67322" lon="5.80723">
        <ele>597.8</ele>
        <time>2014-06-29T10:34:36Z</time>
      </trkpt>
      <trkpt lat="46.67325" lon="5.80709">
        <ele>597.7</ele>
        <time>2014-06-29T10:34:39Z</time>
      </trkpt>
      <trkpt lat="46.67331" lon="5.80696">
        <ele>597.4</ele>
        <time>2014-06-29T10:34:42Z</time>
      </trkpt>
      <trkpt lat="46.67339" lon="5.80685">
        <ele>597.5</ele>
        <time>2014-06-29T10:34:45Z</time>
      </trkpt>
      <trkpt lat="46.67347" lon="5.80671">
        <ele>597.6</ele>
        <time>2014-06-29T10:34:48Z</time>
      </trkpt>
      <trkpt lat="46.67352" lon="5.80657">
        <ele>597.5</ele>
        <time>2014-06-29T10:34:51Z</time>
      </trkpt>
      <trkpt lat="46.67356" lon="5.80642">
        <ele>597.1</ele>
        <time>2014-06-29T10:34:54Z</time>
      </trkpt>
      <trkpt lat="46.6736" lon="5.80628">
        <ele>597.2</ele>
        <time>2014-06-29T10:34:57Z</time>
      </trkpt>
      <trkpt lat="46.67367" lon="5.80618">
        <ele>597.1</ele>
        <time>2014-06-29T10:35:00Z</time>
      </trkpt>
      <trkpt lat="46.67378" lon="5.80622">
        <ele>598</ele>
        <time>2014-06-29T10:35:04Z</time>
      </trkpt>
      <trkpt lat="46.67388" lon="5.80631">
        <ele>598.4</ele>
        <time>2014-06-29T10:35:08Z</time>
      </trkpt>
      <trkpt lat="46.67399" lon="5.80638">
        <ele>598.6</ele>
        <time>2014-06-29T10:35:12Z</time>
      </trkpt>
      <trkpt lat="46.67409" lon="5.80642">
        <ele>598.9</ele>
        <time>2014-06-29T10:35:16Z</time>
      </trkpt>
      <trkpt lat="46.6742" lon="5.80642">
        <ele>599.4</ele>
        <time>2014-06-29T10:35:20Z</time>
      </trkpt>
      <trkpt lat="46.67439" lon="5.80631">
        <ele>600</ele>
        <time>2014-06-29T10:35:28Z</time>
      </trkpt>
      <trkpt lat="46.67448" lon="5.80623">
        <ele>600.2</ele>
        <time>2014-06-29T10:35:32Z</time>
      </trkpt>
      <trkpt lat="46.67458" lon="5.80617">
        <ele>600.2</ele>
        <time>2014-06-29T10:35:35Z</time>
      </trkpt>
      <trkpt lat="46.67469" lon="5.80612">
        <ele>600</ele>
        <time>2014-06-29T10:35:38Z</time>
      </trkpt>
      <trkpt lat="46.6748" lon="5.80606">
        <ele>600</ele>
        <time>2014-06-29T10:35:41Z</time>
      </trkpt>
      <trkpt lat="46.6749" lon="5.80597">
        <ele>599.8</ele>
        <time>2014-06-29T10:35:44Z</time>
      </trkpt>
      <trkpt lat="46.67499" lon="5.80586">
        <ele>599.7</ele>
        <time>2014-06-29T10:35:47Z</time>
      </trkpt>
      <trkpt lat="46.67509" lon="5.80576">
        <ele>600.2</ele>
        <time>2014-06-29T10:35:50Z</time>
      </trkpt>
      <trkpt lat="46.67519" lon="5.80569">
        <ele>600.2</ele>
        <time>2014-06-29T10:35:53Z</time>
      </trkpt>
      <trkpt lat="46.67528" lon="5.80563">
        <ele>600.1</ele>
        <time>2014-06-29T10:35:56Z</time>
      </trkpt>
      <trkpt lat="46.67538" lon="5.80557">
        <ele>600.8</ele>
        <time>2014-06-29T10:35:59Z</time>
      </trkpt>
      <trkpt lat="46.67547" lon="5.80551">
        <ele>601</ele>
        <time>2014-06-29T10:36:02Z</time>
      </trkpt>
      <trkpt lat="46.67556" lon="5.80545">
        <ele>601.4</ele>
        <time>2014-06-29T10:36:05Z</time>
      </trkpt>
      <trkpt lat="46.67566" lon="5.80539">
        <ele>601.7</ele>
        <time>2014-06-29T10:36:09Z</time>
      </trkpt>
      <trkpt lat="46.67578" lon="5.80536">
        <ele>602</ele>
        <time>2014-06-29T10:36:12Z</time>
      </trkpt>
      <trkpt lat="46.67587" lon="5.80535">
        <ele>602.2</ele>
        <time>2014-06-29T10:36:15Z</time>
      </trkpt>
      <trkpt lat="46.67598" lon="5.80533">
        <ele>602.5</ele>
        <time>2014-06-29T10:36:19Z</time>
      </trkpt>
      <trkpt lat="46.6761" lon="5.80532">
        <ele>602.7</ele>
        <time>2014-06-29T10:36:23Z</time>
      </trkpt>
      <trkpt lat="46.67629" lon="5.80535">
        <ele>603</ele>
        <time>2014-06-29T10:36:29Z</time>
      </trkpt>
      <trkpt lat="46.67638" lon="5.80536">
        <ele>603.1</ele>
        <time>2014-06-29T10:36:32Z</time>
      </trkpt>
      <trkpt lat="46.67648" lon="5.80532">
        <ele>603.4</ele>
        <time>2014-06-29T10:36:37Z</time>
      </trkpt>
      <trkpt lat="46.67658" lon="5.80524">
        <ele>603.9</ele>
        <time>2014-06-29T10:36:41Z</time>
      </trkpt>
      <trkpt lat="46.67668" lon="5.80517">
        <ele>604.4</ele>
        <time>2014-06-29T10:36:44Z</time>
      </trkpt>
      <trkpt lat="46.67678" lon="5.80516">
        <ele>604.5</ele>
        <time>2014-06-29T10:36:47Z</time>
      </trkpt>
      <trkpt lat="46.67689" lon="5.80515">
        <ele>605.1</ele>
        <time>2014-06-29T10:36:51Z</time>
      </trkpt>
      <trkpt lat="46.677" lon="5.80512">
        <ele>605.5</ele>
        <time>2014-06-29T10:36:55Z</time>
      </trkpt>
      <trkpt lat="46.6771" lon="5.80512">
        <ele>605.5</ele>
        <time>2014-06-29T10:36:58Z</time>
      </trkpt>
      <trkpt lat="46.6772" lon="5.80508">
        <ele>605.8</ele>
        <time>2014-06-29T10:37:01Z</time>
      </trkpt>
      <trkpt lat="46.6773" lon="5.80505">
        <ele>605.8</ele>
        <time>2014-06-29T10:37:04Z</time>
      </trkpt>
      <trkpt lat="46.6774" lon="5.80502">
        <ele>605.7</ele>
        <time>2014-06-29T10:37:07Z</time>
      </trkpt>
      <trkpt lat="46.67749" lon="5.80499">
        <ele>605.9</ele>
        <time>2014-06-29T10:37:10Z</time>
      </trkpt>
      <trkpt lat="46.67762" lon="5.80496">
        <ele>605.5</ele>
        <time>2014-06-29T10:37:14Z</time>
      </trkpt>
      <trkpt lat="46.67774" lon="5.80492">
        <ele>604.9</ele>
        <time>2014-06-29T10:37:17Z</time>
      </trkpt>
      <trkpt lat="46.67783" lon="5.80488">
        <ele>604.5</ele>
        <time>2014-06-29T10:37:19Z</time>
      </trkpt>
      <trkpt lat="46.67793" lon="5.80487">
        <ele>604</ele>
        <time>2014-06-29T10:37:21Z</time>
      </trkpt>
      <trkpt lat="46.67802" lon="5.80491">
        <ele>603.6</ele>
        <time>2014-06-29T10:37:23Z</time>
      </trkpt>
      <trkpt lat="46.67812" lon="5.80494">
        <ele>603.4</ele>
        <time>2014-06-29T10:37:25Z</time>
      </trkpt>
      <trkpt lat="46.67834" lon="5.80483">
        <ele>601.8</ele>
        <time>2014-06-29T10:37:29Z</time>
      </trkpt>
      <trkpt lat="46.67845" lon="5.80479">
        <ele>600.7</ele>
        <time>2014-06-29T10:37:31Z</time>
      </trkpt>
      <trkpt lat="46.67854" lon="5.80486">
        <ele>599.5</ele>
        <time>2014-06-29T10:37:34Z</time>
      </trkpt>
      <trkpt lat="46.67858" lon="5.80499">
        <ele>599.1</ele>
        <time>2014-06-29T10:37:37Z</time>
      </trkpt>
      <trkpt lat="46.67858" lon="5.80516">
        <ele>599</ele>
        <time>2014-06-29T10:37:40Z</time>
      </trkpt>
      <trkpt lat="46.67856" lon="5.80534">
        <ele>599.1</ele>
        <time>2014-06-29T10:37:43Z</time>
      </trkpt>
      <trkpt lat="46.67854" lon="5.80551">
        <ele>599.4</ele>
        <time>2014-06-29T10:37:46Z</time>
      </trkpt>
      <trkpt lat="46.67852" lon="5.80567">
        <ele>599.9</ele>
        <time>2014-06-29T10:37:49Z</time>
      </trkpt>
      <trkpt lat="46.67848" lon="5.80584">
        <ele>600.1</ele>
        <time>2014-06-29T10:37:52Z</time>
      </trkpt>
      <trkpt lat="46.67846" lon="5.80602">
        <ele>600.3</ele>
        <time>2014-06-29T10:37:55Z</time>
      </trkpt>
      <trkpt lat="46.67846" lon="5.80619">
        <ele>600.7</ele>
        <time>2014-06-29T10:37:58Z</time>
      </trkpt>
      <trkpt lat="46.67844" lon="5.80637">
        <ele>600.5</ele>
        <time>2014-06-29T10:38:01Z</time>
      </trkpt>
      <trkpt lat="46.67842" lon="5.80654">
        <ele>600.4</ele>
        <time>2014-06-29T10:38:04Z</time>
      </trkpt>
      <trkpt lat="46.67838" lon="5.80671">
        <ele>600.2</ele>
        <time>2014-06-29T10:38:07Z</time>
      </trkpt>
      <trkpt lat="46.67837" lon="5.8069">
        <ele>600.6</ele>
        <time>2014-06-29T10:38:10Z</time>
      </trkpt>
      <trkpt lat="46.67837" lon="5.80703">
        <ele>600.4</ele>
        <time>2014-06-29T10:38:12Z</time>
      </trkpt>
      <trkpt lat="46.67835" lon="5.80722">
        <ele>600.5</ele>
        <time>2014-06-29T10:38:15Z</time>
      </trkpt>
      <trkpt lat="46.67837" lon="5.80737">
        <ele>600.6</ele>
        <time>2014-06-29T10:38:17Z</time>
      </trkpt>
      <trkpt lat="46.67838" lon="5.80751">
        <ele>600.5</ele>
        <time>2014-06-29T10:38:19Z</time>
      </trkpt>
      <trkpt lat="46.67838" lon="5.80766">
        <ele>600.1</ele>
        <time>2014-06-29T10:38:21Z</time>
      </trkpt>
      <trkpt lat="46.67838" lon="5.80782">
        <ele>599.7</ele>
        <time>2014-06-29T10:38:23Z</time>
      </trkpt>
      <trkpt lat="46.6784" lon="5.808">
        <ele>599.1</ele>
        <time>2014-06-29T10:38:25Z</time>
      </trkpt>
      <trkpt lat="46.67842" lon="5.80821">
        <ele>598.3</ele>
        <time>2014-06-29T10:38:27Z</time>
      </trkpt>
      <trkpt lat="46.67846" lon="5.80863">
        <ele>596.3</ele>
        <time>2014-06-29T10:38:31Z</time>
      </trkpt>
      <trkpt lat="46.6785" lon="5.80886">
        <ele>594.9</ele>
        <time>2014-06-29T10:38:33Z</time>
      </trkpt>
      <trkpt lat="46.67855" lon="5.80909">
        <ele>593.4</ele>
        <time>2014-06-29T10:38:35Z</time>
      </trkpt>
      <trkpt lat="46.67861" lon="5.80928">
        <ele>591.8</ele>
        <time>2014-06-29T10:38:37Z</time>
      </trkpt>
      <trkpt lat="46.67868" lon="5.80939">
        <ele>590.2</ele>
        <time>2014-06-29T10:38:39Z</time>
      </trkpt>
      <trkpt lat="46.67879" lon="5.80933">
        <ele>588.7</ele>
        <time>2014-06-29T10:38:42Z</time>
      </trkpt>
      <trkpt lat="46.67888" lon="5.8092">
        <ele>588.3</ele>
        <time>2014-06-29T10:38:45Z</time>
      </trkpt>
      <trkpt lat="46.67891" lon="5.80904">
        <ele>588.2</ele>
        <time>2014-06-29T10:38:48Z</time>
      </trkpt>
      <trkpt lat="46.67898" lon="5.80891">
        <ele>588.3</ele>
        <time>2014-06-29T10:38:51Z</time>
      </trkpt>
      <trkpt lat="46.67905" lon="5.8088">
        <ele>588.6</ele>
        <time>2014-06-29T10:38:54Z</time>
      </trkpt>
      <trkpt lat="46.67914" lon="5.80873">
        <ele>589.3</ele>
        <time>2014-06-29T10:38:58Z</time>
      </trkpt>
      <trkpt lat="46.67923" lon="5.8087">
        <ele>590.1</ele>
        <time>2014-06-29T10:39:03Z</time>
      </trkpt>
      <trkpt lat="46.67933" lon="5.80873">
        <ele>590.9</ele>
        <time>2014-06-29T10:39:09Z</time>
      </trkpt>
      <trkpt lat="46.67941" lon="5.80881">
        <ele>591.5</ele>
        <time>2014-06-29T10:39:13Z</time>
      </trkpt>
      <trkpt lat="46.67947" lon="5.8089">
        <ele>591.7</ele>
        <time>2014-06-29T10:39:17Z</time>
      </trkpt>
      <trkpt lat="46.67953" lon="5.80903">
        <ele>592.2</ele>
        <time>2014-06-29T10:39:20Z</time>
      </trkpt>
      <trkpt lat="46.67959" lon="5.80916">
        <ele>592.4</ele>
        <time>2014-06-29T10:39:23Z</time>
      </trkpt>
      <trkpt lat="46.67966" lon="5.80929">
        <ele>592.9</ele>
        <time>2014-06-29T10:39:26Z</time>
      </trkpt>
      <trkpt lat="46.67972" lon="5.80942">
        <ele>592.9</ele>
        <time>2014-06-29T10:39:29Z</time>
      </trkpt>
      <trkpt lat="46.67985" lon="5.80965">
        <ele>592.7</ele>
        <time>2014-06-29T10:39:35Z</time>
      </trkpt>
      <trkpt lat="46.67991" lon="5.80978">
        <ele>592.6</ele>
        <time>2014-06-29T10:39:38Z</time>
      </trkpt>
      <trkpt lat="46.67999" lon="5.80991">
        <ele>592.7</ele>
        <time>2014-06-29T10:39:41Z</time>
      </trkpt>
      <trkpt lat="46.68007" lon="5.81004">
        <ele>592.9</ele>
        <time>2014-06-29T10:39:44Z</time>
      </trkpt>
      <trkpt lat="46.68012" lon="5.81015">
        <ele>593.2</ele>
        <time>2014-06-29T10:39:47Z</time>
      </trkpt>
      <trkpt lat="46.68018" lon="5.81026">
        <ele>593.8</ele>
        <time>2014-06-29T10:39:51Z</time>
      </trkpt>
      <trkpt lat="46.68026" lon="5.81034">
        <ele>595.4</ele>
        <time>2014-06-29T10:40:01Z</time>
      </trkpt>
      <trkpt lat="46.68036" lon="5.81036">
        <ele>603</ele>
        <time>2014-06-29T10:40:54Z</time>
      </trkpt>
      <trkpt lat="46.6806" lon="5.81039">
        <ele>603.9</ele>
        <time>2014-06-29T10:41:01Z</time>
      </trkpt>
      <trkpt lat="46.68074" lon="5.81049">
        <ele>604.2</ele>
        <time>2014-06-29T10:41:03Z</time>
      </trkpt>
      <trkpt lat="46.6811" lon="5.81053">
        <ele>604</ele>
        <time>2014-06-29T10:41:08Z</time>
      </trkpt>
      <trkpt lat="46.68126" lon="5.81058">
        <ele>605.2</ele>
        <time>2014-06-29T10:41:13Z</time>
      </trkpt>
      <trkpt lat="46.68136" lon="5.81062">
        <ele>605.9</ele>
        <time>2014-06-29T10:41:19Z</time>
      </trkpt>
      <trkpt lat="46.68146" lon="5.81065">
        <ele>606.3</ele>
        <time>2014-06-29T10:41:24Z</time>
      </trkpt>
      <trkpt lat="46.68155" lon="5.81068">
        <ele>606.4</ele>
        <time>2014-06-29T10:41:28Z</time>
      </trkpt>
      <trkpt lat="46.68166" lon="5.81073">
        <ele>606.7</ele>
        <time>2014-06-29T10:41:32Z</time>
      </trkpt>
      <trkpt lat="46.68176" lon="5.81077">
        <ele>607</ele>
        <time>2014-06-29T10:41:35Z</time>
      </trkpt>
      <trkpt lat="46.68186" lon="5.81077">
        <ele>607.1</ele>
        <time>2014-06-29T10:41:38Z</time>
      </trkpt>
      <trkpt lat="46.68197" lon="5.8108">
        <ele>607.2</ele>
        <time>2014-06-29T10:41:41Z</time>
      </trkpt>
      <trkpt lat="46.68209" lon="5.81088">
        <ele>607.1</ele>
        <time>2014-06-29T10:41:44Z</time>
      </trkpt>
      <trkpt lat="46.68218" lon="5.81098">
        <ele>607</ele>
        <time>2014-06-29T10:41:47Z</time>
      </trkpt>
      <trkpt lat="46.68226" lon="5.81111">
        <ele>606.9</ele>
        <time>2014-06-29T10:41:50Z</time>
      </trkpt>
      <trkpt lat="46.68233" lon="5.81125">
        <ele>606.7</ele>
        <time>2014-06-29T10:41:53Z</time>
      </trkpt>
      <trkpt lat="46.68241" lon="5.81141">
        <ele>606.7</ele>
        <time>2014-06-29T10:41:56Z</time>
      </trkpt>
      <trkpt lat="46.68254" lon="5.81162">
        <ele>606</ele>
        <time>2014-06-29T10:42:00Z</time>
      </trkpt>
      <trkpt lat="46.68261" lon="5.81173">
        <ele>606</ele>
        <time>2014-06-29T10:42:02Z</time>
      </trkpt>
      <trkpt lat="46.6827" lon="5.81185">
        <ele>605.5</ele>
        <time>2014-06-29T10:42:04Z</time>
      </trkpt>
      <trkpt lat="46.68279" lon="5.81199">
        <ele>605</ele>
        <time>2014-06-29T10:42:06Z</time>
      </trkpt>
      <trkpt lat="46.68288" lon="5.81211">
        <ele>604.5</ele>
        <time>2014-06-29T10:42:08Z</time>
      </trkpt>
      <trkpt lat="46.68297" lon="5.81223">
        <ele>603.5</ele>
        <time>2014-06-29T10:42:10Z</time>
      </trkpt>
      <trkpt lat="46.68306" lon="5.81234">
        <ele>602.5</ele>
        <time>2014-06-29T10:42:12Z</time>
      </trkpt>
      <trkpt lat="46.68315" lon="5.81245">
        <ele>601.5</ele>
        <time>2014-06-29T10:42:14Z</time>
      </trkpt>
      <trkpt lat="46.68326" lon="5.81254">
        <ele>600.4</ele>
        <time>2014-06-29T10:42:16Z</time>
      </trkpt>
      <trkpt lat="46.68339" lon="5.81254">
        <ele>599.6</ele>
        <time>2014-06-29T10:42:18Z</time>
      </trkpt>
      <trkpt lat="46.68351" lon="5.81244">
        <ele>598.9</ele>
        <time>2014-06-29T10:42:20Z</time>
      </trkpt>
      <trkpt lat="46.6836" lon="5.81227">
        <ele>598</ele>
        <time>2014-06-29T10:42:22Z</time>
      </trkpt>
      <trkpt lat="46.68363" lon="5.81208">
        <ele>597.7</ele>
        <time>2014-06-29T10:42:24Z</time>
      </trkpt>
      <trkpt lat="46.68364" lon="5.81192">
        <ele>597.5</ele>
        <time>2014-06-29T10:42:26Z</time>
      </trkpt>
      <trkpt lat="46.68362" lon="5.81175">
        <ele>597.6</ele>
        <time>2014-06-29T10:42:29Z</time>
      </trkpt>
      <trkpt lat="46.68364" lon="5.81159">
        <ele>598.4</ele>
        <time>2014-06-29T10:42:33Z</time>
      </trkpt>
      <trkpt lat="46.68362" lon="5.81145">
        <ele>598.6</ele>
        <time>2014-06-29T10:42:36Z</time>
      </trkpt>
      <trkpt lat="46.68363" lon="5.81131">
        <ele>598.7</ele>
        <time>2014-06-29T10:42:39Z</time>
      </trkpt>
      <trkpt lat="46.68365" lon="5.81117">
        <ele>599.3</ele>
        <time>2014-06-29T10:42:42Z</time>
      </trkpt>
      <trkpt lat="46.68367" lon="5.81104">
        <ele>599.4</ele>
        <time>2014-06-29T10:42:45Z</time>
      </trkpt>
      <trkpt lat="46.68368" lon="5.8109">
        <ele>599.6</ele>
        <time>2014-06-29T10:42:48Z</time>
      </trkpt>
      <trkpt lat="46.68372" lon="5.81076">
        <ele>600.1</ele>
        <time>2014-06-29T10:42:51Z</time>
      </trkpt>
      <trkpt lat="46.68377" lon="5.81062">
        <ele>600.4</ele>
        <time>2014-06-29T10:42:54Z</time>
      </trkpt>
      <trkpt lat="46.68382" lon="5.81048">
        <ele>600.5</ele>
        <time>2014-06-29T10:42:57Z</time>
      </trkpt>
      <trkpt lat="46.68385" lon="5.81036">
        <ele>600.5</ele>
        <time>2014-06-29T10:43:00Z</time>
      </trkpt>
      <trkpt lat="46.68395" lon="5.8101">
        <ele>601</ele>
        <time>2014-06-29T10:43:06Z</time>
      </trkpt>
      <trkpt lat="46.68398" lon="5.80996">
        <ele>601.6</ele>
        <time>2014-06-29T10:43:09Z</time>
      </trkpt>
      <trkpt lat="46.68401" lon="5.80984">
        <ele>601.9</ele>
        <time>2014-06-29T10:43:12Z</time>
      </trkpt>
      <trkpt lat="46.68405" lon="5.80971">
        <ele>602.3</ele>
        <time>2014-06-29T10:43:15Z</time>
      </trkpt>
      <trkpt lat="46.68408" lon="5.80958">
        <ele>603</ele>
        <time>2014-06-29T10:43:18Z</time>
      </trkpt>
      <trkpt lat="46.68412" lon="5.80945">
        <ele>603.3</ele>
        <time>2014-06-29T10:43:21Z</time>
      </trkpt>
      <trkpt lat="46.68417" lon="5.8093">
        <ele>603.4</ele>
        <time>2014-06-29T10:43:25Z</time>
      </trkpt>
      <trkpt lat="46.68422" lon="5.80918">
        <ele>603.7</ele>
        <time>2014-06-29T10:43:28Z</time>
      </trkpt>
      <trkpt lat="46.68428" lon="5.80906">
        <ele>604.3</ele>
        <time>2014-06-29T10:43:31Z</time>
      </trkpt>
      <trkpt lat="46.68433" lon="5.80893">
        <ele>604.8</ele>
        <time>2014-06-29T10:43:34Z</time>
      </trkpt>
      <trkpt lat="46.68439" lon="5.80881">
        <ele>605.3</ele>
        <time>2014-06-29T10:43:37Z</time>
      </trkpt>
      <trkpt lat="46.68446" lon="5.80868">
        <ele>605.5</ele>
        <time>2014-06-29T10:43:40Z</time>
      </trkpt>
      <trkpt lat="46.68451" lon="5.80852">
        <ele>605.2</ele>
        <time>2014-06-29T10:43:43Z</time>
      </trkpt>
      <trkpt lat="46.68457" lon="5.80836">
        <ele>605.2</ele>
        <time>2014-06-29T10:43:46Z</time>
      </trkpt>
      <trkpt lat="46.68461" lon="5.80821">
        <ele>605.3</ele>
        <time>2014-06-29T10:43:49Z</time>
      </trkpt>
      <trkpt lat="46.68467" lon="5.80806">
        <ele>605.3</ele>
        <time>2014-06-29T10:43:52Z</time>
      </trkpt>
      <trkpt lat="46.68472" lon="5.80792">
        <ele>605.6</ele>
        <time>2014-06-29T10:43:55Z</time>
      </trkpt>
      <trkpt lat="46.68476" lon="5.80777">
        <ele>605.7</ele>
        <time>2014-06-29T10:43:58Z</time>
      </trkpt>
      <trkpt lat="46.68481" lon="5.8076">
        <ele>605.5</ele>
        <time>2014-06-29T10:44:01Z</time>
      </trkpt>
      <trkpt lat="46.68482" lon="5.80747">
        <ele>605.1</ele>
        <time>2014-06-29T10:44:03Z</time>
      </trkpt>
      <trkpt lat="46.6848" lon="5.80718">
        <ele>604.4</ele>
        <time>2014-06-29T10:44:07Z</time>
      </trkpt>
      <trkpt lat="46.68477" lon="5.80703">
        <ele>603.9</ele>
        <time>2014-06-29T10:44:09Z</time>
      </trkpt>
      <trkpt lat="46.68475" lon="5.80687">
        <ele>603.4</ele>
        <time>2014-06-29T10:44:11Z</time>
      </trkpt>
      <trkpt lat="46.68475" lon="5.80671">
        <ele>603</ele>
        <time>2014-06-29T10:44:13Z</time>
      </trkpt>
      <trkpt lat="46.68478" lon="5.80653">
        <ele>602.5</ele>
        <time>2014-06-29T10:44:15Z</time>
      </trkpt>
      <trkpt lat="46.68482" lon="5.80637">
        <ele>602.1</ele>
        <time>2014-06-29T10:44:17Z</time>
      </trkpt>
      <trkpt lat="46.68488" lon="5.80624">
        <ele>601.6</ele>
        <time>2014-06-29T10:44:19Z</time>
      </trkpt>
      <trkpt lat="46.68495" lon="5.80615">
        <ele>601.4</ele>
        <time>2014-06-29T10:44:21Z</time>
      </trkpt>
      <trkpt lat="46.68507" lon="5.80609">
        <ele>601.1</ele>
        <time>2014-06-29T10:44:24Z</time>
      </trkpt>
      <trkpt lat="46.68517" lon="5.80609">
        <ele>600.9</ele>
        <time>2014-06-29T10:44:27Z</time>
      </trkpt>
      <trkpt lat="46.68527" lon="5.80609">
        <ele>601.7</ele>
        <time>2014-06-29T10:44:31Z</time>
      </trkpt>
      <trkpt lat="46.68537" lon="5.80611">
        <ele>602.4</ele>
        <time>2014-06-29T10:44:36Z</time>
      </trkpt>
      <trkpt lat="46.68548" lon="5.80613">
        <ele>603.2</ele>
        <time>2014-06-29T10:44:41Z</time>
      </trkpt>
      <trkpt lat="46.68558" lon="5.80615">
        <ele>604.3</ele>
        <time>2014-06-29T10:44:47Z</time>
      </trkpt>
      <trkpt lat="46.68568" lon="5.8062">
        <ele>605.3</ele>
        <time>2014-06-29T10:44:53Z</time>
      </trkpt>
      <trkpt lat="46.68576" lon="5.8063">
        <ele>606.4</ele>
        <time>2014-06-29T10:44:59Z</time>
      </trkpt>
      <trkpt lat="46.68583" lon="5.80638">
        <ele>607.5</ele>
        <time>2014-06-29T10:45:05Z</time>
      </trkpt>
      <trkpt lat="46.68602" lon="5.80646">
        <ele>609.4</ele>
        <time>2014-06-29T10:45:18Z</time>
      </trkpt>
      <trkpt lat="46.68611" lon="5.80652">
        <ele>610.6</ele>
        <time>2014-06-29T10:45:26Z</time>
      </trkpt>
      <trkpt lat="46.68619" lon="5.80657">
        <ele>611.5</ele>
        <time>2014-06-29T10:45:32Z</time>
      </trkpt>
      <trkpt lat="46.68628" lon="5.80661">
        <ele>612.4</ele>
        <time>2014-06-29T10:45:38Z</time>
      </trkpt>
      <trkpt lat="46.68637" lon="5.80663">
        <ele>613.4</ele>
        <time>2014-06-29T10:45:44Z</time>
      </trkpt>
      <trkpt lat="46.68648" lon="5.80665">
        <ele>614.1</ele>
        <time>2014-06-29T10:45:49Z</time>
      </trkpt>
      <trkpt lat="46.68657" lon="5.80666">
        <ele>615.1</ele>
        <time>2014-06-29T10:45:55Z</time>
      </trkpt>
      <trkpt lat="46.68666" lon="5.80669">
        <ele>616.3</ele>
        <time>2014-06-29T10:46:03Z</time>
      </trkpt>
      <trkpt lat="46.68676" lon="5.80672">
        <ele>617.3</ele>
        <time>2014-06-29T10:46:11Z</time>
      </trkpt>
      <trkpt lat="46.68694" lon="5.80683">
        <ele>619.3</ele>
        <time>2014-06-29T10:46:25Z</time>
      </trkpt>
      <trkpt lat="46.68703" lon="5.80686">
        <ele>620</ele>
        <time>2014-06-29T10:46:31Z</time>
      </trkpt>
      <trkpt lat="46.68712" lon="5.80693">
        <ele>621.1</ele>
        <time>2014-06-29T10:46:38Z</time>
      </trkpt>
      <trkpt lat="46.68722" lon="5.80701">
        <ele>622</ele>
        <time>2014-06-29T10:46:45Z</time>
      </trkpt>
      <trkpt lat="46.6873" lon="5.8071">
        <ele>622.6</ele>
        <time>2014-06-29T10:46:50Z</time>
      </trkpt>
      <trkpt lat="46.68737" lon="5.80722">
        <ele>623.2</ele>
        <time>2014-06-29T10:46:56Z</time>
      </trkpt>
      <trkpt lat="46.68743" lon="5.80732">
        <ele>623.8</ele>
        <time>2014-06-29T10:47:01Z</time>
      </trkpt>
      <trkpt lat="46.6875" lon="5.80745">
        <ele>624.7</ele>
        <time>2014-06-29T10:47:06Z</time>
      </trkpt>
      <trkpt lat="46.68756" lon="5.80756">
        <ele>625.2</ele>
        <time>2014-06-29T10:47:10Z</time>
      </trkpt>
      <trkpt lat="46.68763" lon="5.80768">
        <ele>625.7</ele>
        <time>2014-06-29T10:47:14Z</time>
      </trkpt>
      <trkpt lat="46.6878" lon="5.80787">
        <ele>626.2</ele>
        <time>2014-06-29T10:47:20Z</time>
      </trkpt>
      <trkpt lat="46.68788" lon="5.80797">
        <ele>626.5</ele>
        <time>2014-06-29T10:47:24Z</time>
      </trkpt>
      <trkpt lat="46.68795" lon="5.80806">
        <ele>626.9</ele>
        <time>2014-06-29T10:47:28Z</time>
      </trkpt>
      <trkpt lat="46.68804" lon="5.80814">
        <ele>626.9</ele>
        <time>2014-06-29T10:47:32Z</time>
      </trkpt>
      <trkpt lat="46.68811" lon="5.80823">
        <ele>627.4</ele>
        <time>2014-06-29T10:47:36Z</time>
      </trkpt>
      <trkpt lat="46.68818" lon="5.80833">
        <ele>628.1</ele>
        <time>2014-06-29T10:47:41Z</time>
      </trkpt>
      <trkpt lat="46.68826" lon="5.80842">
        <ele>628.7</ele>
        <time>2014-06-29T10:47:46Z</time>
      </trkpt>
      <trkpt lat="46.68836" lon="5.80852">
        <ele>628.8</ele>
        <time>2014-06-29T10:47:50Z</time>
      </trkpt>
      <trkpt lat="46.68843" lon="5.80859">
        <ele>629</ele>
        <time>2014-06-29T10:47:53Z</time>
      </trkpt>
      <trkpt lat="46.68854" lon="5.80867">
        <ele>629.6</ele>
        <time>2014-06-29T10:47:57Z</time>
      </trkpt>
      <trkpt lat="46.68862" lon="5.80876">
        <ele>629.8</ele>
        <time>2014-06-29T10:48:01Z</time>
      </trkpt>
      <trkpt lat="46.68869" lon="5.80885">
        <ele>630.1</ele>
        <time>2014-06-29T10:48:04Z</time>
      </trkpt>
      <trkpt lat="46.68876" lon="5.80894">
        <ele>629.7</ele>
        <time>2014-06-29T10:48:07Z</time>
      </trkpt>
      <trkpt lat="46.68882" lon="5.80903">
        <ele>630</ele>
        <time>2014-06-29T10:48:10Z</time>
      </trkpt>
      <trkpt lat="46.68891" lon="5.80914">
        <ele>630</ele>
        <time>2014-06-29T10:48:13Z</time>
      </trkpt>
      <trkpt lat="46.68899" lon="5.80923">
        <ele>630</ele>
        <time>2014-06-29T10:48:16Z</time>
      </trkpt>
      <trkpt lat="46.68915" lon="5.8094">
        <ele>629.3</ele>
        <time>2014-06-29T10:48:22Z</time>
      </trkpt>
      <trkpt lat="46.68925" lon="5.80948">
        <ele>629.2</ele>
        <time>2014-06-29T10:48:25Z</time>
      </trkpt>
      <trkpt lat="46.68938" lon="5.80953">
        <ele>629</ele>
        <time>2014-06-29T10:48:28Z</time>
      </trkpt>
      <trkpt lat="46.6895" lon="5.80959">
        <ele>628.9</ele>
        <time>2014-06-29T10:48:31Z</time>
      </trkpt>
      <trkpt lat="46.6896" lon="5.80961">
        <ele>628.9</ele>
        <time>2014-06-29T10:48:33Z</time>
      </trkpt>
      <trkpt lat="46.68973" lon="5.80967">
        <ele>628.8</ele>
        <time>2014-06-29T10:48:36Z</time>
      </trkpt>
      <trkpt lat="46.68983" lon="5.80973">
        <ele>628.6</ele>
        <time>2014-06-29T10:48:38Z</time>
      </trkpt>
      <trkpt lat="46.68992" lon="5.8098">
        <ele>628.5</ele>
        <time>2014-06-29T10:48:40Z</time>
      </trkpt>
      <trkpt lat="46.69002" lon="5.80987">
        <ele>628.2</ele>
        <time>2014-06-29T10:48:43Z</time>
      </trkpt>
      <trkpt lat="46.69015" lon="5.80992">
        <ele>627.9</ele>
        <time>2014-06-29T10:48:46Z</time>
      </trkpt>
      <trkpt lat="46.69025" lon="5.80992">
        <ele>627.6</ele>
        <time>2014-06-29T10:48:48Z</time>
      </trkpt>
      <trkpt lat="46.69034" lon="5.80994">
        <ele>627.5</ele>
        <time>2014-06-29T10:48:49Z</time>
      </trkpt>
      <trkpt lat="46.69047" lon="5.80995">
        <ele>627.3</ele>
        <time>2014-06-29T10:48:51Z</time>
      </trkpt>
      <trkpt lat="46.69057" lon="5.80993">
        <ele>627.3</ele>
        <time>2014-06-29T10:48:53Z</time>
      </trkpt>
      <trkpt lat="46.69066" lon="5.80988">
        <ele>627.2</ele>
        <time>2014-06-29T10:48:55Z</time>
      </trkpt>
      <trkpt lat="46.69079" lon="5.80981">
        <ele>627.2</ele>
        <time>2014-06-29T10:48:58Z</time>
      </trkpt>
      <trkpt lat="46.6909" lon="5.80977">
        <ele>627.4</ele>
        <time>2014-06-29T10:49:01Z</time>
      </trkpt>
      <trkpt lat="46.691" lon="5.80973">
        <ele>628</ele>
        <time>2014-06-29T10:49:04Z</time>
      </trkpt>
      <trkpt lat="46.69111" lon="5.80967">
        <ele>628.3</ele>
        <time>2014-06-29T10:49:08Z</time>
      </trkpt>
      <trkpt lat="46.69121" lon="5.80962">
        <ele>629.2</ele>
        <time>2014-06-29T10:49:12Z</time>
      </trkpt>
      <trkpt lat="46.6913" lon="5.80956">
        <ele>630</ele>
        <time>2014-06-29T10:49:16Z</time>
      </trkpt>
      <trkpt lat="46.69139" lon="5.80954">
        <ele>630.3</ele>
        <time>2014-06-29T10:49:19Z</time>
      </trkpt>
      <trkpt lat="46.69159" lon="5.8095">
        <ele>631.9</ele>
        <time>2014-06-29T10:49:26Z</time>
      </trkpt>
      <trkpt lat="46.69168" lon="5.80945">
        <ele>632</ele>
        <time>2014-06-29T10:49:30Z</time>
      </trkpt>
      <trkpt lat="46.69179" lon="5.80942">
        <ele>632.3</ele>
        <time>2014-06-29T10:49:33Z</time>
      </trkpt>
      <trkpt lat="46.6919" lon="5.8094">
        <ele>632.7</ele>
        <time>2014-06-29T10:49:36Z</time>
      </trkpt>
      <trkpt lat="46.692" lon="5.80937">
        <ele>633</ele>
        <time>2014-06-29T10:49:39Z</time>
      </trkpt>
      <trkpt lat="46.69212" lon="5.80935">
        <ele>633.1</ele>
        <time>2014-06-29T10:49:42Z</time>
      </trkpt>
      <trkpt lat="46.69225" lon="5.80934">
        <ele>633.4</ele>
        <time>2014-06-29T10:49:45Z</time>
      </trkpt>
      <trkpt lat="46.69238" lon="5.80934">
        <ele>633.3</ele>
        <time>2014-06-29T10:49:48Z</time>
      </trkpt>
      <trkpt lat="46.69253" lon="5.80934">
        <ele>633.2</ele>
        <time>2014-06-29T10:49:51Z</time>
      </trkpt>
      <trkpt lat="46.69263" lon="5.80934">
        <ele>633.4</ele>
        <time>2014-06-29T10:49:53Z</time>
      </trkpt>
      <trkpt lat="46.69272" lon="5.80936">
        <ele>633.4</ele>
        <time>2014-06-29T10:49:55Z</time>
      </trkpt>
      <trkpt lat="46.69286" lon="5.80939">
        <ele>633.6</ele>
        <time>2014-06-29T10:49:58Z</time>
      </trkpt>
      <trkpt lat="46.69298" lon="5.80942">
        <ele>633.8</ele>
        <time>2014-06-29T10:50:01Z</time>
      </trkpt>
      <trkpt lat="46.69307" lon="5.80944">
        <ele>634</ele>
        <time>2014-06-29T10:50:03Z</time>
      </trkpt>
      <trkpt lat="46.69319" lon="5.80946">
        <ele>634.2</ele>
        <time>2014-06-29T10:50:06Z</time>
      </trkpt>
      <trkpt lat="46.6933" lon="5.80949">
        <ele>634.4</ele>
        <time>2014-06-29T10:50:09Z</time>
      </trkpt>
      <trkpt lat="46.69339" lon="5.80951">
        <ele>634.4</ele>
        <time>2014-06-29T10:50:12Z</time>
      </trkpt>
      <trkpt lat="46.69348" lon="5.80955">
        <ele>634.7</ele>
        <time>2014-06-29T10:50:15Z</time>
      </trkpt>
      <trkpt lat="46.69357" lon="5.80957">
        <ele>634.7</ele>
        <time>2014-06-29T10:50:18Z</time>
      </trkpt>
      <trkpt lat="46.69371" lon="5.80959">
        <ele>635</ele>
        <time>2014-06-29T10:50:21Z</time>
      </trkpt>
      <trkpt lat="46.69392" lon="5.80961">
        <ele>634.9</ele>
        <time>2014-06-29T10:50:25Z</time>
      </trkpt>
      <trkpt lat="46.69401" lon="5.80961">
        <ele>634.8</ele>
        <time>2014-06-29T10:50:27Z</time>
      </trkpt>
      <trkpt lat="46.69411" lon="5.80962">
        <ele>634.5</ele>
        <time>2014-06-29T10:50:29Z</time>
      </trkpt>
      <trkpt lat="46.6942" lon="5.80966">
        <ele>634.4</ele>
        <time>2014-06-29T10:50:31Z</time>
      </trkpt>
      <trkpt lat="46.69434" lon="5.80969">
        <ele>634.4</ele>
        <time>2014-06-29T10:50:34Z</time>
      </trkpt>
      <trkpt lat="46.69446" lon="5.80971">
        <ele>634.3</ele>
        <time>2014-06-29T10:50:36Z</time>
      </trkpt>
      <trkpt lat="46.69456" lon="5.80975">
        <ele>634.1</ele>
        <time>2014-06-29T10:50:38Z</time>
      </trkpt>
      <trkpt lat="46.69467" lon="5.80978">
        <ele>634</ele>
        <time>2014-06-29T10:50:40Z</time>
      </trkpt>
      <trkpt lat="46.69479" lon="5.80983">
        <ele>633.8</ele>
        <time>2014-06-29T10:50:42Z</time>
      </trkpt>
      <trkpt lat="46.69491" lon="5.80986">
        <ele>633.5</ele>
        <time>2014-06-29T10:50:44Z</time>
      </trkpt>
      <trkpt lat="46.69503" lon="5.80989">
        <ele>633.2</ele>
        <time>2014-06-29T10:50:46Z</time>
      </trkpt>
      <trkpt lat="46.69513" lon="5.80993">
        <ele>633</ele>
        <time>2014-06-29T10:50:48Z</time>
      </trkpt>
      <trkpt lat="46.69524" lon="5.80998">
        <ele>632.9</ele>
        <time>2014-06-29T10:50:50Z</time>
      </trkpt>
      <trkpt lat="46.69533" lon="5.81002">
        <ele>632.7</ele>
        <time>2014-06-29T10:50:52Z</time>
      </trkpt>
      <trkpt lat="46.69545" lon="5.81004">
        <ele>632.5</ele>
        <time>2014-06-29T10:50:54Z</time>
      </trkpt>
      <trkpt lat="46.69557" lon="5.81008">
        <ele>632.4</ele>
        <time>2014-06-29T10:50:56Z</time>
      </trkpt>
      <trkpt lat="46.69567" lon="5.81012">
        <ele>632.2</ele>
        <time>2014-06-29T10:50:58Z</time>
      </trkpt>
      <trkpt lat="46.69578" lon="5.81017">
        <ele>632</ele>
        <time>2014-06-29T10:51:00Z</time>
      </trkpt>
      <trkpt lat="46.6959" lon="5.81022">
        <ele>631.9</ele>
        <time>2014-06-29T10:51:02Z</time>
      </trkpt>
      <trkpt lat="46.69601" lon="5.81027">
        <ele>631.7</ele>
        <time>2014-06-29T10:51:04Z</time>
      </trkpt>
      <trkpt lat="46.69612" lon="5.81032">
        <ele>631.4</ele>
        <time>2014-06-29T10:51:06Z</time>
      </trkpt>
      <trkpt lat="46.69623" lon="5.81036">
        <ele>631.1</ele>
        <time>2014-06-29T10:51:08Z</time>
      </trkpt>
      <trkpt lat="46.69634" lon="5.81042">
        <ele>630.8</ele>
        <time>2014-06-29T10:51:10Z</time>
      </trkpt>
      <trkpt lat="46.69644" lon="5.81048">
        <ele>630.7</ele>
        <time>2014-06-29T10:51:12Z</time>
      </trkpt>
      <trkpt lat="46.69655" lon="5.81054">
        <ele>630.4</ele>
        <time>2014-06-29T10:51:14Z</time>
      </trkpt>
      <trkpt lat="46.69665" lon="5.81061">
        <ele>630.1</ele>
        <time>2014-06-29T10:51:16Z</time>
      </trkpt>
      <trkpt lat="46.69674" lon="5.81069">
        <ele>629.8</ele>
        <time>2014-06-29T10:51:18Z</time>
      </trkpt>
      <trkpt lat="46.69682" lon="5.81076">
        <ele>629.6</ele>
        <time>2014-06-29T10:51:20Z</time>
      </trkpt>
      <trkpt lat="46.6969" lon="5.81082">
        <ele>629.2</ele>
        <time>2014-06-29T10:51:22Z</time>
      </trkpt>
      <trkpt lat="46.69701" lon="5.8109">
        <ele>629.2</ele>
        <time>2014-06-29T10:51:24Z</time>
      </trkpt>
      <trkpt lat="46.69719" lon="5.81109">
        <ele>628.9</ele>
        <time>2014-06-29T10:51:29Z</time>
      </trkpt>
      <trkpt lat="46.69726" lon="5.81119">
        <ele>628.9</ele>
        <time>2014-06-29T10:51:31Z</time>
      </trkpt>
      <trkpt lat="46.69735" lon="5.81132">
        <ele>628.9</ele>
        <time>2014-06-29T10:51:34Z</time>
      </trkpt>
      <trkpt lat="46.69745" lon="5.81143">
        <ele>629.1</ele>
        <time>2014-06-29T10:51:37Z</time>
      </trkpt>
      <trkpt lat="46.69754" lon="5.81154">
        <ele>629.4</ele>
        <time>2014-06-29T10:51:40Z</time>
      </trkpt>
      <trkpt lat="46.69763" lon="5.81164">
        <ele>629.7</ele>
        <time>2014-06-29T10:51:43Z</time>
      </trkpt>
      <trkpt lat="46.69772" lon="5.81174">
        <ele>629.7</ele>
        <time>2014-06-29T10:51:46Z</time>
      </trkpt>
      <trkpt lat="46.69782" lon="5.81181">
        <ele>630.3</ele>
        <time>2014-06-29T10:51:49Z</time>
      </trkpt>
      <trkpt lat="46.69793" lon="5.81189">
        <ele>630.4</ele>
        <time>2014-06-29T10:51:52Z</time>
      </trkpt>
      <trkpt lat="46.69803" lon="5.81197">
        <ele>630.8</ele>
        <time>2014-06-29T10:51:55Z</time>
      </trkpt>
      <trkpt lat="46.69814" lon="5.81203">
        <ele>631.1</ele>
        <time>2014-06-29T10:51:58Z</time>
      </trkpt>
      <trkpt lat="46.69825" lon="5.81209">
        <ele>631.5</ele>
        <time>2014-06-29T10:52:01Z</time>
      </trkpt>
      <trkpt lat="46.69836" lon="5.81214">
        <ele>631.8</ele>
        <time>2014-06-29T10:52:04Z</time>
      </trkpt>
      <trkpt lat="46.69846" lon="5.81219">
        <ele>632.2</ele>
        <time>2014-06-29T10:52:07Z</time>
      </trkpt>
      <trkpt lat="46.69856" lon="5.81225">
        <ele>632.7</ele>
        <time>2014-06-29T10:52:10Z</time>
      </trkpt>
      <trkpt lat="46.69865" lon="5.81231">
        <ele>632.9</ele>
        <time>2014-06-29T10:52:13Z</time>
      </trkpt>
      <trkpt lat="46.69874" lon="5.81237">
        <ele>633.2</ele>
        <time>2014-06-29T10:52:16Z</time>
      </trkpt>
      <trkpt lat="46.69884" lon="5.81244">
        <ele>633.3</ele>
        <time>2014-06-29T10:52:19Z</time>
      </trkpt>
      <trkpt lat="46.69892" lon="5.81253">
        <ele>633.7</ele>
        <time>2014-06-29T10:52:22Z</time>
      </trkpt>
      <trkpt lat="46.69903" lon="5.81261">
        <ele>634.2</ele>
        <time>2014-06-29T10:52:26Z</time>
      </trkpt>
      <trkpt lat="46.69921" lon="5.81272">
        <ele>634.2</ele>
        <time>2014-06-29T10:52:32Z</time>
      </trkpt>
      <trkpt lat="46.69931" lon="5.81276">
        <ele>634.5</ele>
        <time>2014-06-29T10:52:35Z</time>
      </trkpt>
      <trkpt lat="46.69943" lon="5.8128">
        <ele>634.8</ele>
        <time>2014-06-29T10:52:38Z</time>
      </trkpt>
      <trkpt lat="46.69952" lon="5.81286">
        <ele>634.9</ele>
        <time>2014-06-29T10:52:41Z</time>
      </trkpt>
      <trkpt lat="46.69962" lon="5.81294">
        <ele>635.3</ele>
        <time>2014-06-29T10:52:45Z</time>
      </trkpt>
      <trkpt lat="46.69971" lon="5.81303">
        <ele>635.6</ele>
        <time>2014-06-29T10:52:49Z</time>
      </trkpt>
      <trkpt lat="46.69979" lon="5.8131">
        <ele>636.1</ele>
        <time>2014-06-29T10:52:52Z</time>
      </trkpt>
      <trkpt lat="46.69987" lon="5.81319">
        <ele>636.4</ele>
        <time>2014-06-29T10:52:55Z</time>
      </trkpt>
      <trkpt lat="46.69996" lon="5.81328">
        <ele>636.4</ele>
        <time>2014-06-29T10:52:58Z</time>
      </trkpt>
      <trkpt lat="46.70002" lon="5.81342">
        <ele>636.6</ele>
        <time>2014-06-29T10:53:01Z</time>
      </trkpt>
      <trkpt lat="46.70006" lon="5.81356">
        <ele>637.1</ele>
        <time>2014-06-29T10:53:04Z</time>
      </trkpt>
      <trkpt lat="46.70008" lon="5.8137">
        <ele>637.4</ele>
        <time>2014-06-29T10:53:07Z</time>
      </trkpt>
      <trkpt lat="46.70011" lon="5.81385">
        <ele>638</ele>
        <time>2014-06-29T10:53:10Z</time>
      </trkpt>
      <trkpt lat="46.70012" lon="5.814">
        <ele>638.6</ele>
        <time>2014-06-29T10:53:13Z</time>
      </trkpt>
      <trkpt lat="46.70014" lon="5.81417">
        <ele>638.5</ele>
        <time>2014-06-29T10:53:17Z</time>
      </trkpt>
      <trkpt lat="46.70017" lon="5.81432">
        <ele>638.9</ele>
        <time>2014-06-29T10:53:20Z</time>
      </trkpt>
      <trkpt lat="46.70019" lon="5.81446">
        <ele>639.4</ele>
        <time>2014-06-29T10:53:23Z</time>
      </trkpt>
      <trkpt lat="46.70019" lon="5.81459">
        <ele>639.8</ele>
        <time>2014-06-29T10:53:26Z</time>
      </trkpt>
      <trkpt lat="46.70017" lon="5.81475">
        <ele>639.7</ele>
        <time>2014-06-29T10:53:30Z</time>
      </trkpt>
      <trkpt lat="46.7001" lon="5.815">
        <ele>639.8</ele>
        <time>2014-06-29T10:53:36Z</time>
      </trkpt>
      <trkpt lat="46.70005" lon="5.81514">
        <ele>639.9</ele>
        <time>2014-06-29T10:53:39Z</time>
      </trkpt>
      <trkpt lat="46.7" lon="5.81527">
        <ele>640.4</ele>
        <time>2014-06-29T10:53:42Z</time>
      </trkpt>
      <trkpt lat="46.69996" lon="5.81541">
        <ele>640.7</ele>
        <time>2014-06-29T10:53:45Z</time>
      </trkpt>
      <trkpt lat="46.69992" lon="5.81555">
        <ele>640.9</ele>
        <time>2014-06-29T10:53:48Z</time>
      </trkpt>
      <trkpt lat="46.69989" lon="5.81569">
        <ele>641.4</ele>
        <time>2014-06-29T10:53:51Z</time>
      </trkpt>
      <trkpt lat="46.69987" lon="5.81583">
        <ele>642</ele>
        <time>2014-06-29T10:53:54Z</time>
      </trkpt>
      <trkpt lat="46.69986" lon="5.81597">
        <ele>642.2</ele>
        <time>2014-06-29T10:53:57Z</time>
      </trkpt>
      <trkpt lat="46.69981" lon="5.81613">
        <ele>642.8</ele>
        <time>2014-06-29T10:54:00Z</time>
      </trkpt>
      <trkpt lat="46.69984" lon="5.81626">
        <ele>643</ele>
        <time>2014-06-29T10:54:03Z</time>
      </trkpt>
      <trkpt lat="46.69984" lon="5.81642">
        <ele>643.7</ele>
        <time>2014-06-29T10:54:07Z</time>
      </trkpt>
      <trkpt lat="46.69985" lon="5.81657">
        <ele>644.4</ele>
        <time>2014-06-29T10:54:11Z</time>
      </trkpt>
      <trkpt lat="46.69988" lon="5.81674">
        <ele>644.5</ele>
        <time>2014-06-29T10:54:14Z</time>
      </trkpt>
      <trkpt lat="46.69991" lon="5.81691">
        <ele>644.5</ele>
        <time>2014-06-29T10:54:17Z</time>
      </trkpt>
      <trkpt lat="46.69995" lon="5.81706">
        <ele>645</ele>
        <time>2014-06-29T10:54:20Z</time>
      </trkpt>
      <trkpt lat="46.69997" lon="5.8172">
        <ele>645.1</ele>
        <time>2014-06-29T10:54:23Z</time>
      </trkpt>
      <trkpt lat="46.7" lon="5.81736">
        <ele>645.6</ele>
        <time>2014-06-29T10:54:27Z</time>
      </trkpt>
      <trkpt lat="46.70002" lon="5.8175">
        <ele>645.8</ele>
        <time>2014-06-29T10:54:30Z</time>
      </trkpt>
      <trkpt lat="46.70008" lon="5.81765">
        <ele>645.8</ele>
        <time>2014-06-29T10:54:33Z</time>
      </trkpt>
      <trkpt lat="46.70024" lon="5.81795">
        <ele>645.8</ele>
        <time>2014-06-29T10:54:39Z</time>
      </trkpt>
      <trkpt lat="46.70029" lon="5.81806">
        <ele>645.7</ele>
        <time>2014-06-29T10:54:41Z</time>
      </trkpt>
      <trkpt lat="46.70034" lon="5.81819">
        <ele>645.8</ele>
        <time>2014-06-29T10:54:43Z</time>
      </trkpt>
      <trkpt lat="46.70038" lon="5.81832">
        <ele>645.9</ele>
        <time>2014-06-29T10:54:45Z</time>
      </trkpt>
      <trkpt lat="46.70042" lon="5.81846">
        <ele>645.6</ele>
        <time>2014-06-29T10:54:47Z</time>
      </trkpt>
      <trkpt lat="46.70046" lon="5.81861">
        <ele>645.6</ele>
        <time>2014-06-29T10:54:49Z</time>
      </trkpt>
      <trkpt lat="46.70048" lon="5.81877">
        <ele>645.4</ele>
        <time>2014-06-29T10:54:51Z</time>
      </trkpt>
      <trkpt lat="46.7005" lon="5.81892">
        <ele>645.2</ele>
        <time>2014-06-29T10:54:53Z</time>
      </trkpt>
      <trkpt lat="46.70051" lon="5.81908">
        <ele>645.1</ele>
        <time>2014-06-29T10:54:55Z</time>
      </trkpt>
      <trkpt lat="46.70054" lon="5.81923">
        <ele>644.9</ele>
        <time>2014-06-29T10:54:57Z</time>
      </trkpt>
      <trkpt lat="46.70055" lon="5.81938">
        <ele>644.8</ele>
        <time>2014-06-29T10:54:59Z</time>
      </trkpt>
      <trkpt lat="46.70054" lon="5.81954">
        <ele>644.7</ele>
        <time>2014-06-29T10:55:01Z</time>
      </trkpt>
      <trkpt lat="46.70056" lon="5.81968">
        <ele>644.8</ele>
        <time>2014-06-29T10:55:03Z</time>
      </trkpt>
      <trkpt lat="46.70059" lon="5.81981">
        <ele>644.7</ele>
        <time>2014-06-29T10:55:05Z</time>
      </trkpt>
      <trkpt lat="46.70061" lon="5.82">
        <ele>644.9</ele>
        <time>2014-06-29T10:55:08Z</time>
      </trkpt>
      <trkpt lat="46.70064" lon="5.82013">
        <ele>644.9</ele>
        <time>2014-06-29T10:55:10Z</time>
      </trkpt>
      <trkpt lat="46.70069" lon="5.82024">
        <ele>644.7</ele>
        <time>2014-06-29T10:55:12Z</time>
      </trkpt>
      <trkpt lat="46.70074" lon="5.82035">
        <ele>644.8</ele>
        <time>2014-06-29T10:55:14Z</time>
      </trkpt>
      <trkpt lat="46.70084" lon="5.82049">
        <ele>644.8</ele>
        <time>2014-06-29T10:55:17Z</time>
      </trkpt>
      <trkpt lat="46.70092" lon="5.82063">
        <ele>644.5</ele>
        <time>2014-06-29T10:55:20Z</time>
      </trkpt>
      <trkpt lat="46.701" lon="5.82078">
        <ele>644.2</ele>
        <time>2014-06-29T10:55:23Z</time>
      </trkpt>
      <trkpt lat="46.70107" lon="5.8209">
        <ele>644.4</ele>
        <time>2014-06-29T10:55:25Z</time>
      </trkpt>
      <trkpt lat="46.70114" lon="5.82105">
        <ele>644</ele>
        <time>2014-06-29T10:55:28Z</time>
      </trkpt>
      <trkpt lat="46.7012" lon="5.82118">
        <ele>643.8</ele>
        <time>2014-06-29T10:55:31Z</time>
      </trkpt>
      <trkpt lat="46.70127" lon="5.8213">
        <ele>643.9</ele>
        <time>2014-06-29T10:55:33Z</time>
      </trkpt>
      <trkpt lat="46.70135" lon="5.8214">
        <ele>643.8</ele>
        <time>2014-06-29T10:55:34Z</time>
      </trkpt>
      <trkpt lat="46.70152" lon="5.82164">
        <ele>643.5</ele>
        <time>2014-06-29T10:55:37Z</time>
      </trkpt>
      <trkpt lat="46.70161" lon="5.82179">
        <ele>643.4</ele>
        <time>2014-06-29T10:55:39Z</time>
      </trkpt>
      <trkpt lat="46.70168" lon="5.82189">
        <ele>643.5</ele>
        <time>2014-06-29T10:55:41Z</time>
      </trkpt>
      <trkpt lat="46.70177" lon="5.82202">
        <ele>643.6</ele>
        <time>2014-06-29T10:55:43Z</time>
      </trkpt>
      <trkpt lat="46.70186" lon="5.82215">
        <ele>643.4</ele>
        <time>2014-06-29T10:55:45Z</time>
      </trkpt>
      <trkpt lat="46.70194" lon="5.82228">
        <ele>643</ele>
        <time>2014-06-29T10:55:47Z</time>
      </trkpt>
      <trkpt lat="46.70201" lon="5.8224">
        <ele>642.9</ele>
        <time>2014-06-29T10:55:49Z</time>
      </trkpt>
      <trkpt lat="46.70209" lon="5.82252">
        <ele>642.9</ele>
        <time>2014-06-29T10:55:51Z</time>
      </trkpt>
      <trkpt lat="46.70215" lon="5.82263">
        <ele>642.8</ele>
        <time>2014-06-29T10:55:53Z</time>
      </trkpt>
      <trkpt lat="46.70222" lon="5.82278">
        <ele>642.5</ele>
        <time>2014-06-29T10:55:56Z</time>
      </trkpt>
      <trkpt lat="46.70228" lon="5.82289">
        <ele>642.3</ele>
        <time>2014-06-29T10:55:58Z</time>
      </trkpt>
      <trkpt lat="46.70234" lon="5.823">
        <ele>642</ele>
        <time>2014-06-29T10:56:00Z</time>
      </trkpt>
      <trkpt lat="46.70239" lon="5.82311">
        <ele>642.1</ele>
        <time>2014-06-29T10:56:02Z</time>
      </trkpt>
      <trkpt lat="46.70245" lon="5.82324">
        <ele>642.2</ele>
        <time>2014-06-29T10:56:04Z</time>
      </trkpt>
      <trkpt lat="46.70253" lon="5.82339">
        <ele>641.8</ele>
        <time>2014-06-29T10:56:06Z</time>
      </trkpt>
      <trkpt lat="46.70259" lon="5.82353">
        <ele>641.8</ele>
        <time>2014-06-29T10:56:08Z</time>
      </trkpt>
      <trkpt lat="46.70266" lon="5.82364">
        <ele>641.5</ele>
        <time>2014-06-29T10:56:10Z</time>
      </trkpt>
      <trkpt lat="46.70274" lon="5.82378">
        <ele>641.6</ele>
        <time>2014-06-29T10:56:13Z</time>
      </trkpt>
      <trkpt lat="46.70281" lon="5.82391">
        <ele>642</ele>
        <time>2014-06-29T10:56:16Z</time>
      </trkpt>
      <trkpt lat="46.70289" lon="5.82405">
        <ele>641.8</ele>
        <time>2014-06-29T10:56:19Z</time>
      </trkpt>
      <trkpt lat="46.70295" lon="5.82417">
        <ele>641.6</ele>
        <time>2014-06-29T10:56:21Z</time>
      </trkpt>
      <trkpt lat="46.70303" lon="5.82428">
        <ele>641.6</ele>
        <time>2014-06-29T10:56:23Z</time>
      </trkpt>
      <trkpt lat="46.70311" lon="5.82442">
        <ele>641.4</ele>
        <time>2014-06-29T10:56:26Z</time>
      </trkpt>
      <trkpt lat="46.70317" lon="5.82453">
        <ele>641.4</ele>
        <time>2014-06-29T10:56:28Z</time>
      </trkpt>
      <trkpt lat="46.70323" lon="5.82464">
        <ele>641</ele>
        <time>2014-06-29T10:56:30Z</time>
      </trkpt>
      <trkpt lat="46.70331" lon="5.82477">
        <ele>641.1</ele>
        <time>2014-06-29T10:56:32Z</time>
      </trkpt>
      <trkpt lat="46.70339" lon="5.82493">
        <ele>641</ele>
        <time>2014-06-29T10:56:34Z</time>
      </trkpt>
      <trkpt lat="46.70349" lon="5.82505">
        <ele>640.8</ele>
        <time>2014-06-29T10:56:36Z</time>
      </trkpt>
      <trkpt lat="46.70364" lon="5.82527">
        <ele>640.5</ele>
        <time>2014-06-29T10:56:40Z</time>
      </trkpt>
      <trkpt lat="46.70373" lon="5.82542">
        <ele>640</ele>
        <time>2014-06-29T10:56:43Z</time>
      </trkpt>
      <trkpt lat="46.7038" lon="5.82551">
        <ele>639.7</ele>
        <time>2014-06-29T10:56:45Z</time>
      </trkpt>
      <trkpt lat="46.70387" lon="5.82559">
        <ele>639.6</ele>
        <time>2014-06-29T10:56:47Z</time>
      </trkpt>
      <trkpt lat="46.70397" lon="5.82571">
        <ele>639.2</ele>
        <time>2014-06-29T10:56:50Z</time>
      </trkpt>
      <trkpt lat="46.70407" lon="5.82582">
        <ele>638.9</ele>
        <time>2014-06-29T10:56:53Z</time>
      </trkpt>
      <trkpt lat="46.70418" lon="5.82595">
        <ele>639</ele>
        <time>2014-06-29T10:56:56Z</time>
      </trkpt>
      <trkpt lat="46.70428" lon="5.82607">
        <ele>638.9</ele>
        <time>2014-06-29T10:56:59Z</time>
      </trkpt>
      <trkpt lat="46.70437" lon="5.8262">
        <ele>638.8</ele>
        <time>2014-06-29T10:57:02Z</time>
      </trkpt>
      <trkpt lat="46.70446" lon="5.82633">
        <ele>639</ele>
        <time>2014-06-29T10:57:05Z</time>
      </trkpt>
      <trkpt lat="46.70454" lon="5.82644">
        <ele>639.4</ele>
        <time>2014-06-29T10:57:08Z</time>
      </trkpt>
      <trkpt lat="46.70463" lon="5.82656">
        <ele>639.5</ele>
        <time>2014-06-29T10:57:11Z</time>
      </trkpt>
      <trkpt lat="46.70471" lon="5.82667">
        <ele>639.8</ele>
        <time>2014-06-29T10:57:14Z</time>
      </trkpt>
      <trkpt lat="46.70479" lon="5.82678">
        <ele>639.8</ele>
        <time>2014-06-29T10:57:17Z</time>
      </trkpt>
      <trkpt lat="46.70486" lon="5.82689">
        <ele>640.6</ele>
        <time>2014-06-29T10:57:20Z</time>
      </trkpt>
      <trkpt lat="46.70493" lon="5.82699">
        <ele>641.4</ele>
        <time>2014-06-29T10:57:23Z</time>
      </trkpt>
      <trkpt lat="46.705" lon="5.8271">
        <ele>641.8</ele>
        <time>2014-06-29T10:57:27Z</time>
      </trkpt>
      <trkpt lat="46.70508" lon="5.8272">
        <ele>642.5</ele>
        <time>2014-06-29T10:57:31Z</time>
      </trkpt>
      <trkpt lat="46.70516" lon="5.82732">
        <ele>642.9</ele>
        <time>2014-06-29T10:57:35Z</time>
      </trkpt>
      <trkpt lat="46.70522" lon="5.82743">
        <ele>643.5</ele>
        <time>2014-06-29T10:57:38Z</time>
      </trkpt>
      <trkpt lat="46.70536" lon="5.82762">
        <ele>645.3</ele>
        <time>2014-06-29T10:57:45Z</time>
      </trkpt>
      <trkpt lat="46.70545" lon="5.82772">
        <ele>646.1</ele>
        <time>2014-06-29T10:57:49Z</time>
      </trkpt>
      <trkpt lat="46.70554" lon="5.8278">
        <ele>646.5</ele>
        <time>2014-06-29T10:57:53Z</time>
      </trkpt>
      <trkpt lat="46.70563" lon="5.82788">
        <ele>646.8</ele>
        <time>2014-06-29T10:57:57Z</time>
      </trkpt>
      <trkpt lat="46.70573" lon="5.82795">
        <ele>647.4</ele>
        <time>2014-06-29T10:58:01Z</time>
      </trkpt>
      <trkpt lat="46.70583" lon="5.82803">
        <ele>647.7</ele>
        <time>2014-06-29T10:58:05Z</time>
      </trkpt>
      <trkpt lat="46.70592" lon="5.82812">
        <ele>648.5</ele>
        <time>2014-06-29T10:58:09Z</time>
      </trkpt>
      <trkpt lat="46.706" lon="5.82821">
        <ele>648.9</ele>
        <time>2014-06-29T10:58:13Z</time>
      </trkpt>
      <trkpt lat="46.70607" lon="5.8283">
        <ele>649.5</ele>
        <time>2014-06-29T10:58:17Z</time>
      </trkpt>
      <trkpt lat="46.70615" lon="5.82839">
        <ele>650.1</ele>
        <time>2014-06-29T10:58:21Z</time>
      </trkpt>
      <trkpt lat="46.70621" lon="5.82847">
        <ele>650.7</ele>
        <time>2014-06-29T10:58:25Z</time>
      </trkpt>
      <trkpt lat="46.70629" lon="5.8286">
        <ele>651.5</ele>
        <time>2014-06-29T10:58:30Z</time>
      </trkpt>
      <trkpt lat="46.70636" lon="5.82869">
        <ele>652.1</ele>
        <time>2014-06-29T10:58:34Z</time>
      </trkpt>
      <trkpt lat="46.70644" lon="5.8288">
        <ele>652.6</ele>
        <time>2014-06-29T10:58:38Z</time>
      </trkpt>
      <trkpt lat="46.70651" lon="5.82889">
        <ele>652.7</ele>
        <time>2014-06-29T10:58:41Z</time>
      </trkpt>
      <trkpt lat="46.70668" lon="5.82907">
        <ele>653.4</ele>
        <time>2014-06-29T10:58:48Z</time>
      </trkpt>
      <trkpt lat="46.70676" lon="5.82914">
        <ele>653.7</ele>
        <time>2014-06-29T10:58:51Z</time>
      </trkpt>
      <trkpt lat="46.70683" lon="5.82925">
        <ele>653.8</ele>
        <time>2014-06-29T10:58:54Z</time>
      </trkpt>
      <trkpt lat="46.70689" lon="5.82934">
        <ele>654</ele>
        <time>2014-06-29T10:58:57Z</time>
      </trkpt>
      <trkpt lat="46.70696" lon="5.82943">
        <ele>654.5</ele>
        <time>2014-06-29T10:59:00Z</time>
      </trkpt>
      <trkpt lat="46.70705" lon="5.82948">
        <ele>655</ele>
        <time>2014-06-29T10:59:03Z</time>
      </trkpt>
      <trkpt lat="46.70716" lon="5.82955">
        <ele>655.5</ele>
        <time>2014-06-29T10:59:07Z</time>
      </trkpt>
      <trkpt lat="46.70726" lon="5.82961">
        <ele>656</ele>
        <time>2014-06-29T10:59:10Z</time>
      </trkpt>
      <trkpt lat="46.70735" lon="5.82966">
        <ele>656.2</ele>
        <time>2014-06-29T10:59:13Z</time>
      </trkpt>
      <trkpt lat="46.70745" lon="5.82971">
        <ele>656.7</ele>
        <time>2014-06-29T10:59:17Z</time>
      </trkpt>
      <trkpt lat="46.70756" lon="5.82977">
        <ele>657.2</ele>
        <time>2014-06-29T10:59:21Z</time>
      </trkpt>
      <trkpt lat="46.70766" lon="5.82986">
        <ele>657.1</ele>
        <time>2014-06-29T10:59:25Z</time>
      </trkpt>
      <trkpt lat="46.70777" lon="5.82993">
        <ele>657.3</ele>
        <time>2014-06-29T10:59:28Z</time>
      </trkpt>
      <trkpt lat="46.70789" lon="5.83001">
        <ele>657.5</ele>
        <time>2014-06-29T10:59:31Z</time>
      </trkpt>
      <trkpt lat="46.70798" lon="5.83007">
        <ele>657.7</ele>
        <time>2014-06-29T10:59:33Z</time>
      </trkpt>
      <trkpt lat="46.70806" lon="5.83014">
        <ele>657.2</ele>
        <time>2014-06-29T10:59:35Z</time>
      </trkpt>
      <trkpt lat="46.70814" lon="5.83021">
        <ele>657.1</ele>
        <time>2014-06-29T10:59:37Z</time>
      </trkpt>
      <trkpt lat="46.70822" lon="5.83028">
        <ele>657.3</ele>
        <time>2014-06-29T10:59:39Z</time>
      </trkpt>
      <trkpt lat="46.70831" lon="5.83036">
        <ele>657.1</ele>
        <time>2014-06-29T10:59:41Z</time>
      </trkpt>
      <trkpt lat="46.70842" lon="5.83046">
        <ele>657.1</ele>
        <time>2014-06-29T10:59:44Z</time>
      </trkpt>
      <trkpt lat="46.70863" lon="5.83065">
        <ele>657.7</ele>
        <time>2014-06-29T10:59:50Z</time>
      </trkpt>
      <trkpt lat="46.70875" lon="5.83074">
        <ele>657.6</ele>
        <time>2014-06-29T10:59:53Z</time>
      </trkpt>
      <trkpt lat="46.70886" lon="5.83082">
        <ele>657.7</ele>
        <time>2014-06-29T10:59:56Z</time>
      </trkpt>
      <trkpt lat="46.70898" lon="5.83089">
        <ele>657.4</ele>
        <time>2014-06-29T10:59:59Z</time>
      </trkpt>
      <trkpt lat="46.70911" lon="5.83095">
        <ele>657.4</ele>
        <time>2014-06-29T11:00:02Z</time>
      </trkpt>
      <trkpt lat="46.7092" lon="5.831">
        <ele>657.3</ele>
        <time>2014-06-29T11:00:04Z</time>
      </trkpt>
      <trkpt lat="46.7093" lon="5.83105">
        <ele>657.2</ele>
        <time>2014-06-29T11:00:06Z</time>
      </trkpt>
      <trkpt lat="46.70939" lon="5.83109">
        <ele>656.9</ele>
        <time>2014-06-29T11:00:08Z</time>
      </trkpt>
      <trkpt lat="46.70949" lon="5.83114">
        <ele>656.8</ele>
        <time>2014-06-29T11:00:10Z</time>
      </trkpt>
      <trkpt lat="46.70958" lon="5.8312">
        <ele>656.9</ele>
        <time>2014-06-29T11:00:12Z</time>
      </trkpt>
      <trkpt lat="46.70966" lon="5.83126">
        <ele>656.2</ele>
        <time>2014-06-29T11:00:14Z</time>
      </trkpt>
      <trkpt lat="46.70977" lon="5.83138">
        <ele>655.9</ele>
        <time>2014-06-29T11:00:17Z</time>
      </trkpt>
      <trkpt lat="46.70983" lon="5.83148">
        <ele>655.9</ele>
        <time>2014-06-29T11:00:19Z</time>
      </trkpt>
      <trkpt lat="46.70989" lon="5.83159">
        <ele>655.9</ele>
        <time>2014-06-29T11:00:21Z</time>
      </trkpt>
      <trkpt lat="46.70995" lon="5.83169">
        <ele>655.7</ele>
        <time>2014-06-29T11:00:23Z</time>
      </trkpt>
      <trkpt lat="46.71004" lon="5.83183">
        <ele>655.8</ele>
        <time>2014-06-29T11:00:26Z</time>
      </trkpt>
      <trkpt lat="46.71013" lon="5.83197">
        <ele>655.8</ele>
        <time>2014-06-29T11:00:29Z</time>
      </trkpt>
      <trkpt lat="46.71022" lon="5.8321">
        <ele>655.8</ele>
        <time>2014-06-29T11:00:32Z</time>
      </trkpt>
      <trkpt lat="46.71028" lon="5.83224">
        <ele>656</ele>
        <time>2014-06-29T11:00:35Z</time>
      </trkpt>
      <trkpt lat="46.71029" lon="5.83243">
        <ele>655.6</ele>
        <time>2014-06-29T11:00:38Z</time>
      </trkpt>
      <trkpt lat="46.71024" lon="5.83261">
        <ele>655.3</ele>
        <time>2014-06-29T11:00:41Z</time>
      </trkpt>
      <trkpt lat="46.71021" lon="5.83275">
        <ele>655</ele>
        <time>2014-06-29T11:00:43Z</time>
      </trkpt>
      <trkpt lat="46.71016" lon="5.83287">
        <ele>654.9</ele>
        <time>2014-06-29T11:00:45Z</time>
      </trkpt>
      <trkpt lat="46.71007" lon="5.83311">
        <ele>655.1</ele>
        <time>2014-06-29T11:00:49Z</time>
      </trkpt>
      <trkpt lat="46.71" lon="5.83327">
        <ele>655.6</ele>
        <time>2014-06-29T11:00:52Z</time>
      </trkpt>
      <trkpt lat="46.70993" lon="5.83341">
        <ele>655.9</ele>
        <time>2014-06-29T11:00:55Z</time>
      </trkpt>
      <trkpt lat="46.70986" lon="5.83355">
        <ele>655.8</ele>
        <time>2014-06-29T11:00:58Z</time>
      </trkpt>
      <trkpt lat="46.70981" lon="5.83368">
        <ele>656.3</ele>
        <time>2014-06-29T11:01:01Z</time>
      </trkpt>
      <trkpt lat="46.70976" lon="5.83381">
        <ele>656.8</ele>
        <time>2014-06-29T11:01:04Z</time>
      </trkpt>
      <trkpt lat="46.70971" lon="5.83395">
        <ele>657.1</ele>
        <time>2014-06-29T11:01:07Z</time>
      </trkpt>
      <trkpt lat="46.70967" lon="5.8341">
        <ele>657.7</ele>
        <time>2014-06-29T11:01:10Z</time>
      </trkpt>
      <trkpt lat="46.70963" lon="5.83423">
        <ele>658.2</ele>
        <time>2014-06-29T11:01:13Z</time>
      </trkpt>
      <trkpt lat="46.7096" lon="5.83436">
        <ele>658.7</ele>
        <time>2014-06-29T11:01:16Z</time>
      </trkpt>
      <trkpt lat="46.70956" lon="5.83448">
        <ele>659.3</ele>
        <time>2014-06-29T11:01:19Z</time>
      </trkpt>
      <trkpt lat="46.70951" lon="5.8346">
        <ele>660.1</ele>
        <time>2014-06-29T11:01:22Z</time>
      </trkpt>
      <trkpt lat="46.70946" lon="5.83473">
        <ele>660.6</ele>
        <time>2014-06-29T11:01:25Z</time>
      </trkpt>
      <trkpt lat="46.70942" lon="5.83486">
        <ele>660.9</ele>
        <time>2014-06-29T11:01:28Z</time>
      </trkpt>
      <trkpt lat="46.70937" lon="5.835">
        <ele>660.9</ele>
        <time>2014-06-29T11:01:31Z</time>
      </trkpt>
      <trkpt lat="46.70932" lon="5.83515">
        <ele>661.3</ele>
        <time>2014-06-29T11:01:34Z</time>
      </trkpt>
      <trkpt lat="46.70927" lon="5.83529">
        <ele>661.7</ele>
        <time>2014-06-29T11:01:37Z</time>
      </trkpt>
      <trkpt lat="46.70923" lon="5.83542">
        <ele>661.9</ele>
        <time>2014-06-29T11:01:40Z</time>
      </trkpt>
      <trkpt lat="46.70918" lon="5.83555">
        <ele>662.5</ele>
        <time>2014-06-29T11:01:43Z</time>
      </trkpt>
      <trkpt lat="46.70913" lon="5.8357">
        <ele>663</ele>
        <time>2014-06-29T11:01:46Z</time>
      </trkpt>
      <trkpt lat="46.70902" lon="5.83599">
        <ele>663.2</ele>
        <time>2014-06-29T11:01:52Z</time>
      </trkpt>
      <trkpt lat="46.70896" lon="5.83613">
        <ele>663.3</ele>
        <time>2014-06-29T11:01:55Z</time>
      </trkpt>
      <trkpt lat="46.7089" lon="5.83629">
        <ele>663.3</ele>
        <time>2014-06-29T11:01:58Z</time>
      </trkpt>
      <trkpt lat="46.70883" lon="5.83645">
        <ele>663</ele>
        <time>2014-06-29T11:02:01Z</time>
      </trkpt>
      <trkpt lat="46.70878" lon="5.83663">
        <ele>662.8</ele>
        <time>2014-06-29T11:02:04Z</time>
      </trkpt>
      <trkpt lat="46.70875" lon="5.83675">
        <ele>662.7</ele>
        <time>2014-06-29T11:02:06Z</time>
      </trkpt>
      <trkpt lat="46.70871" lon="5.83687">
        <ele>662.6</ele>
        <time>2014-06-29T11:02:08Z</time>
      </trkpt>
      <trkpt lat="46.70866" lon="5.83701">
        <ele>662.6</ele>
        <time>2014-06-29T11:02:10Z</time>
      </trkpt>
      <trkpt lat="46.7086" lon="5.83715">
        <ele>662.6</ele>
        <time>2014-06-29T11:02:12Z</time>
      </trkpt>
      <trkpt lat="46.70855" lon="5.83728">
        <ele>662.5</ele>
        <time>2014-06-29T11:02:14Z</time>
      </trkpt>
      <trkpt lat="46.70851" lon="5.83743">
        <ele>662.3</ele>
        <time>2014-06-29T11:02:16Z</time>
      </trkpt>
      <trkpt lat="46.70845" lon="5.83756">
        <ele>662.1</ele>
        <time>2014-06-29T11:02:18Z</time>
      </trkpt>
      <trkpt lat="46.7084" lon="5.83774">
        <ele>661.4</ele>
        <time>2014-06-29T11:02:20Z</time>
      </trkpt>
      <trkpt lat="46.70833" lon="5.83791">
        <ele>661.1</ele>
        <time>2014-06-29T11:02:22Z</time>
      </trkpt>
      <trkpt lat="46.70827" lon="5.83811">
        <ele>660.6</ele>
        <time>2014-06-29T11:02:24Z</time>
      </trkpt>
      <trkpt lat="46.70821" lon="5.83832">
        <ele>659.8</ele>
        <time>2014-06-29T11:02:26Z</time>
      </trkpt>
      <trkpt lat="46.70817" lon="5.83855">
        <ele>658.9</ele>
        <time>2014-06-29T11:02:28Z</time>
      </trkpt>
      <trkpt lat="46.70814" lon="5.83879">
        <ele>658.2</ele>
        <time>2014-06-29T11:02:30Z</time>
      </trkpt>
      <trkpt lat="46.7081" lon="5.83904">
        <ele>657.6</ele>
        <time>2014-06-29T11:02:32Z</time>
      </trkpt>
      <trkpt lat="46.70805" lon="5.83928">
        <ele>657.1</ele>
        <time>2014-06-29T11:02:34Z</time>
      </trkpt>
      <trkpt lat="46.70801" lon="5.83951">
        <ele>656.4</ele>
        <time>2014-06-29T11:02:36Z</time>
      </trkpt>
      <trkpt lat="46.70796" lon="5.83974">
        <ele>655.9</ele>
        <time>2014-06-29T11:02:38Z</time>
      </trkpt>
      <trkpt lat="46.7079" lon="5.83994">
        <ele>655.7</ele>
        <time>2014-06-29T11:02:40Z</time>
      </trkpt>
      <trkpt lat="46.70783" lon="5.84014">
        <ele>655.4</ele>
        <time>2014-06-29T11:02:42Z</time>
      </trkpt>
      <trkpt lat="46.70777" lon="5.84033">
        <ele>655</ele>
        <time>2014-06-29T11:02:44Z</time>
      </trkpt>
      <trkpt lat="46.70772" lon="5.84054">
        <ele>654.8</ele>
        <time>2014-06-29T11:02:46Z</time>
      </trkpt>
      <trkpt lat="46.70766" lon="5.84073">
        <ele>654.4</ele>
        <time>2014-06-29T11:02:48Z</time>
      </trkpt>
      <trkpt lat="46.70756" lon="5.8411">
        <ele>654.3</ele>
        <time>2014-06-29T11:02:52Z</time>
      </trkpt>
      <trkpt lat="46.70751" lon="5.84128">
        <ele>654.4</ele>
        <time>2014-06-29T11:02:54Z</time>
      </trkpt>
      <trkpt lat="46.70745" lon="5.84147">
        <ele>654.6</ele>
        <time>2014-06-29T11:02:56Z</time>
      </trkpt>
      <trkpt lat="46.7074" lon="5.84165">
        <ele>655</ele>
        <time>2014-06-29T11:02:58Z</time>
      </trkpt>
      <trkpt lat="46.70735" lon="5.84184">
        <ele>654.9</ele>
        <time>2014-06-29T11:03:00Z</time>
      </trkpt>
      <trkpt lat="46.7073" lon="5.84202">
        <ele>655</ele>
        <time>2014-06-29T11:03:02Z</time>
      </trkpt>
      <trkpt lat="46.70726" lon="5.84221">
        <ele>655</ele>
        <time>2014-06-29T11:03:04Z</time>
      </trkpt>
      <trkpt lat="46.70722" lon="5.8424">
        <ele>654.9</ele>
        <time>2014-06-29T11:03:06Z</time>
      </trkpt>
      <trkpt lat="46.70718" lon="5.84259">
        <ele>654.6</ele>
        <time>2014-06-29T11:03:08Z</time>
      </trkpt>
      <trkpt lat="46.70715" lon="5.84279">
        <ele>654.7</ele>
        <time>2014-06-29T11:03:10Z</time>
      </trkpt>
      <trkpt lat="46.70712" lon="5.84298">
        <ele>654.2</ele>
        <time>2014-06-29T11:03:12Z</time>
      </trkpt>
      <trkpt lat="46.7071" lon="5.84317">
        <ele>653.9</ele>
        <time>2014-06-29T11:03:14Z</time>
      </trkpt>
      <trkpt lat="46.70707" lon="5.84336">
        <ele>654</ele>
        <time>2014-06-29T11:03:16Z</time>
      </trkpt>
      <trkpt lat="46.70703" lon="5.84354">
        <ele>653.8</ele>
        <time>2014-06-29T11:03:18Z</time>
      </trkpt>
      <trkpt lat="46.70699" lon="5.84372">
        <ele>653.6</ele>
        <time>2014-06-29T11:03:20Z</time>
      </trkpt>
      <trkpt lat="46.70694" lon="5.8439">
        <ele>653.7</ele>
        <time>2014-06-29T11:03:22Z</time>
      </trkpt>
      <trkpt lat="46.70688" lon="5.84407">
        <ele>653.8</ele>
        <time>2014-06-29T11:03:24Z</time>
      </trkpt>
      <trkpt lat="46.70681" lon="5.84422">
        <ele>653.5</ele>
        <time>2014-06-29T11:03:26Z</time>
      </trkpt>
      <trkpt lat="46.70674" lon="5.84437">
        <ele>653.9</ele>
        <time>2014-06-29T11:03:28Z</time>
      </trkpt>
      <trkpt lat="46.70666" lon="5.84451">
        <ele>653.9</ele>
        <time>2014-06-29T11:03:30Z</time>
      </trkpt>
      <trkpt lat="46.70659" lon="5.84464">
        <ele>653.8</ele>
        <time>2014-06-29T11:03:32Z</time>
      </trkpt>
      <trkpt lat="46.70651" lon="5.84476">
        <ele>653.9</ele>
        <time>2014-06-29T11:03:34Z</time>
      </trkpt>
      <trkpt lat="46.70643" lon="5.84486">
        <ele>653.7</ele>
        <time>2014-06-29T11:03:36Z</time>
      </trkpt>
      <trkpt lat="46.70636" lon="5.84497">
        <ele>653.8</ele>
        <time>2014-06-29T11:03:38Z</time>
      </trkpt>
      <trkpt lat="46.70629" lon="5.84507">
        <ele>653.8</ele>
        <time>2014-06-29T11:03:40Z</time>
      </trkpt>
      <trkpt lat="46.70622" lon="5.84516">
        <ele>653.8</ele>
        <time>2014-06-29T11:03:42Z</time>
      </trkpt>
      <trkpt lat="46.70616" lon="5.84526">
        <ele>653.8</ele>
        <time>2014-06-29T11:03:44Z</time>
      </trkpt>
      <trkpt lat="46.70609" lon="5.84537">
        <ele>653.9</ele>
        <time>2014-06-29T11:03:46Z</time>
      </trkpt>
      <trkpt lat="46.70602" lon="5.84547">
        <ele>653.8</ele>
        <time>2014-06-29T11:03:48Z</time>
      </trkpt>
      <trkpt lat="46.70596" lon="5.84557">
        <ele>654</ele>
        <time>2014-06-29T11:03:50Z</time>
      </trkpt>
      <trkpt lat="46.70584" lon="5.84577">
        <ele>654.3</ele>
        <time>2014-06-29T11:03:54Z</time>
      </trkpt>
      <trkpt lat="46.70578" lon="5.84587">
        <ele>654.5</ele>
        <time>2014-06-29T11:03:56Z</time>
      </trkpt>
      <trkpt lat="46.70572" lon="5.84599">
        <ele>654.5</ele>
        <time>2014-06-29T11:03:58Z</time>
      </trkpt>
      <trkpt lat="46.70566" lon="5.84611">
        <ele>654.3</ele>
        <time>2014-06-29T11:04:00Z</time>
      </trkpt>
      <trkpt lat="46.70561" lon="5.84622">
        <ele>654.3</ele>
        <time>2014-06-29T11:04:02Z</time>
      </trkpt>
      <trkpt lat="46.70555" lon="5.84634">
        <ele>654.3</ele>
        <time>2014-06-29T11:04:04Z</time>
      </trkpt>
      <trkpt lat="46.70549" lon="5.84646">
        <ele>654.1</ele>
        <time>2014-06-29T11:04:06Z</time>
      </trkpt>
      <trkpt lat="46.70544" lon="5.84659">
        <ele>654.2</ele>
        <time>2014-06-29T11:04:08Z</time>
      </trkpt>
      <trkpt lat="46.70538" lon="5.84672">
        <ele>654.1</ele>
        <time>2014-06-29T11:04:10Z</time>
      </trkpt>
      <trkpt lat="46.70533" lon="5.84685">
        <ele>653.8</ele>
        <time>2014-06-29T11:04:12Z</time>
      </trkpt>
      <trkpt lat="46.70527" lon="5.84699">
        <ele>653.9</ele>
        <time>2014-06-29T11:04:14Z</time>
      </trkpt>
      <trkpt lat="46.70521" lon="5.84712">
        <ele>653.7</ele>
        <time>2014-06-29T11:04:16Z</time>
      </trkpt>
      <trkpt lat="46.70515" lon="5.84725">
        <ele>653.8</ele>
        <time>2014-06-29T11:04:18Z</time>
      </trkpt>
      <trkpt lat="46.70509" lon="5.8474">
        <ele>653.8</ele>
        <time>2014-06-29T11:04:20Z</time>
      </trkpt>
      <trkpt lat="46.70503" lon="5.84753">
        <ele>653.5</ele>
        <time>2014-06-29T11:04:22Z</time>
      </trkpt>
      <trkpt lat="46.70497" lon="5.84767">
        <ele>653.5</ele>
        <time>2014-06-29T11:04:24Z</time>
      </trkpt>
      <trkpt lat="46.70491" lon="5.8478">
        <ele>653.4</ele>
        <time>2014-06-29T11:04:26Z</time>
      </trkpt>
      <trkpt lat="46.70484" lon="5.84793">
        <ele>653.6</ele>
        <time>2014-06-29T11:04:28Z</time>
      </trkpt>
      <trkpt lat="46.70477" lon="5.84805">
        <ele>653.5</ele>
        <time>2014-06-29T11:04:30Z</time>
      </trkpt>
      <trkpt lat="46.7047" lon="5.84818">
        <ele>653.5</ele>
        <time>2014-06-29T11:04:32Z</time>
      </trkpt>
      <trkpt lat="46.70462" lon="5.8483">
        <ele>653.6</ele>
        <time>2014-06-29T11:04:34Z</time>
      </trkpt>
      <trkpt lat="46.70454" lon="5.8484">
        <ele>653.6</ele>
        <time>2014-06-29T11:04:36Z</time>
      </trkpt>
      <trkpt lat="46.70446" lon="5.8485">
        <ele>653.7</ele>
        <time>2014-06-29T11:04:38Z</time>
      </trkpt>
      <trkpt lat="46.70438" lon="5.8486">
        <ele>653.7</ele>
        <time>2014-06-29T11:04:40Z</time>
      </trkpt>
      <trkpt lat="46.70429" lon="5.8487">
        <ele>653.9</ele>
        <time>2014-06-29T11:04:42Z</time>
      </trkpt>
      <trkpt lat="46.7042" lon="5.84879">
        <ele>654.1</ele>
        <time>2014-06-29T11:04:44Z</time>
      </trkpt>
      <trkpt lat="46.70411" lon="5.84888">
        <ele>654.2</ele>
        <time>2014-06-29T11:04:46Z</time>
      </trkpt>
      <trkpt lat="46.70401" lon="5.84896">
        <ele>654.3</ele>
        <time>2014-06-29T11:04:48Z</time>
      </trkpt>
      <trkpt lat="46.70391" lon="5.84903">
        <ele>654.4</ele>
        <time>2014-06-29T11:04:50Z</time>
      </trkpt>
      <trkpt lat="46.7038" lon="5.8491">
        <ele>654.7</ele>
        <time>2014-06-29T11:04:52Z</time>
      </trkpt>
      <trkpt lat="46.7036" lon="5.84924">
        <ele>654.7</ele>
        <time>2014-06-29T11:04:56Z</time>
      </trkpt>
      <trkpt lat="46.7035" lon="5.84931">
        <ele>654.9</ele>
        <time>2014-06-29T11:04:58Z</time>
      </trkpt>
      <trkpt lat="46.70342" lon="5.84941">
        <ele>654.9</ele>
        <time>2014-06-29T11:05:00Z</time>
      </trkpt>
      <trkpt lat="46.70335" lon="5.84952">
        <ele>655</ele>
        <time>2014-06-29T11:05:02Z</time>
      </trkpt>
      <trkpt lat="46.70327" lon="5.84964">
        <ele>655.2</ele>
        <time>2014-06-29T11:05:04Z</time>
      </trkpt>
      <trkpt lat="46.70321" lon="5.84977">
        <ele>655</ele>
        <time>2014-06-29T11:05:06Z</time>
      </trkpt>
      <trkpt lat="46.70315" lon="5.84991">
        <ele>655</ele>
        <time>2014-06-29T11:05:08Z</time>
      </trkpt>
      <trkpt lat="46.70308" lon="5.85004">
        <ele>654.9</ele>
        <time>2014-06-29T11:05:10Z</time>
      </trkpt>
      <trkpt lat="46.70301" lon="5.85017">
        <ele>654.7</ele>
        <time>2014-06-29T11:05:12Z</time>
      </trkpt>
      <trkpt lat="46.70296" lon="5.85031">
        <ele>654.8</ele>
        <time>2014-06-29T11:05:14Z</time>
      </trkpt>
      <trkpt lat="46.70294" lon="5.85045">
        <ele>654.4</ele>
        <time>2014-06-29T11:05:16Z</time>
      </trkpt>
      <trkpt lat="46.70296" lon="5.85063">
        <ele>654.4</ele>
        <time>2014-06-29T11:05:19Z</time>
      </trkpt>
      <trkpt lat="46.70297" lon="5.85078">
        <ele>655</ele>
        <time>2014-06-29T11:05:24Z</time>
      </trkpt>
      <trkpt lat="46.70299" lon="5.85092">
        <ele>656.2</ele>
        <time>2014-06-29T11:05:30Z</time>
      </trkpt>
      <trkpt lat="46.70301" lon="5.85104">
        <ele>657.8</ele>
        <time>2014-06-29T11:05:36Z</time>
      </trkpt>
      <trkpt lat="46.70306" lon="5.85116">
        <ele>659.3</ele>
        <time>2014-06-29T11:05:42Z</time>
      </trkpt>
      <trkpt lat="46.70312" lon="5.85128">
        <ele>660.4</ele>
        <time>2014-06-29T11:05:48Z</time>
      </trkpt>
      <trkpt lat="46.70318" lon="5.85137">
        <ele>661.2</ele>
        <time>2014-06-29T11:05:53Z</time>
      </trkpt>
      <trkpt lat="46.70332" lon="5.85157">
        <ele>662.8</ele>
        <time>2014-06-29T11:06:04Z</time>
      </trkpt>
      <trkpt lat="46.70338" lon="5.85167">
        <ele>662.8</ele>
        <time>2014-06-29T11:06:08Z</time>
      </trkpt>
      <trkpt lat="46.70345" lon="5.85178">
        <ele>663.7</ele>
        <time>2014-06-29T11:06:13Z</time>
      </trkpt>
      <trkpt lat="46.70351" lon="5.85188">
        <ele>663.9</ele>
        <time>2014-06-29T11:06:17Z</time>
      </trkpt>
      <trkpt lat="46.70359" lon="5.852">
        <ele>664.5</ele>
        <time>2014-06-29T11:06:21Z</time>
      </trkpt>
      <trkpt lat="46.70365" lon="5.85214">
        <ele>664.7</ele>
        <time>2014-06-29T11:06:24Z</time>
      </trkpt>
      <trkpt lat="46.7037" lon="5.85227">
        <ele>664.9</ele>
        <time>2014-06-29T11:06:27Z</time>
      </trkpt>
      <trkpt lat="46.70374" lon="5.8524">
        <ele>665.6</ele>
        <time>2014-06-29T11:06:32Z</time>
      </trkpt>
      <trkpt lat="46.70379" lon="5.85251">
        <ele>666</ele>
        <time>2014-06-29T11:06:35Z</time>
      </trkpt>
      <trkpt lat="46.70384" lon="5.85264">
        <ele>666.1</ele>
        <time>2014-06-29T11:06:38Z</time>
      </trkpt>
      <trkpt lat="46.70388" lon="5.85279">
        <ele>666.2</ele>
        <time>2014-06-29T11:06:41Z</time>
      </trkpt>
      <trkpt lat="46.70391" lon="5.85292">
        <ele>665.9</ele>
        <time>2014-06-29T11:06:44Z</time>
      </trkpt>
      <trkpt lat="46.70396" lon="5.85308">
        <ele>666.6</ele>
        <time>2014-06-29T11:06:48Z</time>
      </trkpt>
      <trkpt lat="46.70397" lon="5.85325">
        <ele>666.8</ele>
        <time>2014-06-29T11:06:52Z</time>
      </trkpt>
      <trkpt lat="46.70394" lon="5.85341">
        <ele>667.2</ele>
        <time>2014-06-29T11:06:56Z</time>
      </trkpt>
      <trkpt lat="46.7039" lon="5.8537">
        <ele>668.4</ele>
        <time>2014-06-29T11:07:05Z</time>
      </trkpt>
      <trkpt lat="46.7039" lon="5.85385">
        <ele>668.9</ele>
        <time>2014-06-29T11:07:10Z</time>
      </trkpt>
      <trkpt lat="46.70391" lon="5.854">
        <ele>670.7</ele>
        <time>2014-06-29T11:07:16Z</time>
      </trkpt>
      <trkpt lat="46.70396" lon="5.8541">
        <ele>671.6</ele>
        <time>2014-06-29T11:07:22Z</time>
      </trkpt>
      <trkpt lat="46.70405" lon="5.85413">
        <ele>672.6</ele>
        <time>2014-06-29T11:07:27Z</time>
      </trkpt>
      <trkpt lat="46.70416" lon="5.85411">
        <ele>673.8</ele>
        <time>2014-06-29T11:07:32Z</time>
      </trkpt>
      <trkpt lat="46.70426" lon="5.85407">
        <ele>675.2</ele>
        <time>2014-06-29T11:07:39Z</time>
      </trkpt>
      <trkpt lat="46.70436" lon="5.85405">
        <ele>676</ele>
        <time>2014-06-29T11:07:45Z</time>
      </trkpt>
      <trkpt lat="46.70446" lon="5.85404">
        <ele>677.1</ele>
        <time>2014-06-29T11:07:50Z</time>
      </trkpt>
      <trkpt lat="46.70456" lon="5.85405">
        <ele>677.7</ele>
        <time>2014-06-29T11:07:55Z</time>
      </trkpt>
      <trkpt lat="46.70466" lon="5.85405">
        <ele>678.1</ele>
        <time>2014-06-29T11:08:00Z</time>
      </trkpt>
      <trkpt lat="46.70485" lon="5.85405">
        <ele>679.4</ele>
        <time>2014-06-29T11:08:08Z</time>
      </trkpt>
      <trkpt lat="46.70494" lon="5.85405">
        <ele>680</ele>
        <time>2014-06-29T11:08:12Z</time>
      </trkpt>
      <trkpt lat="46.70503" lon="5.85404">
        <ele>680.4</ele>
        <time>2014-06-29T11:08:16Z</time>
      </trkpt>
      <trkpt lat="46.70513" lon="5.85403">
        <ele>681.1</ele>
        <time>2014-06-29T11:08:20Z</time>
      </trkpt>
      <trkpt lat="46.70525" lon="5.85404">
        <ele>681.3</ele>
        <time>2014-06-29T11:08:24Z</time>
      </trkpt>
      <trkpt lat="46.70536" lon="5.85405">
        <ele>681.5</ele>
        <time>2014-06-29T11:08:27Z</time>
      </trkpt>
      <trkpt lat="46.70549" lon="5.85409">
        <ele>681.7</ele>
        <time>2014-06-29T11:08:30Z</time>
      </trkpt>
      <trkpt lat="46.7056" lon="5.8541">
        <ele>681.6</ele>
        <time>2014-06-29T11:08:33Z</time>
      </trkpt>
      <trkpt lat="46.7057" lon="5.85409">
        <ele>681.7</ele>
        <time>2014-06-29T11:08:36Z</time>
      </trkpt>
      <trkpt lat="46.7058" lon="5.85407">
        <ele>681.6</ele>
        <time>2014-06-29T11:08:39Z</time>
      </trkpt>
      <trkpt lat="46.70589" lon="5.85405">
        <ele>681.6</ele>
        <time>2014-06-29T11:08:42Z</time>
      </trkpt>
      <trkpt lat="46.70599" lon="5.85404">
        <ele>681.8</ele>
        <time>2014-06-29T11:08:45Z</time>
      </trkpt>
      <trkpt lat="46.70613" lon="5.85409">
        <ele>681.3</ele>
        <time>2014-06-29T11:08:48Z</time>
      </trkpt>
      <trkpt lat="46.70623" lon="5.85419">
        <ele>681.1</ele>
        <time>2014-06-29T11:08:50Z</time>
      </trkpt>
      <trkpt lat="46.70633" lon="5.85431">
        <ele>680.7</ele>
        <time>2014-06-29T11:08:52Z</time>
      </trkpt>
      <trkpt lat="46.70641" lon="5.85442">
        <ele>680.5</ele>
        <time>2014-06-29T11:08:54Z</time>
      </trkpt>
      <trkpt lat="46.70649" lon="5.85453">
        <ele>680.2</ele>
        <time>2014-06-29T11:08:56Z</time>
      </trkpt>
      <trkpt lat="46.70656" lon="5.85464">
        <ele>680.1</ele>
        <time>2014-06-29T11:08:58Z</time>
      </trkpt>
      <trkpt lat="46.70665" lon="5.85473">
        <ele>679.8</ele>
        <time>2014-06-29T11:09:00Z</time>
      </trkpt>
      <trkpt lat="46.70676" lon="5.85479">
        <ele>679.6</ele>
        <time>2014-06-29T11:09:02Z</time>
      </trkpt>
      <trkpt lat="46.70703" lon="5.85484">
        <ele>678.6</ele>
        <time>2014-06-29T11:09:06Z</time>
      </trkpt>
      <trkpt lat="46.70718" lon="5.85488">
        <ele>678.3</ele>
        <time>2014-06-29T11:09:08Z</time>
      </trkpt>
      <trkpt lat="46.7073" lon="5.85493">
        <ele>677.8</ele>
        <time>2014-06-29T11:09:10Z</time>
      </trkpt>
      <trkpt lat="46.7074" lon="5.85497">
        <ele>677.9</ele>
        <time>2014-06-29T11:09:12Z</time>
      </trkpt>
      <trkpt lat="46.70749" lon="5.85501">
        <ele>677.7</ele>
        <time>2014-06-29T11:09:14Z</time>
      </trkpt>
      <trkpt lat="46.70759" lon="5.85501">
        <ele>677.5</ele>
        <time>2014-06-29T11:09:16Z</time>
      </trkpt>
      <trkpt lat="46.70769" lon="5.85501">
        <ele>677.3</ele>
        <time>2014-06-29T11:09:18Z</time>
      </trkpt>
      <trkpt lat="46.70779" lon="5.855">
        <ele>677.4</ele>
        <time>2014-06-29T11:09:20Z</time>
      </trkpt>
      <trkpt lat="46.70789" lon="5.85503">
        <ele>677.7</ele>
        <time>2014-06-29T11:09:22Z</time>
      </trkpt>
      <trkpt lat="46.70794" lon="5.85519">
        <ele>677.5</ele>
        <time>2014-06-29T11:09:25Z</time>
      </trkpt>
      <trkpt lat="46.70795" lon="5.85532">
        <ele>677.6</ele>
        <time>2014-06-29T11:09:27Z</time>
      </trkpt>
      <trkpt lat="46.70794" lon="5.85551">
        <ele>677.8</ele>
        <time>2014-06-29T11:09:30Z</time>
      </trkpt>
      <trkpt lat="46.70796" lon="5.85568">
        <ele>678.2</ele>
        <time>2014-06-29T11:09:33Z</time>
      </trkpt>
      <trkpt lat="46.70797" lon="5.85583">
        <ele>678.7</ele>
        <time>2014-06-29T11:09:36Z</time>
      </trkpt>
      <trkpt lat="46.708" lon="5.85597">
        <ele>679.3</ele>
        <time>2014-06-29T11:09:39Z</time>
      </trkpt>
      <trkpt lat="46.70803" lon="5.85613">
        <ele>680</ele>
        <time>2014-06-29T11:09:43Z</time>
      </trkpt>
      <trkpt lat="46.70805" lon="5.85627">
        <ele>680.9</ele>
        <time>2014-06-29T11:09:47Z</time>
      </trkpt>
      <trkpt lat="46.70806" lon="5.85641">
        <ele>681.6</ele>
        <time>2014-06-29T11:09:53Z</time>
      </trkpt>
      <trkpt lat="46.7081" lon="5.85656">
        <ele>682</ele>
        <time>2014-06-29T11:09:58Z</time>
      </trkpt>
      <trkpt lat="46.70816" lon="5.85667">
        <ele>682.4</ele>
        <time>2014-06-29T11:10:04Z</time>
      </trkpt>
      <trkpt lat="46.70826" lon="5.85692">
        <ele>684.4</ele>
        <time>2014-06-29T11:10:16Z</time>
      </trkpt>
      <trkpt lat="46.70823" lon="5.85705">
        <ele>685.4</ele>
        <time>2014-06-29T11:10:21Z</time>
      </trkpt>
      <trkpt lat="46.70817" lon="5.85716">
        <ele>687.3</ele>
        <time>2014-06-29T11:10:26Z</time>
      </trkpt>
      <trkpt lat="46.70813" lon="5.85728">
        <ele>688.8</ele>
        <time>2014-06-29T11:10:31Z</time>
      </trkpt>
      <trkpt lat="46.70812" lon="5.85743">
        <ele>690.2</ele>
        <time>2014-06-29T11:10:37Z</time>
      </trkpt>
      <trkpt lat="46.70809" lon="5.85758">
        <ele>691.2</ele>
        <time>2014-06-29T11:10:42Z</time>
      </trkpt>
      <trkpt lat="46.70807" lon="5.85772">
        <ele>691.8</ele>
        <time>2014-06-29T11:10:46Z</time>
      </trkpt>
      <trkpt lat="46.70806" lon="5.85788">
        <ele>692.1</ele>
        <time>2014-06-29T11:10:50Z</time>
      </trkpt>
      <trkpt lat="46.70806" lon="5.85802">
        <ele>692.1</ele>
        <time>2014-06-29T11:10:53Z</time>
      </trkpt>
      <trkpt lat="46.70805" lon="5.85816">
        <ele>692.3</ele>
        <time>2014-06-29T11:10:56Z</time>
      </trkpt>
      <trkpt lat="46.70806" lon="5.85834">
        <ele>692.2</ele>
        <time>2014-06-29T11:10:59Z</time>
      </trkpt>
      <trkpt lat="46.70809" lon="5.85856">
        <ele>692.1</ele>
        <time>2014-06-29T11:11:02Z</time>
      </trkpt>
      <trkpt lat="46.70811" lon="5.85871">
        <ele>691.8</ele>
        <time>2014-06-29T11:11:04Z</time>
      </trkpt>
      <trkpt lat="46.70814" lon="5.85886">
        <ele>691.4</ele>
        <time>2014-06-29T11:11:06Z</time>
      </trkpt>
      <trkpt lat="46.70814" lon="5.85922">
        <ele>691.4</ele>
        <time>2014-06-29T11:11:12Z</time>
      </trkpt>
      <trkpt lat="46.70814" lon="5.85937">
        <ele>691.6</ele>
        <time>2014-06-29T11:11:15Z</time>
      </trkpt>
      <trkpt lat="46.70811" lon="5.85951">
        <ele>692.3</ele>
        <time>2014-06-29T11:11:18Z</time>
      </trkpt>
      <trkpt lat="46.70807" lon="5.85967">
        <ele>692.6</ele>
        <time>2014-06-29T11:11:21Z</time>
      </trkpt>
      <trkpt lat="46.708" lon="5.85982">
        <ele>693.1</ele>
        <time>2014-06-29T11:11:24Z</time>
      </trkpt>
      <trkpt lat="46.70793" lon="5.85995">
        <ele>693.5</ele>
        <time>2014-06-29T11:11:27Z</time>
      </trkpt>
      <trkpt lat="46.70789" lon="5.86009">
        <ele>693.7</ele>
        <time>2014-06-29T11:11:30Z</time>
      </trkpt>
      <trkpt lat="46.70785" lon="5.86025">
        <ele>693.7</ele>
        <time>2014-06-29T11:11:33Z</time>
      </trkpt>
      <trkpt lat="46.70783" lon="5.86041">
        <ele>693.6</ele>
        <time>2014-06-29T11:11:36Z</time>
      </trkpt>
      <trkpt lat="46.70783" lon="5.86056">
        <ele>693.9</ele>
        <time>2014-06-29T11:11:39Z</time>
      </trkpt>
      <trkpt lat="46.70783" lon="5.8607">
        <ele>694.3</ele>
        <time>2014-06-29T11:11:42Z</time>
      </trkpt>
      <trkpt lat="46.70782" lon="5.86084">
        <ele>694.6</ele>
        <time>2014-06-29T11:11:45Z</time>
      </trkpt>
      <trkpt lat="46.7078" lon="5.86097">
        <ele>695.2</ele>
        <time>2014-06-29T11:11:48Z</time>
      </trkpt>
      <trkpt lat="46.70777" lon="5.86112">
        <ele>695.4</ele>
        <time>2014-06-29T11:11:51Z</time>
      </trkpt>
      <trkpt lat="46.70773" lon="5.86125">
        <ele>695.5</ele>
        <time>2014-06-29T11:11:54Z</time>
      </trkpt>
      <trkpt lat="46.70768" lon="5.86138">
        <ele>695.4</ele>
        <time>2014-06-29T11:11:57Z</time>
      </trkpt>
      <trkpt lat="46.7076" lon="5.86155">
        <ele>695.4</ele>
        <time>2014-06-29T11:12:00Z</time>
      </trkpt>
      <trkpt lat="46.70754" lon="5.86167">
        <ele>695.2</ele>
        <time>2014-06-29T11:12:02Z</time>
      </trkpt>
      <trkpt lat="46.7075" lon="5.8618">
        <ele>695.1</ele>
        <time>2014-06-29T11:12:04Z</time>
      </trkpt>
      <trkpt lat="46.70746" lon="5.86192">
        <ele>695.1</ele>
        <time>2014-06-29T11:12:06Z</time>
      </trkpt>
      <trkpt lat="46.70741" lon="5.86207">
        <ele>695.3</ele>
        <time>2014-06-29T11:12:09Z</time>
      </trkpt>
      <trkpt lat="46.7073" lon="5.86232">
        <ele>695.8</ele>
        <time>2014-06-29T11:12:15Z</time>
      </trkpt>
      <trkpt lat="46.70725" lon="5.86245">
        <ele>695.9</ele>
        <time>2014-06-29T11:12:18Z</time>
      </trkpt>
      <trkpt lat="46.7072" lon="5.86257">
        <ele>696.1</ele>
        <time>2014-06-29T11:12:21Z</time>
      </trkpt>
      <trkpt lat="46.70715" lon="5.86268">
        <ele>696.3</ele>
        <time>2014-06-29T11:12:24Z</time>
      </trkpt>
      <trkpt lat="46.70709" lon="5.86281">
        <ele>696.7</ele>
        <time>2014-06-29T11:12:27Z</time>
      </trkpt>
      <trkpt lat="46.70704" lon="5.86293">
        <ele>696.9</ele>
        <time>2014-06-29T11:12:30Z</time>
      </trkpt>
      <trkpt lat="46.70699" lon="5.86307">
        <ele>697</ele>
        <time>2014-06-29T11:12:33Z</time>
      </trkpt>
      <trkpt lat="46.70693" lon="5.8632">
        <ele>697.5</ele>
        <time>2014-06-29T11:12:36Z</time>
      </trkpt>
      <trkpt lat="46.70689" lon="5.86333">
        <ele>697.9</ele>
        <time>2014-06-29T11:12:39Z</time>
      </trkpt>
      <trkpt lat="46.70685" lon="5.86346">
        <ele>698.4</ele>
        <time>2014-06-29T11:12:42Z</time>
      </trkpt>
      <trkpt lat="46.70682" lon="5.8636">
        <ele>698.7</ele>
        <time>2014-06-29T11:12:45Z</time>
      </trkpt>
      <trkpt lat="46.7068" lon="5.86374">
        <ele>699</ele>
        <time>2014-06-29T11:12:48Z</time>
      </trkpt>
      <trkpt lat="46.70677" lon="5.86388">
        <ele>699.2</ele>
        <time>2014-06-29T11:12:51Z</time>
      </trkpt>
      <trkpt lat="46.70674" lon="5.86401">
        <ele>699.5</ele>
        <time>2014-06-29T11:12:54Z</time>
      </trkpt>
      <trkpt lat="46.70669" lon="5.86414">
        <ele>699.8</ele>
        <time>2014-06-29T11:12:57Z</time>
      </trkpt>
      <trkpt lat="46.70665" lon="5.86425">
        <ele>700.3</ele>
        <time>2014-06-29T11:13:00Z</time>
      </trkpt>
      <trkpt lat="46.7066" lon="5.86437">
        <ele>700.7</ele>
        <time>2014-06-29T11:13:03Z</time>
      </trkpt>
      <trkpt lat="46.70654" lon="5.86453">
        <ele>700.8</ele>
        <time>2014-06-29T11:13:07Z</time>
      </trkpt>
      <trkpt lat="46.70648" lon="5.86468">
        <ele>700.7</ele>
        <time>2014-06-29T11:13:10Z</time>
      </trkpt>
      <trkpt lat="46.70639" lon="5.86497">
        <ele>701.8</ele>
        <time>2014-06-29T11:13:17Z</time>
      </trkpt>
      <trkpt lat="46.70636" lon="5.86511">
        <ele>703</ele>
        <time>2014-06-29T11:13:21Z</time>
      </trkpt>
      <trkpt lat="46.70637" lon="5.86526">
        <ele>703.3</ele>
        <time>2014-06-29T11:13:24Z</time>
      </trkpt>
      <trkpt lat="46.70635" lon="5.86544">
        <ele>703.3</ele>
        <time>2014-06-29T11:13:27Z</time>
      </trkpt>
      <trkpt lat="46.70633" lon="5.86557">
        <ele>703.1</ele>
        <time>2014-06-29T11:13:29Z</time>
      </trkpt>
      <trkpt lat="46.70628" lon="5.86571">
        <ele>703</ele>
        <time>2014-06-29T11:13:31Z</time>
      </trkpt>
      <trkpt lat="46.70624" lon="5.86586">
        <ele>702.8</ele>
        <time>2014-06-29T11:13:33Z</time>
      </trkpt>
      <trkpt lat="46.70618" lon="5.866">
        <ele>702.7</ele>
        <time>2014-06-29T11:13:35Z</time>
      </trkpt>
      <trkpt lat="46.7061" lon="5.86618">
        <ele>702.4</ele>
        <time>2014-06-29T11:13:37Z</time>
      </trkpt>
      <trkpt lat="46.70601" lon="5.86634">
        <ele>701.9</ele>
        <time>2014-06-29T11:13:39Z</time>
      </trkpt>
      <trkpt lat="46.70596" lon="5.86651">
        <ele>701.8</ele>
        <time>2014-06-29T11:13:41Z</time>
      </trkpt>
      <trkpt lat="46.70591" lon="5.86667">
        <ele>701.4</ele>
        <time>2014-06-29T11:13:43Z</time>
      </trkpt>
      <trkpt lat="46.70588" lon="5.86683">
        <ele>701.1</ele>
        <time>2014-06-29T11:13:45Z</time>
      </trkpt>
      <trkpt lat="46.70584" lon="5.86699">
        <ele>701</ele>
        <time>2014-06-29T11:13:47Z</time>
      </trkpt>
      <trkpt lat="46.70581" lon="5.86713">
        <ele>701</ele>
        <time>2014-06-29T11:13:49Z</time>
      </trkpt>
      <trkpt lat="46.70578" lon="5.86726">
        <ele>701.1</ele>
        <time>2014-06-29T11:13:51Z</time>
      </trkpt>
      <trkpt lat="46.70574" lon="5.86743">
        <ele>701</ele>
        <time>2014-06-29T11:13:54Z</time>
      </trkpt>
      <trkpt lat="46.70569" lon="5.86759">
        <ele>701.2</ele>
        <time>2014-06-29T11:13:57Z</time>
      </trkpt>
      <trkpt lat="46.70564" lon="5.86773">
        <ele>701.5</ele>
        <time>2014-06-29T11:14:00Z</time>
      </trkpt>
      <trkpt lat="46.7056" lon="5.86786">
        <ele>701.7</ele>
        <time>2014-06-29T11:14:03Z</time>
      </trkpt>
      <trkpt lat="46.70557" lon="5.86799">
        <ele>701.9</ele>
        <time>2014-06-29T11:14:06Z</time>
      </trkpt>
      <trkpt lat="46.70556" lon="5.86817">
        <ele>702.3</ele>
        <time>2014-06-29T11:14:10Z</time>
      </trkpt>
      <trkpt lat="46.70556" lon="5.86834">
        <ele>702.2</ele>
        <time>2014-06-29T11:14:13Z</time>
      </trkpt>
      <trkpt lat="46.70561" lon="5.86861">
        <ele>702.6</ele>
        <time>2014-06-29T11:14:17Z</time>
      </trkpt>
      <trkpt lat="46.70563" lon="5.86875">
        <ele>702.7</ele>
        <time>2014-06-29T11:14:19Z</time>
      </trkpt>
      <trkpt lat="46.70566" lon="5.86891">
        <ele>702.4</ele>
        <time>2014-06-29T11:14:21Z</time>
      </trkpt>
      <trkpt lat="46.70568" lon="5.86907">
        <ele>702.3</ele>
        <time>2014-06-29T11:14:23Z</time>
      </trkpt>
      <trkpt lat="46.7057" lon="5.86924">
        <ele>702</ele>
        <time>2014-06-29T11:14:25Z</time>
      </trkpt>
      <trkpt lat="46.70573" lon="5.8694">
        <ele>701.8</ele>
        <time>2014-06-29T11:14:27Z</time>
      </trkpt>
      <trkpt lat="46.70574" lon="5.86957">
        <ele>701.3</ele>
        <time>2014-06-29T11:14:29Z</time>
      </trkpt>
      <trkpt lat="46.70574" lon="5.86974">
        <ele>700.8</ele>
        <time>2014-06-29T11:14:31Z</time>
      </trkpt>
      <trkpt lat="46.70571" lon="5.86993">
        <ele>700.3</ele>
        <time>2014-06-29T11:14:33Z</time>
      </trkpt>
      <trkpt lat="46.70566" lon="5.87012">
        <ele>699.8</ele>
        <time>2014-06-29T11:14:35Z</time>
      </trkpt>
      <trkpt lat="46.70561" lon="5.87031">
        <ele>699.8</ele>
        <time>2014-06-29T11:14:37Z</time>
      </trkpt>
      <trkpt lat="46.70556" lon="5.87049">
        <ele>699.4</ele>
        <time>2014-06-29T11:14:39Z</time>
      </trkpt>
      <trkpt lat="46.7055" lon="5.87068">
        <ele>699</ele>
        <time>2014-06-29T11:14:41Z</time>
      </trkpt>
      <trkpt lat="46.70544" lon="5.87087">
        <ele>698.7</ele>
        <time>2014-06-29T11:14:43Z</time>
      </trkpt>
      <trkpt lat="46.70539" lon="5.87107">
        <ele>698.2</ele>
        <time>2014-06-29T11:14:45Z</time>
      </trkpt>
      <trkpt lat="46.70533" lon="5.87126">
        <ele>697.7</ele>
        <time>2014-06-29T11:14:47Z</time>
      </trkpt>
      <trkpt lat="46.70527" lon="5.87144">
        <ele>697.2</ele>
        <time>2014-06-29T11:14:49Z</time>
      </trkpt>
      <trkpt lat="46.70521" lon="5.87163">
        <ele>697</ele>
        <time>2014-06-29T11:14:51Z</time>
      </trkpt>
      <trkpt lat="46.70516" lon="5.87181">
        <ele>696.7</ele>
        <time>2014-06-29T11:14:53Z</time>
      </trkpt>
      <trkpt lat="46.70511" lon="5.87198">
        <ele>696.5</ele>
        <time>2014-06-29T11:14:55Z</time>
      </trkpt>
      <trkpt lat="46.70506" lon="5.87216">
        <ele>696.3</ele>
        <time>2014-06-29T11:14:57Z</time>
      </trkpt>
      <trkpt lat="46.70501" lon="5.87233">
        <ele>696.2</ele>
        <time>2014-06-29T11:14:59Z</time>
      </trkpt>
      <trkpt lat="46.70496" lon="5.87248">
        <ele>696.6</ele>
        <time>2014-06-29T11:15:01Z</time>
      </trkpt>
      <trkpt lat="46.70492" lon="5.87261">
        <ele>696.9</ele>
        <time>2014-06-29T11:15:03Z</time>
      </trkpt>
      <trkpt lat="46.70488" lon="5.87279">
        <ele>697.7</ele>
        <time>2014-06-29T11:15:06Z</time>
      </trkpt>
      <trkpt lat="46.70486" lon="5.87297">
        <ele>698</ele>
        <time>2014-06-29T11:15:09Z</time>
      </trkpt>
      <trkpt lat="46.70483" lon="5.87311">
        <ele>698</ele>
        <time>2014-06-29T11:15:11Z</time>
      </trkpt>
      <trkpt lat="46.70481" lon="5.87327">
        <ele>697.7</ele>
        <time>2014-06-29T11:15:13Z</time>
      </trkpt>
      <trkpt lat="46.70479" lon="5.87344">
        <ele>697.2</ele>
        <time>2014-06-29T11:15:15Z</time>
      </trkpt>
      <trkpt lat="46.70474" lon="5.87378">
        <ele>696.9</ele>
        <time>2014-06-29T11:15:19Z</time>
      </trkpt>
      <trkpt lat="46.70472" lon="5.87396">
        <ele>696.9</ele>
        <time>2014-06-29T11:15:21Z</time>
      </trkpt>
      <trkpt lat="46.7047" lon="5.87413">
        <ele>696.3</ele>
        <time>2014-06-29T11:15:23Z</time>
      </trkpt>
      <trkpt lat="46.70468" lon="5.8743">
        <ele>696</ele>
        <time>2014-06-29T11:15:25Z</time>
      </trkpt>
      <trkpt lat="46.70466" lon="5.87448">
        <ele>695.7</ele>
        <time>2014-06-29T11:15:27Z</time>
      </trkpt>
      <trkpt lat="46.70464" lon="5.87465">
        <ele>695.6</ele>
        <time>2014-06-29T11:15:29Z</time>
      </trkpt>
      <trkpt lat="46.70461" lon="5.87483">
        <ele>695.7</ele>
        <time>2014-06-29T11:15:31Z</time>
      </trkpt>
      <trkpt lat="46.70459" lon="5.875">
        <ele>695.8</ele>
        <time>2014-06-29T11:15:33Z</time>
      </trkpt>
      <trkpt lat="46.70457" lon="5.87518">
        <ele>695.7</ele>
        <time>2014-06-29T11:15:35Z</time>
      </trkpt>
      <trkpt lat="46.70454" lon="5.87535">
        <ele>696</ele>
        <time>2014-06-29T11:15:37Z</time>
      </trkpt>
      <trkpt lat="46.70451" lon="5.87552">
        <ele>696</ele>
        <time>2014-06-29T11:15:39Z</time>
      </trkpt>
      <trkpt lat="46.70451" lon="5.87569">
        <ele>696</ele>
        <time>2014-06-29T11:15:41Z</time>
      </trkpt>
      <trkpt lat="46.70454" lon="5.87585">
        <ele>695.8</ele>
        <time>2014-06-29T11:15:43Z</time>
      </trkpt>
      <trkpt lat="46.7046" lon="5.87598">
        <ele>695.6</ele>
        <time>2014-06-29T11:15:45Z</time>
      </trkpt>
      <trkpt lat="46.70468" lon="5.8761">
        <ele>695.6</ele>
        <time>2014-06-29T11:15:47Z</time>
      </trkpt>
      <trkpt lat="46.70476" lon="5.87621">
        <ele>695.7</ele>
        <time>2014-06-29T11:15:49Z</time>
      </trkpt>
      <trkpt lat="46.70483" lon="5.87634">
        <ele>695.7</ele>
        <time>2014-06-29T11:15:51Z</time>
      </trkpt>
      <trkpt lat="46.70486" lon="5.87649">
        <ele>696</ele>
        <time>2014-06-29T11:15:53Z</time>
      </trkpt>
      <trkpt lat="46.70484" lon="5.87665">
        <ele>696.1</ele>
        <time>2014-06-29T11:15:55Z</time>
      </trkpt>
      <trkpt lat="46.7048" lon="5.87679">
        <ele>696.4</ele>
        <time>2014-06-29T11:15:57Z</time>
      </trkpt>
      <trkpt lat="46.70478" lon="5.87694">
        <ele>696.2</ele>
        <time>2014-06-29T11:15:59Z</time>
      </trkpt>
      <trkpt lat="46.70478" lon="5.87709">
        <ele>696.3</ele>
        <time>2014-06-29T11:16:01Z</time>
      </trkpt>
      <trkpt lat="46.70479" lon="5.87724">
        <ele>696.2</ele>
        <time>2014-06-29T11:16:03Z</time>
      </trkpt>
      <trkpt lat="46.70481" lon="5.87739">
        <ele>696.1</ele>
        <time>2014-06-29T11:16:05Z</time>
      </trkpt>
      <trkpt lat="46.70485" lon="5.87751">
        <ele>696.1</ele>
        <time>2014-06-29T11:16:07Z</time>
      </trkpt>
      <trkpt lat="46.70491" lon="5.87769">
        <ele>696.5</ele>
        <time>2014-06-29T11:16:10Z</time>
      </trkpt>
      <trkpt lat="46.70496" lon="5.87785">
        <ele>696.8</ele>
        <time>2014-06-29T11:16:13Z</time>
      </trkpt>
      <trkpt lat="46.70505" lon="5.87796">
        <ele>697.2</ele>
        <time>2014-06-29T11:16:16Z</time>
      </trkpt>
      <trkpt lat="46.70528" lon="5.87803">
        <ele>697.8</ele>
        <time>2014-06-29T11:16:22Z</time>
      </trkpt>
      <trkpt lat="46.70538" lon="5.87806">
        <ele>698.3</ele>
        <time>2014-06-29T11:16:26Z</time>
      </trkpt>
      <trkpt lat="46.70548" lon="5.87799">
        <ele>698.4</ele>
        <time>2014-06-29T11:16:31Z</time>
      </trkpt>
      <trkpt lat="46.70554" lon="5.87787">
        <ele>698.4</ele>
        <time>2014-06-29T11:16:36Z</time>
      </trkpt>
      <trkpt lat="46.70564" lon="5.87784">
        <ele>698.2</ele>
        <time>2014-06-29T11:19:01Z</time>
      </trkpt>
      <trkpt lat="46.70549" lon="5.87813">
        <ele>698.5</ele>
        <time>2014-06-29T11:22:27Z</time>
      </trkpt>
      <trkpt lat="46.70557" lon="5.87819">
        <ele>698.7</ele>
        <time>2014-06-29T11:22:33Z</time>
      </trkpt>
      <trkpt lat="46.70565" lon="5.87825">
        <ele>698.5</ele>
        <time>2014-06-29T11:22:37Z</time>
      </trkpt>
      <trkpt lat="46.70576" lon="5.87833">
        <ele>698</ele>
        <time>2014-06-29T11:22:41Z</time>
      </trkpt>
      <trkpt lat="46.70584" lon="5.87839">
        <ele>697.8</ele>
        <time>2014-06-29T11:22:44Z</time>
      </trkpt>
      <trkpt lat="46.70595" lon="5.87849">
        <ele>697.4</ele>
        <time>2014-06-29T11:22:47Z</time>
      </trkpt>
      <trkpt lat="46.70602" lon="5.87857">
        <ele>697.2</ele>
        <time>2014-06-29T11:22:49Z</time>
      </trkpt>
      <trkpt lat="46.7061" lon="5.87868">
        <ele>697</ele>
        <time>2014-06-29T11:22:51Z</time>
      </trkpt>
      <trkpt lat="46.70617" lon="5.87882">
        <ele>696.6</ele>
        <time>2014-06-29T11:22:53Z</time>
      </trkpt>
      <trkpt lat="46.70623" lon="5.87899">
        <ele>696.3</ele>
        <time>2014-06-29T11:22:55Z</time>
      </trkpt>
      <trkpt lat="46.70631" lon="5.87915">
        <ele>695.7</ele>
        <time>2014-06-29T11:22:57Z</time>
      </trkpt>
      <trkpt lat="46.7064" lon="5.8793">
        <ele>695.3</ele>
        <time>2014-06-29T11:22:59Z</time>
      </trkpt>
      <trkpt lat="46.70653" lon="5.87942">
        <ele>695.1</ele>
        <time>2014-06-29T11:23:01Z</time>
      </trkpt>
      <trkpt lat="46.70677" lon="5.87956">
        <ele>693.7</ele>
        <time>2014-06-29T11:23:04Z</time>
      </trkpt>
      <trkpt lat="46.70693" lon="5.87968">
        <ele>692.8</ele>
        <time>2014-06-29T11:23:06Z</time>
      </trkpt>
      <trkpt lat="46.70707" lon="5.87982">
        <ele>692.3</ele>
        <time>2014-06-29T11:23:08Z</time>
      </trkpt>
      <trkpt lat="46.7072" lon="5.87998">
        <ele>691.6</ele>
        <time>2014-06-29T11:23:10Z</time>
      </trkpt>
      <trkpt lat="46.70732" lon="5.88013">
        <ele>691.3</ele>
        <time>2014-06-29T11:23:12Z</time>
      </trkpt>
      <trkpt lat="46.70742" lon="5.88027">
        <ele>691.1</ele>
        <time>2014-06-29T11:23:14Z</time>
      </trkpt>
      <trkpt lat="46.70752" lon="5.8804">
        <ele>690.7</ele>
        <time>2014-06-29T11:23:16Z</time>
      </trkpt>
      <trkpt lat="46.70761" lon="5.8805">
        <ele>690.7</ele>
        <time>2014-06-29T11:23:18Z</time>
      </trkpt>
      <trkpt lat="46.7077" lon="5.88059">
        <ele>690.6</ele>
        <time>2014-06-29T11:23:20Z</time>
      </trkpt>
      <trkpt lat="46.70779" lon="5.88066">
        <ele>690.7</ele>
        <time>2014-06-29T11:23:22Z</time>
      </trkpt>
      <trkpt lat="46.70788" lon="5.88072">
        <ele>690.5</ele>
        <time>2014-06-29T11:23:24Z</time>
      </trkpt>
      <trkpt lat="46.70795" lon="5.8808">
        <ele>690.5</ele>
        <time>2014-06-29T11:23:26Z</time>
      </trkpt>
      <trkpt lat="46.70804" lon="5.88094">
        <ele>690.6</ele>
        <time>2014-06-29T11:23:29Z</time>
      </trkpt>
      <trkpt lat="46.7081" lon="5.88112">
        <ele>690.6</ele>
        <time>2014-06-29T11:23:32Z</time>
      </trkpt>
      <trkpt lat="46.70815" lon="5.88126">
        <ele>690.3</ele>
        <time>2014-06-29T11:23:34Z</time>
      </trkpt>
      <trkpt lat="46.70819" lon="5.88143">
        <ele>690</ele>
        <time>2014-06-29T11:23:36Z</time>
      </trkpt>
      <trkpt lat="46.70824" lon="5.88162">
        <ele>689.7</ele>
        <time>2014-06-29T11:23:38Z</time>
      </trkpt>
      <trkpt lat="46.7083" lon="5.88182">
        <ele>689.3</ele>
        <time>2014-06-29T11:23:40Z</time>
      </trkpt>
      <trkpt lat="46.70832" lon="5.88201">
        <ele>689.1</ele>
        <time>2014-06-29T11:23:42Z</time>
      </trkpt>
      <trkpt lat="46.70835" lon="5.88219">
        <ele>688.8</ele>
        <time>2014-06-29T11:23:44Z</time>
      </trkpt>
      <trkpt lat="46.70834" lon="5.88237">
        <ele>688.3</ele>
        <time>2014-06-29T11:23:46Z</time>
      </trkpt>
      <trkpt lat="46.7083" lon="5.88252">
        <ele>688</ele>
        <time>2014-06-29T11:23:48Z</time>
      </trkpt>
      <trkpt lat="46.70824" lon="5.88265">
        <ele>687.6</ele>
        <time>2014-06-29T11:23:50Z</time>
      </trkpt>
      <trkpt lat="46.70816" lon="5.8828">
        <ele>687.8</ele>
        <time>2014-06-29T11:23:53Z</time>
      </trkpt>
      <trkpt lat="46.70809" lon="5.88293">
        <ele>688</ele>
        <time>2014-06-29T11:23:56Z</time>
      </trkpt>
      <trkpt lat="46.70802" lon="5.88305">
        <ele>688.7</ele>
        <time>2014-06-29T11:23:59Z</time>
      </trkpt>
      <trkpt lat="46.70796" lon="5.88316">
        <ele>689</ele>
        <time>2014-06-29T11:24:02Z</time>
      </trkpt>
      <trkpt lat="46.70785" lon="5.88342">
        <ele>690.6</ele>
        <time>2014-06-29T11:24:10Z</time>
      </trkpt>
      <trkpt lat="46.7078" lon="5.88355">
        <ele>691.1</ele>
        <time>2014-06-29T11:24:14Z</time>
      </trkpt>
      <trkpt lat="46.70774" lon="5.88367">
        <ele>692.1</ele>
        <time>2014-06-29T11:24:18Z</time>
      </trkpt>
      <trkpt lat="46.7077" lon="5.88379">
        <ele>692.6</ele>
        <time>2014-06-29T11:24:22Z</time>
      </trkpt>
      <trkpt lat="46.70766" lon="5.88392">
        <ele>693.2</ele>
        <time>2014-06-29T11:24:26Z</time>
      </trkpt>
      <trkpt lat="46.70762" lon="5.88406">
        <ele>694.2</ele>
        <time>2014-06-29T11:24:30Z</time>
      </trkpt>
      <trkpt lat="46.70758" lon="5.88421">
        <ele>694.8</ele>
        <time>2014-06-29T11:24:34Z</time>
      </trkpt>
      <trkpt lat="46.70755" lon="5.88438">
        <ele>695</ele>
        <time>2014-06-29T11:24:38Z</time>
      </trkpt>
      <trkpt lat="46.70756" lon="5.88451">
        <ele>695.2</ele>
        <time>2014-06-29T11:24:41Z</time>
      </trkpt>
      <trkpt lat="46.70758" lon="5.88464">
        <ele>695.4</ele>
        <time>2014-06-29T11:24:44Z</time>
      </trkpt>
      <trkpt lat="46.70761" lon="5.8848">
        <ele>695.2</ele>
        <time>2014-06-29T11:24:48Z</time>
      </trkpt>
      <trkpt lat="46.70766" lon="5.88495">
        <ele>695.7</ele>
        <time>2014-06-29T11:24:52Z</time>
      </trkpt>
      <trkpt lat="46.70771" lon="5.88509">
        <ele>696.4</ele>
        <time>2014-06-29T11:24:56Z</time>
      </trkpt>
      <trkpt lat="46.70776" lon="5.88523">
        <ele>697</ele>
        <time>2014-06-29T11:25:00Z</time>
      </trkpt>
      <trkpt lat="46.7078" lon="5.88537">
        <ele>697.7</ele>
        <time>2014-06-29T11:25:04Z</time>
      </trkpt>
      <trkpt lat="46.70784" lon="5.88566">
        <ele>699.7</ele>
        <time>2014-06-29T11:25:13Z</time>
      </trkpt>
      <trkpt lat="46.70786" lon="5.88582">
        <ele>700</ele>
        <time>2014-06-29T11:25:17Z</time>
      </trkpt>
      <trkpt lat="46.70787" lon="5.88596">
        <ele>700.2</ele>
        <time>2014-06-29T11:25:20Z</time>
      </trkpt>
      <trkpt lat="46.70788" lon="5.88611">
        <ele>700.4</ele>
        <time>2014-06-29T11:25:23Z</time>
      </trkpt>
      <trkpt lat="46.70789" lon="5.88627">
        <ele>700.6</ele>
        <time>2014-06-29T11:25:26Z</time>
      </trkpt>
      <trkpt lat="46.7079" lon="5.88642">
        <ele>700.8</ele>
        <time>2014-06-29T11:25:29Z</time>
      </trkpt>
      <trkpt lat="46.70792" lon="5.88658">
        <ele>701</ele>
        <time>2014-06-29T11:25:32Z</time>
      </trkpt>
      <trkpt lat="46.70795" lon="5.88675">
        <ele>701</ele>
        <time>2014-06-29T11:25:35Z</time>
      </trkpt>
      <trkpt lat="46.70796" lon="5.88693">
        <ele>701</ele>
        <time>2014-06-29T11:25:38Z</time>
      </trkpt>
      <trkpt lat="46.70795" lon="5.88708">
        <ele>700.7</ele>
        <time>2014-06-29T11:25:40Z</time>
      </trkpt>
      <trkpt lat="46.70792" lon="5.88723">
        <ele>700.6</ele>
        <time>2014-06-29T11:25:42Z</time>
      </trkpt>
      <trkpt lat="46.70788" lon="5.88737">
        <ele>700.5</ele>
        <time>2014-06-29T11:25:44Z</time>
      </trkpt>
      <trkpt lat="46.70782" lon="5.88749">
        <ele>700.3</ele>
        <time>2014-06-29T11:25:46Z</time>
      </trkpt>
      <trkpt lat="46.70776" lon="5.88761">
        <ele>700.3</ele>
        <time>2014-06-29T11:25:48Z</time>
      </trkpt>
      <trkpt lat="46.7077" lon="5.88771">
        <ele>700</ele>
        <time>2014-06-29T11:25:50Z</time>
      </trkpt>
      <trkpt lat="46.70765" lon="5.88782">
        <ele>699.9</ele>
        <time>2014-06-29T11:25:52Z</time>
      </trkpt>
      <trkpt lat="46.70759" lon="5.88799">
        <ele>700.3</ele>
        <time>2014-06-29T11:25:55Z</time>
      </trkpt>
      <trkpt lat="46.70757" lon="5.88816">
        <ele>700.3</ele>
        <time>2014-06-29T11:25:58Z</time>
      </trkpt>
      <trkpt lat="46.70755" lon="5.88832">
        <ele>700.7</ele>
        <time>2014-06-29T11:26:01Z</time>
      </trkpt>
      <trkpt lat="46.70751" lon="5.88851">
        <ele>700.7</ele>
        <time>2014-06-29T11:26:04Z</time>
      </trkpt>
      <trkpt lat="46.70748" lon="5.88864">
        <ele>700.7</ele>
        <time>2014-06-29T11:26:06Z</time>
      </trkpt>
      <trkpt lat="46.70737" lon="5.88887">
        <ele>700.1</ele>
        <time>2014-06-29T11:26:10Z</time>
      </trkpt>
      <trkpt lat="46.7073" lon="5.88898">
        <ele>700</ele>
        <time>2014-06-29T11:26:12Z</time>
      </trkpt>
      <trkpt lat="46.70721" lon="5.88911">
        <ele>699.7</ele>
        <time>2014-06-29T11:26:14Z</time>
      </trkpt>
      <trkpt lat="46.70711" lon="5.88925">
        <ele>699.3</ele>
        <time>2014-06-29T11:26:16Z</time>
      </trkpt>
      <trkpt lat="46.70701" lon="5.88941">
        <ele>698.7</ele>
        <time>2014-06-29T11:26:18Z</time>
      </trkpt>
      <trkpt lat="46.70691" lon="5.88959">
        <ele>697.8</ele>
        <time>2014-06-29T11:26:20Z</time>
      </trkpt>
      <trkpt lat="46.7068" lon="5.88979">
        <ele>696.8</ele>
        <time>2014-06-29T11:26:22Z</time>
      </trkpt>
      <trkpt lat="46.70674" lon="5.88991">
        <ele>696.2</ele>
        <time>2014-06-29T11:26:23Z</time>
      </trkpt>
      <trkpt lat="46.70669" lon="5.89002">
        <ele>695.6</ele>
        <time>2014-06-29T11:26:24Z</time>
      </trkpt>
      <trkpt lat="46.70664" lon="5.89015">
        <ele>695</ele>
        <time>2014-06-29T11:26:25Z</time>
      </trkpt>
      <trkpt lat="46.70659" lon="5.89028">
        <ele>694.5</ele>
        <time>2014-06-29T11:26:26Z</time>
      </trkpt>
      <trkpt lat="46.70654" lon="5.8904">
        <ele>694.1</ele>
        <time>2014-06-29T11:26:27Z</time>
      </trkpt>
      <trkpt lat="46.70649" lon="5.89053">
        <ele>693.4</ele>
        <time>2014-06-29T11:26:28Z</time>
      </trkpt>
      <trkpt lat="46.70644" lon="5.89065">
        <ele>692.9</ele>
        <time>2014-06-29T11:26:29Z</time>
      </trkpt>
      <trkpt lat="46.70639" lon="5.89076">
        <ele>692.4</ele>
        <time>2014-06-29T11:26:30Z</time>
      </trkpt>
      <trkpt lat="46.70633" lon="5.89085">
        <ele>691.7</ele>
        <time>2014-06-29T11:26:31Z</time>
      </trkpt>
      <trkpt lat="46.7062" lon="5.89101">
        <ele>690.8</ele>
        <time>2014-06-29T11:26:33Z</time>
      </trkpt>
      <trkpt lat="46.70606" lon="5.89111">
        <ele>690.4</ele>
        <time>2014-06-29T11:26:35Z</time>
      </trkpt>
      <trkpt lat="46.70592" lon="5.89117">
        <ele>690.1</ele>
        <time>2014-06-29T11:26:37Z</time>
      </trkpt>
      <trkpt lat="46.7058" lon="5.89122">
        <ele>689.7</ele>
        <time>2014-06-29T11:26:39Z</time>
      </trkpt>
      <trkpt lat="46.70569" lon="5.89129">
        <ele>689.6</ele>
        <time>2014-06-29T11:26:41Z</time>
      </trkpt>
      <trkpt lat="46.70559" lon="5.8914">
        <ele>689.7</ele>
        <time>2014-06-29T11:26:43Z</time>
      </trkpt>
      <trkpt lat="46.70552" lon="5.89153">
        <ele>689.7</ele>
        <time>2014-06-29T11:26:45Z</time>
      </trkpt>
      <trkpt lat="46.70547" lon="5.89171">
        <ele>689.8</ele>
        <time>2014-06-29T11:26:47Z</time>
      </trkpt>
      <trkpt lat="46.70543" lon="5.89188">
        <ele>689.7</ele>
        <time>2014-06-29T11:26:49Z</time>
      </trkpt>
      <trkpt lat="46.70536" lon="5.892">
        <ele>689.4</ele>
        <time>2014-06-29T11:26:51Z</time>
      </trkpt>
      <trkpt lat="46.70525" lon="5.89199">
        <ele>688.9</ele>
        <time>2014-06-29T11:26:54Z</time>
      </trkpt>
      <trkpt lat="46.70536" lon="5.89196">
        <ele>688.2</ele>
        <time>2014-06-29T11:28:01Z</time>
      </trkpt>
      <trkpt lat="46.70536" lon="5.89228">
        <ele>688.1</ele>
        <time>2014-06-29T11:28:07Z</time>
      </trkpt>
      <trkpt lat="46.70531" lon="5.89242">
        <ele>688.1</ele>
        <time>2014-06-29T11:28:09Z</time>
      </trkpt>
      <trkpt lat="46.70524" lon="5.89257">
        <ele>687.6</ele>
        <time>2014-06-29T11:28:11Z</time>
      </trkpt>
      <trkpt lat="46.70514" lon="5.89272">
        <ele>686.8</ele>
        <time>2014-06-29T11:28:13Z</time>
      </trkpt>
      <trkpt lat="46.70503" lon="5.89288">
        <ele>686.2</ele>
        <time>2014-06-29T11:28:15Z</time>
      </trkpt>
      <trkpt lat="46.70493" lon="5.89304">
        <ele>685.8</ele>
        <time>2014-06-29T11:28:17Z</time>
      </trkpt>
      <trkpt lat="46.70483" lon="5.8932">
        <ele>685.2</ele>
        <time>2014-06-29T11:28:19Z</time>
      </trkpt>
      <trkpt lat="46.70477" lon="5.89334">
        <ele>684.7</ele>
        <time>2014-06-29T11:28:21Z</time>
      </trkpt>
      <trkpt lat="46.70482" lon="5.89345">
        <ele>683.2</ele>
        <time>2014-06-29T11:28:30Z</time>
      </trkpt>
      <trkpt lat="46.70492" lon="5.89341">
        <ele>682.7</ele>
        <time>2014-06-29T11:28:37Z</time>
      </trkpt>
      <trkpt lat="46.70502" lon="5.89339">
        <ele>682.7</ele>
        <time>2014-06-29T11:28:41Z</time>
      </trkpt>
      <trkpt lat="46.70514" lon="5.89339">
        <ele>682.2</ele>
        <time>2014-06-29T11:28:45Z</time>
      </trkpt>
      <trkpt lat="46.70526" lon="5.89339">
        <ele>681.9</ele>
        <time>2014-06-29T11:28:49Z</time>
      </trkpt>
      <trkpt lat="46.70535" lon="5.89341">
        <ele>681.4</ele>
        <time>2014-06-29T11:28:52Z</time>
      </trkpt>
      <trkpt lat="46.70545" lon="5.89343">
        <ele>681.4</ele>
        <time>2014-06-29T11:28:55Z</time>
      </trkpt>
      <trkpt lat="46.70554" lon="5.89347">
        <ele>681.3</ele>
        <time>2014-06-29T11:28:58Z</time>
      </trkpt>
      <trkpt lat="46.70562" lon="5.89353">
        <ele>681.3</ele>
        <time>2014-06-29T11:29:01Z</time>
      </trkpt>
      <trkpt lat="46.70571" lon="5.89357">
        <ele>681.3</ele>
        <time>2014-06-29T11:29:04Z</time>
      </trkpt>
      <trkpt lat="46.7059" lon="5.89362">
        <ele>680.5</ele>
        <time>2014-06-29T11:29:11Z</time>
      </trkpt>
      <trkpt lat="46.706" lon="5.8937">
        <ele>679.3</ele>
        <time>2014-06-29T11:29:19Z</time>
      </trkpt>
      <trkpt lat="46.70609" lon="5.89381">
        <ele>679.3</ele>
        <time>2014-06-29T11:29:24Z</time>
      </trkpt>
      <trkpt lat="46.70617" lon="5.89394">
        <ele>679.2</ele>
        <time>2014-06-29T11:29:28Z</time>
      </trkpt>
      <trkpt lat="46.70623" lon="5.89411">
        <ele>678.9</ele>
        <time>2014-06-29T11:29:31Z</time>
      </trkpt>
      <trkpt lat="46.70629" lon="5.89421">
        <ele>678.8</ele>
        <time>2014-06-29T11:29:33Z</time>
      </trkpt>
      <trkpt lat="46.70637" lon="5.8943">
        <ele>678.4</ele>
        <time>2014-06-29T11:29:36Z</time>
      </trkpt>
      <trkpt lat="46.70647" lon="5.89433">
        <ele>678.3</ele>
        <time>2014-06-29T11:29:39Z</time>
      </trkpt>
      <trkpt lat="46.70659" lon="5.89436">
        <ele>678.2</ele>
        <time>2014-06-29T11:29:43Z</time>
      </trkpt>
      <trkpt lat="46.70669" lon="5.89439">
        <ele>678.4</ele>
        <time>2014-06-29T11:29:46Z</time>
      </trkpt>
      <trkpt lat="46.70681" lon="5.89441">
        <ele>678.4</ele>
        <time>2014-06-29T11:29:50Z</time>
      </trkpt>
      <trkpt lat="46.70692" lon="5.89441">
        <ele>678.5</ele>
        <time>2014-06-29T11:29:53Z</time>
      </trkpt>
      <trkpt lat="46.70703" lon="5.89439">
        <ele>678.4</ele>
        <time>2014-06-29T11:29:56Z</time>
      </trkpt>
      <trkpt lat="46.70715" lon="5.89438">
        <ele>678.1</ele>
        <time>2014-06-29T11:29:59Z</time>
      </trkpt>
      <trkpt lat="46.70725" lon="5.89436">
        <ele>677.8</ele>
        <time>2014-06-29T11:30:02Z</time>
      </trkpt>
      <trkpt lat="46.70738" lon="5.89434">
        <ele>678</ele>
        <time>2014-06-29T11:30:05Z</time>
      </trkpt>
      <trkpt lat="46.70758" lon="5.89434">
        <ele>678</ele>
        <time>2014-06-29T11:30:09Z</time>
      </trkpt>
      <trkpt lat="46.70767" lon="5.89433">
        <ele>678</ele>
        <time>2014-06-29T11:30:11Z</time>
      </trkpt>
      <trkpt lat="46.70778" lon="5.89428">
        <ele>677.8</ele>
        <time>2014-06-29T11:30:14Z</time>
      </trkpt>
      <trkpt lat="46.70789" lon="5.89428">
        <ele>677.7</ele>
        <time>2014-06-29T11:30:17Z</time>
      </trkpt>
      <trkpt lat="46.708" lon="5.89428">
        <ele>677.6</ele>
        <time>2014-06-29T11:30:20Z</time>
      </trkpt>
      <trkpt lat="46.7081" lon="5.89426">
        <ele>677.5</ele>
        <time>2014-06-29T11:30:23Z</time>
      </trkpt>
      <trkpt lat="46.7082" lon="5.89425">
        <ele>677.2</ele>
        <time>2014-06-29T11:30:26Z</time>
      </trkpt>
      <trkpt lat="46.7083" lon="5.89424">
        <ele>676.8</ele>
        <time>2014-06-29T11:30:29Z</time>
      </trkpt>
      <trkpt lat="46.7084" lon="5.89421">
        <ele>676.9</ele>
        <time>2014-06-29T11:30:32Z</time>
      </trkpt>
      <trkpt lat="46.70852" lon="5.89417">
        <ele>676.6</ele>
        <time>2014-06-29T11:30:35Z</time>
      </trkpt>
      <trkpt lat="46.70865" lon="5.89413">
        <ele>676.2</ele>
        <time>2014-06-29T11:30:38Z</time>
      </trkpt>
      <trkpt lat="46.70875" lon="5.89409">
        <ele>675.7</ele>
        <time>2014-06-29T11:30:40Z</time>
      </trkpt>
      <trkpt lat="46.70885" lon="5.89406">
        <ele>675.6</ele>
        <time>2014-06-29T11:30:42Z</time>
      </trkpt>
      <trkpt lat="46.70897" lon="5.89401">
        <ele>675.3</ele>
        <time>2014-06-29T11:30:45Z</time>
      </trkpt>
      <trkpt lat="46.70907" lon="5.89397">
        <ele>675.4</ele>
        <time>2014-06-29T11:30:47Z</time>
      </trkpt>
      <trkpt lat="46.70916" lon="5.89391">
        <ele>675.3</ele>
        <time>2014-06-29T11:30:49Z</time>
      </trkpt>
      <trkpt lat="46.70927" lon="5.89381">
        <ele>674.5</ele>
        <time>2014-06-29T11:30:52Z</time>
      </trkpt>
      <trkpt lat="46.70938" lon="5.89375">
        <ele>673.8</ele>
        <time>2014-06-29T11:30:55Z</time>
      </trkpt>
      <trkpt lat="46.70947" lon="5.89369">
        <ele>673.3</ele>
        <time>2014-06-29T11:30:58Z</time>
      </trkpt>
      <trkpt lat="46.70957" lon="5.89368">
        <ele>672.3</ele>
        <time>2014-06-29T11:31:01Z</time>
      </trkpt>
      <trkpt lat="46.70969" lon="5.89365">
        <ele>672.4</ele>
        <time>2014-06-29T11:31:04Z</time>
      </trkpt>
      <trkpt lat="46.70979" lon="5.89359">
        <ele>672.3</ele>
        <time>2014-06-29T11:31:06Z</time>
      </trkpt>
      <trkpt lat="46.70997" lon="5.8935">
        <ele>672.2</ele>
        <time>2014-06-29T11:31:10Z</time>
      </trkpt>
      <trkpt lat="46.71009" lon="5.89348">
        <ele>672.1</ele>
        <time>2014-06-29T11:31:13Z</time>
      </trkpt>
      <trkpt lat="46.71021" lon="5.89345">
        <ele>671.2</ele>
        <time>2014-06-29T11:31:16Z</time>
      </trkpt>
      <trkpt lat="46.71028" lon="5.89332">
        <ele>671</ele>
        <time>2014-06-29T11:31:19Z</time>
      </trkpt>
      <trkpt lat="46.71031" lon="5.89318">
        <ele>671.1</ele>
        <time>2014-06-29T11:31:21Z</time>
      </trkpt>
      <trkpt lat="46.71037" lon="5.89303">
        <ele>670.1</ele>
        <time>2014-06-29T11:31:24Z</time>
      </trkpt>
      <trkpt lat="46.71047" lon="5.89293">
        <ele>669.5</ele>
        <time>2014-06-29T11:31:27Z</time>
      </trkpt>
      <trkpt lat="46.71056" lon="5.89284">
        <ele>668.2</ele>
        <time>2014-06-29T11:31:31Z</time>
      </trkpt>
      <trkpt lat="46.71066" lon="5.89277">
        <ele>668.1</ele>
        <time>2014-06-29T11:31:35Z</time>
      </trkpt>
      <trkpt lat="46.71072" lon="5.89266">
        <ele>668</ele>
        <time>2014-06-29T11:31:37Z</time>
      </trkpt>
      <trkpt lat="46.71081" lon="5.89252">
        <ele>667.7</ele>
        <time>2014-06-29T11:31:40Z</time>
      </trkpt>
      <trkpt lat="46.71093" lon="5.89246">
        <ele>667.6</ele>
        <time>2014-06-29T11:31:43Z</time>
      </trkpt>
      <trkpt lat="46.71103" lon="5.89244">
        <ele>667.8</ele>
        <time>2014-06-29T11:31:45Z</time>
      </trkpt>
      <trkpt lat="46.71114" lon="5.89243">
        <ele>667.4</ele>
        <time>2014-06-29T11:31:48Z</time>
      </trkpt>
      <trkpt lat="46.71124" lon="5.89241">
        <ele>666.9</ele>
        <time>2014-06-29T11:31:52Z</time>
      </trkpt>
      <trkpt lat="46.71134" lon="5.89238">
        <ele>666.8</ele>
        <time>2014-06-29T11:31:56Z</time>
      </trkpt>
      <trkpt lat="46.71143" lon="5.89236">
        <ele>666.9</ele>
        <time>2014-06-29T11:31:59Z</time>
      </trkpt>
      <trkpt lat="46.71152" lon="5.89231">
        <ele>667</ele>
        <time>2014-06-29T11:32:04Z</time>
      </trkpt>
      <trkpt lat="46.71162" lon="5.89233">
        <ele>666.9</ele>
        <time>2014-06-29T11:32:08Z</time>
      </trkpt>
      <trkpt lat="46.71181" lon="5.89229">
        <ele>666.3</ele>
        <time>2014-06-29T11:32:14Z</time>
      </trkpt>
      <trkpt lat="46.71192" lon="5.89225">
        <ele>666</ele>
        <time>2014-06-29T11:32:19Z</time>
      </trkpt>
      <trkpt lat="46.71203" lon="5.89216">
        <ele>666.5</ele>
        <time>2014-06-29T11:32:23Z</time>
      </trkpt>
      <trkpt lat="46.71214" lon="5.89212">
        <ele>666.5</ele>
        <time>2014-06-29T11:32:26Z</time>
      </trkpt>
      <trkpt lat="46.71224" lon="5.89207">
        <ele>666.2</ele>
        <time>2014-06-29T11:32:28Z</time>
      </trkpt>
      <trkpt lat="46.71234" lon="5.892">
        <ele>666</ele>
        <time>2014-06-29T11:32:30Z</time>
      </trkpt>
      <trkpt lat="46.71244" lon="5.89191">
        <ele>665.6</ele>
        <time>2014-06-29T11:32:33Z</time>
      </trkpt>
      <trkpt lat="46.71255" lon="5.89187">
        <ele>665.4</ele>
        <time>2014-06-29T11:32:36Z</time>
      </trkpt>
      <trkpt lat="46.71265" lon="5.8918">
        <ele>665.5</ele>
        <time>2014-06-29T11:32:39Z</time>
      </trkpt>
      <trkpt lat="46.71276" lon="5.89171">
        <ele>665.5</ele>
        <time>2014-06-29T11:32:42Z</time>
      </trkpt>
      <trkpt lat="46.71288" lon="5.89165">
        <ele>665.3</ele>
        <time>2014-06-29T11:32:45Z</time>
      </trkpt>
      <trkpt lat="46.713" lon="5.89156">
        <ele>664.9</ele>
        <time>2014-06-29T11:32:48Z</time>
      </trkpt>
      <trkpt lat="46.71309" lon="5.89152">
        <ele>664.8</ele>
        <time>2014-06-29T11:32:50Z</time>
      </trkpt>
      <trkpt lat="46.71319" lon="5.89151">
        <ele>664.1</ele>
        <time>2014-06-29T11:32:53Z</time>
      </trkpt>
      <trkpt lat="46.7133" lon="5.89152">
        <ele>664</ele>
        <time>2014-06-29T11:32:56Z</time>
      </trkpt>
      <trkpt lat="46.71342" lon="5.89154">
        <ele>663.7</ele>
        <time>2014-06-29T11:32:59Z</time>
      </trkpt>
      <trkpt lat="46.71353" lon="5.89156">
        <ele>663.6</ele>
        <time>2014-06-29T11:33:02Z</time>
      </trkpt>
      <trkpt lat="46.71365" lon="5.89156">
        <ele>662.8</ele>
        <time>2014-06-29T11:33:05Z</time>
      </trkpt>
      <trkpt lat="46.71377" lon="5.89155">
        <ele>662.5</ele>
        <time>2014-06-29T11:33:08Z</time>
      </trkpt>
      <trkpt lat="46.71388" lon="5.89156">
        <ele>662.5</ele>
        <time>2014-06-29T11:33:10Z</time>
      </trkpt>
      <trkpt lat="46.71409" lon="5.89155">
        <ele>662.1</ele>
        <time>2014-06-29T11:33:15Z</time>
      </trkpt>
      <trkpt lat="46.7142" lon="5.89152">
        <ele>662.7</ele>
        <time>2014-06-29T11:33:19Z</time>
      </trkpt>
      <trkpt lat="46.71431" lon="5.89152">
        <ele>663.1</ele>
        <time>2014-06-29T11:33:23Z</time>
      </trkpt>
      <trkpt lat="46.71441" lon="5.89161">
        <ele>663.5</ele>
        <time>2014-06-29T11:33:27Z</time>
      </trkpt>
      <trkpt lat="46.71438" lon="5.89173">
        <ele>663.2</ele>
        <time>2014-06-29T11:33:31Z</time>
      </trkpt>
      <trkpt lat="46.7143" lon="5.89179">
        <ele>663.7</ele>
        <time>2014-06-29T11:33:36Z</time>
      </trkpt>
      <trkpt lat="46.71421" lon="5.89189">
        <ele>664.4</ele>
        <time>2014-06-29T11:33:41Z</time>
      </trkpt>
      <trkpt lat="46.71413" lon="5.89198">
        <ele>665.4</ele>
        <time>2014-06-29T11:33:47Z</time>
      </trkpt>
      <trkpt lat="46.71404" lon="5.89205">
        <ele>666.5</ele>
        <time>2014-06-29T11:33:52Z</time>
      </trkpt>
      <trkpt lat="46.71395" lon="5.89211">
        <ele>667.4</ele>
        <time>2014-06-29T11:33:57Z</time>
      </trkpt>
      <trkpt lat="46.71386" lon="5.89218">
        <ele>668.5</ele>
        <time>2014-06-29T11:34:02Z</time>
      </trkpt>
      <trkpt lat="46.71378" lon="5.89226">
        <ele>669.6</ele>
        <time>2014-06-29T11:34:07Z</time>
      </trkpt>
      <trkpt lat="46.71372" lon="5.89239">
        <ele>670.6</ele>
        <time>2014-06-29T11:34:12Z</time>
      </trkpt>
      <trkpt lat="46.71373" lon="5.89274">
        <ele>673.1</ele>
        <time>2014-06-29T11:34:24Z</time>
      </trkpt>
      <trkpt lat="46.7138" lon="5.89285">
        <ele>674.2</ele>
        <time>2014-06-29T11:34:30Z</time>
      </trkpt>
      <trkpt lat="46.71388" lon="5.89293">
        <ele>675.2</ele>
        <time>2014-06-29T11:34:36Z</time>
      </trkpt>
      <trkpt lat="46.71398" lon="5.89296">
        <ele>676.6</ele>
        <time>2014-06-29T11:34:43Z</time>
      </trkpt>
      <trkpt lat="46.71408" lon="5.89295">
        <ele>676.9</ele>
        <time>2014-06-29T11:34:47Z</time>
      </trkpt>
      <trkpt lat="46.71418" lon="5.89294">
        <ele>677.3</ele>
        <time>2014-06-29T11:34:51Z</time>
      </trkpt>
      <trkpt lat="46.71429" lon="5.89294">
        <ele>678</ele>
        <time>2014-06-29T11:34:55Z</time>
      </trkpt>
      <trkpt lat="46.71438" lon="5.89296">
        <ele>678.1</ele>
        <time>2014-06-29T11:34:58Z</time>
      </trkpt>
      <trkpt lat="46.71447" lon="5.89298">
        <ele>678</ele>
        <time>2014-06-29T11:35:01Z</time>
      </trkpt>
      <trkpt lat="46.71458" lon="5.89299">
        <ele>678.2</ele>
        <time>2014-06-29T11:35:04Z</time>
      </trkpt>
      <trkpt lat="46.71468" lon="5.89302">
        <ele>678.3</ele>
        <time>2014-06-29T11:35:07Z</time>
      </trkpt>
      <trkpt lat="46.71479" lon="5.89306">
        <ele>678.5</ele>
        <time>2014-06-29T11:35:10Z</time>
      </trkpt>
      <trkpt lat="46.71487" lon="5.89312">
        <ele>678.7</ele>
        <time>2014-06-29T11:35:13Z</time>
      </trkpt>
      <trkpt lat="46.71505" lon="5.89325">
        <ele>679.4</ele>
        <time>2014-06-29T11:35:19Z</time>
      </trkpt>
      <trkpt lat="46.71512" lon="5.89335">
        <ele>679.6</ele>
        <time>2014-06-29T11:35:22Z</time>
      </trkpt>
      <trkpt lat="46.71522" lon="5.89346">
        <ele>679.9</ele>
        <time>2014-06-29T11:35:25Z</time>
      </trkpt>
      <trkpt lat="46.71528" lon="5.89358">
        <ele>680.2</ele>
        <time>2014-06-29T11:35:28Z</time>
      </trkpt>
      <trkpt lat="46.71534" lon="5.8937">
        <ele>680.6</ele>
        <time>2014-06-29T11:35:31Z</time>
      </trkpt>
      <trkpt lat="46.7154" lon="5.89383">
        <ele>680.7</ele>
        <time>2014-06-29T11:35:34Z</time>
      </trkpt>
      <trkpt lat="46.71546" lon="5.89395">
        <ele>681.2</ele>
        <time>2014-06-29T11:35:37Z</time>
      </trkpt>
      <trkpt lat="46.71552" lon="5.89406">
        <ele>681.6</ele>
        <time>2014-06-29T11:35:40Z</time>
      </trkpt>
      <trkpt lat="46.71559" lon="5.89417">
        <ele>681.7</ele>
        <time>2014-06-29T11:35:43Z</time>
      </trkpt>
      <trkpt lat="46.71566" lon="5.8943">
        <ele>682</ele>
        <time>2014-06-29T11:35:46Z</time>
      </trkpt>
      <trkpt lat="46.7157" lon="5.89444">
        <ele>682.1</ele>
        <time>2014-06-29T11:35:49Z</time>
      </trkpt>
      <trkpt lat="46.71572" lon="5.8946">
        <ele>682.2</ele>
        <time>2014-06-29T11:35:52Z</time>
      </trkpt>
      <trkpt lat="46.71574" lon="5.89477">
        <ele>682.6</ele>
        <time>2014-06-29T11:35:55Z</time>
      </trkpt>
      <trkpt lat="46.71572" lon="5.89492">
        <ele>682.7</ele>
        <time>2014-06-29T11:35:58Z</time>
      </trkpt>
      <trkpt lat="46.71571" lon="5.89508">
        <ele>682.9</ele>
        <time>2014-06-29T11:36:01Z</time>
      </trkpt>
      <trkpt lat="46.71572" lon="5.89524">
        <ele>683</ele>
        <time>2014-06-29T11:36:04Z</time>
      </trkpt>
      <trkpt lat="46.71573" lon="5.89539">
        <ele>683.1</ele>
        <time>2014-06-29T11:36:07Z</time>
      </trkpt>
      <trkpt lat="46.71573" lon="5.89553">
        <ele>683.4</ele>
        <time>2014-06-29T11:36:10Z</time>
      </trkpt>
      <trkpt lat="46.71573" lon="5.89567">
        <ele>683.7</ele>
        <time>2014-06-29T11:36:13Z</time>
      </trkpt>
      <trkpt lat="46.71572" lon="5.89582">
        <ele>684.2</ele>
        <time>2014-06-29T11:36:16Z</time>
      </trkpt>
      <trkpt lat="46.71565" lon="5.89611">
        <ele>685.3</ele>
        <time>2014-06-29T11:36:23Z</time>
      </trkpt>
      <trkpt lat="46.71565" lon="5.89625">
        <ele>685.8</ele>
        <time>2014-06-29T11:36:27Z</time>
      </trkpt>
      <trkpt lat="46.71565" lon="5.8964">
        <ele>686.9</ele>
        <time>2014-06-29T11:36:32Z</time>
      </trkpt>
      <trkpt lat="46.71561" lon="5.89652">
        <ele>687.5</ele>
        <time>2014-06-29T11:36:36Z</time>
      </trkpt>
      <trkpt lat="46.71559" lon="5.89666">
        <ele>688.2</ele>
        <time>2014-06-29T11:36:41Z</time>
      </trkpt>
      <trkpt lat="46.7156" lon="5.89681">
        <ele>688.6</ele>
        <time>2014-06-29T11:36:46Z</time>
      </trkpt>
      <trkpt lat="46.71559" lon="5.89695">
        <ele>689.3</ele>
        <time>2014-06-29T11:36:50Z</time>
      </trkpt>
      <trkpt lat="46.71558" lon="5.89711">
        <ele>689.7</ele>
        <time>2014-06-29T11:36:55Z</time>
      </trkpt>
      <trkpt lat="46.7156" lon="5.89724">
        <ele>690.6</ele>
        <time>2014-06-29T11:37:00Z</time>
      </trkpt>
      <trkpt lat="46.7156" lon="5.89738">
        <ele>691.4</ele>
        <time>2014-06-29T11:37:05Z</time>
      </trkpt>
      <trkpt lat="46.7156" lon="5.89752">
        <ele>692.2</ele>
        <time>2014-06-29T11:37:10Z</time>
      </trkpt>
      <trkpt lat="46.71562" lon="5.89767">
        <ele>692.7</ele>
        <time>2014-06-29T11:37:15Z</time>
      </trkpt>
      <trkpt lat="46.71568" lon="5.8978">
        <ele>693.6</ele>
        <time>2014-06-29T11:37:19Z</time>
      </trkpt>
      <trkpt lat="46.71573" lon="5.89807">
        <ele>695.5</ele>
        <time>2014-06-29T11:37:29Z</time>
      </trkpt>
      <trkpt lat="46.71575" lon="5.8982">
        <ele>696.5</ele>
        <time>2014-06-29T11:37:34Z</time>
      </trkpt>
      <trkpt lat="46.71579" lon="5.89834">
        <ele>697.2</ele>
        <time>2014-06-29T11:37:39Z</time>
      </trkpt>
      <trkpt lat="46.71581" lon="5.89848">
        <ele>698</ele>
        <time>2014-06-29T11:37:44Z</time>
      </trkpt>
      <trkpt lat="46.71585" lon="5.89861">
        <ele>698.5</ele>
        <time>2014-06-29T11:37:49Z</time>
      </trkpt>
      <trkpt lat="46.71586" lon="5.89874">
        <ele>699.2</ele>
        <time>2014-06-29T11:37:54Z</time>
      </trkpt>
      <trkpt lat="46.71587" lon="5.89888">
        <ele>699.9</ele>
        <time>2014-06-29T11:37:59Z</time>
      </trkpt>
      <trkpt lat="46.71587" lon="5.89901">
        <ele>700.8</ele>
        <time>2014-06-29T11:38:04Z</time>
      </trkpt>
      <trkpt lat="46.71588" lon="5.89915">
        <ele>701.6</ele>
        <time>2014-06-29T11:38:09Z</time>
      </trkpt>
      <trkpt lat="46.7159" lon="5.89929">
        <ele>702.4</ele>
        <time>2014-06-29T11:38:14Z</time>
      </trkpt>
      <trkpt lat="46.71595" lon="5.89944">
        <ele>703.2</ele>
        <time>2014-06-29T11:38:19Z</time>
      </trkpt>
      <trkpt lat="46.71601" lon="5.89956">
        <ele>703.9</ele>
        <time>2014-06-29T11:38:23Z</time>
      </trkpt>
      <trkpt lat="46.71609" lon="5.89982">
        <ele>705.3</ele>
        <time>2014-06-29T11:38:34Z</time>
      </trkpt>
      <trkpt lat="46.71614" lon="5.89994">
        <ele>706.1</ele>
        <time>2014-06-29T11:38:41Z</time>
      </trkpt>
      <trkpt lat="46.71621" lon="5.90004">
        <ele>706.7</ele>
        <time>2014-06-29T11:38:47Z</time>
      </trkpt>
      <trkpt lat="46.71629" lon="5.90013">
        <ele>707</ele>
        <time>2014-06-29T11:38:52Z</time>
      </trkpt>
      <trkpt lat="46.71636" lon="5.90022">
        <ele>707.8</ele>
        <time>2014-06-29T11:38:58Z</time>
      </trkpt>
      <trkpt lat="46.71645" lon="5.90033">
        <ele>708.4</ele>
        <time>2014-06-29T11:39:03Z</time>
      </trkpt>
      <trkpt lat="46.71652" lon="5.90043">
        <ele>708.4</ele>
        <time>2014-06-29T11:39:06Z</time>
      </trkpt>
      <trkpt lat="46.7166" lon="5.90055">
        <ele>708.4</ele>
        <time>2014-06-29T11:39:09Z</time>
      </trkpt>
      <trkpt lat="46.71666" lon="5.90064">
        <ele>708.5</ele>
        <time>2014-06-29T11:39:11Z</time>
      </trkpt>
      <trkpt lat="46.71675" lon="5.90077">
        <ele>708.7</ele>
        <time>2014-06-29T11:39:14Z</time>
      </trkpt>
      <trkpt lat="46.7168" lon="5.90088">
        <ele>708.8</ele>
        <time>2014-06-29T11:39:17Z</time>
      </trkpt>
      <trkpt lat="46.71684" lon="5.90099">
        <ele>708.9</ele>
        <time>2014-06-29T11:39:20Z</time>
      </trkpt>
      <trkpt lat="46.7169" lon="5.90111">
        <ele>709.3</ele>
        <time>2014-06-29T11:39:23Z</time>
      </trkpt>
      <trkpt lat="46.71696" lon="5.90125">
        <ele>709.4</ele>
        <time>2014-06-29T11:39:26Z</time>
      </trkpt>
      <trkpt lat="46.71706" lon="5.90152">
        <ele>709.2</ele>
        <time>2014-06-29T11:39:32Z</time>
      </trkpt>
      <trkpt lat="46.7171" lon="5.90167">
        <ele>708.9</ele>
        <time>2014-06-29T11:39:35Z</time>
      </trkpt>
      <trkpt lat="46.71715" lon="5.90182">
        <ele>708.9</ele>
        <time>2014-06-29T11:39:38Z</time>
      </trkpt>
      <trkpt lat="46.71721" lon="5.90192">
        <ele>708.7</ele>
        <time>2014-06-29T11:39:41Z</time>
      </trkpt>
      <trkpt lat="46.71732" lon="5.902">
        <ele>708.4</ele>
        <time>2014-06-29T11:39:44Z</time>
      </trkpt>
      <trkpt lat="46.71744" lon="5.90204">
        <ele>708.2</ele>
        <time>2014-06-29T11:39:47Z</time>
      </trkpt>
      <trkpt lat="46.71757" lon="5.90204">
        <ele>708.8</ele>
        <time>2014-06-29T11:39:50Z</time>
      </trkpt>
      <trkpt lat="46.7177" lon="5.90204">
        <ele>708.8</ele>
        <time>2014-06-29T11:39:53Z</time>
      </trkpt>
      <trkpt lat="46.71782" lon="5.90203">
        <ele>708.9</ele>
        <time>2014-06-29T11:39:56Z</time>
      </trkpt>
      <trkpt lat="46.71792" lon="5.90202">
        <ele>708.9</ele>
        <time>2014-06-29T11:39:58Z</time>
      </trkpt>
      <trkpt lat="46.71805" lon="5.90203">
        <ele>708.9</ele>
        <time>2014-06-29T11:40:01Z</time>
      </trkpt>
      <trkpt lat="46.71819" lon="5.90204">
        <ele>709.1</ele>
        <time>2014-06-29T11:40:04Z</time>
      </trkpt>
      <trkpt lat="46.7183" lon="5.90202">
        <ele>708.7</ele>
        <time>2014-06-29T11:40:07Z</time>
      </trkpt>
      <trkpt lat="46.71842" lon="5.90201">
        <ele>708.8</ele>
        <time>2014-06-29T11:40:10Z</time>
      </trkpt>
      <trkpt lat="46.71851" lon="5.90197">
        <ele>708.8</ele>
        <time>2014-06-29T11:40:12Z</time>
      </trkpt>
      <trkpt lat="46.71862" lon="5.90193">
        <ele>708.7</ele>
        <time>2014-06-29T11:40:15Z</time>
      </trkpt>
      <trkpt lat="46.71873" lon="5.90189">
        <ele>708.6</ele>
        <time>2014-06-29T11:40:18Z</time>
      </trkpt>
      <trkpt lat="46.71882" lon="5.90187">
        <ele>708.4</ele>
        <time>2014-06-29T11:40:20Z</time>
      </trkpt>
      <trkpt lat="46.71892" lon="5.90187">
        <ele>708.4</ele>
        <time>2014-06-29T11:40:22Z</time>
      </trkpt>
      <trkpt lat="46.71903" lon="5.90185">
        <ele>708.6</ele>
        <time>2014-06-29T11:40:24Z</time>
      </trkpt>
      <trkpt lat="46.71913" lon="5.90185">
        <ele>708.5</ele>
        <time>2014-06-29T11:40:26Z</time>
      </trkpt>
      <trkpt lat="46.71924" lon="5.90183">
        <ele>708.3</ele>
        <time>2014-06-29T11:40:28Z</time>
      </trkpt>
      <trkpt lat="46.71946" lon="5.90181">
        <ele>707.7</ele>
        <time>2014-06-29T11:40:32Z</time>
      </trkpt>
      <trkpt lat="46.71957" lon="5.90178">
        <ele>707.6</ele>
        <time>2014-06-29T11:40:34Z</time>
      </trkpt>
      <trkpt lat="46.71968" lon="5.90175">
        <ele>707.2</ele>
        <time>2014-06-29T11:40:36Z</time>
      </trkpt>
      <trkpt lat="46.7198" lon="5.90174">
        <ele>707.4</ele>
        <time>2014-06-29T11:40:38Z</time>
      </trkpt>
      <trkpt lat="46.71991" lon="5.90176">
        <ele>707</ele>
        <time>2014-06-29T11:40:40Z</time>
      </trkpt>
      <trkpt lat="46.72001" lon="5.90181">
        <ele>706.8</ele>
        <time>2014-06-29T11:40:42Z</time>
      </trkpt>
      <trkpt lat="46.72009" lon="5.90195">
        <ele>707</ele>
        <time>2014-06-29T11:40:44Z</time>
      </trkpt>
      <trkpt lat="46.72016" lon="5.9021">
        <ele>706.8</ele>
        <time>2014-06-29T11:40:46Z</time>
      </trkpt>
      <trkpt lat="46.72022" lon="5.90224">
        <ele>706.6</ele>
        <time>2014-06-29T11:40:48Z</time>
      </trkpt>
      <trkpt lat="46.72031" lon="5.90237">
        <ele>706.3</ele>
        <time>2014-06-29T11:40:50Z</time>
      </trkpt>
      <trkpt lat="46.7204" lon="5.90246">
        <ele>705.8</ele>
        <time>2014-06-29T11:40:52Z</time>
      </trkpt>
      <trkpt lat="46.72052" lon="5.90253">
        <ele>705.5</ele>
        <time>2014-06-29T11:40:54Z</time>
      </trkpt>
      <trkpt lat="46.72062" lon="5.90261">
        <ele>705.4</ele>
        <time>2014-06-29T11:40:56Z</time>
      </trkpt>
      <trkpt lat="46.72071" lon="5.90267">
        <ele>705.5</ele>
        <time>2014-06-29T11:40:58Z</time>
      </trkpt>
      <trkpt lat="46.7208" lon="5.90274">
        <ele>705.5</ele>
        <time>2014-06-29T11:41:00Z</time>
      </trkpt>
      <trkpt lat="46.7209" lon="5.9028">
        <ele>705.3</ele>
        <time>2014-06-29T11:41:02Z</time>
      </trkpt>
      <trkpt lat="46.721" lon="5.90287">
        <ele>705.1</ele>
        <time>2014-06-29T11:41:04Z</time>
      </trkpt>
      <trkpt lat="46.7211" lon="5.90295">
        <ele>705.1</ele>
        <time>2014-06-29T11:41:06Z</time>
      </trkpt>
      <trkpt lat="46.72122" lon="5.90303">
        <ele>704.9</ele>
        <time>2014-06-29T11:41:08Z</time>
      </trkpt>
      <trkpt lat="46.72132" lon="5.90311">
        <ele>704.8</ele>
        <time>2014-06-29T11:41:10Z</time>
      </trkpt>
      <trkpt lat="46.72142" lon="5.9032">
        <ele>704.6</ele>
        <time>2014-06-29T11:41:12Z</time>
      </trkpt>
      <trkpt lat="46.72151" lon="5.90327">
        <ele>704.5</ele>
        <time>2014-06-29T11:41:14Z</time>
      </trkpt>
      <trkpt lat="46.72162" lon="5.90335">
        <ele>704.2</ele>
        <time>2014-06-29T11:41:17Z</time>
      </trkpt>
      <trkpt lat="46.72175" lon="5.90328">
        <ele>704.4</ele>
        <time>2014-06-29T11:41:20Z</time>
      </trkpt>
      <trkpt lat="46.72185" lon="5.90317">
        <ele>704.3</ele>
        <time>2014-06-29T11:41:22Z</time>
      </trkpt>
      <trkpt lat="46.72193" lon="5.90304">
        <ele>704</ele>
        <time>2014-06-29T11:41:24Z</time>
      </trkpt>
      <trkpt lat="46.72201" lon="5.90287">
        <ele>703.7</ele>
        <time>2014-06-29T11:41:26Z</time>
      </trkpt>
      <trkpt lat="46.72208" lon="5.90272">
        <ele>703.5</ele>
        <time>2014-06-29T11:41:28Z</time>
      </trkpt>
      <trkpt lat="46.72218" lon="5.90259">
        <ele>703.1</ele>
        <time>2014-06-29T11:41:30Z</time>
      </trkpt>
      <trkpt lat="46.72239" lon="5.90236">
        <ele>702</ele>
        <time>2014-06-29T11:41:34Z</time>
      </trkpt>
      <trkpt lat="46.72252" lon="5.90225">
        <ele>701.9</ele>
        <time>2014-06-29T11:41:36Z</time>
      </trkpt>
      <trkpt lat="46.72262" lon="5.90213">
        <ele>701.6</ele>
        <time>2014-06-29T11:41:38Z</time>
      </trkpt>
      <trkpt lat="46.7227" lon="5.90201">
        <ele>701.6</ele>
        <time>2014-06-29T11:41:40Z</time>
      </trkpt>
      <trkpt lat="46.72277" lon="5.90189">
        <ele>701.5</ele>
        <time>2014-06-29T11:41:42Z</time>
      </trkpt>
      <trkpt lat="46.72284" lon="5.90178">
        <ele>701.6</ele>
        <time>2014-06-29T11:41:44Z</time>
      </trkpt>
      <trkpt lat="46.72289" lon="5.90166">
        <ele>701.8</ele>
        <time>2014-06-29T11:41:46Z</time>
      </trkpt>
      <trkpt lat="46.72298" lon="5.90152">
        <ele>702.1</ele>
        <time>2014-06-29T11:41:49Z</time>
      </trkpt>
      <trkpt lat="46.72308" lon="5.9014">
        <ele>702.3</ele>
        <time>2014-06-29T11:41:52Z</time>
      </trkpt>
      <trkpt lat="46.72321" lon="5.90135">
        <ele>702.2</ele>
        <time>2014-06-29T11:41:55Z</time>
      </trkpt>
      <trkpt lat="46.72332" lon="5.90134">
        <ele>702.3</ele>
        <time>2014-06-29T11:41:57Z</time>
      </trkpt>
      <trkpt lat="46.72342" lon="5.90133">
        <ele>702.4</ele>
        <time>2014-06-29T11:41:59Z</time>
      </trkpt>
      <trkpt lat="46.72352" lon="5.90134">
        <ele>702.4</ele>
        <time>2014-06-29T11:42:01Z</time>
      </trkpt>
      <trkpt lat="46.72363" lon="5.90134">
        <ele>702.5</ele>
        <time>2014-06-29T11:42:03Z</time>
      </trkpt>
      <trkpt lat="46.72372" lon="5.90133">
        <ele>702.2</ele>
        <time>2014-06-29T11:42:05Z</time>
      </trkpt>
      <trkpt lat="46.72383" lon="5.90133">
        <ele>702.1</ele>
        <time>2014-06-29T11:42:07Z</time>
      </trkpt>
      <trkpt lat="46.72394" lon="5.90134">
        <ele>701.9</ele>
        <time>2014-06-29T11:42:09Z</time>
      </trkpt>
      <trkpt lat="46.72404" lon="5.90134">
        <ele>701.8</ele>
        <time>2014-06-29T11:42:11Z</time>
      </trkpt>
      <trkpt lat="46.72418" lon="5.90136">
        <ele>701.8</ele>
        <time>2014-06-29T11:42:14Z</time>
      </trkpt>
      <trkpt lat="46.72427" lon="5.90137">
        <ele>702</ele>
        <time>2014-06-29T11:42:16Z</time>
      </trkpt>
      <trkpt lat="46.72437" lon="5.90138">
        <ele>701.9</ele>
        <time>2014-06-29T11:42:18Z</time>
      </trkpt>
      <trkpt lat="46.72447" lon="5.9014">
        <ele>702.1</ele>
        <time>2014-06-29T11:42:20Z</time>
      </trkpt>
      <trkpt lat="46.72457" lon="5.90141">
        <ele>702.3</ele>
        <time>2014-06-29T11:42:22Z</time>
      </trkpt>
      <trkpt lat="46.72466" lon="5.9014">
        <ele>702.1</ele>
        <time>2014-06-29T11:42:24Z</time>
      </trkpt>
      <trkpt lat="46.72475" lon="5.90139">
        <ele>702</ele>
        <time>2014-06-29T11:42:26Z</time>
      </trkpt>
      <trkpt lat="46.72487" lon="5.90137">
        <ele>701.9</ele>
        <time>2014-06-29T11:42:28Z</time>
      </trkpt>
      <trkpt lat="46.72497" lon="5.90133">
        <ele>702.1</ele>
        <time>2014-06-29T11:42:30Z</time>
      </trkpt>
      <trkpt lat="46.72507" lon="5.9013">
        <ele>701.9</ele>
        <time>2014-06-29T11:42:32Z</time>
      </trkpt>
      <trkpt lat="46.72527" lon="5.90124">
        <ele>701.6</ele>
        <time>2014-06-29T11:42:36Z</time>
      </trkpt>
      <trkpt lat="46.72538" lon="5.90121">
        <ele>701.7</ele>
        <time>2014-06-29T11:42:38Z</time>
      </trkpt>
      <trkpt lat="46.72548" lon="5.90117">
        <ele>701.9</ele>
        <time>2014-06-29T11:42:40Z</time>
      </trkpt>
      <trkpt lat="46.72558" lon="5.90112">
        <ele>701.6</ele>
        <time>2014-06-29T11:42:42Z</time>
      </trkpt>
      <trkpt lat="46.72568" lon="5.90105">
        <ele>701.7</ele>
        <time>2014-06-29T11:42:44Z</time>
      </trkpt>
      <trkpt lat="46.72577" lon="5.90097">
        <ele>701.9</ele>
        <time>2014-06-29T11:42:46Z</time>
      </trkpt>
      <trkpt lat="46.72584" lon="5.90089">
        <ele>702.2</ele>
        <time>2014-06-29T11:42:48Z</time>
      </trkpt>
      <trkpt lat="46.72592" lon="5.9008">
        <ele>702.4</ele>
        <time>2014-06-29T11:42:51Z</time>
      </trkpt>
      <trkpt lat="46.726" lon="5.90071">
        <ele>702.7</ele>
        <time>2014-06-29T11:42:54Z</time>
      </trkpt>
      <trkpt lat="46.72607" lon="5.9006">
        <ele>702.9</ele>
        <time>2014-06-29T11:42:57Z</time>
      </trkpt>
      <trkpt lat="46.72614" lon="5.90047">
        <ele>703.4</ele>
        <time>2014-06-29T11:43:00Z</time>
      </trkpt>
      <trkpt lat="46.72619" lon="5.90034">
        <ele>703.4</ele>
        <time>2014-06-29T11:43:03Z</time>
      </trkpt>
      <trkpt lat="46.72623" lon="5.90021">
        <ele>704.3</ele>
        <time>2014-06-29T11:43:07Z</time>
      </trkpt>
      <trkpt lat="46.72627" lon="5.90006">
        <ele>705.4</ele>
        <time>2014-06-29T11:43:12Z</time>
      </trkpt>
      <trkpt lat="46.72632" lon="5.89993">
        <ele>706.5</ele>
        <time>2014-06-29T11:43:17Z</time>
      </trkpt>
      <trkpt lat="46.72634" lon="5.8998">
        <ele>706.4</ele>
        <time>2014-06-29T11:43:21Z</time>
      </trkpt>
      <trkpt lat="46.72636" lon="5.89963">
        <ele>706.8</ele>
        <time>2014-06-29T11:43:25Z</time>
      </trkpt>
      <trkpt lat="46.72638" lon="5.8995">
        <ele>707.1</ele>
        <time>2014-06-29T11:43:28Z</time>
      </trkpt>
      <trkpt lat="46.7264" lon="5.89934">
        <ele>707.4</ele>
        <time>2014-06-29T11:43:31Z</time>
      </trkpt>
      <trkpt lat="46.72643" lon="5.8992">
        <ele>707.4</ele>
        <time>2014-06-29T11:43:34Z</time>
      </trkpt>
      <trkpt lat="46.72652" lon="5.89887">
        <ele>707.5</ele>
        <time>2014-06-29T11:43:40Z</time>
      </trkpt>
      <trkpt lat="46.72657" lon="5.89874">
        <ele>706.9</ele>
        <time>2014-06-29T11:43:42Z</time>
      </trkpt>
      <trkpt lat="46.72664" lon="5.8986">
        <ele>706.3</ele>
        <time>2014-06-29T11:43:44Z</time>
      </trkpt>
      <trkpt lat="46.72672" lon="5.89845">
        <ele>705.6</ele>
        <time>2014-06-29T11:43:46Z</time>
      </trkpt>
      <trkpt lat="46.72681" lon="5.8983">
        <ele>704.9</ele>
        <time>2014-06-29T11:43:48Z</time>
      </trkpt>
      <trkpt lat="46.72691" lon="5.89816">
        <ele>704.5</ele>
        <time>2014-06-29T11:43:50Z</time>
      </trkpt>
      <trkpt lat="46.72703" lon="5.89804">
        <ele>704.1</ele>
        <time>2014-06-29T11:43:52Z</time>
      </trkpt>
      <trkpt lat="46.72714" lon="5.8979">
        <ele>703.5</ele>
        <time>2014-06-29T11:43:54Z</time>
      </trkpt>
      <trkpt lat="46.72725" lon="5.89774">
        <ele>703.1</ele>
        <time>2014-06-29T11:43:56Z</time>
      </trkpt>
      <trkpt lat="46.72736" lon="5.89759">
        <ele>702.2</ele>
        <time>2014-06-29T11:43:58Z</time>
      </trkpt>
      <trkpt lat="46.72749" lon="5.89746">
        <ele>701.4</ele>
        <time>2014-06-29T11:44:00Z</time>
      </trkpt>
      <trkpt lat="46.72761" lon="5.89731">
        <ele>700.8</ele>
        <time>2014-06-29T11:44:02Z</time>
      </trkpt>
      <trkpt lat="46.72773" lon="5.89721">
        <ele>700.5</ele>
        <time>2014-06-29T11:44:04Z</time>
      </trkpt>
      <trkpt lat="46.72783" lon="5.89711">
        <ele>700.3</ele>
        <time>2014-06-29T11:44:06Z</time>
      </trkpt>
      <trkpt lat="46.72793" lon="5.89701">
        <ele>700.2</ele>
        <time>2014-06-29T11:44:08Z</time>
      </trkpt>
      <trkpt lat="46.72803" lon="5.89691">
        <ele>700</ele>
        <time>2014-06-29T11:44:10Z</time>
      </trkpt>
      <trkpt lat="46.72813" lon="5.89682">
        <ele>699.8</ele>
        <time>2014-06-29T11:44:12Z</time>
      </trkpt>
      <trkpt lat="46.72823" lon="5.89671">
        <ele>699.6</ele>
        <time>2014-06-29T11:44:14Z</time>
      </trkpt>
      <trkpt lat="46.72832" lon="5.89657">
        <ele>699.4</ele>
        <time>2014-06-29T11:44:16Z</time>
      </trkpt>
      <trkpt lat="46.7284" lon="5.89643">
        <ele>699</ele>
        <time>2014-06-29T11:44:18Z</time>
      </trkpt>
      <trkpt lat="46.72841" lon="5.89626">
        <ele>699</ele>
        <time>2014-06-29T11:44:21Z</time>
      </trkpt>
      <trkpt lat="46.72838" lon="5.89613">
        <ele>699.9</ele>
        <time>2014-06-29T11:44:27Z</time>
      </trkpt>
      <trkpt lat="46.72836" lon="5.896">
        <ele>700.7</ele>
        <time>2014-06-29T11:44:33Z</time>
      </trkpt>
      <trkpt lat="46.72834" lon="5.89585">
        <ele>702.3</ele>
        <time>2014-06-29T11:44:39Z</time>
      </trkpt>
      <trkpt lat="46.72842" lon="5.89559">
        <ele>704</ele>
        <time>2014-06-29T11:44:50Z</time>
      </trkpt>
      <trkpt lat="46.7285" lon="5.8955">
        <ele>705.8</ele>
        <time>2014-06-29T11:44:58Z</time>
      </trkpt>
      <trkpt lat="46.72858" lon="5.89545">
        <ele>706.9</ele>
        <time>2014-06-29T11:45:03Z</time>
      </trkpt>
      <trkpt lat="46.72868" lon="5.89542">
        <ele>707.4</ele>
        <time>2014-06-29T11:45:09Z</time>
      </trkpt>
      <trkpt lat="46.72877" lon="5.89539">
        <ele>708.3</ele>
        <time>2014-06-29T11:45:14Z</time>
      </trkpt>
      <trkpt lat="46.72887" lon="5.89533">
        <ele>708.4</ele>
        <time>2014-06-29T11:45:19Z</time>
      </trkpt>
      <trkpt lat="46.72897" lon="5.89533">
        <ele>708.7</ele>
        <time>2014-06-29T11:45:24Z</time>
      </trkpt>
      <trkpt lat="46.72907" lon="5.89538">
        <ele>709.3</ele>
        <time>2014-06-29T11:45:30Z</time>
      </trkpt>
      <trkpt lat="46.72916" lon="5.89545">
        <ele>710.4</ele>
        <time>2014-06-29T11:45:35Z</time>
      </trkpt>
      <trkpt lat="46.72925" lon="5.89555">
        <ele>711.1</ele>
        <time>2014-06-29T11:45:40Z</time>
      </trkpt>
      <trkpt lat="46.72943" lon="5.89565">
        <ele>712.2</ele>
        <time>2014-06-29T11:45:51Z</time>
      </trkpt>
      <trkpt lat="46.72952" lon="5.89563">
        <ele>712.2</ele>
        <time>2014-06-29T11:45:55Z</time>
      </trkpt>
      <trkpt lat="46.72963" lon="5.89565">
        <ele>712.7</ele>
        <time>2014-06-29T11:46:00Z</time>
      </trkpt>
      <trkpt lat="46.72974" lon="5.8957">
        <ele>712.9</ele>
        <time>2014-06-29T11:46:05Z</time>
      </trkpt>
      <trkpt lat="46.72985" lon="5.89573">
        <ele>713.4</ele>
        <time>2014-06-29T11:46:09Z</time>
      </trkpt>
      <trkpt lat="46.72996" lon="5.89573">
        <ele>714</ele>
        <time>2014-06-29T11:46:14Z</time>
      </trkpt>
      <trkpt lat="46.73006" lon="5.89573">
        <ele>714.2</ele>
        <time>2014-06-29T11:46:18Z</time>
      </trkpt>
      <trkpt lat="46.73015" lon="5.89573">
        <ele>714.6</ele>
        <time>2014-06-29T11:46:23Z</time>
      </trkpt>
      <trkpt lat="46.73025" lon="5.89568">
        <ele>715.2</ele>
        <time>2014-06-29T11:46:27Z</time>
      </trkpt>
      <trkpt lat="46.73035" lon="5.8956">
        <ele>715.2</ele>
        <time>2014-06-29T11:46:31Z</time>
      </trkpt>
      <trkpt lat="46.73045" lon="5.89555">
        <ele>715.3</ele>
        <time>2014-06-29T11:46:34Z</time>
      </trkpt>
      <trkpt lat="46.73054" lon="5.89551">
        <ele>715.7</ele>
        <time>2014-06-29T11:46:36Z</time>
      </trkpt>
      <trkpt lat="46.73064" lon="5.89547">
        <ele>716.1</ele>
        <time>2014-06-29T11:46:39Z</time>
      </trkpt>
      <trkpt lat="46.73074" lon="5.8954">
        <ele>716.1</ele>
        <time>2014-06-29T11:46:42Z</time>
      </trkpt>
      <trkpt lat="46.73095" lon="5.89531">
        <ele>716.3</ele>
        <time>2014-06-29T11:46:49Z</time>
      </trkpt>
      <trkpt lat="46.73101" lon="5.89542">
        <ele>715.9</ele>
        <time>2014-06-29T11:46:51Z</time>
      </trkpt>
      <trkpt lat="46.73109" lon="5.89553">
        <ele>714.9</ele>
        <time>2014-06-29T11:46:53Z</time>
      </trkpt>
      <trkpt lat="46.73116" lon="5.89564">
        <ele>713.4</ele>
        <time>2014-06-29T11:46:55Z</time>
      </trkpt>
      <trkpt lat="46.73122" lon="5.89576">
        <ele>712.7</ele>
        <time>2014-06-29T11:46:57Z</time>
      </trkpt>
      <trkpt lat="46.73128" lon="5.89586">
        <ele>711.8</ele>
        <time>2014-06-29T11:46:59Z</time>
      </trkpt>
      <trkpt lat="46.7313" lon="5.89602">
        <ele>709.8</ele>
        <time>2014-06-29T11:47:02Z</time>
      </trkpt>
      <trkpt lat="46.73124" lon="5.89611">
        <ele>707.9</ele>
        <time>2014-06-29T11:47:05Z</time>
      </trkpt>
      <trkpt lat="46.73112" lon="5.89618">
        <ele>706.9</ele>
        <time>2014-06-29T11:47:09Z</time>
      </trkpt>
      <trkpt lat="46.73103" lon="5.89623">
        <ele>706.5</ele>
        <time>2014-06-29T11:47:12Z</time>
      </trkpt>
      <trkpt lat="46.73091" lon="5.8963">
        <ele>706.5</ele>
        <time>2014-06-29T11:47:15Z</time>
      </trkpt>
      <trkpt lat="46.73079" lon="5.89636">
        <ele>706.4</ele>
        <time>2014-06-29T11:47:18Z</time>
      </trkpt>
      <trkpt lat="46.73069" lon="5.89641">
        <ele>705.9</ele>
        <time>2014-06-29T11:47:20Z</time>
      </trkpt>
      <trkpt lat="46.73061" lon="5.89646">
        <ele>705.4</ele>
        <time>2014-06-29T11:47:22Z</time>
      </trkpt>
      <trkpt lat="46.7305" lon="5.8965">
        <ele>704.9</ele>
        <time>2014-06-29T11:47:25Z</time>
      </trkpt>
      <trkpt lat="46.7304" lon="5.89654">
        <ele>704.7</ele>
        <time>2014-06-29T11:47:28Z</time>
      </trkpt>
      <trkpt lat="46.73029" lon="5.89659">
        <ele>704.6</ele>
        <time>2014-06-29T11:47:31Z</time>
      </trkpt>
      <trkpt lat="46.73016" lon="5.89667">
        <ele>704.7</ele>
        <time>2014-06-29T11:47:34Z</time>
      </trkpt>
      <trkpt lat="46.73007" lon="5.89671">
        <ele>704.5</ele>
        <time>2014-06-29T11:47:36Z</time>
      </trkpt>
      <trkpt lat="46.72996" lon="5.89674">
        <ele>704.3</ele>
        <time>2014-06-29T11:47:38Z</time>
      </trkpt>
      <trkpt lat="46.72985" lon="5.89676">
        <ele>704.1</ele>
        <time>2014-06-29T11:47:40Z</time>
      </trkpt>
      <trkpt lat="46.72974" lon="5.89685">
        <ele>703.4</ele>
        <time>2014-06-29T11:47:43Z</time>
      </trkpt>
      <trkpt lat="46.72958" lon="5.89701">
        <ele>701.4</ele>
        <time>2014-06-29T11:47:47Z</time>
      </trkpt>
      <trkpt lat="46.72949" lon="5.8971">
        <ele>699.7</ele>
        <time>2014-06-29T11:47:50Z</time>
      </trkpt>
      <trkpt lat="46.72941" lon="5.89719">
        <ele>698.4</ele>
        <time>2014-06-29T11:47:52Z</time>
      </trkpt>
      <trkpt lat="46.72931" lon="5.89726">
        <ele>697.4</ele>
        <time>2014-06-29T11:47:54Z</time>
      </trkpt>
      <trkpt lat="46.72922" lon="5.89734">
        <ele>696.3</ele>
        <time>2014-06-29T11:47:56Z</time>
      </trkpt>
      <trkpt lat="46.72912" lon="5.89744">
        <ele>695</ele>
        <time>2014-06-29T11:47:59Z</time>
      </trkpt>
      <trkpt lat="46.72906" lon="5.89755">
        <ele>693.1</ele>
        <time>2014-06-29T11:48:02Z</time>
      </trkpt>
      <trkpt lat="46.72902" lon="5.89766">
        <ele>691.7</ele>
        <time>2014-06-29T11:48:05Z</time>
      </trkpt>
      <trkpt lat="46.72897" lon="5.89778">
        <ele>690.1</ele>
        <time>2014-06-29T11:48:08Z</time>
      </trkpt>
      <trkpt lat="46.72891" lon="5.89793">
        <ele>688.2</ele>
        <time>2014-06-29T11:48:11Z</time>
      </trkpt>
      <trkpt lat="46.72886" lon="5.89805">
        <ele>686.1</ele>
        <time>2014-06-29T11:48:14Z</time>
      </trkpt>
      <trkpt lat="46.72885" lon="5.89819">
        <ele>684.5</ele>
        <time>2014-06-29T11:48:17Z</time>
      </trkpt>
      <trkpt lat="46.72884" lon="5.89837">
        <ele>683.2</ele>
        <time>2014-06-29T11:48:20Z</time>
      </trkpt>
      <trkpt lat="46.72879" lon="5.89856">
        <ele>681.8</ele>
        <time>2014-06-29T11:48:23Z</time>
      </trkpt>
      <trkpt lat="46.72873" lon="5.89868">
        <ele>680.9</ele>
        <time>2014-06-29T11:48:25Z</time>
      </trkpt>
      <trkpt lat="46.72865" lon="5.89879">
        <ele>679.6</ele>
        <time>2014-06-29T11:48:27Z</time>
      </trkpt>
      <trkpt lat="46.72856" lon="5.89888">
        <ele>678.4</ele>
        <time>2014-06-29T11:48:29Z</time>
      </trkpt>
      <trkpt lat="46.72845" lon="5.89896">
        <ele>677.5</ele>
        <time>2014-06-29T11:48:31Z</time>
      </trkpt>
      <trkpt lat="46.72834" lon="5.89902">
        <ele>676.4</ele>
        <time>2014-06-29T11:48:33Z</time>
      </trkpt>
      <trkpt lat="46.72822" lon="5.89906">
        <ele>675.7</ele>
        <time>2014-06-29T11:48:35Z</time>
      </trkpt>
      <trkpt lat="46.72809" lon="5.89912">
        <ele>675</ele>
        <time>2014-06-29T11:48:37Z</time>
      </trkpt>
      <trkpt lat="46.72801" lon="5.89918">
        <ele>674.4</ele>
        <time>2014-06-29T11:48:39Z</time>
      </trkpt>
      <trkpt lat="46.72791" lon="5.89928">
        <ele>673.8</ele>
        <time>2014-06-29T11:48:41Z</time>
      </trkpt>
      <trkpt lat="46.72785" lon="5.89937">
        <ele>673.4</ele>
        <time>2014-06-29T11:48:43Z</time>
      </trkpt>
      <trkpt lat="46.72785" lon="5.89952">
        <ele>672.8</ele>
        <time>2014-06-29T11:48:46Z</time>
      </trkpt>
      <trkpt lat="46.72806" lon="5.89953">
        <ele>669.9</ele>
        <time>2014-06-29T11:48:54Z</time>
      </trkpt>
      <trkpt lat="46.72818" lon="5.89955">
        <ele>669</ele>
        <time>2014-06-29T11:48:57Z</time>
      </trkpt>
      <trkpt lat="46.72827" lon="5.89958">
        <ele>667.8</ele>
        <time>2014-06-29T11:49:00Z</time>
      </trkpt>
      <trkpt lat="46.72837" lon="5.89962">
        <ele>666.3</ele>
        <time>2014-06-29T11:49:03Z</time>
      </trkpt>
      <trkpt lat="46.72846" lon="5.89964">
        <ele>665.3</ele>
        <time>2014-06-29T11:49:05Z</time>
      </trkpt>
      <trkpt lat="46.72859" lon="5.89968">
        <ele>663.7</ele>
        <time>2014-06-29T11:49:08Z</time>
      </trkpt>
      <trkpt lat="46.7287" lon="5.89969">
        <ele>662.9</ele>
        <time>2014-06-29T11:49:10Z</time>
      </trkpt>
      <trkpt lat="46.72882" lon="5.89968">
        <ele>662.1</ele>
        <time>2014-06-29T11:49:13Z</time>
      </trkpt>
      <trkpt lat="46.72893" lon="5.89967">
        <ele>660.8</ele>
        <time>2014-06-29T11:49:16Z</time>
      </trkpt>
      <trkpt lat="46.72903" lon="5.89966">
        <ele>659.8</ele>
        <time>2014-06-29T11:49:19Z</time>
      </trkpt>
      <trkpt lat="46.72914" lon="5.89961">
        <ele>658.1</ele>
        <time>2014-06-29T11:49:23Z</time>
      </trkpt>
      <trkpt lat="46.72922" lon="5.89954">
        <ele>656.5</ele>
        <time>2014-06-29T11:49:26Z</time>
      </trkpt>
      <trkpt lat="46.72931" lon="5.89948">
        <ele>655</ele>
        <time>2014-06-29T11:49:29Z</time>
      </trkpt>
      <trkpt lat="46.72939" lon="5.8994">
        <ele>653</ele>
        <time>2014-06-29T11:49:33Z</time>
      </trkpt>
      <trkpt lat="46.72946" lon="5.89929">
        <ele>649.8</ele>
        <time>2014-06-29T11:49:39Z</time>
      </trkpt>
      <trkpt lat="46.72955" lon="5.8992">
        <ele>647.6</ele>
        <time>2014-06-29T11:49:44Z</time>
      </trkpt>
      <trkpt lat="46.72963" lon="5.8991">
        <ele>644.9</ele>
        <time>2014-06-29T11:49:50Z</time>
      </trkpt>
      <trkpt lat="46.72981" lon="5.89897">
        <ele>639.8</ele>
        <time>2014-06-29T11:50:02Z</time>
      </trkpt>
      <trkpt lat="46.72992" lon="5.89892">
        <ele>636.5</ele>
        <time>2014-06-29T11:50:08Z</time>
      </trkpt>
      <trkpt lat="46.73001" lon="5.89889">
        <ele>634.7</ele>
        <time>2014-06-29T11:50:12Z</time>
      </trkpt>
      <trkpt lat="46.73011" lon="5.89885">
        <ele>633.1</ele>
        <time>2014-06-29T11:50:16Z</time>
      </trkpt>
      <trkpt lat="46.7302" lon="5.8988">
        <ele>631.3</ele>
        <time>2014-06-29T11:50:20Z</time>
      </trkpt>
      <trkpt lat="46.73028" lon="5.89877">
        <ele>629.7</ele>
        <time>2014-06-29T11:50:24Z</time>
      </trkpt>
      <trkpt lat="46.7304" lon="5.89874">
        <ele>627.7</ele>
        <time>2014-06-29T11:50:28Z</time>
      </trkpt>
      <trkpt lat="46.7305" lon="5.89872">
        <ele>625.1</ele>
        <time>2014-06-29T11:50:33Z</time>
      </trkpt>
      <trkpt lat="46.73061" lon="5.89869">
        <ele>623</ele>
        <time>2014-06-29T11:50:37Z</time>
      </trkpt>
      <trkpt lat="46.73071" lon="5.89867">
        <ele>621.7</ele>
        <time>2014-06-29T11:50:40Z</time>
      </trkpt>
      <trkpt lat="46.7308" lon="5.89865">
        <ele>619.5</ele>
        <time>2014-06-29T11:50:43Z</time>
      </trkpt>
      <trkpt lat="46.73091" lon="5.89859">
        <ele>617.1</ele>
        <time>2014-06-29T11:50:47Z</time>
      </trkpt>
      <trkpt lat="46.73101" lon="5.89852">
        <ele>613.7</ele>
        <time>2014-06-29T11:50:53Z</time>
      </trkpt>
      <trkpt lat="46.73121" lon="5.89847">
        <ele>609.6</ele>
        <time>2014-06-29T11:51:01Z</time>
      </trkpt>
      <trkpt lat="46.73132" lon="5.89843">
        <ele>607.1</ele>
        <time>2014-06-29T11:51:06Z</time>
      </trkpt>
      <trkpt lat="46.73143" lon="5.89839">
        <ele>604.5</ele>
        <time>2014-06-29T11:51:10Z</time>
      </trkpt>
      <trkpt lat="46.73152" lon="5.89843">
        <ele>603</ele>
        <time>2014-06-29T11:51:13Z</time>
      </trkpt>
      <trkpt lat="46.7316" lon="5.89851">
        <ele>600.8</ele>
        <time>2014-06-29T11:51:17Z</time>
      </trkpt>
      <trkpt lat="46.73168" lon="5.89866">
        <ele>599.2</ele>
        <time>2014-06-29T11:51:21Z</time>
      </trkpt>
      <trkpt lat="46.73177" lon="5.89878">
        <ele>597.2</ele>
        <time>2014-06-29T11:51:24Z</time>
      </trkpt>
      <trkpt lat="46.73187" lon="5.89882">
        <ele>595.6</ele>
        <time>2014-06-29T11:51:27Z</time>
      </trkpt>
      <trkpt lat="46.73197" lon="5.8988">
        <ele>593.7</ele>
        <time>2014-06-29T11:51:30Z</time>
      </trkpt>
      <trkpt lat="46.73207" lon="5.89873">
        <ele>592.2</ele>
        <time>2014-06-29T11:51:33Z</time>
      </trkpt>
      <trkpt lat="46.73218" lon="5.89865">
        <ele>590.8</ele>
        <time>2014-06-29T11:51:36Z</time>
      </trkpt>
      <trkpt lat="46.73226" lon="5.89858">
        <ele>589.4</ele>
        <time>2014-06-29T11:51:39Z</time>
      </trkpt>
      <trkpt lat="46.73234" lon="5.89849">
        <ele>588</ele>
        <time>2014-06-29T11:51:42Z</time>
      </trkpt>
      <trkpt lat="46.73243" lon="5.89839">
        <ele>585.6</ele>
        <time>2014-06-29T11:51:45Z</time>
      </trkpt>
      <trkpt lat="46.73253" lon="5.89829">
        <ele>583.6</ele>
        <time>2014-06-29T11:51:48Z</time>
      </trkpt>
      <trkpt lat="46.73262" lon="5.89821">
        <ele>581.5</ele>
        <time>2014-06-29T11:51:51Z</time>
      </trkpt>
      <trkpt lat="46.73273" lon="5.89812">
        <ele>579.8</ele>
        <time>2014-06-29T11:51:54Z</time>
      </trkpt>
      <trkpt lat="46.73293" lon="5.89797">
        <ele>576.6</ele>
        <time>2014-06-29T11:52:00Z</time>
      </trkpt>
      <trkpt lat="46.73307" lon="5.89794">
        <ele>574.8</ele>
        <time>2014-06-29T11:52:03Z</time>
      </trkpt>
      <trkpt lat="46.73318" lon="5.89794">
        <ele>573.8</ele>
        <time>2014-06-29T11:52:05Z</time>
      </trkpt>
      <trkpt lat="46.73328" lon="5.89791">
        <ele>572.6</ele>
        <time>2014-06-29T11:52:07Z</time>
      </trkpt>
      <trkpt lat="46.73339" lon="5.89786">
        <ele>571.5</ele>
        <time>2014-06-29T11:52:09Z</time>
      </trkpt>
      <trkpt lat="46.73347" lon="5.89777">
        <ele>570.5</ele>
        <time>2014-06-29T11:52:11Z</time>
      </trkpt>
      <trkpt lat="46.73359" lon="5.89765">
        <ele>569.4</ele>
        <time>2014-06-29T11:52:13Z</time>
      </trkpt>
      <trkpt lat="46.73372" lon="5.89754">
        <ele>568.6</ele>
        <time>2014-06-29T11:52:15Z</time>
      </trkpt>
      <trkpt lat="46.73381" lon="5.8975">
        <ele>568.2</ele>
        <time>2014-06-29T11:52:16Z</time>
      </trkpt>
      <trkpt lat="46.73395" lon="5.89743">
        <ele>567.5</ele>
        <time>2014-06-29T11:52:18Z</time>
      </trkpt>
      <trkpt lat="46.73407" lon="5.89732">
        <ele>566.6</ele>
        <time>2014-06-29T11:52:20Z</time>
      </trkpt>
      <trkpt lat="46.73416" lon="5.89721">
        <ele>566</ele>
        <time>2014-06-29T11:52:22Z</time>
      </trkpt>
      <trkpt lat="46.73422" lon="5.89712">
        <ele>565.5</ele>
        <time>2014-06-29T11:52:24Z</time>
      </trkpt>
      <trkpt lat="46.73433" lon="5.897">
        <ele>564.9</ele>
        <time>2014-06-29T11:52:27Z</time>
      </trkpt>
      <trkpt lat="46.73441" lon="5.89689">
        <ele>564.1</ele>
        <time>2014-06-29T11:52:29Z</time>
      </trkpt>
      <trkpt lat="46.7345" lon="5.89676">
        <ele>563.5</ele>
        <time>2014-06-29T11:52:31Z</time>
      </trkpt>
      <trkpt lat="46.73459" lon="5.89661">
        <ele>563.4</ele>
        <time>2014-06-29T11:52:33Z</time>
      </trkpt>
      <trkpt lat="46.73467" lon="5.89647">
        <ele>563</ele>
        <time>2014-06-29T11:52:35Z</time>
      </trkpt>
      <trkpt lat="46.73476" lon="5.89631">
        <ele>562.2</ele>
        <time>2014-06-29T11:52:37Z</time>
      </trkpt>
      <trkpt lat="46.73486" lon="5.89614">
        <ele>561.3</ele>
        <time>2014-06-29T11:52:39Z</time>
      </trkpt>
      <trkpt lat="46.73494" lon="5.89595">
        <ele>559.9</ele>
        <time>2014-06-29T11:52:41Z</time>
      </trkpt>
      <trkpt lat="46.73503" lon="5.89573">
        <ele>558.6</ele>
        <time>2014-06-29T11:52:43Z</time>
      </trkpt>
      <trkpt lat="46.7351" lon="5.89552">
        <ele>557.1</ele>
        <time>2014-06-29T11:52:45Z</time>
      </trkpt>
      <trkpt lat="46.73514" lon="5.89532">
        <ele>555.4</ele>
        <time>2014-06-29T11:52:47Z</time>
      </trkpt>
      <trkpt lat="46.73519" lon="5.89516">
        <ele>553.5</ele>
        <time>2014-06-29T11:52:49Z</time>
      </trkpt>
      <trkpt lat="46.73528" lon="5.8951">
        <ele>551.3</ele>
        <time>2014-06-29T11:52:52Z</time>
      </trkpt>
      <trkpt lat="46.73537" lon="5.8952">
        <ele>549.9</ele>
        <time>2014-06-29T11:52:55Z</time>
      </trkpt>
      <trkpt lat="46.73555" lon="5.89543">
        <ele>548.9</ele>
        <time>2014-06-29T11:53:01Z</time>
      </trkpt>
      <trkpt lat="46.73565" lon="5.89552">
        <ele>549.1</ele>
        <time>2014-06-29T11:53:04Z</time>
      </trkpt>
      <trkpt lat="46.73576" lon="5.8956">
        <ele>549.4</ele>
        <time>2014-06-29T11:53:07Z</time>
      </trkpt>
      <trkpt lat="46.73587" lon="5.89568">
        <ele>549.3</ele>
        <time>2014-06-29T11:53:10Z</time>
      </trkpt>
      <trkpt lat="46.73597" lon="5.89576">
        <ele>549.2</ele>
        <time>2014-06-29T11:53:13Z</time>
      </trkpt>
      <trkpt lat="46.73608" lon="5.89585">
        <ele>549.3</ele>
        <time>2014-06-29T11:53:16Z</time>
      </trkpt>
      <trkpt lat="46.73617" lon="5.89595">
        <ele>549.3</ele>
        <time>2014-06-29T11:53:19Z</time>
      </trkpt>
      <trkpt lat="46.73627" lon="5.89606">
        <ele>549.2</ele>
        <time>2014-06-29T11:53:22Z</time>
      </trkpt>
      <trkpt lat="46.73634" lon="5.89615">
        <ele>549.2</ele>
        <time>2014-06-29T11:53:24Z</time>
      </trkpt>
      <trkpt lat="46.73642" lon="5.89625">
        <ele>549.2</ele>
        <time>2014-06-29T11:53:26Z</time>
      </trkpt>
      <trkpt lat="46.7365" lon="5.89637">
        <ele>548.9</ele>
        <time>2014-06-29T11:53:28Z</time>
      </trkpt>
      <trkpt lat="46.73658" lon="5.8965">
        <ele>548.2</ele>
        <time>2014-06-29T11:53:30Z</time>
      </trkpt>
      <trkpt lat="46.73666" lon="5.89665">
        <ele>547.8</ele>
        <time>2014-06-29T11:53:32Z</time>
      </trkpt>
      <trkpt lat="46.73675" lon="5.8968">
        <ele>547.4</ele>
        <time>2014-06-29T11:53:34Z</time>
      </trkpt>
      <trkpt lat="46.73684" lon="5.89694">
        <ele>546.8</ele>
        <time>2014-06-29T11:53:36Z</time>
      </trkpt>
      <trkpt lat="46.73692" lon="5.89707">
        <ele>546</ele>
        <time>2014-06-29T11:53:38Z</time>
      </trkpt>
      <trkpt lat="46.737" lon="5.8972">
        <ele>546</ele>
        <time>2014-06-29T11:53:40Z</time>
      </trkpt>
      <trkpt lat="46.73707" lon="5.89732">
        <ele>545.9</ele>
        <time>2014-06-29T11:53:42Z</time>
      </trkpt>
      <trkpt lat="46.73714" lon="5.89745">
        <ele>545.9</ele>
        <time>2014-06-29T11:53:44Z</time>
      </trkpt>
      <trkpt lat="46.73722" lon="5.89758">
        <ele>545.8</ele>
        <time>2014-06-29T11:53:46Z</time>
      </trkpt>
      <trkpt lat="46.73729" lon="5.8977">
        <ele>545.7</ele>
        <time>2014-06-29T11:53:48Z</time>
      </trkpt>
      <trkpt lat="46.73736" lon="5.89783">
        <ele>545.5</ele>
        <time>2014-06-29T11:53:50Z</time>
      </trkpt>
      <trkpt lat="46.73743" lon="5.89794">
        <ele>545.1</ele>
        <time>2014-06-29T11:53:52Z</time>
      </trkpt>
      <trkpt lat="46.7375" lon="5.89806">
        <ele>545.2</ele>
        <time>2014-06-29T11:53:54Z</time>
      </trkpt>
      <trkpt lat="46.73756" lon="5.89818">
        <ele>545.2</ele>
        <time>2014-06-29T11:53:56Z</time>
      </trkpt>
      <trkpt lat="46.7377" lon="5.89841">
        <ele>545.5</ele>
        <time>2014-06-29T11:54:00Z</time>
      </trkpt>
      <trkpt lat="46.73777" lon="5.89853">
        <ele>545.4</ele>
        <time>2014-06-29T11:54:02Z</time>
      </trkpt>
      <trkpt lat="46.73783" lon="5.89865">
        <ele>545.4</ele>
        <time>2014-06-29T11:54:04Z</time>
      </trkpt>
      <trkpt lat="46.7379" lon="5.89877">
        <ele>545.6</ele>
        <time>2014-06-29T11:54:06Z</time>
      </trkpt>
      <trkpt lat="46.73797" lon="5.89888">
        <ele>545.7</ele>
        <time>2014-06-29T11:54:08Z</time>
      </trkpt>
      <trkpt lat="46.73801" lon="5.899">
        <ele>545.7</ele>
        <time>2014-06-29T11:54:10Z</time>
      </trkpt>
      <trkpt lat="46.73803" lon="5.89914">
        <ele>545.5</ele>
        <time>2014-06-29T11:54:12Z</time>
      </trkpt>
      <trkpt lat="46.73805" lon="5.89929">
        <ele>545.7</ele>
        <time>2014-06-29T11:54:14Z</time>
      </trkpt>
      <trkpt lat="46.73808" lon="5.89944">
        <ele>545.9</ele>
        <time>2014-06-29T11:54:16Z</time>
      </trkpt>
      <trkpt lat="46.7381" lon="5.89958">
        <ele>546.1</ele>
        <time>2014-06-29T11:54:18Z</time>
      </trkpt>
      <trkpt lat="46.73811" lon="5.89972">
        <ele>546</ele>
        <time>2014-06-29T11:54:20Z</time>
      </trkpt>
      <trkpt lat="46.73812" lon="5.89986">
        <ele>546.2</ele>
        <time>2014-06-29T11:54:22Z</time>
      </trkpt>
      <trkpt lat="46.73813" lon="5.9">
        <ele>546.2</ele>
        <time>2014-06-29T11:54:24Z</time>
      </trkpt>
      <trkpt lat="46.73816" lon="5.90015">
        <ele>546.4</ele>
        <time>2014-06-29T11:54:26Z</time>
      </trkpt>
      <trkpt lat="46.73817" lon="5.90029">
        <ele>546.4</ele>
        <time>2014-06-29T11:54:28Z</time>
      </trkpt>
      <trkpt lat="46.73819" lon="5.90042">
        <ele>546.8</ele>
        <time>2014-06-29T11:54:30Z</time>
      </trkpt>
      <trkpt lat="46.73821" lon="5.90056">
        <ele>547.1</ele>
        <time>2014-06-29T11:54:32Z</time>
      </trkpt>
      <trkpt lat="46.73824" lon="5.90069">
        <ele>547.2</ele>
        <time>2014-06-29T11:54:34Z</time>
      </trkpt>
      <trkpt lat="46.73825" lon="5.90083">
        <ele>547.3</ele>
        <time>2014-06-29T11:54:36Z</time>
      </trkpt>
      <trkpt lat="46.73827" lon="5.90096">
        <ele>547.6</ele>
        <time>2014-06-29T11:54:38Z</time>
      </trkpt>
      <trkpt lat="46.73829" lon="5.90109">
        <ele>547.7</ele>
        <time>2014-06-29T11:54:40Z</time>
      </trkpt>
      <trkpt lat="46.73833" lon="5.90128">
        <ele>548.4</ele>
        <time>2014-06-29T11:54:43Z</time>
      </trkpt>
      <trkpt lat="46.73836" lon="5.90147">
        <ele>549</ele>
        <time>2014-06-29T11:54:46Z</time>
      </trkpt>
      <trkpt lat="46.73838" lon="5.90166">
        <ele>549.2</ele>
        <time>2014-06-29T11:54:49Z</time>
      </trkpt>
      <trkpt lat="46.73841" lon="5.90185">
        <ele>549.5</ele>
        <time>2014-06-29T11:54:52Z</time>
      </trkpt>
      <trkpt lat="46.73843" lon="5.90203">
        <ele>550.2</ele>
        <time>2014-06-29T11:54:55Z</time>
      </trkpt>
      <trkpt lat="46.73846" lon="5.90216">
        <ele>550.2</ele>
        <time>2014-06-29T11:54:57Z</time>
      </trkpt>
      <trkpt lat="46.7385" lon="5.90242">
        <ele>551</ele>
        <time>2014-06-29T11:55:01Z</time>
      </trkpt>
      <trkpt lat="46.73852" lon="5.90255">
        <ele>551.2</ele>
        <time>2014-06-29T11:55:03Z</time>
      </trkpt>
      <trkpt lat="46.73854" lon="5.90268">
        <ele>551.3</ele>
        <time>2014-06-29T11:55:05Z</time>
      </trkpt>
      <trkpt lat="46.73856" lon="5.90281">
        <ele>551.4</ele>
        <time>2014-06-29T11:55:07Z</time>
      </trkpt>
      <trkpt lat="46.73858" lon="5.90295">
        <ele>551.3</ele>
        <time>2014-06-29T11:55:09Z</time>
      </trkpt>
      <trkpt lat="46.7386" lon="5.90308">
        <ele>551.2</ele>
        <time>2014-06-29T11:55:11Z</time>
      </trkpt>
      <trkpt lat="46.73864" lon="5.90327">
        <ele>551.5</ele>
        <time>2014-06-29T11:55:14Z</time>
      </trkpt>
      <trkpt lat="46.73867" lon="5.90345">
        <ele>551.9</ele>
        <time>2014-06-29T11:55:17Z</time>
      </trkpt>
      <trkpt lat="46.7387" lon="5.90363">
        <ele>552</ele>
        <time>2014-06-29T11:55:20Z</time>
      </trkpt>
      <trkpt lat="46.73872" lon="5.90382">
        <ele>552.3</ele>
        <time>2014-06-29T11:55:23Z</time>
      </trkpt>
      <trkpt lat="46.73874" lon="5.90395">
        <ele>552.1</ele>
        <time>2014-06-29T11:55:25Z</time>
      </trkpt>
      <trkpt lat="46.73878" lon="5.90408">
        <ele>552.2</ele>
        <time>2014-06-29T11:55:27Z</time>
      </trkpt>
      <trkpt lat="46.73882" lon="5.90421">
        <ele>552.3</ele>
        <time>2014-06-29T11:55:29Z</time>
      </trkpt>
      <trkpt lat="46.73886" lon="5.90434">
        <ele>552.2</ele>
        <time>2014-06-29T11:55:31Z</time>
      </trkpt>
      <trkpt lat="46.73891" lon="5.90447">
        <ele>552.2</ele>
        <time>2014-06-29T11:55:33Z</time>
      </trkpt>
      <trkpt lat="46.73896" lon="5.9046">
        <ele>552.1</ele>
        <time>2014-06-29T11:55:35Z</time>
      </trkpt>
      <trkpt lat="46.73901" lon="5.90474">
        <ele>552.3</ele>
        <time>2014-06-29T11:55:37Z</time>
      </trkpt>
      <trkpt lat="46.73906" lon="5.90487">
        <ele>552.3</ele>
        <time>2014-06-29T11:55:39Z</time>
      </trkpt>
      <trkpt lat="46.73911" lon="5.905">
        <ele>552.8</ele>
        <time>2014-06-29T11:55:41Z</time>
      </trkpt>
      <trkpt lat="46.73916" lon="5.90513">
        <ele>552.6</ele>
        <time>2014-06-29T11:55:43Z</time>
      </trkpt>
      <trkpt lat="46.7392" lon="5.90524">
        <ele>552.9</ele>
        <time>2014-06-29T11:55:45Z</time>
      </trkpt>
      <trkpt lat="46.73927" lon="5.90541">
        <ele>553.5</ele>
        <time>2014-06-29T11:55:48Z</time>
      </trkpt>
      <trkpt lat="46.73933" lon="5.90558">
        <ele>553.9</ele>
        <time>2014-06-29T11:55:51Z</time>
      </trkpt>
      <trkpt lat="46.73939" lon="5.90573">
        <ele>554</ele>
        <time>2014-06-29T11:55:54Z</time>
      </trkpt>
      <trkpt lat="46.73944" lon="5.90588">
        <ele>554.2</ele>
        <time>2014-06-29T11:55:57Z</time>
      </trkpt>
      <trkpt lat="46.7395" lon="5.90605">
        <ele>554.4</ele>
        <time>2014-06-29T11:56:00Z</time>
      </trkpt>
      <trkpt lat="46.7396" lon="5.90635">
        <ele>554.3</ele>
        <time>2014-06-29T11:56:05Z</time>
      </trkpt>
      <trkpt lat="46.73964" lon="5.9065">
        <ele>554.4</ele>
        <time>2014-06-29T11:56:07Z</time>
      </trkpt>
      <trkpt lat="46.73968" lon="5.90666">
        <ele>554</ele>
        <time>2014-06-29T11:56:09Z</time>
      </trkpt>
      <trkpt lat="46.73973" lon="5.90685">
        <ele>553.5</ele>
        <time>2014-06-29T11:56:11Z</time>
      </trkpt>
      <trkpt lat="46.73978" lon="5.90705">
        <ele>552.9</ele>
        <time>2014-06-29T11:56:13Z</time>
      </trkpt>
      <trkpt lat="46.73983" lon="5.90726">
        <ele>552.2</ele>
        <time>2014-06-29T11:56:15Z</time>
      </trkpt>
      <trkpt lat="46.7399" lon="5.90748">
        <ele>551.7</ele>
        <time>2014-06-29T11:56:17Z</time>
      </trkpt>
      <trkpt lat="46.73998" lon="5.90771">
        <ele>551.2</ele>
        <time>2014-06-29T11:56:19Z</time>
      </trkpt>
      <trkpt lat="46.74006" lon="5.90793">
        <ele>550.5</ele>
        <time>2014-06-29T11:56:21Z</time>
      </trkpt>
      <trkpt lat="46.74016" lon="5.90816">
        <ele>549.7</ele>
        <time>2014-06-29T11:56:23Z</time>
      </trkpt>
      <trkpt lat="46.74025" lon="5.90838">
        <ele>548.9</ele>
        <time>2014-06-29T11:56:25Z</time>
      </trkpt>
      <trkpt lat="46.7403" lon="5.90849">
        <ele>548.5</ele>
        <time>2014-06-29T11:56:26Z</time>
      </trkpt>
      <trkpt lat="46.74035" lon="5.9086">
        <ele>548.2</ele>
        <time>2014-06-29T11:56:27Z</time>
      </trkpt>
      <trkpt lat="46.74045" lon="5.90883">
        <ele>547.5</ele>
        <time>2014-06-29T11:56:29Z</time>
      </trkpt>
      <trkpt lat="46.7405" lon="5.90894">
        <ele>547.1</ele>
        <time>2014-06-29T11:56:30Z</time>
      </trkpt>
      <trkpt lat="46.74054" lon="5.90905">
        <ele>546.7</ele>
        <time>2014-06-29T11:56:31Z</time>
      </trkpt>
      <trkpt lat="46.74064" lon="5.90927">
        <ele>545.8</ele>
        <time>2014-06-29T11:56:33Z</time>
      </trkpt>
      <trkpt lat="46.74074" lon="5.90948">
        <ele>545</ele>
        <time>2014-06-29T11:56:35Z</time>
      </trkpt>
      <trkpt lat="46.74084" lon="5.90968">
        <ele>544.4</ele>
        <time>2014-06-29T11:56:37Z</time>
      </trkpt>
      <trkpt lat="46.74094" lon="5.90987">
        <ele>543.9</ele>
        <time>2014-06-29T11:56:39Z</time>
      </trkpt>
      <trkpt lat="46.74104" lon="5.91004">
        <ele>543.2</ele>
        <time>2014-06-29T11:56:41Z</time>
      </trkpt>
      <trkpt lat="46.74111" lon="5.91024">
        <ele>542.6</ele>
        <time>2014-06-29T11:56:43Z</time>
      </trkpt>
      <trkpt lat="46.74113" lon="5.91046">
        <ele>542</ele>
        <time>2014-06-29T11:56:45Z</time>
      </trkpt>
      <trkpt lat="46.74114" lon="5.91066">
        <ele>541.5</ele>
        <time>2014-06-29T11:56:47Z</time>
      </trkpt>
      <trkpt lat="46.74112" lon="5.91085">
        <ele>541</ele>
        <time>2014-06-29T11:56:49Z</time>
      </trkpt>
      <trkpt lat="46.74108" lon="5.91102">
        <ele>540.9</ele>
        <time>2014-06-29T11:56:51Z</time>
      </trkpt>
      <trkpt lat="46.74102" lon="5.91118">
        <ele>540.6</ele>
        <time>2014-06-29T11:56:53Z</time>
      </trkpt>
      <trkpt lat="46.74097" lon="5.91135">
        <ele>540.4</ele>
        <time>2014-06-29T11:56:55Z</time>
      </trkpt>
      <trkpt lat="46.74097" lon="5.91152">
        <ele>540.2</ele>
        <time>2014-06-29T11:56:57Z</time>
      </trkpt>
      <trkpt lat="46.74099" lon="5.91169">
        <ele>540.1</ele>
        <time>2014-06-29T11:56:59Z</time>
      </trkpt>
      <trkpt lat="46.74104" lon="5.91185">
        <ele>539.9</ele>
        <time>2014-06-29T11:57:01Z</time>
      </trkpt>
      <trkpt lat="46.74115" lon="5.91215">
        <ele>540</ele>
        <time>2014-06-29T11:57:05Z</time>
      </trkpt>
      <trkpt lat="46.7412" lon="5.9123">
        <ele>539.7</ele>
        <time>2014-06-29T11:57:07Z</time>
      </trkpt>
      <trkpt lat="46.74123" lon="5.91245">
        <ele>539.6</ele>
        <time>2014-06-29T11:57:09Z</time>
      </trkpt>
      <trkpt lat="46.74123" lon="5.9126">
        <ele>539.8</ele>
        <time>2014-06-29T11:57:11Z</time>
      </trkpt>
      <trkpt lat="46.74122" lon="5.91274">
        <ele>540.1</ele>
        <time>2014-06-29T11:57:13Z</time>
      </trkpt>
      <trkpt lat="46.74117" lon="5.9129">
        <ele>540.6</ele>
        <time>2014-06-29T11:57:16Z</time>
      </trkpt>
      <trkpt lat="46.74109" lon="5.91302">
        <ele>540.8</ele>
        <time>2014-06-29T11:57:19Z</time>
      </trkpt>
      <trkpt lat="46.74101" lon="5.91313">
        <ele>541.5</ele>
        <time>2014-06-29T11:57:22Z</time>
      </trkpt>
      <trkpt lat="46.74092" lon="5.9132">
        <ele>542.2</ele>
        <time>2014-06-29T11:57:25Z</time>
      </trkpt>
      <trkpt lat="46.74082" lon="5.91325">
        <ele>542.6</ele>
        <time>2014-06-29T11:57:28Z</time>
      </trkpt>
      <trkpt lat="46.74071" lon="5.91328">
        <ele>543.3</ele>
        <time>2014-06-29T11:57:31Z</time>
      </trkpt>
      <trkpt lat="46.7406" lon="5.91332">
        <ele>543.9</ele>
        <time>2014-06-29T11:57:35Z</time>
      </trkpt>
      <trkpt lat="46.7405" lon="5.91336">
        <ele>544.3</ele>
        <time>2014-06-29T11:57:38Z</time>
      </trkpt>
      <trkpt lat="46.74041" lon="5.91341">
        <ele>544.7</ele>
        <time>2014-06-29T11:57:41Z</time>
      </trkpt>
      <trkpt lat="46.74032" lon="5.91344">
        <ele>545.3</ele>
        <time>2014-06-29T11:57:44Z</time>
      </trkpt>
      <trkpt lat="46.74021" lon="5.91349">
        <ele>546.1</ele>
        <time>2014-06-29T11:57:48Z</time>
      </trkpt>
      <trkpt lat="46.74011" lon="5.91357">
        <ele>546.7</ele>
        <time>2014-06-29T11:57:51Z</time>
      </trkpt>
      <trkpt lat="46.74004" lon="5.91368">
        <ele>547.1</ele>
        <time>2014-06-29T11:57:54Z</time>
      </trkpt>
      <trkpt lat="46.73996" lon="5.91379">
        <ele>547.2</ele>
        <time>2014-06-29T11:57:57Z</time>
      </trkpt>
      <trkpt lat="46.73991" lon="5.91392">
        <ele>547.5</ele>
        <time>2014-06-29T11:58:00Z</time>
      </trkpt>
      <trkpt lat="46.73988" lon="5.91406">
        <ele>548.1</ele>
        <time>2014-06-29T11:58:03Z</time>
      </trkpt>
      <trkpt lat="46.73989" lon="5.91434">
        <ele>548.9</ele>
        <time>2014-06-29T11:58:09Z</time>
      </trkpt>
      <trkpt lat="46.73993" lon="5.91447">
        <ele>549.6</ele>
        <time>2014-06-29T11:58:12Z</time>
      </trkpt>
      <trkpt lat="46.73998" lon="5.91457">
        <ele>550.2</ele>
        <time>2014-06-29T11:58:15Z</time>
      </trkpt>
      <trkpt lat="46.74004" lon="5.91468">
        <ele>550.4</ele>
        <time>2014-06-29T11:58:18Z</time>
      </trkpt>
      <trkpt lat="46.74012" lon="5.91476">
        <ele>550.9</ele>
        <time>2014-06-29T11:58:21Z</time>
      </trkpt>
      <trkpt lat="46.74021" lon="5.91484">
        <ele>551.4</ele>
        <time>2014-06-29T11:58:25Z</time>
      </trkpt>
      <trkpt lat="46.74029" lon="5.9149">
        <ele>552.3</ele>
        <time>2014-06-29T11:58:31Z</time>
      </trkpt>
      <trkpt lat="46.74038" lon="5.91495">
        <ele>553</ele>
        <time>2014-06-29T11:58:37Z</time>
      </trkpt>
      <trkpt lat="46.74046" lon="5.91501">
        <ele>553.1</ele>
        <time>2014-06-29T11:58:41Z</time>
      </trkpt>
      <trkpt lat="46.74057" lon="5.91492">
        <ele>553.1</ele>
        <time>2014-06-29T11:58:45Z</time>
      </trkpt>
      <trkpt lat="46.74064" lon="5.91483">
        <ele>553</ele>
        <time>2014-06-29T11:58:48Z</time>
      </trkpt>
      <trkpt lat="46.74071" lon="5.91472">
        <ele>552.9</ele>
        <time>2014-06-29T11:58:51Z</time>
      </trkpt>
      <trkpt lat="46.74078" lon="5.9146">
        <ele>553.3</ele>
        <time>2014-06-29T11:58:54Z</time>
      </trkpt>
      <trkpt lat="46.74085" lon="5.91448">
        <ele>553.5</ele>
        <time>2014-06-29T11:58:57Z</time>
      </trkpt>
      <trkpt lat="46.74092" lon="5.91436">
        <ele>553.7</ele>
        <time>2014-06-29T11:59:00Z</time>
      </trkpt>
      <trkpt lat="46.741" lon="5.91425">
        <ele>553.7</ele>
        <time>2014-06-29T11:59:03Z</time>
      </trkpt>
      <trkpt lat="46.74108" lon="5.91412">
        <ele>553.8</ele>
        <time>2014-06-29T11:59:06Z</time>
      </trkpt>
      <trkpt lat="46.74123" lon="5.91389">
        <ele>554.4</ele>
        <time>2014-06-29T11:59:12Z</time>
      </trkpt>
      <trkpt lat="46.74133" lon="5.91376">
        <ele>554.4</ele>
        <time>2014-06-29T11:59:15Z</time>
      </trkpt>
      <trkpt lat="46.7414" lon="5.91368">
        <ele>554.4</ele>
        <time>2014-06-29T11:59:17Z</time>
      </trkpt>
      <trkpt lat="46.74147" lon="5.91359">
        <ele>554.5</ele>
        <time>2014-06-29T11:59:19Z</time>
      </trkpt>
      <trkpt lat="46.74154" lon="5.9135">
        <ele>554.3</ele>
        <time>2014-06-29T11:59:21Z</time>
      </trkpt>
      <trkpt lat="46.7416" lon="5.91341">
        <ele>554.4</ele>
        <time>2014-06-29T11:59:23Z</time>
      </trkpt>
      <trkpt lat="46.74168" lon="5.91331">
        <ele>554.4</ele>
        <time>2014-06-29T11:59:25Z</time>
      </trkpt>
      <trkpt lat="46.74175" lon="5.91322">
        <ele>554.3</ele>
        <time>2014-06-29T11:59:27Z</time>
      </trkpt>
      <trkpt lat="46.74182" lon="5.91312">
        <ele>554.1</ele>
        <time>2014-06-29T11:59:29Z</time>
      </trkpt>
      <trkpt lat="46.74189" lon="5.91302">
        <ele>554</ele>
        <time>2014-06-29T11:59:31Z</time>
      </trkpt>
      <trkpt lat="46.74197" lon="5.91292">
        <ele>553.9</ele>
        <time>2014-06-29T11:59:33Z</time>
      </trkpt>
      <trkpt lat="46.74205" lon="5.91282">
        <ele>554</ele>
        <time>2014-06-29T11:59:35Z</time>
      </trkpt>
      <trkpt lat="46.74215" lon="5.91275">
        <ele>553.5</ele>
        <time>2014-06-29T11:59:37Z</time>
      </trkpt>
      <trkpt lat="46.74224" lon="5.91277">
        <ele>553.6</ele>
        <time>2014-06-29T11:59:39Z</time>
      </trkpt>
      <trkpt lat="46.74233" lon="5.91284">
        <ele>553.4</ele>
        <time>2014-06-29T11:59:41Z</time>
      </trkpt>
      <trkpt lat="46.74239" lon="5.91296">
        <ele>553.4</ele>
        <time>2014-06-29T11:59:43Z</time>
      </trkpt>
      <trkpt lat="46.74246" lon="5.91308">
        <ele>553.7</ele>
        <time>2014-06-29T11:59:45Z</time>
      </trkpt>
      <trkpt lat="46.74252" lon="5.91321">
        <ele>554</ele>
        <time>2014-06-29T11:59:47Z</time>
      </trkpt>
      <trkpt lat="46.74258" lon="5.91334">
        <ele>554</ele>
        <time>2014-06-29T11:59:49Z</time>
      </trkpt>
      <trkpt lat="46.74264" lon="5.91346">
        <ele>554.1</ele>
        <time>2014-06-29T11:59:51Z</time>
      </trkpt>
      <trkpt lat="46.7427" lon="5.91359">
        <ele>554.3</ele>
        <time>2014-06-29T11:59:53Z</time>
      </trkpt>
      <trkpt lat="46.74276" lon="5.91371">
        <ele>554.3</ele>
        <time>2014-06-29T11:59:55Z</time>
      </trkpt>
      <trkpt lat="46.74283" lon="5.91383">
        <ele>554.5</ele>
        <time>2014-06-29T11:59:57Z</time>
      </trkpt>
      <trkpt lat="46.74288" lon="5.91395">
        <ele>554.8</ele>
        <time>2014-06-29T11:59:59Z</time>
      </trkpt>
      <trkpt lat="46.74295" lon="5.91406">
        <ele>554.9</ele>
        <time>2014-06-29T12:00:01Z</time>
      </trkpt>
      <trkpt lat="46.74302" lon="5.91417">
        <ele>554.9</ele>
        <time>2014-06-29T12:00:03Z</time>
      </trkpt>
      <trkpt lat="46.74308" lon="5.91428">
        <ele>555.1</ele>
        <time>2014-06-29T12:00:05Z</time>
      </trkpt>
      <trkpt lat="46.74314" lon="5.9144">
        <ele>555.2</ele>
        <time>2014-06-29T12:00:07Z</time>
      </trkpt>
      <trkpt lat="46.74326" lon="5.91467">
        <ele>555.3</ele>
        <time>2014-06-29T12:00:11Z</time>
      </trkpt>
      <trkpt lat="46.74333" lon="5.91478">
        <ele>555.7</ele>
        <time>2014-06-29T12:00:13Z</time>
      </trkpt>
      <trkpt lat="46.74339" lon="5.91489">
        <ele>555.5</ele>
        <time>2014-06-29T12:00:15Z</time>
      </trkpt>
      <trkpt lat="46.74345" lon="5.915">
        <ele>555.5</ele>
        <time>2014-06-29T12:00:17Z</time>
      </trkpt>
      <trkpt lat="46.74351" lon="5.91511">
        <ele>555.8</ele>
        <time>2014-06-29T12:00:19Z</time>
      </trkpt>
      <trkpt lat="46.74359" lon="5.91526">
        <ele>555.9</ele>
        <time>2014-06-29T12:00:22Z</time>
      </trkpt>
      <trkpt lat="46.74369" lon="5.91528">
        <ele>556</ele>
        <time>2014-06-29T12:00:25Z</time>
      </trkpt>
      <trkpt lat="46.74377" lon="5.91515">
        <ele>556.1</ele>
        <time>2014-06-29T12:00:28Z</time>
      </trkpt>
      <trkpt lat="46.74381" lon="5.91503">
        <ele>556.3</ele>
        <time>2014-06-29T12:00:30Z</time>
      </trkpt>
      <trkpt lat="46.74387" lon="5.91492">
        <ele>556.5</ele>
        <time>2014-06-29T12:00:32Z</time>
      </trkpt>
      <trkpt lat="46.74392" lon="5.91482">
        <ele>556.6</ele>
        <time>2014-06-29T12:00:34Z</time>
      </trkpt>
      <trkpt lat="46.74397" lon="5.9147">
        <ele>556.7</ele>
        <time>2014-06-29T12:00:36Z</time>
      </trkpt>
      <trkpt lat="46.74403" lon="5.91459">
        <ele>556.7</ele>
        <time>2014-06-29T12:00:38Z</time>
      </trkpt>
      <trkpt lat="46.74409" lon="5.91447">
        <ele>556.8</ele>
        <time>2014-06-29T12:00:40Z</time>
      </trkpt>
      <trkpt lat="46.74415" lon="5.91435">
        <ele>556.8</ele>
        <time>2014-06-29T12:00:42Z</time>
      </trkpt>
      <trkpt lat="46.74421" lon="5.91424">
        <ele>556.7</ele>
        <time>2014-06-29T12:00:44Z</time>
      </trkpt>
      <trkpt lat="46.74427" lon="5.91413">
        <ele>556.4</ele>
        <time>2014-06-29T12:00:46Z</time>
      </trkpt>
      <trkpt lat="46.74434" lon="5.914">
        <ele>556.3</ele>
        <time>2014-06-29T12:00:49Z</time>
      </trkpt>
      <trkpt lat="46.7444" lon="5.91385">
        <ele>556</ele>
        <time>2014-06-29T12:00:53Z</time>
      </trkpt>
      <trkpt lat="46.74447" lon="5.91374">
        <ele>556.1</ele>
        <time>2014-06-29T12:00:56Z</time>
      </trkpt>
      <trkpt lat="46.74455" lon="5.91359">
        <ele>556.2</ele>
        <time>2014-06-29T12:00:59Z</time>
      </trkpt>
      <trkpt lat="46.74462" lon="5.91345">
        <ele>556.1</ele>
        <time>2014-06-29T12:01:02Z</time>
      </trkpt>
      <trkpt lat="46.7447" lon="5.91331">
        <ele>555.9</ele>
        <time>2014-06-29T12:01:05Z</time>
      </trkpt>
      <trkpt lat="46.74479" lon="5.91317">
        <ele>555.7</ele>
        <time>2014-06-29T12:01:08Z</time>
      </trkpt>
      <trkpt lat="46.74492" lon="5.91298">
        <ele>555.1</ele>
        <time>2014-06-29T12:01:12Z</time>
      </trkpt>
      <trkpt lat="46.74499" lon="5.91287">
        <ele>555.2</ele>
        <time>2014-06-29T12:01:14Z</time>
      </trkpt>
      <trkpt lat="46.74505" lon="5.91276">
        <ele>554.8</ele>
        <time>2014-06-29T12:01:16Z</time>
      </trkpt>
      <trkpt lat="46.74511" lon="5.91265">
        <ele>554.4</ele>
        <time>2014-06-29T12:01:18Z</time>
      </trkpt>
      <trkpt lat="46.74518" lon="5.91253">
        <ele>553.9</ele>
        <time>2014-06-29T12:01:20Z</time>
      </trkpt>
      <trkpt lat="46.74524" lon="5.9124">
        <ele>553.8</ele>
        <time>2014-06-29T12:01:22Z</time>
      </trkpt>
      <trkpt lat="46.7453" lon="5.91227">
        <ele>553.4</ele>
        <time>2014-06-29T12:01:24Z</time>
      </trkpt>
      <trkpt lat="46.74537" lon="5.91214">
        <ele>553.1</ele>
        <time>2014-06-29T12:01:26Z</time>
      </trkpt>
      <trkpt lat="46.74544" lon="5.91201">
        <ele>552.9</ele>
        <time>2014-06-29T12:01:28Z</time>
      </trkpt>
      <trkpt lat="46.74551" lon="5.91189">
        <ele>552.4</ele>
        <time>2014-06-29T12:01:30Z</time>
      </trkpt>
      <trkpt lat="46.74557" lon="5.91175">
        <ele>551.9</ele>
        <time>2014-06-29T12:01:32Z</time>
      </trkpt>
      <trkpt lat="46.74565" lon="5.91162">
        <ele>551.6</ele>
        <time>2014-06-29T12:01:34Z</time>
      </trkpt>
      <trkpt lat="46.74573" lon="5.91148">
        <ele>551.1</ele>
        <time>2014-06-29T12:01:36Z</time>
      </trkpt>
      <trkpt lat="46.74582" lon="5.91133">
        <ele>550.8</ele>
        <time>2014-06-29T12:01:38Z</time>
      </trkpt>
      <trkpt lat="46.7459" lon="5.91117">
        <ele>550.6</ele>
        <time>2014-06-29T12:01:40Z</time>
      </trkpt>
      <trkpt lat="46.74598" lon="5.91103">
        <ele>550.5</ele>
        <time>2014-06-29T12:01:42Z</time>
      </trkpt>
      <trkpt lat="46.74606" lon="5.9109">
        <ele>550.4</ele>
        <time>2014-06-29T12:01:44Z</time>
      </trkpt>
      <trkpt lat="46.74613" lon="5.91077">
        <ele>550</ele>
        <time>2014-06-29T12:01:46Z</time>
      </trkpt>
      <trkpt lat="46.7462" lon="5.91065">
        <ele>549.5</ele>
        <time>2014-06-29T12:01:48Z</time>
      </trkpt>
      <trkpt lat="46.74626" lon="5.91052">
        <ele>549.5</ele>
        <time>2014-06-29T12:01:51Z</time>
      </trkpt>
      <trkpt lat="46.74633" lon="5.91042">
        <ele>548.4</ele>
        <time>2014-06-29T12:02:02Z</time>
      </trkpt>
      <trkpt lat="46.74639" lon="5.91031">
        <ele>548.9</ele>
        <time>2014-06-29T12:02:09Z</time>
      </trkpt>
      <trkpt lat="46.74655" lon="5.91015">
        <ele>549.1</ele>
        <time>2014-06-29T12:02:35Z</time>
      </trkpt>
      <trkpt lat="46.74662" lon="5.91003">
        <ele>549.2</ele>
        <time>2014-06-29T12:02:39Z</time>
      </trkpt>
      <trkpt lat="46.74669" lon="5.90989">
        <ele>549.2</ele>
        <time>2014-06-29T12:02:43Z</time>
      </trkpt>
      <trkpt lat="46.74672" lon="5.90974">
        <ele>549</ele>
        <time>2014-06-29T12:02:47Z</time>
      </trkpt>
      <trkpt lat="46.74681" lon="5.90968">
        <ele>548.7</ele>
        <time>2014-06-29T12:02:51Z</time>
      </trkpt>
      <trkpt lat="46.74692" lon="5.90971">
        <ele>548.8</ele>
        <time>2014-06-29T12:02:55Z</time>
      </trkpt>
      <trkpt lat="46.74701" lon="5.90977">
        <ele>548.4</ele>
        <time>2014-06-29T12:03:02Z</time>
      </trkpt>
      <trkpt lat="46.74705" lon="5.90991">
        <ele>548.7</ele>
        <time>2014-06-29T12:03:06Z</time>
      </trkpt>
      <trkpt lat="46.74708" lon="5.91006">
        <ele>548.4</ele>
        <time>2014-06-29T12:03:10Z</time>
      </trkpt>
      <trkpt lat="46.74714" lon="5.91036">
        <ele>548.3</ele>
        <time>2014-06-29T12:03:19Z</time>
      </trkpt>
      <trkpt lat="46.74715" lon="5.91021">
        <ele>548.7</ele>
        <time>2014-06-29T12:03:32Z</time>
      </trkpt>
      <trkpt lat="46.74723" lon="5.91025">
        <ele>548.7</ele>
        <time>2014-06-29T12:04:16Z</time>
      </trkpt>
      <trkpt lat="46.74732" lon="5.91049">
        <ele>549.1</ele>
        <time>2014-06-29T12:04:41Z</time>
      </trkpt>
      <trkpt lat="46.74735" lon="5.91062">
        <ele>548.8</ele>
        <time>2014-06-29T12:04:53Z</time>
      </trkpt>
      <trkpt lat="46.74736" lon="5.91048">
        <ele>549.6</ele>
        <time>2014-06-29T12:05:12Z</time>
      </trkpt>
      <trkpt lat="46.74745" lon="5.91043">
        <ele>549.5</ele>
        <time>2014-06-29T12:05:18Z</time>
      </trkpt>
      <trkpt lat="46.74733" lon="5.91064">
        <ele>549.1</ele>
        <time>2014-06-29T12:06:12Z</time>
      </trkpt>
      <trkpt lat="46.74733" lon="5.91079">
        <ele>549.3</ele>
        <time>2014-06-29T12:06:16Z</time>
      </trkpt>
      <trkpt lat="46.74735" lon="5.91095">
        <ele>549.9</ele>
        <time>2014-06-29T12:06:20Z</time>
      </trkpt>
      <trkpt lat="46.74738" lon="5.91092">
        <ele>550.5</ele>
        <time>2014-06-29T12:06:31Z</time>
      </trkpt>
      <trkpt lat="46.74736" lon="5.91106">
        <ele>550.2</ele>
        <time>2014-06-29T12:06:41Z</time>
      </trkpt>
      <trkpt lat="46.74739" lon="5.91119">
        <ele>550</ele>
        <time>2014-06-29T12:06:46Z</time>
      </trkpt>
      <trkpt lat="46.7474" lon="5.91134">
        <ele>551.1</ele>
        <time>2014-06-29T12:06:54Z</time>
      </trkpt>
      <trkpt lat="46.74743" lon="5.91148">
        <ele>551.8</ele>
        <time>2014-06-29T12:06:59Z</time>
      </trkpt>
      <trkpt lat="46.74747" lon="5.9116">
        <ele>552.3</ele>
        <time>2014-06-29T12:07:03Z</time>
      </trkpt>
      <trkpt lat="46.74754" lon="5.91171">
        <ele>553</ele>
        <time>2014-06-29T12:07:08Z</time>
      </trkpt>
      <trkpt lat="46.74759" lon="5.91183">
        <ele>553.1</ele>
        <time>2014-06-29T12:07:14Z</time>
      </trkpt>
      <trkpt lat="46.74763" lon="5.91195">
        <ele>553.6</ele>
        <time>2014-06-29T12:07:20Z</time>
      </trkpt>
      <trkpt lat="46.74764" lon="5.91199">
        <ele>556.9</ele>
        <time>2014-06-29T12:18:45Z</time>
      </trkpt>
    </trkseg>
  </trk>
</gpx>